<?xml version="1.0" encoding="UTF-8" standalone="no" ?>
<gpx xmlns="http://www.topografix.com/GPX/1/1" xmlns:xsi="http://www.w3.org/2001/XMLSchema-instance" xsi:schemaLocation="http://www.topografix.com/GPX/1/1 http://www.topografix.com/GPX/1/1/gpx.xsd" version="1.1" creator="VisuGPX - https://www.visugpx.com">
  <metadata>
    <name>Champagnat Cyclisme sur route</name>
  </metadata>
  <trk>
    <name><![CDATA[Champagnat Cyclisme sur route_1]]></name>
    <trkseg>
      <trkpt lat="46.48268" lon="5.36836">
        <ele>272</ele>
        <time>2021-11-20T11:30:57Z</time>
      </trkpt>
      <trkpt lat="46.48259" lon="5.36825">
        <ele>271.6</ele>
        <time>2021-11-20T11:30:58Z</time>
      </trkpt>
      <trkpt lat="46.48248" lon="5.36814">
        <ele>270.8</ele>
        <time>2021-11-20T11:30:59Z</time>
      </trkpt>
      <trkpt lat="46.48229" lon="5.36798">
        <ele>269.2</ele>
        <time>2021-11-20T11:31:01Z</time>
      </trkpt>
      <trkpt lat="46.48221" lon="5.36792">
        <ele>268.6</ele>
        <time>2021-11-20T11:31:02Z</time>
      </trkpt>
      <trkpt lat="46.48211" lon="5.36784">
        <ele>267.8</ele>
        <time>2021-11-20T11:31:03Z</time>
      </trkpt>
      <trkpt lat="46.482" lon="5.36774">
        <ele>266.6</ele>
        <time>2021-11-20T11:31:04Z</time>
      </trkpt>
      <trkpt lat="46.48181" lon="5.36759">
        <ele>265.2</ele>
        <time>2021-11-20T11:31:06Z</time>
      </trkpt>
      <trkpt lat="46.48164" lon="5.36745">
        <ele>263.6</ele>
        <time>2021-11-20T11:31:08Z</time>
      </trkpt>
      <trkpt lat="46.48143" lon="5.36729">
        <ele>262.6</ele>
        <time>2021-11-20T11:31:10Z</time>
      </trkpt>
      <trkpt lat="46.48134" lon="5.36722">
        <ele>262.2</ele>
        <time>2021-11-20T11:31:11Z</time>
      </trkpt>
      <trkpt lat="46.48127" lon="5.36717">
        <ele>261.4</ele>
        <time>2021-11-20T11:31:12Z</time>
      </trkpt>
      <trkpt lat="46.48119" lon="5.36712">
        <ele>260</ele>
        <time>2021-11-20T11:31:14Z</time>
      </trkpt>
      <trkpt lat="46.48109" lon="5.36699">
        <ele>259</ele>
        <time>2021-11-20T11:31:15Z</time>
      </trkpt>
      <trkpt lat="46.48106" lon="5.36691">
        <ele>257.8</ele>
        <time>2021-11-20T11:31:17Z</time>
      </trkpt>
      <trkpt lat="46.48111" lon="5.36675">
        <ele>257.4</ele>
        <time>2021-11-20T11:31:18Z</time>
      </trkpt>
      <trkpt lat="46.48117" lon="5.36668">
        <ele>256.4</ele>
        <time>2021-11-20T11:31:19Z</time>
      </trkpt>
      <trkpt lat="46.48123" lon="5.36662">
        <ele>255.4</ele>
        <time>2021-11-20T11:31:20Z</time>
      </trkpt>
      <trkpt lat="46.4813" lon="5.36657">
        <ele>255.2</ele>
        <time>2021-11-20T11:31:21Z</time>
      </trkpt>
      <trkpt lat="46.48143" lon="5.36646">
        <ele>254.6</ele>
        <time>2021-11-20T11:31:23Z</time>
      </trkpt>
      <trkpt lat="46.48167" lon="5.36623">
        <ele>253.6</ele>
        <time>2021-11-20T11:31:26Z</time>
      </trkpt>
      <trkpt lat="46.48182" lon="5.36613">
        <ele>253</ele>
        <time>2021-11-20T11:31:28Z</time>
      </trkpt>
      <trkpt lat="46.48189" lon="5.36608">
        <ele>252.8</ele>
        <time>2021-11-20T11:31:29Z</time>
      </trkpt>
      <trkpt lat="46.48197" lon="5.36605">
        <ele>252.6</ele>
        <time>2021-11-20T11:31:30Z</time>
      </trkpt>
      <trkpt lat="46.48211" lon="5.366">
        <ele>252.4</ele>
        <time>2021-11-20T11:31:32Z</time>
      </trkpt>
      <trkpt lat="46.48221" lon="5.36586">
        <ele>252.2</ele>
        <time>2021-11-20T11:31:34Z</time>
      </trkpt>
      <trkpt lat="46.48227" lon="5.36567">
        <ele>252</ele>
        <time>2021-11-20T11:31:36Z</time>
      </trkpt>
      <trkpt lat="46.48236" lon="5.36551">
        <ele>251.8</ele>
        <time>2021-11-20T11:31:38Z</time>
      </trkpt>
      <trkpt lat="46.48273" lon="5.36512">
        <ele>250.8</ele>
        <time>2021-11-20T11:31:44Z</time>
      </trkpt>
      <trkpt lat="46.48279" lon="5.36506">
        <ele>250.6</ele>
        <time>2021-11-20T11:31:45Z</time>
      </trkpt>
      <trkpt lat="46.48315" lon="5.36465">
        <ele>249.6</ele>
        <time>2021-11-20T11:31:51Z</time>
      </trkpt>
      <trkpt lat="46.48346" lon="5.36431">
        <ele>248.2</ele>
        <time>2021-11-20T11:31:56Z</time>
      </trkpt>
      <trkpt lat="46.48352" lon="5.36424">
        <ele>248</ele>
        <time>2021-11-20T11:31:57Z</time>
      </trkpt>
      <trkpt lat="46.48377" lon="5.36396">
        <ele>247</ele>
        <time>2021-11-20T11:32:01Z</time>
      </trkpt>
      <trkpt lat="46.48384" lon="5.3639">
        <ele>246.8</ele>
        <time>2021-11-20T11:32:02Z</time>
      </trkpt>
      <trkpt lat="46.4841" lon="5.36365">
        <ele>246</ele>
        <time>2021-11-20T11:32:06Z</time>
      </trkpt>
      <trkpt lat="46.48417" lon="5.36361">
        <ele>245.6</ele>
        <time>2021-11-20T11:32:07Z</time>
      </trkpt>
      <trkpt lat="46.4844" lon="5.36351">
        <ele>245</ele>
        <time>2021-11-20T11:32:10Z</time>
      </trkpt>
      <trkpt lat="46.48452" lon="5.36348">
        <ele>244.8</ele>
        <time>2021-11-20T11:32:12Z</time>
      </trkpt>
      <trkpt lat="46.48481" lon="5.36345">
        <ele>244.6</ele>
        <time>2021-11-20T11:32:16Z</time>
      </trkpt>
      <trkpt lat="46.48515" lon="5.36339">
        <ele>244.2</ele>
        <time>2021-11-20T11:32:21Z</time>
      </trkpt>
      <trkpt lat="46.48521" lon="5.36338">
        <ele>244.2</ele>
        <time>2021-11-20T11:32:22Z</time>
      </trkpt>
      <trkpt lat="46.48575" lon="5.36328">
        <ele>243.8</ele>
        <time>2021-11-20T11:32:30Z</time>
      </trkpt>
      <trkpt lat="46.48582" lon="5.36327">
        <ele>243.8</ele>
        <time>2021-11-20T11:32:31Z</time>
      </trkpt>
      <trkpt lat="46.48604" lon="5.36324">
        <ele>242.6</ele>
        <time>2021-11-20T11:32:34Z</time>
      </trkpt>
      <trkpt lat="46.48612" lon="5.36321">
        <ele>242</ele>
        <time>2021-11-20T11:32:35Z</time>
      </trkpt>
      <trkpt lat="46.48619" lon="5.36316">
        <ele>241.8</ele>
        <time>2021-11-20T11:32:36Z</time>
      </trkpt>
      <trkpt lat="46.48626" lon="5.36308">
        <ele>241.6</ele>
        <time>2021-11-20T11:32:37Z</time>
      </trkpt>
      <trkpt lat="46.48631" lon="5.36299">
        <ele>241.4</ele>
        <time>2021-11-20T11:32:38Z</time>
      </trkpt>
      <trkpt lat="46.48636" lon="5.36289">
        <ele>241.4</ele>
        <time>2021-11-20T11:32:39Z</time>
      </trkpt>
      <trkpt lat="46.4864" lon="5.36251">
        <ele>240.2</ele>
        <time>2021-11-20T11:32:42Z</time>
      </trkpt>
      <trkpt lat="46.48644" lon="5.36201">
        <ele>238.8</ele>
        <time>2021-11-20T11:32:46Z</time>
      </trkpt>
      <trkpt lat="46.48648" lon="5.36153">
        <ele>237.6</ele>
        <time>2021-11-20T11:32:50Z</time>
      </trkpt>
      <trkpt lat="46.48661" lon="5.36087">
        <ele>236.6</ele>
        <time>2021-11-20T11:32:56Z</time>
      </trkpt>
      <trkpt lat="46.48671" lon="5.3604">
        <ele>236.6</ele>
        <time>2021-11-20T11:33:01Z</time>
      </trkpt>
      <trkpt lat="46.48677" lon="5.36008">
        <ele>236.8</ele>
        <time>2021-11-20T11:33:05Z</time>
      </trkpt>
      <trkpt lat="46.48679" lon="5.35993">
        <ele>237.2</ele>
        <time>2021-11-20T11:33:07Z</time>
      </trkpt>
      <trkpt lat="46.48681" lon="5.35978">
        <ele>237.6</ele>
        <time>2021-11-20T11:33:09Z</time>
      </trkpt>
      <trkpt lat="46.48686" lon="5.35942">
        <ele>238</ele>
        <time>2021-11-20T11:33:13Z</time>
      </trkpt>
      <trkpt lat="46.48689" lon="5.35923">
        <ele>238</ele>
        <time>2021-11-20T11:33:15Z</time>
      </trkpt>
      <trkpt lat="46.48698" lon="5.35896">
        <ele>238</ele>
        <time>2021-11-20T11:33:18Z</time>
      </trkpt>
      <trkpt lat="46.48716" lon="5.3585">
        <ele>237.4</ele>
        <time>2021-11-20T11:33:23Z</time>
      </trkpt>
      <trkpt lat="46.48732" lon="5.35812">
        <ele>236.6</ele>
        <time>2021-11-20T11:33:27Z</time>
      </trkpt>
      <trkpt lat="46.48748" lon="5.35777">
        <ele>236.2</ele>
        <time>2021-11-20T11:33:31Z</time>
      </trkpt>
      <trkpt lat="46.4876" lon="5.35749">
        <ele>235.6</ele>
        <time>2021-11-20T11:33:34Z</time>
      </trkpt>
      <trkpt lat="46.48763" lon="5.35742">
        <ele>235.6</ele>
        <time>2021-11-20T11:33:35Z</time>
      </trkpt>
      <trkpt lat="46.48782" lon="5.35698">
        <ele>235.2</ele>
        <time>2021-11-20T11:33:40Z</time>
      </trkpt>
      <trkpt lat="46.48807" lon="5.35644">
        <ele>234.8</ele>
        <time>2021-11-20T11:33:47Z</time>
      </trkpt>
      <trkpt lat="46.48838" lon="5.35576">
        <ele>235</ele>
        <time>2021-11-20T11:33:56Z</time>
      </trkpt>
      <trkpt lat="46.48848" lon="5.35568">
        <ele>235</ele>
        <time>2021-11-20T11:33:58Z</time>
      </trkpt>
      <trkpt lat="46.48854" lon="5.35566">
        <ele>234.8</ele>
        <time>2021-11-20T11:33:59Z</time>
      </trkpt>
      <trkpt lat="46.48893" lon="5.35562">
        <ele>234.4</ele>
        <time>2021-11-20T11:34:05Z</time>
      </trkpt>
      <trkpt lat="46.48914" lon="5.35561">
        <ele>234.2</ele>
        <time>2021-11-20T11:34:08Z</time>
      </trkpt>
      <trkpt lat="46.48927" lon="5.35561">
        <ele>233.8</ele>
        <time>2021-11-20T11:34:10Z</time>
      </trkpt>
      <trkpt lat="46.48955" lon="5.3556">
        <ele>233.2</ele>
        <time>2021-11-20T11:34:14Z</time>
      </trkpt>
      <trkpt lat="46.48962" lon="5.35559">
        <ele>233</ele>
        <time>2021-11-20T11:34:15Z</time>
      </trkpt>
      <trkpt lat="46.49008" lon="5.35556">
        <ele>232.4</ele>
        <time>2021-11-20T11:34:21Z</time>
      </trkpt>
      <trkpt lat="46.49029" lon="5.35554">
        <ele>231.8</ele>
        <time>2021-11-20T11:34:24Z</time>
      </trkpt>
      <trkpt lat="46.49061" lon="5.35552">
        <ele>231.8</ele>
        <time>2021-11-20T11:34:29Z</time>
      </trkpt>
      <trkpt lat="46.49096" lon="5.35551">
        <ele>232.4</ele>
        <time>2021-11-20T11:34:35Z</time>
      </trkpt>
      <trkpt lat="46.49117" lon="5.35551">
        <ele>233</ele>
        <time>2021-11-20T11:34:39Z</time>
      </trkpt>
      <trkpt lat="46.49128" lon="5.3555">
        <ele>233.2</ele>
        <time>2021-11-20T11:34:41Z</time>
      </trkpt>
      <trkpt lat="46.49139" lon="5.35549">
        <ele>233.6</ele>
        <time>2021-11-20T11:34:43Z</time>
      </trkpt>
      <trkpt lat="46.49149" lon="5.35548">
        <ele>233.8</ele>
        <time>2021-11-20T11:34:45Z</time>
      </trkpt>
      <trkpt lat="46.49156" lon="5.35548">
        <ele>234</ele>
        <time>2021-11-20T11:34:47Z</time>
      </trkpt>
      <trkpt lat="46.49173" lon="5.35547">
        <ele>234.6</ele>
        <time>2021-11-20T11:34:52Z</time>
      </trkpt>
      <trkpt lat="46.49189" lon="5.35545">
        <ele>235</ele>
        <time>2021-11-20T11:34:55Z</time>
      </trkpt>
      <trkpt lat="46.49201" lon="5.35544">
        <ele>235.2</ele>
        <time>2021-11-20T11:34:57Z</time>
      </trkpt>
      <trkpt lat="46.49249" lon="5.35542">
        <ele>235.8</ele>
        <time>2021-11-20T11:35:04Z</time>
      </trkpt>
      <trkpt lat="46.49307" lon="5.35537">
        <ele>235.8</ele>
        <time>2021-11-20T11:35:12Z</time>
      </trkpt>
      <trkpt lat="46.49314" lon="5.35535">
        <ele>235.8</ele>
        <time>2021-11-20T11:35:13Z</time>
      </trkpt>
      <trkpt lat="46.49375" lon="5.35537">
        <ele>235.2</ele>
        <time>2021-11-20T11:35:21Z</time>
      </trkpt>
      <trkpt lat="46.49411" lon="5.35544">
        <ele>234.6</ele>
        <time>2021-11-20T11:35:26Z</time>
      </trkpt>
      <trkpt lat="46.49417" lon="5.35547">
        <ele>234.6</ele>
        <time>2021-11-20T11:35:27Z</time>
      </trkpt>
      <trkpt lat="46.49424" lon="5.3555">
        <ele>234.6</ele>
        <time>2021-11-20T11:35:28Z</time>
      </trkpt>
      <trkpt lat="46.4948" lon="5.35574">
        <ele>234</ele>
        <time>2021-11-20T11:35:36Z</time>
      </trkpt>
      <trkpt lat="46.49486" lon="5.35576">
        <ele>234</ele>
        <time>2021-11-20T11:35:37Z</time>
      </trkpt>
      <trkpt lat="46.49529" lon="5.35594">
        <ele>233.2</ele>
        <time>2021-11-20T11:35:43Z</time>
      </trkpt>
      <trkpt lat="46.4955" lon="5.35603">
        <ele>232.8</ele>
        <time>2021-11-20T11:35:46Z</time>
      </trkpt>
      <trkpt lat="46.49593" lon="5.35617">
        <ele>232</ele>
        <time>2021-11-20T11:35:52Z</time>
      </trkpt>
      <trkpt lat="46.49622" lon="5.35625">
        <ele>231.6</ele>
        <time>2021-11-20T11:35:56Z</time>
      </trkpt>
      <trkpt lat="46.49647" lon="5.35634">
        <ele>230.6</ele>
        <time>2021-11-20T11:36:00Z</time>
      </trkpt>
      <trkpt lat="46.49655" lon="5.35636">
        <ele>230.6</ele>
        <time>2021-11-20T11:36:01Z</time>
      </trkpt>
      <trkpt lat="46.49689" lon="5.35648">
        <ele>229.6</ele>
        <time>2021-11-20T11:36:07Z</time>
      </trkpt>
      <trkpt lat="46.49692" lon="5.35649">
        <ele>229.4</ele>
        <time>2021-11-20T11:36:08Z</time>
      </trkpt>
      <trkpt lat="46.49695" lon="5.35648">
        <ele>229.2</ele>
        <time>2021-11-20T11:36:09Z</time>
      </trkpt>
      <trkpt lat="46.49697" lon="5.35645">
        <ele>229</ele>
        <time>2021-11-20T11:36:10Z</time>
      </trkpt>
      <trkpt lat="46.49703" lon="5.35635">
        <ele>228.4</ele>
        <time>2021-11-20T11:36:12Z</time>
      </trkpt>
      <trkpt lat="46.49704" lon="5.35628">
        <ele>228.4</ele>
        <time>2021-11-20T11:36:13Z</time>
      </trkpt>
      <trkpt lat="46.49706" lon="5.35614">
        <ele>228</ele>
        <time>2021-11-20T11:36:15Z</time>
      </trkpt>
      <trkpt lat="46.4971" lon="5.35584">
        <ele>228</ele>
        <time>2021-11-20T11:36:18Z</time>
      </trkpt>
      <trkpt lat="46.49717" lon="5.35527">
        <ele>228</ele>
        <time>2021-11-20T11:36:24Z</time>
      </trkpt>
      <trkpt lat="46.49719" lon="5.3551">
        <ele>228.2</ele>
        <time>2021-11-20T11:36:26Z</time>
      </trkpt>
      <trkpt lat="46.4973" lon="5.3543">
        <ele>228</ele>
        <time>2021-11-20T11:36:34Z</time>
      </trkpt>
      <trkpt lat="46.49737" lon="5.3536">
        <ele>227</ele>
        <time>2021-11-20T11:36:41Z</time>
      </trkpt>
      <trkpt lat="46.49736" lon="5.3535">
        <ele>227</ele>
        <time>2021-11-20T11:36:42Z</time>
      </trkpt>
      <trkpt lat="46.49731" lon="5.35304">
        <ele>226.8</ele>
        <time>2021-11-20T11:36:47Z</time>
      </trkpt>
      <trkpt lat="46.49719" lon="5.35246">
        <ele>226.8</ele>
        <time>2021-11-20T11:36:54Z</time>
      </trkpt>
      <trkpt lat="46.49704" lon="5.3518">
        <ele>227.4</ele>
        <time>2021-11-20T11:37:02Z</time>
      </trkpt>
      <trkpt lat="46.49688" lon="5.35099">
        <ele>227</ele>
        <time>2021-11-20T11:37:11Z</time>
      </trkpt>
      <trkpt lat="46.49686" lon="5.3509">
        <ele>227</ele>
        <time>2021-11-20T11:37:12Z</time>
      </trkpt>
      <trkpt lat="46.49672" lon="5.35018">
        <ele>226.8</ele>
        <time>2021-11-20T11:37:21Z</time>
      </trkpt>
      <trkpt lat="46.49663" lon="5.34965">
        <ele>226.8</ele>
        <time>2021-11-20T11:37:28Z</time>
      </trkpt>
      <trkpt lat="46.49662" lon="5.34959">
        <ele>227</ele>
        <time>2021-11-20T11:37:29Z</time>
      </trkpt>
      <trkpt lat="46.49659" lon="5.34943">
        <ele>227.4</ele>
        <time>2021-11-20T11:37:31Z</time>
      </trkpt>
      <trkpt lat="46.49655" lon="5.34919">
        <ele>227.8</ele>
        <time>2021-11-20T11:37:34Z</time>
      </trkpt>
      <trkpt lat="46.49653" lon="5.34912">
        <ele>227.8</ele>
        <time>2021-11-20T11:37:35Z</time>
      </trkpt>
      <trkpt lat="46.49638" lon="5.34831">
        <ele>228.6</ele>
        <time>2021-11-20T11:37:45Z</time>
      </trkpt>
      <trkpt lat="46.4963" lon="5.34774">
        <ele>228.2</ele>
        <time>2021-11-20T11:37:51Z</time>
      </trkpt>
      <trkpt lat="46.49632" lon="5.34706">
        <ele>226.6</ele>
        <time>2021-11-20T11:37:57Z</time>
      </trkpt>
      <trkpt lat="46.49638" lon="5.34654">
        <ele>225.2</ele>
        <time>2021-11-20T11:38:01Z</time>
      </trkpt>
      <trkpt lat="46.49641" lon="5.34614">
        <ele>224</ele>
        <time>2021-11-20T11:38:04Z</time>
      </trkpt>
      <trkpt lat="46.49642" lon="5.34604">
        <ele>223.6</ele>
        <time>2021-11-20T11:38:05Z</time>
      </trkpt>
      <trkpt lat="46.49646" lon="5.34578">
        <ele>223</ele>
        <time>2021-11-20T11:38:07Z</time>
      </trkpt>
      <trkpt lat="46.49655" lon="5.34532">
        <ele>221.6</ele>
        <time>2021-11-20T11:38:11Z</time>
      </trkpt>
      <trkpt lat="46.49667" lon="5.34482">
        <ele>221</ele>
        <time>2021-11-20T11:38:16Z</time>
      </trkpt>
      <trkpt lat="46.4968" lon="5.34434">
        <ele>221.4</ele>
        <time>2021-11-20T11:38:22Z</time>
      </trkpt>
      <trkpt lat="46.49694" lon="5.34386">
        <ele>222.6</ele>
        <time>2021-11-20T11:38:29Z</time>
      </trkpt>
      <trkpt lat="46.49696" lon="5.34379">
        <ele>222.8</ele>
        <time>2021-11-20T11:38:30Z</time>
      </trkpt>
      <trkpt lat="46.49702" lon="5.3436">
        <ele>223</ele>
        <time>2021-11-20T11:38:33Z</time>
      </trkpt>
      <trkpt lat="46.49707" lon="5.34348">
        <ele>223.6</ele>
        <time>2021-11-20T11:38:35Z</time>
      </trkpt>
      <trkpt lat="46.49709" lon="5.34342">
        <ele>223.8</ele>
        <time>2021-11-20T11:38:36Z</time>
      </trkpt>
      <trkpt lat="46.49715" lon="5.34322">
        <ele>224.4</ele>
        <time>2021-11-20T11:38:39Z</time>
      </trkpt>
      <trkpt lat="46.49724" lon="5.343">
        <ele>224.8</ele>
        <time>2021-11-20T11:38:42Z</time>
      </trkpt>
      <trkpt lat="46.49751" lon="5.34251">
        <ele>225.6</ele>
        <time>2021-11-20T11:38:49Z</time>
      </trkpt>
      <trkpt lat="46.49775" lon="5.34212">
        <ele>225.6</ele>
        <time>2021-11-20T11:38:55Z</time>
      </trkpt>
      <trkpt lat="46.49791" lon="5.34186">
        <ele>225.8</ele>
        <time>2021-11-20T11:38:59Z</time>
      </trkpt>
      <trkpt lat="46.49826" lon="5.34129">
        <ele>226.8</ele>
        <time>2021-11-20T11:39:08Z</time>
      </trkpt>
      <trkpt lat="46.49864" lon="5.3407">
        <ele>227</ele>
        <time>2021-11-20T11:39:17Z</time>
      </trkpt>
      <trkpt lat="46.49908" lon="5.3402">
        <ele>226.6</ele>
        <time>2021-11-20T11:39:26Z</time>
      </trkpt>
      <trkpt lat="46.49925" lon="5.34002">
        <ele>226.8</ele>
        <time>2021-11-20T11:39:30Z</time>
      </trkpt>
      <trkpt lat="46.49934" lon="5.33993">
        <ele>226.8</ele>
        <time>2021-11-20T11:39:32Z</time>
      </trkpt>
      <trkpt lat="46.49964" lon="5.33961">
        <ele>227.6</ele>
        <time>2021-11-20T11:39:39Z</time>
      </trkpt>
      <trkpt lat="46.49969" lon="5.33956">
        <ele>227.8</ele>
        <time>2021-11-20T11:39:40Z</time>
      </trkpt>
      <trkpt lat="46.49992" lon="5.33934">
        <ele>228.2</ele>
        <time>2021-11-20T11:39:45Z</time>
      </trkpt>
      <trkpt lat="46.49997" lon="5.33928">
        <ele>228.6</ele>
        <time>2021-11-20T11:39:46Z</time>
      </trkpt>
      <trkpt lat="46.50011" lon="5.33911">
        <ele>228.8</ele>
        <time>2021-11-20T11:39:49Z</time>
      </trkpt>
      <trkpt lat="46.50021" lon="5.33901">
        <ele>228.8</ele>
        <time>2021-11-20T11:39:51Z</time>
      </trkpt>
      <trkpt lat="46.50063" lon="5.33849">
        <ele>228.8</ele>
        <time>2021-11-20T11:39:59Z</time>
      </trkpt>
      <trkpt lat="46.501" lon="5.3381">
        <ele>228</ele>
        <time>2021-11-20T11:40:05Z</time>
      </trkpt>
      <trkpt lat="46.50111" lon="5.33796">
        <ele>227.6</ele>
        <time>2021-11-20T11:40:07Z</time>
      </trkpt>
      <trkpt lat="46.50152" lon="5.33752">
        <ele>226.8</ele>
        <time>2021-11-20T11:40:14Z</time>
      </trkpt>
      <trkpt lat="46.50189" lon="5.33713">
        <ele>226.8</ele>
        <time>2021-11-20T11:40:21Z</time>
      </trkpt>
      <trkpt lat="46.50231" lon="5.33669">
        <ele>227</ele>
        <time>2021-11-20T11:40:29Z</time>
      </trkpt>
      <trkpt lat="46.50269" lon="5.33628">
        <ele>226.8</ele>
        <time>2021-11-20T11:40:36Z</time>
      </trkpt>
      <trkpt lat="46.50296" lon="5.33597">
        <ele>226.4</ele>
        <time>2021-11-20T11:40:41Z</time>
      </trkpt>
      <trkpt lat="46.50318" lon="5.33573">
        <ele>226</ele>
        <time>2021-11-20T11:40:45Z</time>
      </trkpt>
      <trkpt lat="46.50351" lon="5.33537">
        <ele>225.6</ele>
        <time>2021-11-20T11:40:51Z</time>
      </trkpt>
      <trkpt lat="46.50357" lon="5.33531">
        <ele>225.4</ele>
        <time>2021-11-20T11:40:52Z</time>
      </trkpt>
      <trkpt lat="46.50362" lon="5.33525">
        <ele>225.4</ele>
        <time>2021-11-20T11:40:53Z</time>
      </trkpt>
      <trkpt lat="46.50406" lon="5.33478">
        <ele>225</ele>
        <time>2021-11-20T11:41:01Z</time>
      </trkpt>
      <trkpt lat="46.50433" lon="5.33447">
        <ele>224</ele>
        <time>2021-11-20T11:41:06Z</time>
      </trkpt>
      <trkpt lat="46.50448" lon="5.33425">
        <ele>223.8</ele>
        <time>2021-11-20T11:41:09Z</time>
      </trkpt>
      <trkpt lat="46.50459" lon="5.33398">
        <ele>223.2</ele>
        <time>2021-11-20T11:41:12Z</time>
      </trkpt>
      <trkpt lat="46.50462" lon="5.33388">
        <ele>223</ele>
        <time>2021-11-20T11:41:13Z</time>
      </trkpt>
      <trkpt lat="46.50464" lon="5.33378">
        <ele>223</ele>
        <time>2021-11-20T11:41:14Z</time>
      </trkpt>
      <trkpt lat="46.50468" lon="5.33327">
        <ele>222.6</ele>
        <time>2021-11-20T11:41:19Z</time>
      </trkpt>
      <trkpt lat="46.5047" lon="5.33271">
        <ele>222.6</ele>
        <time>2021-11-20T11:41:25Z</time>
      </trkpt>
      <trkpt lat="46.50468" lon="5.33213">
        <ele>223</ele>
        <time>2021-11-20T11:41:31Z</time>
      </trkpt>
      <trkpt lat="46.50469" lon="5.33175">
        <ele>223</ele>
        <time>2021-11-20T11:41:35Z</time>
      </trkpt>
      <trkpt lat="46.50469" lon="5.33157">
        <ele>223</ele>
        <time>2021-11-20T11:41:37Z</time>
      </trkpt>
      <trkpt lat="46.5047" lon="5.33105">
        <ele>222.8</ele>
        <time>2021-11-20T11:41:42Z</time>
      </trkpt>
      <trkpt lat="46.50471" lon="5.33071">
        <ele>222</ele>
        <time>2021-11-20T11:41:45Z</time>
      </trkpt>
      <trkpt lat="46.50472" lon="5.33023">
        <ele>220.4</ele>
        <time>2021-11-20T11:41:49Z</time>
      </trkpt>
      <trkpt lat="46.50473" lon="5.32984">
        <ele>219.2</ele>
        <time>2021-11-20T11:41:52Z</time>
      </trkpt>
      <trkpt lat="46.50473" lon="5.32958">
        <ele>218.2</ele>
        <time>2021-11-20T11:41:54Z</time>
      </trkpt>
      <trkpt lat="46.50474" lon="5.32931">
        <ele>217</ele>
        <time>2021-11-20T11:41:56Z</time>
      </trkpt>
      <trkpt lat="46.50474" lon="5.32918">
        <ele>216.8</ele>
        <time>2021-11-20T11:41:57Z</time>
      </trkpt>
      <trkpt lat="46.50474" lon="5.32889">
        <ele>215.8</ele>
        <time>2021-11-20T11:41:59Z</time>
      </trkpt>
      <trkpt lat="46.50475" lon="5.32861">
        <ele>214.8</ele>
        <time>2021-11-20T11:42:01Z</time>
      </trkpt>
      <trkpt lat="46.50475" lon="5.32834">
        <ele>213.6</ele>
        <time>2021-11-20T11:42:03Z</time>
      </trkpt>
      <trkpt lat="46.50476" lon="5.32794">
        <ele>212.4</ele>
        <time>2021-11-20T11:42:06Z</time>
      </trkpt>
      <trkpt lat="46.50476" lon="5.32782">
        <ele>211.8</ele>
        <time>2021-11-20T11:42:07Z</time>
      </trkpt>
      <trkpt lat="46.50476" lon="5.32769">
        <ele>211.4</ele>
        <time>2021-11-20T11:42:08Z</time>
      </trkpt>
      <trkpt lat="46.50477" lon="5.32757">
        <ele>211.2</ele>
        <time>2021-11-20T11:42:09Z</time>
      </trkpt>
      <trkpt lat="46.50478" lon="5.32698">
        <ele>210.4</ele>
        <time>2021-11-20T11:42:14Z</time>
      </trkpt>
      <trkpt lat="46.50478" lon="5.32675">
        <ele>210.2</ele>
        <time>2021-11-20T11:42:16Z</time>
      </trkpt>
      <trkpt lat="46.50478" lon="5.32606">
        <ele>209.6</ele>
        <time>2021-11-20T11:42:22Z</time>
      </trkpt>
      <trkpt lat="46.50477" lon="5.3256">
        <ele>209</ele>
        <time>2021-11-20T11:42:26Z</time>
      </trkpt>
      <trkpt lat="46.50474" lon="5.32506">
        <ele>208</ele>
        <time>2021-11-20T11:42:31Z</time>
      </trkpt>
      <trkpt lat="46.50473" lon="5.32495">
        <ele>207.8</ele>
        <time>2021-11-20T11:42:32Z</time>
      </trkpt>
      <trkpt lat="46.50464" lon="5.32419">
        <ele>207</ele>
        <time>2021-11-20T11:42:39Z</time>
      </trkpt>
      <trkpt lat="46.50462" lon="5.32408">
        <ele>207</ele>
        <time>2021-11-20T11:42:40Z</time>
      </trkpt>
      <trkpt lat="46.50446" lon="5.32338">
        <ele>206.2</ele>
        <time>2021-11-20T11:42:47Z</time>
      </trkpt>
      <trkpt lat="46.50434" lon="5.3226">
        <ele>206</ele>
        <time>2021-11-20T11:42:55Z</time>
      </trkpt>
      <trkpt lat="46.50434" lon="5.32209">
        <ele>206</ele>
        <time>2021-11-20T11:43:00Z</time>
      </trkpt>
      <trkpt lat="46.50434" lon="5.32178">
        <ele>205.6</ele>
        <time>2021-11-20T11:43:03Z</time>
      </trkpt>
      <trkpt lat="46.50435" lon="5.32135">
        <ele>205.2</ele>
        <time>2021-11-20T11:43:07Z</time>
      </trkpt>
      <trkpt lat="46.50435" lon="5.32104">
        <ele>204.8</ele>
        <time>2021-11-20T11:43:10Z</time>
      </trkpt>
      <trkpt lat="46.50436" lon="5.32072">
        <ele>204.6</ele>
        <time>2021-11-20T11:43:13Z</time>
      </trkpt>
      <trkpt lat="46.50438" lon="5.32">
        <ele>203.8</ele>
        <time>2021-11-20T11:43:20Z</time>
      </trkpt>
      <trkpt lat="46.50439" lon="5.3198">
        <ele>203.4</ele>
        <time>2021-11-20T11:43:22Z</time>
      </trkpt>
      <trkpt lat="46.5044" lon="5.31899">
        <ele>202.8</ele>
        <time>2021-11-20T11:43:30Z</time>
      </trkpt>
      <trkpt lat="46.5044" lon="5.31889">
        <ele>202.6</ele>
        <time>2021-11-20T11:43:31Z</time>
      </trkpt>
      <trkpt lat="46.50433" lon="5.31841">
        <ele>202.6</ele>
        <time>2021-11-20T11:43:36Z</time>
      </trkpt>
      <trkpt lat="46.50414" lon="5.31765">
        <ele>202.6</ele>
        <time>2021-11-20T11:43:44Z</time>
      </trkpt>
      <trkpt lat="46.50411" lon="5.31756">
        <ele>202.6</ele>
        <time>2021-11-20T11:43:45Z</time>
      </trkpt>
      <trkpt lat="46.50397" lon="5.31723">
        <ele>202.4</ele>
        <time>2021-11-20T11:43:49Z</time>
      </trkpt>
      <trkpt lat="46.5037" lon="5.31675">
        <ele>202.2</ele>
        <time>2021-11-20T11:43:55Z</time>
      </trkpt>
      <trkpt lat="46.50354" lon="5.31656">
        <ele>202</ele>
        <time>2021-11-20T11:43:58Z</time>
      </trkpt>
      <trkpt lat="46.50342" lon="5.31646">
        <ele>201.8</ele>
        <time>2021-11-20T11:44:00Z</time>
      </trkpt>
      <trkpt lat="46.50335" lon="5.31641">
        <ele>201.6</ele>
        <time>2021-11-20T11:44:01Z</time>
      </trkpt>
      <trkpt lat="46.50291" lon="5.31609">
        <ele>201.2</ele>
        <time>2021-11-20T11:44:08Z</time>
      </trkpt>
      <trkpt lat="46.50253" lon="5.31572">
        <ele>201</ele>
        <time>2021-11-20T11:44:15Z</time>
      </trkpt>
      <trkpt lat="46.50227" lon="5.31536">
        <ele>201.2</ele>
        <time>2021-11-20T11:44:21Z</time>
      </trkpt>
      <trkpt lat="46.50213" lon="5.31504">
        <ele>201.6</ele>
        <time>2021-11-20T11:44:26Z</time>
      </trkpt>
      <trkpt lat="46.50198" lon="5.3146">
        <ele>202.8</ele>
        <time>2021-11-20T11:44:33Z</time>
      </trkpt>
      <trkpt lat="46.5019" lon="5.31438">
        <ele>204</ele>
        <time>2021-11-20T11:44:37Z</time>
      </trkpt>
      <trkpt lat="46.50184" lon="5.31421">
        <ele>204.8</ele>
        <time>2021-11-20T11:44:40Z</time>
      </trkpt>
      <trkpt lat="46.50183" lon="5.31415">
        <ele>205.2</ele>
        <time>2021-11-20T11:44:41Z</time>
      </trkpt>
      <trkpt lat="46.50172" lon="5.31388">
        <ele>206.2</ele>
        <time>2021-11-20T11:44:46Z</time>
      </trkpt>
      <trkpt lat="46.50171" lon="5.31384">
        <ele>206.4</ele>
        <time>2021-11-20T11:44:47Z</time>
      </trkpt>
      <trkpt lat="46.50162" lon="5.31353">
        <ele>207.4</ele>
        <time>2021-11-20T11:44:52Z</time>
      </trkpt>
      <trkpt lat="46.5016" lon="5.31347">
        <ele>207.6</ele>
        <time>2021-11-20T11:44:53Z</time>
      </trkpt>
      <trkpt lat="46.50152" lon="5.31325">
        <ele>208.6</ele>
        <time>2021-11-20T11:44:57Z</time>
      </trkpt>
      <trkpt lat="46.50146" lon="5.31307">
        <ele>209</ele>
        <time>2021-11-20T11:45:00Z</time>
      </trkpt>
      <trkpt lat="46.50143" lon="5.31301">
        <ele>209.2</ele>
        <time>2021-11-20T11:45:01Z</time>
      </trkpt>
      <trkpt lat="46.50134" lon="5.31274">
        <ele>209.2</ele>
        <time>2021-11-20T11:45:05Z</time>
      </trkpt>
      <trkpt lat="46.50127" lon="5.31252">
        <ele>209.4</ele>
        <time>2021-11-20T11:45:08Z</time>
      </trkpt>
      <trkpt lat="46.50111" lon="5.31204">
        <ele>209.4</ele>
        <time>2021-11-20T11:45:14Z</time>
      </trkpt>
      <trkpt lat="46.50092" lon="5.31148">
        <ele>208.4</ele>
        <time>2021-11-20T11:45:20Z</time>
      </trkpt>
      <trkpt lat="46.5007" lon="5.31086">
        <ele>207.6</ele>
        <time>2021-11-20T11:45:27Z</time>
      </trkpt>
      <trkpt lat="46.50068" lon="5.31078">
        <ele>207.6</ele>
        <time>2021-11-20T11:45:28Z</time>
      </trkpt>
      <trkpt lat="46.50055" lon="5.3104">
        <ele>208</ele>
        <time>2021-11-20T11:45:34Z</time>
      </trkpt>
      <trkpt lat="46.50046" lon="5.31019">
        <ele>208.8</ele>
        <time>2021-11-20T11:45:38Z</time>
      </trkpt>
      <trkpt lat="46.50041" lon="5.31005">
        <ele>209.4</ele>
        <time>2021-11-20T11:45:41Z</time>
      </trkpt>
      <trkpt lat="46.50038" lon="5.30995">
        <ele>209.8</ele>
        <time>2021-11-20T11:45:43Z</time>
      </trkpt>
      <trkpt lat="46.50031" lon="5.30975">
        <ele>211</ele>
        <time>2021-11-20T11:45:47Z</time>
      </trkpt>
      <trkpt lat="46.50027" lon="5.30963">
        <ele>211.4</ele>
        <time>2021-11-20T11:45:49Z</time>
      </trkpt>
      <trkpt lat="46.5002" lon="5.30943">
        <ele>212.2</ele>
        <time>2021-11-20T11:45:53Z</time>
      </trkpt>
      <trkpt lat="46.50014" lon="5.30928">
        <ele>213</ele>
        <time>2021-11-20T11:45:56Z</time>
      </trkpt>
      <trkpt lat="46.50013" lon="5.30923">
        <ele>213.2</ele>
        <time>2021-11-20T11:45:57Z</time>
      </trkpt>
      <trkpt lat="46.50006" lon="5.30903">
        <ele>214.4</ele>
        <time>2021-11-20T11:46:01Z</time>
      </trkpt>
      <trkpt lat="46.50002" lon="5.30894">
        <ele>215</ele>
        <time>2021-11-20T11:46:03Z</time>
      </trkpt>
      <trkpt lat="46.49998" lon="5.30884">
        <ele>215.4</ele>
        <time>2021-11-20T11:46:05Z</time>
      </trkpt>
      <trkpt lat="46.49989" lon="5.30859">
        <ele>216.4</ele>
        <time>2021-11-20T11:46:10Z</time>
      </trkpt>
      <trkpt lat="46.49987" lon="5.30853">
        <ele>216.6</ele>
        <time>2021-11-20T11:46:11Z</time>
      </trkpt>
      <trkpt lat="46.49976" lon="5.30818">
        <ele>217.6</ele>
        <time>2021-11-20T11:46:17Z</time>
      </trkpt>
      <trkpt lat="46.49973" lon="5.30806">
        <ele>218</ele>
        <time>2021-11-20T11:46:19Z</time>
      </trkpt>
      <trkpt lat="46.49968" lon="5.30783">
        <ele>218.6</ele>
        <time>2021-11-20T11:46:23Z</time>
      </trkpt>
      <trkpt lat="46.49963" lon="5.30757">
        <ele>219.2</ele>
        <time>2021-11-20T11:46:27Z</time>
      </trkpt>
      <trkpt lat="46.49962" lon="5.30753">
        <ele>219.4</ele>
        <time>2021-11-20T11:46:28Z</time>
      </trkpt>
      <trkpt lat="46.4996" lon="5.30739">
        <ele>219.8</ele>
        <time>2021-11-20T11:46:30Z</time>
      </trkpt>
      <trkpt lat="46.49952" lon="5.30699">
        <ele>220</ele>
        <time>2021-11-20T11:46:36Z</time>
      </trkpt>
      <trkpt lat="46.49941" lon="5.3064">
        <ele>219.6</ele>
        <time>2021-11-20T11:46:43Z</time>
      </trkpt>
      <trkpt lat="46.49935" lon="5.30591">
        <ele>218.2</ele>
        <time>2021-11-20T11:46:48Z</time>
      </trkpt>
      <trkpt lat="46.49935" lon="5.30572">
        <ele>217.8</ele>
        <time>2021-11-20T11:46:50Z</time>
      </trkpt>
      <trkpt lat="46.4994" lon="5.30527">
        <ele>217</ele>
        <time>2021-11-20T11:46:54Z</time>
      </trkpt>
      <trkpt lat="46.49942" lon="5.30519">
        <ele>216.8</ele>
        <time>2021-11-20T11:46:55Z</time>
      </trkpt>
      <trkpt lat="46.49949" lon="5.30496">
        <ele>216</ele>
        <time>2021-11-20T11:46:57Z</time>
      </trkpt>
      <trkpt lat="46.49953" lon="5.30487">
        <ele>215.8</ele>
        <time>2021-11-20T11:46:58Z</time>
      </trkpt>
      <trkpt lat="46.49958" lon="5.30477">
        <ele>215.6</ele>
        <time>2021-11-20T11:46:59Z</time>
      </trkpt>
      <trkpt lat="46.49976" lon="5.30453">
        <ele>214.8</ele>
        <time>2021-11-20T11:47:02Z</time>
      </trkpt>
      <trkpt lat="46.49983" lon="5.30446">
        <ele>214.4</ele>
        <time>2021-11-20T11:47:03Z</time>
      </trkpt>
      <trkpt lat="46.50003" lon="5.30429">
        <ele>213.4</ele>
        <time>2021-11-20T11:47:06Z</time>
      </trkpt>
      <trkpt lat="46.50027" lon="5.30411">
        <ele>212.6</ele>
        <time>2021-11-20T11:47:09Z</time>
      </trkpt>
      <trkpt lat="46.50034" lon="5.30405">
        <ele>212.4</ele>
        <time>2021-11-20T11:47:10Z</time>
      </trkpt>
      <trkpt lat="46.50058" lon="5.30377">
        <ele>211.6</ele>
        <time>2021-11-20T11:47:14Z</time>
      </trkpt>
      <trkpt lat="46.50071" lon="5.30352">
        <ele>211.4</ele>
        <time>2021-11-20T11:47:17Z</time>
      </trkpt>
      <trkpt lat="46.50078" lon="5.30335">
        <ele>211.2</ele>
        <time>2021-11-20T11:47:19Z</time>
      </trkpt>
      <trkpt lat="46.50087" lon="5.30292">
        <ele>211.4</ele>
        <time>2021-11-20T11:47:24Z</time>
      </trkpt>
      <trkpt lat="46.50089" lon="5.30267">
        <ele>211.8</ele>
        <time>2021-11-20T11:47:27Z</time>
      </trkpt>
      <trkpt lat="46.5009" lon="5.3025">
        <ele>212.2</ele>
        <time>2021-11-20T11:47:29Z</time>
      </trkpt>
      <trkpt lat="46.5009" lon="5.30242">
        <ele>212.6</ele>
        <time>2021-11-20T11:47:30Z</time>
      </trkpt>
      <trkpt lat="46.5009" lon="5.30207">
        <ele>213.2</ele>
        <time>2021-11-20T11:47:34Z</time>
      </trkpt>
      <trkpt lat="46.50089" lon="5.30198">
        <ele>213.6</ele>
        <time>2021-11-20T11:47:35Z</time>
      </trkpt>
      <trkpt lat="46.50089" lon="5.3019">
        <ele>213.6</ele>
        <time>2021-11-20T11:47:36Z</time>
      </trkpt>
      <trkpt lat="46.5009" lon="5.30141">
        <ele>214.2</ele>
        <time>2021-11-20T11:47:42Z</time>
      </trkpt>
      <trkpt lat="46.50091" lon="5.30093">
        <ele>214.4</ele>
        <time>2021-11-20T11:47:48Z</time>
      </trkpt>
      <trkpt lat="46.50091" lon="5.30077">
        <ele>214.6</ele>
        <time>2021-11-20T11:47:50Z</time>
      </trkpt>
      <trkpt lat="46.50086" lon="5.29996">
        <ele>215</ele>
        <time>2021-11-20T11:48:00Z</time>
      </trkpt>
      <trkpt lat="46.50073" lon="5.29948">
        <ele>215</ele>
        <time>2021-11-20T11:48:06Z</time>
      </trkpt>
      <trkpt lat="46.50051" lon="5.29906">
        <ele>215</ele>
        <time>2021-11-20T11:48:12Z</time>
      </trkpt>
      <trkpt lat="46.50037" lon="5.2989">
        <ele>214.8</ele>
        <time>2021-11-20T11:48:15Z</time>
      </trkpt>
      <trkpt lat="46.50028" lon="5.29881">
        <ele>214.6</ele>
        <time>2021-11-20T11:48:17Z</time>
      </trkpt>
      <trkpt lat="46.50024" lon="5.29875">
        <ele>214.4</ele>
        <time>2021-11-20T11:48:18Z</time>
      </trkpt>
      <trkpt lat="46.50022" lon="5.29861">
        <ele>214.4</ele>
        <time>2021-11-20T11:48:20Z</time>
      </trkpt>
      <trkpt lat="46.50027" lon="5.29847">
        <ele>214.2</ele>
        <time>2021-11-20T11:48:22Z</time>
      </trkpt>
      <trkpt lat="46.50031" lon="5.2984">
        <ele>214.2</ele>
        <time>2021-11-20T11:48:23Z</time>
      </trkpt>
      <trkpt lat="46.50035" lon="5.29834">
        <ele>214.2</ele>
        <time>2021-11-20T11:48:24Z</time>
      </trkpt>
      <trkpt lat="46.50055" lon="5.29811">
        <ele>213.8</ele>
        <time>2021-11-20T11:48:28Z</time>
      </trkpt>
      <trkpt lat="46.5006" lon="5.29807">
        <ele>213.8</ele>
        <time>2021-11-20T11:48:29Z</time>
      </trkpt>
      <trkpt lat="46.50093" lon="5.29793">
        <ele>214</ele>
        <time>2021-11-20T11:48:35Z</time>
      </trkpt>
      <trkpt lat="46.5013" lon="5.2978">
        <ele>215</ele>
        <time>2021-11-20T11:48:42Z</time>
      </trkpt>
      <trkpt lat="46.50145" lon="5.29776">
        <ele>215.6</ele>
        <time>2021-11-20T11:48:45Z</time>
      </trkpt>
      <trkpt lat="46.50156" lon="5.29774">
        <ele>216.2</ele>
        <time>2021-11-20T11:48:47Z</time>
      </trkpt>
      <trkpt lat="46.50161" lon="5.29773">
        <ele>216.4</ele>
        <time>2021-11-20T11:48:48Z</time>
      </trkpt>
      <trkpt lat="46.50171" lon="5.29773">
        <ele>216.8</ele>
        <time>2021-11-20T11:48:50Z</time>
      </trkpt>
      <trkpt lat="46.50205" lon="5.29773">
        <ele>218</ele>
        <time>2021-11-20T11:48:56Z</time>
      </trkpt>
      <trkpt lat="46.50252" lon="5.29771">
        <ele>219.2</ele>
        <time>2021-11-20T11:49:04Z</time>
      </trkpt>
      <trkpt lat="46.50305" lon="5.29751">
        <ele>219.6</ele>
        <time>2021-11-20T11:49:13Z</time>
      </trkpt>
      <trkpt lat="46.50316" lon="5.29746">
        <ele>219.8</ele>
        <time>2021-11-20T11:49:15Z</time>
      </trkpt>
      <trkpt lat="46.50327" lon="5.29742">
        <ele>220.2</ele>
        <time>2021-11-20T11:49:17Z</time>
      </trkpt>
      <trkpt lat="46.50377" lon="5.29721">
        <ele>220.6</ele>
        <time>2021-11-20T11:49:26Z</time>
      </trkpt>
      <trkpt lat="46.50433" lon="5.29686">
        <ele>221</ele>
        <time>2021-11-20T11:49:36Z</time>
      </trkpt>
      <trkpt lat="46.50439" lon="5.29682">
        <ele>221</ele>
        <time>2021-11-20T11:49:37Z</time>
      </trkpt>
      <trkpt lat="46.50491" lon="5.29645">
        <ele>220.8</ele>
        <time>2021-11-20T11:49:46Z</time>
      </trkpt>
      <trkpt lat="46.50543" lon="5.29608">
        <ele>220.6</ele>
        <time>2021-11-20T11:49:55Z</time>
      </trkpt>
      <trkpt lat="46.50594" lon="5.29568">
        <ele>220.4</ele>
        <time>2021-11-20T11:50:04Z</time>
      </trkpt>
      <trkpt lat="46.506" lon="5.29564">
        <ele>220.4</ele>
        <time>2021-11-20T11:50:05Z</time>
      </trkpt>
      <trkpt lat="46.50646" lon="5.29532">
        <ele>220.2</ele>
        <time>2021-11-20T11:50:13Z</time>
      </trkpt>
      <trkpt lat="46.50653" lon="5.2953">
        <ele>220</ele>
        <time>2021-11-20T11:50:14Z</time>
      </trkpt>
      <trkpt lat="46.50667" lon="5.29529">
        <ele>219.8</ele>
        <time>2021-11-20T11:50:16Z</time>
      </trkpt>
      <trkpt lat="46.50681" lon="5.29533">
        <ele>219.6</ele>
        <time>2021-11-20T11:50:18Z</time>
      </trkpt>
      <trkpt lat="46.50716" lon="5.29549">
        <ele>219</ele>
        <time>2021-11-20T11:50:23Z</time>
      </trkpt>
      <trkpt lat="46.5073" lon="5.29556">
        <ele>218.8</ele>
        <time>2021-11-20T11:50:25Z</time>
      </trkpt>
      <trkpt lat="46.50754" lon="5.29565">
        <ele>218</ele>
        <time>2021-11-20T11:50:28Z</time>
      </trkpt>
      <trkpt lat="46.50779" lon="5.29569">
        <ele>216.8</ele>
        <time>2021-11-20T11:50:31Z</time>
      </trkpt>
      <trkpt lat="46.50823" lon="5.29571">
        <ele>215.4</ele>
        <time>2021-11-20T11:50:36Z</time>
      </trkpt>
      <trkpt lat="46.50851" lon="5.29574">
        <ele>214.6</ele>
        <time>2021-11-20T11:50:39Z</time>
      </trkpt>
      <trkpt lat="46.5086" lon="5.29575">
        <ele>214</ele>
        <time>2021-11-20T11:50:40Z</time>
      </trkpt>
      <trkpt lat="46.5087" lon="5.29576">
        <ele>212.8</ele>
        <time>2021-11-20T11:50:41Z</time>
      </trkpt>
      <trkpt lat="46.50898" lon="5.29574">
        <ele>211.8</ele>
        <time>2021-11-20T11:50:44Z</time>
      </trkpt>
      <trkpt lat="46.50908" lon="5.29572">
        <ele>211.2</ele>
        <time>2021-11-20T11:50:45Z</time>
      </trkpt>
      <trkpt lat="46.50918" lon="5.29568">
        <ele>210.8</ele>
        <time>2021-11-20T11:50:46Z</time>
      </trkpt>
      <trkpt lat="46.50928" lon="5.29562">
        <ele>210.2</ele>
        <time>2021-11-20T11:50:47Z</time>
      </trkpt>
      <trkpt lat="46.50946" lon="5.29549">
        <ele>209.4</ele>
        <time>2021-11-20T11:50:49Z</time>
      </trkpt>
      <trkpt lat="46.50956" lon="5.29541">
        <ele>208.6</ele>
        <time>2021-11-20T11:50:50Z</time>
      </trkpt>
      <trkpt lat="46.50974" lon="5.29526">
        <ele>207.4</ele>
        <time>2021-11-20T11:50:52Z</time>
      </trkpt>
      <trkpt lat="46.50993" lon="5.29511">
        <ele>206</ele>
        <time>2021-11-20T11:50:54Z</time>
      </trkpt>
      <trkpt lat="46.51013" lon="5.29495">
        <ele>204.8</ele>
        <time>2021-11-20T11:50:56Z</time>
      </trkpt>
      <trkpt lat="46.5103" lon="5.29482">
        <ele>203</ele>
        <time>2021-11-20T11:50:58Z</time>
      </trkpt>
      <trkpt lat="46.51051" lon="5.29466">
        <ele>201.8</ele>
        <time>2021-11-20T11:51:00Z</time>
      </trkpt>
      <trkpt lat="46.51069" lon="5.29455">
        <ele>200.4</ele>
        <time>2021-11-20T11:51:02Z</time>
      </trkpt>
      <trkpt lat="46.51079" lon="5.29451">
        <ele>199.8</ele>
        <time>2021-11-20T11:51:03Z</time>
      </trkpt>
      <trkpt lat="46.51098" lon="5.29443">
        <ele>199</ele>
        <time>2021-11-20T11:51:05Z</time>
      </trkpt>
      <trkpt lat="46.51125" lon="5.29435">
        <ele>197.8</ele>
        <time>2021-11-20T11:51:08Z</time>
      </trkpt>
      <trkpt lat="46.51134" lon="5.29432">
        <ele>197.6</ele>
        <time>2021-11-20T11:51:09Z</time>
      </trkpt>
      <trkpt lat="46.51176" lon="5.2942">
        <ele>196.8</ele>
        <time>2021-11-20T11:51:14Z</time>
      </trkpt>
      <trkpt lat="46.512" lon="5.29414">
        <ele>196.4</ele>
        <time>2021-11-20T11:51:17Z</time>
      </trkpt>
      <trkpt lat="46.51248" lon="5.29402">
        <ele>195.8</ele>
        <time>2021-11-20T11:51:23Z</time>
      </trkpt>
      <trkpt lat="46.51279" lon="5.29394">
        <ele>195.4</ele>
        <time>2021-11-20T11:51:27Z</time>
      </trkpt>
      <trkpt lat="46.51328" lon="5.29366">
        <ele>195</ele>
        <time>2021-11-20T11:51:34Z</time>
      </trkpt>
      <trkpt lat="46.51355" lon="5.29349">
        <ele>195</ele>
        <time>2021-11-20T11:51:38Z</time>
      </trkpt>
      <trkpt lat="46.51366" lon="5.29337">
        <ele>195</ele>
        <time>2021-11-20T11:51:40Z</time>
      </trkpt>
      <trkpt lat="46.51371" lon="5.29331">
        <ele>195</ele>
        <time>2021-11-20T11:51:41Z</time>
      </trkpt>
      <trkpt lat="46.51384" lon="5.29308">
        <ele>195</ele>
        <time>2021-11-20T11:51:44Z</time>
      </trkpt>
      <trkpt lat="46.51419" lon="5.29248">
        <ele>195</ele>
        <time>2021-11-20T11:51:52Z</time>
      </trkpt>
      <trkpt lat="46.51441" lon="5.29212">
        <ele>195.2</ele>
        <time>2021-11-20T11:51:57Z</time>
      </trkpt>
      <trkpt lat="46.51444" lon="5.29203">
        <ele>195.2</ele>
        <time>2021-11-20T11:51:58Z</time>
      </trkpt>
      <trkpt lat="46.51456" lon="5.29145">
        <ele>195.2</ele>
        <time>2021-11-20T11:52:04Z</time>
      </trkpt>
      <trkpt lat="46.5147" lon="5.29063">
        <ele>194.8</ele>
        <time>2021-11-20T11:52:12Z</time>
      </trkpt>
      <trkpt lat="46.51472" lon="5.29053">
        <ele>194.6</ele>
        <time>2021-11-20T11:52:13Z</time>
      </trkpt>
      <trkpt lat="46.51474" lon="5.29043">
        <ele>194.6</ele>
        <time>2021-11-20T11:52:14Z</time>
      </trkpt>
      <trkpt lat="46.51488" lon="5.28961">
        <ele>194</ele>
        <time>2021-11-20T11:52:22Z</time>
      </trkpt>
      <trkpt lat="46.51493" lon="5.28933">
        <ele>193.6</ele>
        <time>2021-11-20T11:52:25Z</time>
      </trkpt>
      <trkpt lat="46.51507" lon="5.28852">
        <ele>193</ele>
        <time>2021-11-20T11:52:33Z</time>
      </trkpt>
      <trkpt lat="46.51509" lon="5.28842">
        <ele>192.8</ele>
        <time>2021-11-20T11:52:34Z</time>
      </trkpt>
      <trkpt lat="46.51512" lon="5.28831">
        <ele>192.8</ele>
        <time>2021-11-20T11:52:35Z</time>
      </trkpt>
      <trkpt lat="46.51522" lon="5.28805">
        <ele>192.8</ele>
        <time>2021-11-20T11:52:38Z</time>
      </trkpt>
      <trkpt lat="46.5155" lon="5.28753">
        <ele>193.2</ele>
        <time>2021-11-20T11:52:45Z</time>
      </trkpt>
      <trkpt lat="46.51583" lon="5.2869">
        <ele>193.6</ele>
        <time>2021-11-20T11:52:54Z</time>
      </trkpt>
      <trkpt lat="46.51587" lon="5.28684">
        <ele>193.8</ele>
        <time>2021-11-20T11:52:55Z</time>
      </trkpt>
      <trkpt lat="46.51595" lon="5.28672">
        <ele>194</ele>
        <time>2021-11-20T11:52:57Z</time>
      </trkpt>
      <trkpt lat="46.51605" lon="5.28664">
        <ele>194.4</ele>
        <time>2021-11-20T11:52:59Z</time>
      </trkpt>
      <trkpt lat="46.51611" lon="5.28661">
        <ele>194.4</ele>
        <time>2021-11-20T11:53:00Z</time>
      </trkpt>
      <trkpt lat="46.51616" lon="5.28659">
        <ele>194.4</ele>
        <time>2021-11-20T11:53:01Z</time>
      </trkpt>
      <trkpt lat="46.51628" lon="5.28656">
        <ele>194.6</ele>
        <time>2021-11-20T11:53:03Z</time>
      </trkpt>
      <trkpt lat="46.51644" lon="5.28654">
        <ele>195</ele>
        <time>2021-11-20T11:53:06Z</time>
      </trkpt>
      <trkpt lat="46.51666" lon="5.28651">
        <ele>195.8</ele>
        <time>2021-11-20T11:53:10Z</time>
      </trkpt>
      <trkpt lat="46.51698" lon="5.28647">
        <ele>196.8</ele>
        <time>2021-11-20T11:53:16Z</time>
      </trkpt>
      <trkpt lat="46.51702" lon="5.28647">
        <ele>197</ele>
        <time>2021-11-20T11:53:17Z</time>
      </trkpt>
      <trkpt lat="46.51713" lon="5.28647">
        <ele>197.4</ele>
        <time>2021-11-20T11:53:19Z</time>
      </trkpt>
      <trkpt lat="46.51726" lon="5.28651">
        <ele>197.8</ele>
        <time>2021-11-20T11:53:21Z</time>
      </trkpt>
      <trkpt lat="46.51732" lon="5.28654">
        <ele>197.8</ele>
        <time>2021-11-20T11:53:22Z</time>
      </trkpt>
      <trkpt lat="46.51736" lon="5.28657">
        <ele>198</ele>
        <time>2021-11-20T11:53:23Z</time>
      </trkpt>
      <trkpt lat="46.51766" lon="5.28682">
        <ele>198.4</ele>
        <time>2021-11-20T11:53:29Z</time>
      </trkpt>
      <trkpt lat="46.51782" lon="5.28692">
        <ele>198.6</ele>
        <time>2021-11-20T11:53:32Z</time>
      </trkpt>
      <trkpt lat="46.51795" lon="5.28695">
        <ele>198.6</ele>
        <time>2021-11-20T11:53:34Z</time>
      </trkpt>
      <trkpt lat="46.51833" lon="5.287">
        <ele>198.6</ele>
        <time>2021-11-20T11:53:40Z</time>
      </trkpt>
      <trkpt lat="46.51846" lon="5.28705">
        <ele>198.6</ele>
        <time>2021-11-20T11:53:42Z</time>
      </trkpt>
      <trkpt lat="46.51871" lon="5.2872">
        <ele>198.2</ele>
        <time>2021-11-20T11:53:46Z</time>
      </trkpt>
      <trkpt lat="46.51897" lon="5.28741">
        <ele>197.8</ele>
        <time>2021-11-20T11:53:50Z</time>
      </trkpt>
      <trkpt lat="46.51911" lon="5.28748">
        <ele>197.8</ele>
        <time>2021-11-20T11:53:52Z</time>
      </trkpt>
      <trkpt lat="46.51954" lon="5.28755">
        <ele>197</ele>
        <time>2021-11-20T11:53:58Z</time>
      </trkpt>
      <trkpt lat="46.5196" lon="5.28755">
        <ele>196.8</ele>
        <time>2021-11-20T11:53:59Z</time>
      </trkpt>
      <trkpt lat="46.51998" lon="5.28748">
        <ele>196</ele>
        <time>2021-11-20T11:54:04Z</time>
      </trkpt>
      <trkpt lat="46.52014" lon="5.28739">
        <ele>195.4</ele>
        <time>2021-11-20T11:54:06Z</time>
      </trkpt>
      <trkpt lat="46.52036" lon="5.28727">
        <ele>195</ele>
        <time>2021-11-20T11:54:09Z</time>
      </trkpt>
      <trkpt lat="46.52059" lon="5.2872">
        <ele>194.4</ele>
        <time>2021-11-20T11:54:12Z</time>
      </trkpt>
      <trkpt lat="46.52074" lon="5.28717">
        <ele>194.2</ele>
        <time>2021-11-20T11:54:14Z</time>
      </trkpt>
      <trkpt lat="46.52119" lon="5.28707">
        <ele>193.4</ele>
        <time>2021-11-20T11:54:20Z</time>
      </trkpt>
      <trkpt lat="46.52126" lon="5.28705">
        <ele>193.4</ele>
        <time>2021-11-20T11:54:21Z</time>
      </trkpt>
      <trkpt lat="46.52182" lon="5.28683">
        <ele>193</ele>
        <time>2021-11-20T11:54:29Z</time>
      </trkpt>
      <trkpt lat="46.52202" lon="5.28675">
        <ele>192.8</ele>
        <time>2021-11-20T11:54:32Z</time>
      </trkpt>
      <trkpt lat="46.52242" lon="5.28665">
        <ele>192.8</ele>
        <time>2021-11-20T11:54:38Z</time>
      </trkpt>
      <trkpt lat="46.5227" lon="5.28663">
        <ele>193.2</ele>
        <time>2021-11-20T11:54:43Z</time>
      </trkpt>
      <trkpt lat="46.52313" lon="5.28659">
        <ele>194.4</ele>
        <time>2021-11-20T11:54:51Z</time>
      </trkpt>
      <trkpt lat="46.52353" lon="5.28653">
        <ele>195.4</ele>
        <time>2021-11-20T11:54:59Z</time>
      </trkpt>
      <trkpt lat="46.52381" lon="5.28648">
        <ele>196.8</ele>
        <time>2021-11-20T11:55:05Z</time>
      </trkpt>
      <trkpt lat="46.52395" lon="5.28645">
        <ele>197.4</ele>
        <time>2021-11-20T11:55:08Z</time>
      </trkpt>
      <trkpt lat="46.52403" lon="5.28644">
        <ele>198</ele>
        <time>2021-11-20T11:55:10Z</time>
      </trkpt>
      <trkpt lat="46.52424" lon="5.28642">
        <ele>199</ele>
        <time>2021-11-20T11:55:15Z</time>
      </trkpt>
      <trkpt lat="46.52437" lon="5.28639">
        <ele>199.8</ele>
        <time>2021-11-20T11:55:18Z</time>
      </trkpt>
      <trkpt lat="46.52445" lon="5.28638">
        <ele>200.2</ele>
        <time>2021-11-20T11:55:20Z</time>
      </trkpt>
      <trkpt lat="46.52469" lon="5.28634">
        <ele>201.2</ele>
        <time>2021-11-20T11:55:26Z</time>
      </trkpt>
      <trkpt lat="46.52473" lon="5.28633">
        <ele>201.8</ele>
        <time>2021-11-20T11:55:27Z</time>
      </trkpt>
      <trkpt lat="46.52488" lon="5.28629">
        <ele>202.4</ele>
        <time>2021-11-20T11:55:31Z</time>
      </trkpt>
      <trkpt lat="46.52503" lon="5.28627">
        <ele>203.4</ele>
        <time>2021-11-20T11:55:35Z</time>
      </trkpt>
      <trkpt lat="46.52507" lon="5.28626">
        <ele>203.6</ele>
        <time>2021-11-20T11:55:36Z</time>
      </trkpt>
      <trkpt lat="46.52526" lon="5.28623">
        <ele>204.8</ele>
        <time>2021-11-20T11:55:41Z</time>
      </trkpt>
      <trkpt lat="46.52534" lon="5.28621">
        <ele>205.4</ele>
        <time>2021-11-20T11:55:43Z</time>
      </trkpt>
      <trkpt lat="46.5255" lon="5.28619">
        <ele>206</ele>
        <time>2021-11-20T11:55:47Z</time>
      </trkpt>
      <trkpt lat="46.5257" lon="5.28615">
        <ele>207</ele>
        <time>2021-11-20T11:55:52Z</time>
      </trkpt>
      <trkpt lat="46.52578" lon="5.28613">
        <ele>207.4</ele>
        <time>2021-11-20T11:55:54Z</time>
      </trkpt>
      <trkpt lat="46.52607" lon="5.28613">
        <ele>208.4</ele>
        <time>2021-11-20T11:56:01Z</time>
      </trkpt>
      <trkpt lat="46.52636" lon="5.28621">
        <ele>209.4</ele>
        <time>2021-11-20T11:56:08Z</time>
      </trkpt>
      <trkpt lat="46.52649" lon="5.28626">
        <ele>209.8</ele>
        <time>2021-11-20T11:56:11Z</time>
      </trkpt>
      <trkpt lat="46.52672" lon="5.28631">
        <ele>210.6</ele>
        <time>2021-11-20T11:56:16Z</time>
      </trkpt>
      <trkpt lat="46.52681" lon="5.28631">
        <ele>210.8</ele>
        <time>2021-11-20T11:56:18Z</time>
      </trkpt>
      <trkpt lat="46.52717" lon="5.28625">
        <ele>211.4</ele>
        <time>2021-11-20T11:56:25Z</time>
      </trkpt>
      <trkpt lat="46.52744" lon="5.2862">
        <ele>211.6</ele>
        <time>2021-11-20T11:56:30Z</time>
      </trkpt>
      <trkpt lat="46.52754" lon="5.28618">
        <ele>211.6</ele>
        <time>2021-11-20T11:56:32Z</time>
      </trkpt>
      <trkpt lat="46.52794" lon="5.28611">
        <ele>212.4</ele>
        <time>2021-11-20T11:56:40Z</time>
      </trkpt>
      <trkpt lat="46.52806" lon="5.28609">
        <ele>212.6</ele>
        <time>2021-11-20T11:56:43Z</time>
      </trkpt>
      <trkpt lat="46.52816" lon="5.28607">
        <ele>212.8</ele>
        <time>2021-11-20T11:56:45Z</time>
      </trkpt>
      <trkpt lat="46.52848" lon="5.286">
        <ele>213.2</ele>
        <time>2021-11-20T11:56:51Z</time>
      </trkpt>
      <trkpt lat="46.52886" lon="5.28592">
        <ele>213.6</ele>
        <time>2021-11-20T11:56:58Z</time>
      </trkpt>
      <trkpt lat="46.52893" lon="5.28591">
        <ele>213.6</ele>
        <time>2021-11-20T11:56:59Z</time>
      </trkpt>
      <trkpt lat="46.5294" lon="5.28582">
        <ele>213.8</ele>
        <time>2021-11-20T11:57:07Z</time>
      </trkpt>
      <trkpt lat="46.52993" lon="5.2857">
        <ele>213.6</ele>
        <time>2021-11-20T11:57:15Z</time>
      </trkpt>
      <trkpt lat="46.53033" lon="5.2856">
        <ele>212.6</ele>
        <time>2021-11-20T11:57:21Z</time>
      </trkpt>
      <trkpt lat="46.53046" lon="5.28557">
        <ele>212.2</ele>
        <time>2021-11-20T11:57:23Z</time>
      </trkpt>
      <trkpt lat="46.53069" lon="5.28554">
        <ele>211.6</ele>
        <time>2021-11-20T11:57:26Z</time>
      </trkpt>
      <trkpt lat="46.53085" lon="5.28551">
        <ele>211</ele>
        <time>2021-11-20T11:57:28Z</time>
      </trkpt>
      <trkpt lat="46.5313" lon="5.28542">
        <ele>209.8</ele>
        <time>2021-11-20T11:57:34Z</time>
      </trkpt>
      <trkpt lat="46.53175" lon="5.28533">
        <ele>209</ele>
        <time>2021-11-20T11:57:40Z</time>
      </trkpt>
      <trkpt lat="46.53183" lon="5.28533">
        <ele>208.8</ele>
        <time>2021-11-20T11:57:41Z</time>
      </trkpt>
      <trkpt lat="46.53208" lon="5.28529">
        <ele>207.4</ele>
        <time>2021-11-20T11:57:44Z</time>
      </trkpt>
      <trkpt lat="46.53248" lon="5.28527">
        <ele>206.2</ele>
        <time>2021-11-20T11:57:48Z</time>
      </trkpt>
      <trkpt lat="46.53267" lon="5.28527">
        <ele>205.2</ele>
        <time>2021-11-20T11:57:50Z</time>
      </trkpt>
      <trkpt lat="46.53299" lon="5.28527">
        <ele>203.8</ele>
        <time>2021-11-20T11:57:53Z</time>
      </trkpt>
      <trkpt lat="46.53307" lon="5.28528">
        <ele>203.2</ele>
        <time>2021-11-20T11:57:54Z</time>
      </trkpt>
      <trkpt lat="46.53323" lon="5.28531">
        <ele>202.6</ele>
        <time>2021-11-20T11:57:56Z</time>
      </trkpt>
      <trkpt lat="46.5334" lon="5.28538">
        <ele>202</ele>
        <time>2021-11-20T11:57:58Z</time>
      </trkpt>
      <trkpt lat="46.53372" lon="5.28558">
        <ele>202</ele>
        <time>2021-11-20T11:58:03Z</time>
      </trkpt>
      <trkpt lat="46.53404" lon="5.2858">
        <ele>203.2</ele>
        <time>2021-11-20T11:58:09Z</time>
      </trkpt>
      <trkpt lat="46.53413" lon="5.28585">
        <ele>203.8</ele>
        <time>2021-11-20T11:58:11Z</time>
      </trkpt>
      <trkpt lat="46.5342" lon="5.28589">
        <ele>204.6</ele>
        <time>2021-11-20T11:58:13Z</time>
      </trkpt>
      <trkpt lat="46.53428" lon="5.28592">
        <ele>205</ele>
        <time>2021-11-20T11:58:15Z</time>
      </trkpt>
      <trkpt lat="46.53441" lon="5.28599">
        <ele>206.4</ele>
        <time>2021-11-20T11:58:19Z</time>
      </trkpt>
      <trkpt lat="46.53448" lon="5.28602">
        <ele>207</ele>
        <time>2021-11-20T11:58:21Z</time>
      </trkpt>
      <trkpt lat="46.53459" lon="5.28604">
        <ele>207.6</ele>
        <time>2021-11-20T11:58:23Z</time>
      </trkpt>
      <trkpt lat="46.53477" lon="5.28606">
        <ele>208.6</ele>
        <time>2021-11-20T11:58:27Z</time>
      </trkpt>
      <trkpt lat="46.53481" lon="5.28606">
        <ele>209</ele>
        <time>2021-11-20T11:58:28Z</time>
      </trkpt>
      <trkpt lat="46.53498" lon="5.28607">
        <ele>210</ele>
        <time>2021-11-20T11:58:32Z</time>
      </trkpt>
      <trkpt lat="46.53502" lon="5.28607">
        <ele>210.4</ele>
        <time>2021-11-20T11:58:33Z</time>
      </trkpt>
      <trkpt lat="46.5351" lon="5.28607">
        <ele>211</ele>
        <time>2021-11-20T11:58:35Z</time>
      </trkpt>
      <trkpt lat="46.53531" lon="5.28609">
        <ele>211.8</ele>
        <time>2021-11-20T11:58:39Z</time>
      </trkpt>
      <trkpt lat="46.53537" lon="5.2861">
        <ele>212</ele>
        <time>2021-11-20T11:58:40Z</time>
      </trkpt>
      <trkpt lat="46.53543" lon="5.2861">
        <ele>212</ele>
        <time>2021-11-20T11:58:41Z</time>
      </trkpt>
      <trkpt lat="46.53564" lon="5.28612">
        <ele>212.6</ele>
        <time>2021-11-20T11:58:45Z</time>
      </trkpt>
      <trkpt lat="46.53568" lon="5.28613">
        <ele>212.6</ele>
        <time>2021-11-20T11:58:46Z</time>
      </trkpt>
      <trkpt lat="46.53591" lon="5.28614">
        <ele>212.8</ele>
        <time>2021-11-20T11:58:51Z</time>
      </trkpt>
      <trkpt lat="46.5361" lon="5.28615">
        <ele>213.2</ele>
        <time>2021-11-20T11:58:55Z</time>
      </trkpt>
      <trkpt lat="46.53625" lon="5.28617">
        <ele>213.6</ele>
        <time>2021-11-20T11:58:58Z</time>
      </trkpt>
      <trkpt lat="46.53655" lon="5.28619">
        <ele>214</ele>
        <time>2021-11-20T11:59:05Z</time>
      </trkpt>
      <trkpt lat="46.53671" lon="5.28619">
        <ele>214.2</ele>
        <time>2021-11-20T11:59:08Z</time>
      </trkpt>
      <trkpt lat="46.53702" lon="5.28621">
        <ele>215</ele>
        <time>2021-11-20T11:59:14Z</time>
      </trkpt>
      <trkpt lat="46.53739" lon="5.28624">
        <ele>215.2</ele>
        <time>2021-11-20T11:59:21Z</time>
      </trkpt>
      <trkpt lat="46.53746" lon="5.28624">
        <ele>215.2</ele>
        <time>2021-11-20T11:59:25Z</time>
      </trkpt>
      <trkpt lat="46.53752" lon="5.28625">
        <ele>215.4</ele>
        <time>2021-11-20T11:59:31Z</time>
      </trkpt>
      <trkpt lat="46.53759" lon="5.28625">
        <ele>215.4</ele>
        <time>2021-11-20T11:59:33Z</time>
      </trkpt>
      <trkpt lat="46.53788" lon="5.28627">
        <ele>215.4</ele>
        <time>2021-11-20T11:59:39Z</time>
      </trkpt>
      <trkpt lat="46.5382" lon="5.2863">
        <ele>215.6</ele>
        <time>2021-11-20T11:59:45Z</time>
      </trkpt>
      <trkpt lat="46.53861" lon="5.28633">
        <ele>218.2</ele>
        <time>2021-11-20T11:59:52Z</time>
      </trkpt>
      <trkpt lat="46.53878" lon="5.28634">
        <ele>216</ele>
        <time>2021-11-20T11:59:55Z</time>
      </trkpt>
      <trkpt lat="46.53902" lon="5.28635">
        <ele>216</ele>
        <time>2021-11-20T11:59:59Z</time>
      </trkpt>
      <trkpt lat="46.53943" lon="5.28639">
        <ele>215.4</ele>
        <time>2021-11-20T12:00:05Z</time>
      </trkpt>
      <trkpt lat="46.54" lon="5.28642">
        <ele>214.4</ele>
        <time>2021-11-20T12:00:13Z</time>
      </trkpt>
      <trkpt lat="46.54015" lon="5.28643">
        <ele>214.2</ele>
        <time>2021-11-20T12:00:15Z</time>
      </trkpt>
      <trkpt lat="46.54072" lon="5.28649">
        <ele>213.2</ele>
        <time>2021-11-20T12:00:23Z</time>
      </trkpt>
      <trkpt lat="46.54128" lon="5.28654">
        <ele>212.6</ele>
        <time>2021-11-20T12:00:31Z</time>
      </trkpt>
      <trkpt lat="46.54135" lon="5.28653">
        <ele>212.6</ele>
        <time>2021-11-20T12:00:32Z</time>
      </trkpt>
      <trkpt lat="46.54157" lon="5.2865">
        <ele>212.2</ele>
        <time>2021-11-20T12:00:35Z</time>
      </trkpt>
      <trkpt lat="46.54174" lon="5.28646">
        <ele>211.8</ele>
        <time>2021-11-20T12:00:37Z</time>
      </trkpt>
      <trkpt lat="46.54182" lon="5.28643">
        <ele>211.6</ele>
        <time>2021-11-20T12:00:38Z</time>
      </trkpt>
      <trkpt lat="46.54199" lon="5.28634">
        <ele>211</ele>
        <time>2021-11-20T12:00:40Z</time>
      </trkpt>
      <trkpt lat="46.54215" lon="5.28625">
        <ele>210.2</ele>
        <time>2021-11-20T12:00:42Z</time>
      </trkpt>
      <trkpt lat="46.54224" lon="5.2862">
        <ele>210</ele>
        <time>2021-11-20T12:00:43Z</time>
      </trkpt>
      <trkpt lat="46.54241" lon="5.28607">
        <ele>208.8</ele>
        <time>2021-11-20T12:00:45Z</time>
      </trkpt>
      <trkpt lat="46.54266" lon="5.28589">
        <ele>207.6</ele>
        <time>2021-11-20T12:00:48Z</time>
      </trkpt>
      <trkpt lat="46.54283" lon="5.28576">
        <ele>206.4</ele>
        <time>2021-11-20T12:00:50Z</time>
      </trkpt>
      <trkpt lat="46.54308" lon="5.28558">
        <ele>204.8</ele>
        <time>2021-11-20T12:00:53Z</time>
      </trkpt>
      <trkpt lat="46.54325" lon="5.28546">
        <ele>203.6</ele>
        <time>2021-11-20T12:00:55Z</time>
      </trkpt>
      <trkpt lat="46.54333" lon="5.2854">
        <ele>203.6</ele>
        <time>2021-11-20T12:00:56Z</time>
      </trkpt>
      <trkpt lat="46.5435" lon="5.28527">
        <ele>202.6</ele>
        <time>2021-11-20T12:00:58Z</time>
      </trkpt>
      <trkpt lat="46.54385" lon="5.28499">
        <ele>201.2</ele>
        <time>2021-11-20T12:01:02Z</time>
      </trkpt>
      <trkpt lat="46.54409" lon="5.28479">
        <ele>200.2</ele>
        <time>2021-11-20T12:01:05Z</time>
      </trkpt>
      <trkpt lat="46.54426" lon="5.28464">
        <ele>199.4</ele>
        <time>2021-11-20T12:01:07Z</time>
      </trkpt>
      <trkpt lat="46.54434" lon="5.28459">
        <ele>199</ele>
        <time>2021-11-20T12:01:08Z</time>
      </trkpt>
      <trkpt lat="46.54451" lon="5.28453">
        <ele>198.6</ele>
        <time>2021-11-20T12:01:10Z</time>
      </trkpt>
      <trkpt lat="46.54484" lon="5.28453">
        <ele>198</ele>
        <time>2021-11-20T12:01:14Z</time>
      </trkpt>
      <trkpt lat="46.54492" lon="5.28454">
        <ele>197.8</ele>
        <time>2021-11-20T12:01:15Z</time>
      </trkpt>
      <trkpt lat="46.54539" lon="5.2845">
        <ele>197.4</ele>
        <time>2021-11-20T12:01:21Z</time>
      </trkpt>
      <trkpt lat="46.54554" lon="5.28451">
        <ele>197.4</ele>
        <time>2021-11-20T12:01:23Z</time>
      </trkpt>
      <trkpt lat="46.54568" lon="5.28454">
        <ele>197.2</ele>
        <time>2021-11-20T12:01:25Z</time>
      </trkpt>
      <trkpt lat="46.54607" lon="5.28458">
        <ele>197.4</ele>
        <time>2021-11-20T12:01:31Z</time>
      </trkpt>
      <trkpt lat="46.5465" lon="5.2845">
        <ele>198</ele>
        <time>2021-11-20T12:01:38Z</time>
      </trkpt>
      <trkpt lat="46.54687" lon="5.28432">
        <ele>198.8</ele>
        <time>2021-11-20T12:01:45Z</time>
      </trkpt>
      <trkpt lat="46.54693" lon="5.28428">
        <ele>199</ele>
        <time>2021-11-20T12:01:46Z</time>
      </trkpt>
      <trkpt lat="46.54724" lon="5.28413">
        <ele>200</ele>
        <time>2021-11-20T12:01:52Z</time>
      </trkpt>
      <trkpt lat="46.54747" lon="5.28404">
        <ele>200.8</ele>
        <time>2021-11-20T12:01:57Z</time>
      </trkpt>
      <trkpt lat="46.54755" lon="5.28399">
        <ele>201.2</ele>
        <time>2021-11-20T12:01:59Z</time>
      </trkpt>
      <trkpt lat="46.54767" lon="5.28387">
        <ele>201.8</ele>
        <time>2021-11-20T12:02:02Z</time>
      </trkpt>
      <trkpt lat="46.54771" lon="5.28383">
        <ele>202.2</ele>
        <time>2021-11-20T12:02:03Z</time>
      </trkpt>
      <trkpt lat="46.54782" lon="5.28369">
        <ele>202.8</ele>
        <time>2021-11-20T12:02:06Z</time>
      </trkpt>
      <trkpt lat="46.54792" lon="5.28364">
        <ele>203</ele>
        <time>2021-11-20T12:02:08Z</time>
      </trkpt>
      <trkpt lat="46.54797" lon="5.28363">
        <ele>203</ele>
        <time>2021-11-20T12:02:09Z</time>
      </trkpt>
      <trkpt lat="46.54802" lon="5.28365">
        <ele>203.2</ele>
        <time>2021-11-20T12:02:10Z</time>
      </trkpt>
      <trkpt lat="46.54807" lon="5.28368">
        <ele>203.2</ele>
        <time>2021-11-20T12:02:11Z</time>
      </trkpt>
      <trkpt lat="46.54817" lon="5.28373">
        <ele>203.4</ele>
        <time>2021-11-20T12:02:13Z</time>
      </trkpt>
      <trkpt lat="46.54852" lon="5.28396">
        <ele>203.4</ele>
        <time>2021-11-20T12:02:19Z</time>
      </trkpt>
      <trkpt lat="46.54894" lon="5.28425">
        <ele>202.2</ele>
        <time>2021-11-20T12:02:25Z</time>
      </trkpt>
      <trkpt lat="46.54913" lon="5.28441">
        <ele>201</ele>
        <time>2021-11-20T12:02:28Z</time>
      </trkpt>
      <trkpt lat="46.5492" lon="5.28445">
        <ele>200.8</ele>
        <time>2021-11-20T12:02:29Z</time>
      </trkpt>
      <trkpt lat="46.54934" lon="5.2845">
        <ele>200.4</ele>
        <time>2021-11-20T12:02:31Z</time>
      </trkpt>
      <trkpt lat="46.54948" lon="5.28449">
        <ele>200</ele>
        <time>2021-11-20T12:02:33Z</time>
      </trkpt>
      <trkpt lat="46.54955" lon="5.28447">
        <ele>199.8</ele>
        <time>2021-11-20T12:02:34Z</time>
      </trkpt>
      <trkpt lat="46.54962" lon="5.28444">
        <ele>199.8</ele>
        <time>2021-11-20T12:02:35Z</time>
      </trkpt>
      <trkpt lat="46.55006" lon="5.28418">
        <ele>199.2</ele>
        <time>2021-11-20T12:02:42Z</time>
      </trkpt>
      <trkpt lat="46.55046" lon="5.28399">
        <ele>199.2</ele>
        <time>2021-11-20T12:02:48Z</time>
      </trkpt>
      <trkpt lat="46.55101" lon="5.28384">
        <ele>199</ele>
        <time>2021-11-20T12:02:56Z</time>
      </trkpt>
      <trkpt lat="46.55135" lon="5.28391">
        <ele>198.8</ele>
        <time>2021-11-20T12:03:01Z</time>
      </trkpt>
      <trkpt lat="46.55187" lon="5.28412">
        <ele>198.6</ele>
        <time>2021-11-20T12:03:09Z</time>
      </trkpt>
      <trkpt lat="46.55237" lon="5.28428">
        <ele>198.4</ele>
        <time>2021-11-20T12:03:16Z</time>
      </trkpt>
      <trkpt lat="46.55253" lon="5.28424">
        <ele>198.2</ele>
        <time>2021-11-20T12:03:18Z</time>
      </trkpt>
      <trkpt lat="46.5526" lon="5.28419">
        <ele>198</ele>
        <time>2021-11-20T12:03:19Z</time>
      </trkpt>
      <trkpt lat="46.55267" lon="5.28413">
        <ele>197.8</ele>
        <time>2021-11-20T12:03:20Z</time>
      </trkpt>
      <trkpt lat="46.55285" lon="5.28387">
        <ele>196.8</ele>
        <time>2021-11-20T12:03:23Z</time>
      </trkpt>
      <trkpt lat="46.5529" lon="5.28378">
        <ele>196.4</ele>
        <time>2021-11-20T12:03:24Z</time>
      </trkpt>
      <trkpt lat="46.5531" lon="5.28343">
        <ele>195.2</ele>
        <time>2021-11-20T12:03:28Z</time>
      </trkpt>
      <trkpt lat="46.55326" lon="5.28314">
        <ele>194.6</ele>
        <time>2021-11-20T12:03:31Z</time>
      </trkpt>
      <trkpt lat="46.55336" lon="5.28296">
        <ele>194</ele>
        <time>2021-11-20T12:03:33Z</time>
      </trkpt>
      <trkpt lat="46.5537" lon="5.28247">
        <ele>193</ele>
        <time>2021-11-20T12:03:39Z</time>
      </trkpt>
      <trkpt lat="46.55376" lon="5.2824">
        <ele>192.8</ele>
        <time>2021-11-20T12:03:40Z</time>
      </trkpt>
      <trkpt lat="46.55409" lon="5.2821">
        <ele>192</ele>
        <time>2021-11-20T12:03:45Z</time>
      </trkpt>
      <trkpt lat="46.55423" lon="5.28201">
        <ele>191.6</ele>
        <time>2021-11-20T12:03:47Z</time>
      </trkpt>
      <trkpt lat="46.55455" lon="5.28175">
        <ele>191.4</ele>
        <time>2021-11-20T12:03:52Z</time>
      </trkpt>
      <trkpt lat="46.55461" lon="5.28167">
        <ele>191.2</ele>
        <time>2021-11-20T12:03:53Z</time>
      </trkpt>
      <trkpt lat="46.55465" lon="5.28159">
        <ele>191.2</ele>
        <time>2021-11-20T12:03:54Z</time>
      </trkpt>
      <trkpt lat="46.55469" lon="5.28138">
        <ele>191.2</ele>
        <time>2021-11-20T12:03:56Z</time>
      </trkpt>
      <trkpt lat="46.55474" lon="5.28108">
        <ele>191.2</ele>
        <time>2021-11-20T12:03:59Z</time>
      </trkpt>
      <trkpt lat="46.55477" lon="5.28099">
        <ele>191</ele>
        <time>2021-11-20T12:04:00Z</time>
      </trkpt>
      <trkpt lat="46.55482" lon="5.28091">
        <ele>191</ele>
        <time>2021-11-20T12:04:01Z</time>
      </trkpt>
      <trkpt lat="46.55492" lon="5.28078">
        <ele>191</ele>
        <time>2021-11-20T12:04:03Z</time>
      </trkpt>
      <trkpt lat="46.55528" lon="5.28032">
        <ele>190.8</ele>
        <time>2021-11-20T12:04:10Z</time>
      </trkpt>
      <trkpt lat="46.55544" lon="5.28015">
        <ele>191.2</ele>
        <time>2021-11-20T12:04:13Z</time>
      </trkpt>
      <trkpt lat="46.55556" lon="5.28007">
        <ele>191.4</ele>
        <time>2021-11-20T12:04:15Z</time>
      </trkpt>
      <trkpt lat="46.55606" lon="5.27973">
        <ele>191.2</ele>
        <time>2021-11-20T12:04:23Z</time>
      </trkpt>
      <trkpt lat="46.55653" lon="5.27931">
        <ele>191</ele>
        <time>2021-11-20T12:04:31Z</time>
      </trkpt>
      <trkpt lat="46.5566" lon="5.27928">
        <ele>191</ele>
        <time>2021-11-20T12:04:32Z</time>
      </trkpt>
      <trkpt lat="46.55666" lon="5.27927">
        <ele>191</ele>
        <time>2021-11-20T12:04:33Z</time>
      </trkpt>
      <trkpt lat="46.55678" lon="5.27931">
        <ele>190.8</ele>
        <time>2021-11-20T12:04:35Z</time>
      </trkpt>
      <trkpt lat="46.55689" lon="5.27942">
        <ele>190.8</ele>
        <time>2021-11-20T12:04:37Z</time>
      </trkpt>
      <trkpt lat="46.55694" lon="5.2795">
        <ele>190.8</ele>
        <time>2021-11-20T12:04:38Z</time>
      </trkpt>
      <trkpt lat="46.55718" lon="5.27999">
        <ele>191.2</ele>
        <time>2021-11-20T12:04:44Z</time>
      </trkpt>
      <trkpt lat="46.55722" lon="5.28007">
        <ele>191.2</ele>
        <time>2021-11-20T12:04:45Z</time>
      </trkpt>
      <trkpt lat="46.55738" lon="5.28039">
        <ele>191.8</ele>
        <time>2021-11-20T12:04:49Z</time>
      </trkpt>
      <trkpt lat="46.5577" lon="5.28102">
        <ele>192</ele>
        <time>2021-11-20T12:04:57Z</time>
      </trkpt>
      <trkpt lat="46.55791" lon="5.28146">
        <ele>192.2</ele>
        <time>2021-11-20T12:05:03Z</time>
      </trkpt>
      <trkpt lat="46.55794" lon="5.28152">
        <ele>192.2</ele>
        <time>2021-11-20T12:05:04Z</time>
      </trkpt>
      <trkpt lat="46.55801" lon="5.2816">
        <ele>192.4</ele>
        <time>2021-11-20T12:05:06Z</time>
      </trkpt>
      <trkpt lat="46.55805" lon="5.28163">
        <ele>192.4</ele>
        <time>2021-11-20T12:05:07Z</time>
      </trkpt>
      <trkpt lat="46.55811" lon="5.28163">
        <ele>192.4</ele>
        <time>2021-11-20T12:05:08Z</time>
      </trkpt>
      <trkpt lat="46.55825" lon="5.28156">
        <ele>192.6</ele>
        <time>2021-11-20T12:05:11Z</time>
      </trkpt>
      <trkpt lat="46.55835" lon="5.28153">
        <ele>193</ele>
        <time>2021-11-20T12:05:13Z</time>
      </trkpt>
      <trkpt lat="46.55841" lon="5.28152">
        <ele>193.2</ele>
        <time>2021-11-20T12:05:14Z</time>
      </trkpt>
      <trkpt lat="46.55853" lon="5.28153">
        <ele>193.4</ele>
        <time>2021-11-20T12:05:16Z</time>
      </trkpt>
      <trkpt lat="46.55889" lon="5.28171">
        <ele>193.8</ele>
        <time>2021-11-20T12:05:22Z</time>
      </trkpt>
      <trkpt lat="46.55916" lon="5.28199">
        <ele>193.8</ele>
        <time>2021-11-20T12:05:27Z</time>
      </trkpt>
      <trkpt lat="46.55927" lon="5.28211">
        <ele>193.8</ele>
        <time>2021-11-20T12:05:29Z</time>
      </trkpt>
      <trkpt lat="46.55939" lon="5.2822">
        <ele>193.6</ele>
        <time>2021-11-20T12:05:31Z</time>
      </trkpt>
      <trkpt lat="46.55946" lon="5.28223">
        <ele>193.6</ele>
        <time>2021-11-20T12:05:32Z</time>
      </trkpt>
      <trkpt lat="46.55988" lon="5.28228">
        <ele>193.2</ele>
        <time>2021-11-20T12:05:38Z</time>
      </trkpt>
      <trkpt lat="46.56036" lon="5.28226">
        <ele>192.4</ele>
        <time>2021-11-20T12:05:45Z</time>
      </trkpt>
      <trkpt lat="46.56073" lon="5.2822">
        <ele>192.4</ele>
        <time>2021-11-20T12:05:51Z</time>
      </trkpt>
      <trkpt lat="46.56118" lon="5.28215">
        <ele>193.2</ele>
        <time>2021-11-20T12:05:59Z</time>
      </trkpt>
      <trkpt lat="46.56144" lon="5.28211">
        <ele>193.8</ele>
        <time>2021-11-20T12:06:04Z</time>
      </trkpt>
      <trkpt lat="46.56149" lon="5.28209">
        <ele>194</ele>
        <time>2021-11-20T12:06:05Z</time>
      </trkpt>
      <trkpt lat="46.56154" lon="5.28207">
        <ele>194.2</ele>
        <time>2021-11-20T12:06:06Z</time>
      </trkpt>
      <trkpt lat="46.56168" lon="5.28196">
        <ele>194.4</ele>
        <time>2021-11-20T12:06:09Z</time>
      </trkpt>
      <trkpt lat="46.56175" lon="5.28185">
        <ele>194.6</ele>
        <time>2021-11-20T12:06:11Z</time>
      </trkpt>
      <trkpt lat="46.56183" lon="5.28168">
        <ele>194.6</ele>
        <time>2021-11-20T12:06:14Z</time>
      </trkpt>
      <trkpt lat="46.56185" lon="5.28162">
        <ele>195.2</ele>
        <time>2021-11-20T12:06:15Z</time>
      </trkpt>
      <trkpt lat="46.56187" lon="5.28156">
        <ele>195.2</ele>
        <time>2021-11-20T12:06:16Z</time>
      </trkpt>
      <trkpt lat="46.56195" lon="5.28139">
        <ele>196</ele>
        <time>2021-11-20T12:06:19Z</time>
      </trkpt>
      <trkpt lat="46.56198" lon="5.28133">
        <ele>196.2</ele>
        <time>2021-11-20T12:06:20Z</time>
      </trkpt>
      <trkpt lat="46.56201" lon="5.28128">
        <ele>196.4</ele>
        <time>2021-11-20T12:06:21Z</time>
      </trkpt>
      <trkpt lat="46.56205" lon="5.28124">
        <ele>196.6</ele>
        <time>2021-11-20T12:06:22Z</time>
      </trkpt>
      <trkpt lat="46.5621" lon="5.28119">
        <ele>196.6</ele>
        <time>2021-11-20T12:06:23Z</time>
      </trkpt>
      <trkpt lat="46.56229" lon="5.28105">
        <ele>197</ele>
        <time>2021-11-20T12:06:27Z</time>
      </trkpt>
      <trkpt lat="46.56238" lon="5.28098">
        <ele>197.4</ele>
        <time>2021-11-20T12:06:29Z</time>
      </trkpt>
      <trkpt lat="46.56264" lon="5.28075">
        <ele>198.2</ele>
        <time>2021-11-20T12:06:35Z</time>
      </trkpt>
      <trkpt lat="46.56268" lon="5.28071">
        <ele>198.4</ele>
        <time>2021-11-20T12:06:36Z</time>
      </trkpt>
      <trkpt lat="46.56271" lon="5.28066">
        <ele>198.4</ele>
        <time>2021-11-20T12:06:37Z</time>
      </trkpt>
      <trkpt lat="46.56281" lon="5.28048">
        <ele>199</ele>
        <time>2021-11-20T12:06:40Z</time>
      </trkpt>
      <trkpt lat="46.56306" lon="5.28008">
        <ele>199</ele>
        <time>2021-11-20T12:06:46Z</time>
      </trkpt>
      <trkpt lat="46.56335" lon="5.27965">
        <ele>197.8</ele>
        <time>2021-11-20T12:06:52Z</time>
      </trkpt>
      <trkpt lat="46.56358" lon="5.27938">
        <ele>197.4</ele>
        <time>2021-11-20T12:06:56Z</time>
      </trkpt>
      <trkpt lat="46.56375" lon="5.2792">
        <ele>197</ele>
        <time>2021-11-20T12:06:59Z</time>
      </trkpt>
      <trkpt lat="46.56401" lon="5.27898">
        <ele>196</ele>
        <time>2021-11-20T12:07:03Z</time>
      </trkpt>
      <trkpt lat="46.56427" lon="5.27875">
        <ele>195.6</ele>
        <time>2021-11-20T12:07:07Z</time>
      </trkpt>
      <trkpt lat="46.56447" lon="5.27857">
        <ele>195</ele>
        <time>2021-11-20T12:07:10Z</time>
      </trkpt>
      <trkpt lat="46.56487" lon="5.27823">
        <ele>193.8</ele>
        <time>2021-11-20T12:07:16Z</time>
      </trkpt>
      <trkpt lat="46.56501" lon="5.27814">
        <ele>193.2</ele>
        <time>2021-11-20T12:07:18Z</time>
      </trkpt>
      <trkpt lat="46.56523" lon="5.27797">
        <ele>192.8</ele>
        <time>2021-11-20T12:07:21Z</time>
      </trkpt>
      <trkpt lat="46.56551" lon="5.27778">
        <ele>191.4</ele>
        <time>2021-11-20T12:07:25Z</time>
      </trkpt>
      <trkpt lat="46.56584" lon="5.2776">
        <ele>191.2</ele>
        <time>2021-11-20T12:07:30Z</time>
      </trkpt>
      <trkpt lat="46.5659" lon="5.27756">
        <ele>191.2</ele>
        <time>2021-11-20T12:07:31Z</time>
      </trkpt>
      <trkpt lat="46.56602" lon="5.27746">
        <ele>191.2</ele>
        <time>2021-11-20T12:07:33Z</time>
      </trkpt>
      <trkpt lat="46.56613" lon="5.27733">
        <ele>191.4</ele>
        <time>2021-11-20T12:07:35Z</time>
      </trkpt>
      <trkpt lat="46.56632" lon="5.27697">
        <ele>191.8</ele>
        <time>2021-11-20T12:07:40Z</time>
      </trkpt>
      <trkpt lat="46.56647" lon="5.27641">
        <ele>192.6</ele>
        <time>2021-11-20T12:07:47Z</time>
      </trkpt>
      <trkpt lat="46.56658" lon="5.2759">
        <ele>193.8</ele>
        <time>2021-11-20T12:07:54Z</time>
      </trkpt>
      <trkpt lat="46.56662" lon="5.27577">
        <ele>194.2</ele>
        <time>2021-11-20T12:07:56Z</time>
      </trkpt>
      <trkpt lat="46.56668" lon="5.27557">
        <ele>195</ele>
        <time>2021-11-20T12:07:59Z</time>
      </trkpt>
      <trkpt lat="46.56677" lon="5.27528">
        <ele>196</ele>
        <time>2021-11-20T12:08:04Z</time>
      </trkpt>
      <trkpt lat="46.56679" lon="5.27522">
        <ele>196.2</ele>
        <time>2021-11-20T12:08:05Z</time>
      </trkpt>
      <trkpt lat="46.56684" lon="5.27505">
        <ele>197</ele>
        <time>2021-11-20T12:08:08Z</time>
      </trkpt>
      <trkpt lat="46.5669" lon="5.27491">
        <ele>197.8</ele>
        <time>2021-11-20T12:08:11Z</time>
      </trkpt>
      <trkpt lat="46.56691" lon="5.27486">
        <ele>198.2</ele>
        <time>2021-11-20T12:08:12Z</time>
      </trkpt>
      <trkpt lat="46.56693" lon="5.27482">
        <ele>198.4</ele>
        <time>2021-11-20T12:08:13Z</time>
      </trkpt>
      <trkpt lat="46.56696" lon="5.27473">
        <ele>199.2</ele>
        <time>2021-11-20T12:08:15Z</time>
      </trkpt>
      <trkpt lat="46.567" lon="5.27458">
        <ele>200.2</ele>
        <time>2021-11-20T12:08:18Z</time>
      </trkpt>
      <trkpt lat="46.56701" lon="5.27454">
        <ele>200.6</ele>
        <time>2021-11-20T12:08:19Z</time>
      </trkpt>
      <trkpt lat="46.56705" lon="5.27443">
        <ele>201.4</ele>
        <time>2021-11-20T12:08:22Z</time>
      </trkpt>
      <trkpt lat="46.56708" lon="5.27436">
        <ele>202</ele>
        <time>2021-11-20T12:08:24Z</time>
      </trkpt>
      <trkpt lat="46.56711" lon="5.2743">
        <ele>202.8</ele>
        <time>2021-11-20T12:08:26Z</time>
      </trkpt>
      <trkpt lat="46.56716" lon="5.27414">
        <ele>203.8</ele>
        <time>2021-11-20T12:08:30Z</time>
      </trkpt>
      <trkpt lat="46.56717" lon="5.2741">
        <ele>204.2</ele>
        <time>2021-11-20T12:08:31Z</time>
      </trkpt>
      <trkpt lat="46.56721" lon="5.27396">
        <ele>205</ele>
        <time>2021-11-20T12:08:34Z</time>
      </trkpt>
      <trkpt lat="46.56725" lon="5.27379">
        <ele>206</ele>
        <time>2021-11-20T12:08:38Z</time>
      </trkpt>
      <trkpt lat="46.56726" lon="5.27373">
        <ele>206.4</ele>
        <time>2021-11-20T12:08:39Z</time>
      </trkpt>
      <trkpt lat="46.56732" lon="5.27348">
        <ele>207.6</ele>
        <time>2021-11-20T12:08:44Z</time>
      </trkpt>
      <trkpt lat="46.56738" lon="5.27324">
        <ele>208.8</ele>
        <time>2021-11-20T12:08:49Z</time>
      </trkpt>
      <trkpt lat="46.5674" lon="5.27303">
        <ele>209.8</ele>
        <time>2021-11-20T12:08:53Z</time>
      </trkpt>
      <trkpt lat="46.5674" lon="5.27298">
        <ele>210</ele>
        <time>2021-11-20T12:08:54Z</time>
      </trkpt>
      <trkpt lat="46.56745" lon="5.27264">
        <ele>210.6</ele>
        <time>2021-11-20T12:09:00Z</time>
      </trkpt>
      <trkpt lat="46.56753" lon="5.27223">
        <ele>210.4</ele>
        <time>2021-11-20T12:09:05Z</time>
      </trkpt>
      <trkpt lat="46.56762" lon="5.27187">
        <ele>209.8</ele>
        <time>2021-11-20T12:09:09Z</time>
      </trkpt>
      <trkpt lat="46.56768" lon="5.2717">
        <ele>209.4</ele>
        <time>2021-11-20T12:09:11Z</time>
      </trkpt>
      <trkpt lat="46.56786" lon="5.27125">
        <ele>208.8</ele>
        <time>2021-11-20T12:09:16Z</time>
      </trkpt>
      <trkpt lat="46.56802" lon="5.27087">
        <ele>207.4</ele>
        <time>2021-11-20T12:09:20Z</time>
      </trkpt>
      <trkpt lat="46.5681" lon="5.27068">
        <ele>207.4</ele>
        <time>2021-11-20T12:09:22Z</time>
      </trkpt>
      <trkpt lat="46.56839" lon="5.26994">
        <ele>207</ele>
        <time>2021-11-20T12:09:30Z</time>
      </trkpt>
      <trkpt lat="46.56842" lon="5.26986">
        <ele>207</ele>
        <time>2021-11-20T12:09:31Z</time>
      </trkpt>
      <trkpt lat="46.56868" lon="5.26924">
        <ele>207.6</ele>
        <time>2021-11-20T12:09:39Z</time>
      </trkpt>
      <trkpt lat="46.56888" lon="5.26883">
        <ele>208.2</ele>
        <time>2021-11-20T12:09:45Z</time>
      </trkpt>
      <trkpt lat="46.56892" lon="5.26876">
        <ele>208.4</ele>
        <time>2021-11-20T12:09:46Z</time>
      </trkpt>
      <trkpt lat="46.56901" lon="5.26856">
        <ele>208.6</ele>
        <time>2021-11-20T12:09:49Z</time>
      </trkpt>
      <trkpt lat="46.56914" lon="5.26824">
        <ele>209.2</ele>
        <time>2021-11-20T12:09:54Z</time>
      </trkpt>
      <trkpt lat="46.56917" lon="5.26817">
        <ele>209.6</ele>
        <time>2021-11-20T12:09:55Z</time>
      </trkpt>
      <trkpt lat="46.56935" lon="5.26768">
        <ele>210.6</ele>
        <time>2021-11-20T12:10:02Z</time>
      </trkpt>
      <trkpt lat="46.56937" lon="5.2676">
        <ele>210.6</ele>
        <time>2021-11-20T12:10:03Z</time>
      </trkpt>
      <trkpt lat="46.5695" lon="5.267">
        <ele>210.8</ele>
        <time>2021-11-20T12:10:10Z</time>
      </trkpt>
      <trkpt lat="46.56966" lon="5.26663">
        <ele>210.2</ele>
        <time>2021-11-20T12:10:14Z</time>
      </trkpt>
      <trkpt lat="46.56976" lon="5.26646">
        <ele>209.4</ele>
        <time>2021-11-20T12:10:16Z</time>
      </trkpt>
      <trkpt lat="46.57" lon="5.26608">
        <ele>208.2</ele>
        <time>2021-11-20T12:10:20Z</time>
      </trkpt>
      <trkpt lat="46.57005" lon="5.26598">
        <ele>208</ele>
        <time>2021-11-20T12:10:21Z</time>
      </trkpt>
      <trkpt lat="46.57016" lon="5.26577">
        <ele>206.8</ele>
        <time>2021-11-20T12:10:23Z</time>
      </trkpt>
      <trkpt lat="46.57031" lon="5.26543">
        <ele>205.4</ele>
        <time>2021-11-20T12:10:26Z</time>
      </trkpt>
      <trkpt lat="46.57041" lon="5.2652">
        <ele>204.4</ele>
        <time>2021-11-20T12:10:28Z</time>
      </trkpt>
      <trkpt lat="46.5705" lon="5.26498">
        <ele>203.2</ele>
        <time>2021-11-20T12:10:30Z</time>
      </trkpt>
      <trkpt lat="46.57059" lon="5.26476">
        <ele>201.8</ele>
        <time>2021-11-20T12:10:32Z</time>
      </trkpt>
      <trkpt lat="46.57063" lon="5.26466">
        <ele>201.6</ele>
        <time>2021-11-20T12:10:33Z</time>
      </trkpt>
      <trkpt lat="46.57083" lon="5.26421">
        <ele>200.6</ele>
        <time>2021-11-20T12:10:38Z</time>
      </trkpt>
      <trkpt lat="46.57091" lon="5.26405">
        <ele>200.6</ele>
        <time>2021-11-20T12:10:40Z</time>
      </trkpt>
      <trkpt lat="46.57111" lon="5.26372">
        <ele>201.4</ele>
        <time>2021-11-20T12:10:45Z</time>
      </trkpt>
      <trkpt lat="46.57115" lon="5.26367">
        <ele>201.6</ele>
        <time>2021-11-20T12:10:46Z</time>
      </trkpt>
      <trkpt lat="46.57127" lon="5.26354">
        <ele>202</ele>
        <time>2021-11-20T12:10:49Z</time>
      </trkpt>
      <trkpt lat="46.57136" lon="5.26346">
        <ele>202.2</ele>
        <time>2021-11-20T12:10:51Z</time>
      </trkpt>
      <trkpt lat="46.57143" lon="5.26339">
        <ele>202.6</ele>
        <time>2021-11-20T12:10:53Z</time>
      </trkpt>
      <trkpt lat="46.57146" lon="5.26336">
        <ele>203</ele>
        <time>2021-11-20T12:10:54Z</time>
      </trkpt>
      <trkpt lat="46.5715" lon="5.26332">
        <ele>203.2</ele>
        <time>2021-11-20T12:10:55Z</time>
      </trkpt>
      <trkpt lat="46.57153" lon="5.26328">
        <ele>204</ele>
        <time>2021-11-20T12:10:56Z</time>
      </trkpt>
      <trkpt lat="46.5716" lon="5.26322">
        <ele>204.4</ele>
        <time>2021-11-20T12:10:58Z</time>
      </trkpt>
      <trkpt lat="46.57163" lon="5.26318">
        <ele>204.8</ele>
        <time>2021-11-20T12:10:59Z</time>
      </trkpt>
      <trkpt lat="46.57173" lon="5.2631">
        <ele>205.6</ele>
        <time>2021-11-20T12:11:02Z</time>
      </trkpt>
      <trkpt lat="46.57187" lon="5.26298">
        <ele>206.8</ele>
        <time>2021-11-20T12:11:06Z</time>
      </trkpt>
      <trkpt lat="46.57199" lon="5.26285">
        <ele>207.6</ele>
        <time>2021-11-20T12:11:10Z</time>
      </trkpt>
      <trkpt lat="46.57203" lon="5.26283">
        <ele>207.8</ele>
        <time>2021-11-20T12:11:11Z</time>
      </trkpt>
      <trkpt lat="46.57216" lon="5.2627">
        <ele>208.4</ele>
        <time>2021-11-20T12:11:15Z</time>
      </trkpt>
      <trkpt lat="46.57219" lon="5.26267">
        <ele>208.8</ele>
        <time>2021-11-20T12:11:16Z</time>
      </trkpt>
      <trkpt lat="46.57231" lon="5.26253">
        <ele>209.8</ele>
        <time>2021-11-20T12:11:20Z</time>
      </trkpt>
      <trkpt lat="46.57235" lon="5.26249">
        <ele>210</ele>
        <time>2021-11-20T12:11:21Z</time>
      </trkpt>
      <trkpt lat="46.57249" lon="5.26231">
        <ele>211.4</ele>
        <time>2021-11-20T12:11:26Z</time>
      </trkpt>
      <trkpt lat="46.57255" lon="5.26224">
        <ele>211.6</ele>
        <time>2021-11-20T12:11:28Z</time>
      </trkpt>
      <trkpt lat="46.57269" lon="5.26211">
        <ele>212.6</ele>
        <time>2021-11-20T12:11:32Z</time>
      </trkpt>
      <trkpt lat="46.5729" lon="5.26187">
        <ele>213.4</ele>
        <time>2021-11-20T12:11:38Z</time>
      </trkpt>
      <trkpt lat="46.57294" lon="5.26183">
        <ele>213.6</ele>
        <time>2021-11-20T12:11:39Z</time>
      </trkpt>
      <trkpt lat="46.57329" lon="5.26144">
        <ele>214.2</ele>
        <time>2021-11-20T12:11:48Z</time>
      </trkpt>
      <trkpt lat="46.5735" lon="5.26121">
        <ele>214.6</ele>
        <time>2021-11-20T12:11:53Z</time>
      </trkpt>
      <trkpt lat="46.57371" lon="5.26098">
        <ele>215</ele>
        <time>2021-11-20T12:11:58Z</time>
      </trkpt>
      <trkpt lat="46.5738" lon="5.26088">
        <ele>215</ele>
        <time>2021-11-20T12:12:00Z</time>
      </trkpt>
      <trkpt lat="46.57399" lon="5.26068">
        <ele>214.8</ele>
        <time>2021-11-20T12:12:04Z</time>
      </trkpt>
      <trkpt lat="46.57439" lon="5.26027">
        <ele>214.4</ele>
        <time>2021-11-20T12:12:12Z</time>
      </trkpt>
      <trkpt lat="46.57444" lon="5.26021">
        <ele>214.4</ele>
        <time>2021-11-20T12:12:13Z</time>
      </trkpt>
      <trkpt lat="46.57448" lon="5.26015">
        <ele>214.2</ele>
        <time>2021-11-20T12:12:14Z</time>
      </trkpt>
      <trkpt lat="46.57461" lon="5.25993">
        <ele>213.6</ele>
        <time>2021-11-20T12:12:17Z</time>
      </trkpt>
      <trkpt lat="46.57465" lon="5.25984">
        <ele>213.4</ele>
        <time>2021-11-20T12:12:18Z</time>
      </trkpt>
      <trkpt lat="46.57468" lon="5.25974">
        <ele>213</ele>
        <time>2021-11-20T12:12:19Z</time>
      </trkpt>
      <trkpt lat="46.57477" lon="5.25941">
        <ele>212.4</ele>
        <time>2021-11-20T12:12:22Z</time>
      </trkpt>
      <trkpt lat="46.57486" lon="5.25891">
        <ele>211</ele>
        <time>2021-11-20T12:12:26Z</time>
      </trkpt>
      <trkpt lat="46.5749" lon="5.25865">
        <ele>210</ele>
        <time>2021-11-20T12:12:28Z</time>
      </trkpt>
      <trkpt lat="46.57492" lon="5.25853">
        <ele>209.6</ele>
        <time>2021-11-20T12:12:29Z</time>
      </trkpt>
      <trkpt lat="46.57505" lon="5.25795">
        <ele>208.6</ele>
        <time>2021-11-20T12:12:34Z</time>
      </trkpt>
      <trkpt lat="46.57517" lon="5.25754">
        <ele>207.6</ele>
        <time>2021-11-20T12:12:38Z</time>
      </trkpt>
      <trkpt lat="46.57525" lon="5.25732">
        <ele>207.2</ele>
        <time>2021-11-20T12:12:40Z</time>
      </trkpt>
      <trkpt lat="46.57551" lon="5.25661">
        <ele>206.8</ele>
        <time>2021-11-20T12:12:48Z</time>
      </trkpt>
      <trkpt lat="46.57565" lon="5.2562">
        <ele>206.4</ele>
        <time>2021-11-20T12:12:53Z</time>
      </trkpt>
      <trkpt lat="46.57568" lon="5.25611">
        <ele>206.2</ele>
        <time>2021-11-20T12:12:54Z</time>
      </trkpt>
      <trkpt lat="46.57571" lon="5.25603">
        <ele>206.2</ele>
        <time>2021-11-20T12:12:55Z</time>
      </trkpt>
      <trkpt lat="46.57577" lon="5.25594">
        <ele>206</ele>
        <time>2021-11-20T12:12:57Z</time>
      </trkpt>
      <trkpt lat="46.57585" lon="5.25596">
        <ele>205.8</ele>
        <time>2021-11-20T12:12:59Z</time>
      </trkpt>
      <trkpt lat="46.57593" lon="5.25615">
        <ele>205.8</ele>
        <time>2021-11-20T12:13:03Z</time>
      </trkpt>
      <trkpt lat="46.57604" lon="5.25657">
        <ele>207.4</ele>
        <time>2021-11-20T12:13:11Z</time>
      </trkpt>
      <trkpt lat="46.57607" lon="5.25674">
        <ele>208.6</ele>
        <time>2021-11-20T12:13:14Z</time>
      </trkpt>
      <trkpt lat="46.57613" lon="5.25694">
        <ele>209.6</ele>
        <time>2021-11-20T12:13:18Z</time>
      </trkpt>
      <trkpt lat="46.57615" lon="5.25697">
        <ele>209.6</ele>
        <time>2021-11-20T12:13:19Z</time>
      </trkpt>
      <trkpt lat="46.57624" lon="5.25701">
        <ele>210.6</ele>
        <time>2021-11-20T12:13:22Z</time>
      </trkpt>
      <trkpt lat="46.57627" lon="5.25702">
        <ele>210.8</ele>
        <time>2021-11-20T12:13:23Z</time>
      </trkpt>
      <trkpt lat="46.57631" lon="5.25702">
        <ele>211.2</ele>
        <time>2021-11-20T12:13:26Z</time>
      </trkpt>
      <trkpt lat="46.57631" lon="5.25702">
        <ele>211.2</ele>
        <time>2021-11-20T12:13:27Z</time>
      </trkpt>
      <trkpt lat="46.57637" lon="5.25702">
        <ele>211.4</ele>
        <time>2021-11-20T12:13:42Z</time>
      </trkpt>
      <trkpt lat="46.57645" lon="5.25703">
        <ele>211.4</ele>
        <time>2021-11-20T12:13:44Z</time>
      </trkpt>
      <trkpt lat="46.57669" lon="5.25706">
        <ele>211.6</ele>
        <time>2021-11-20T12:13:49Z</time>
      </trkpt>
      <trkpt lat="46.57694" lon="5.25708">
        <ele>211.8</ele>
        <time>2021-11-20T12:13:53Z</time>
      </trkpt>
      <trkpt lat="46.57705" lon="5.2571">
        <ele>212</ele>
        <time>2021-11-20T12:13:55Z</time>
      </trkpt>
      <trkpt lat="46.57713" lon="5.25711">
        <ele>212</ele>
        <time>2021-11-20T12:13:56Z</time>
      </trkpt>
      <trkpt lat="46.5773" lon="5.25719">
        <ele>212.2</ele>
        <time>2021-11-20T12:13:59Z</time>
      </trkpt>
      <trkpt lat="46.5777" lon="5.25749">
        <ele>212.4</ele>
        <time>2021-11-20T12:14:06Z</time>
      </trkpt>
      <trkpt lat="46.57815" lon="5.25768">
        <ele>212.2</ele>
        <time>2021-11-20T12:14:13Z</time>
      </trkpt>
      <trkpt lat="46.57827" lon="5.2577">
        <ele>212.2</ele>
        <time>2021-11-20T12:14:15Z</time>
      </trkpt>
      <trkpt lat="46.57849" lon="5.25771">
        <ele>212</ele>
        <time>2021-11-20T12:14:18Z</time>
      </trkpt>
      <trkpt lat="46.57908" lon="5.25771">
        <ele>211</ele>
        <time>2021-11-20T12:14:26Z</time>
      </trkpt>
      <trkpt lat="46.57921" lon="5.2577">
        <ele>210.8</ele>
        <time>2021-11-20T12:14:28Z</time>
      </trkpt>
      <trkpt lat="46.57928" lon="5.2577">
        <ele>210.8</ele>
        <time>2021-11-20T12:14:29Z</time>
      </trkpt>
      <trkpt lat="46.57951" lon="5.25773">
        <ele>210.4</ele>
        <time>2021-11-20T12:14:32Z</time>
      </trkpt>
      <trkpt lat="46.57963" lon="5.25779">
        <ele>210.2</ele>
        <time>2021-11-20T12:14:34Z</time>
      </trkpt>
      <trkpt lat="46.57976" lon="5.25795">
        <ele>210.2</ele>
        <time>2021-11-20T12:14:36Z</time>
      </trkpt>
      <trkpt lat="46.5798" lon="5.25805">
        <ele>210</ele>
        <time>2021-11-20T12:14:37Z</time>
      </trkpt>
      <trkpt lat="46.57983" lon="5.25813">
        <ele>209.8</ele>
        <time>2021-11-20T12:14:38Z</time>
      </trkpt>
      <trkpt lat="46.57993" lon="5.25834">
        <ele>209.2</ele>
        <time>2021-11-20T12:14:40Z</time>
      </trkpt>
      <trkpt lat="46.58003" lon="5.2585">
        <ele>208.6</ele>
        <time>2021-11-20T12:14:42Z</time>
      </trkpt>
      <trkpt lat="46.5801" lon="5.25858">
        <ele>208.4</ele>
        <time>2021-11-20T12:14:43Z</time>
      </trkpt>
      <trkpt lat="46.58035" lon="5.25879">
        <ele>207.4</ele>
        <time>2021-11-20T12:14:46Z</time>
      </trkpt>
      <trkpt lat="46.58059" lon="5.25896">
        <ele>205.6</ele>
        <time>2021-11-20T12:14:49Z</time>
      </trkpt>
      <trkpt lat="46.58085" lon="5.25915">
        <ele>204.6</ele>
        <time>2021-11-20T12:14:52Z</time>
      </trkpt>
      <trkpt lat="46.58102" lon="5.25926">
        <ele>203.4</ele>
        <time>2021-11-20T12:14:54Z</time>
      </trkpt>
      <trkpt lat="46.58111" lon="5.25933">
        <ele>203</ele>
        <time>2021-11-20T12:14:55Z</time>
      </trkpt>
      <trkpt lat="46.58125" lon="5.25943">
        <ele>202.2</ele>
        <time>2021-11-20T12:14:57Z</time>
      </trkpt>
      <trkpt lat="46.58133" lon="5.25949">
        <ele>202</ele>
        <time>2021-11-20T12:14:58Z</time>
      </trkpt>
      <trkpt lat="46.5818" lon="5.25984">
        <ele>202</ele>
        <time>2021-11-20T12:15:05Z</time>
      </trkpt>
      <trkpt lat="46.58208" lon="5.26014">
        <ele>203</ele>
        <time>2021-11-20T12:15:11Z</time>
      </trkpt>
      <trkpt lat="46.58215" lon="5.26022">
        <ele>203.6</ele>
        <time>2021-11-20T12:15:13Z</time>
      </trkpt>
      <trkpt lat="46.58227" lon="5.26036">
        <ele>204.6</ele>
        <time>2021-11-20T12:15:16Z</time>
      </trkpt>
      <trkpt lat="46.5823" lon="5.26039">
        <ele>204.8</ele>
        <time>2021-11-20T12:15:17Z</time>
      </trkpt>
      <trkpt lat="46.58238" lon="5.26046">
        <ele>205.6</ele>
        <time>2021-11-20T12:15:19Z</time>
      </trkpt>
      <trkpt lat="46.58255" lon="5.26064">
        <ele>206.8</ele>
        <time>2021-11-20T12:15:24Z</time>
      </trkpt>
      <trkpt lat="46.58262" lon="5.26071">
        <ele>207.4</ele>
        <time>2021-11-20T12:15:26Z</time>
      </trkpt>
      <trkpt lat="46.58264" lon="5.26075">
        <ele>208.2</ele>
        <time>2021-11-20T12:15:27Z</time>
      </trkpt>
      <trkpt lat="46.58276" lon="5.261">
        <ele>209.2</ele>
        <time>2021-11-20T12:15:32Z</time>
      </trkpt>
      <trkpt lat="46.58278" lon="5.26106">
        <ele>209.4</ele>
        <time>2021-11-20T12:15:33Z</time>
      </trkpt>
      <trkpt lat="46.58292" lon="5.26153">
        <ele>210.6</ele>
        <time>2021-11-20T12:15:40Z</time>
      </trkpt>
      <trkpt lat="46.58303" lon="5.26192">
        <ele>211.4</ele>
        <time>2021-11-20T12:15:46Z</time>
      </trkpt>
      <trkpt lat="46.58309" lon="5.26213">
        <ele>211.8</ele>
        <time>2021-11-20T12:15:49Z</time>
      </trkpt>
      <trkpt lat="46.58319" lon="5.26254">
        <ele>212</ele>
        <time>2021-11-20T12:15:55Z</time>
      </trkpt>
      <trkpt lat="46.58335" lon="5.26312">
        <ele>212.4</ele>
        <time>2021-11-20T12:16:03Z</time>
      </trkpt>
      <trkpt lat="46.58354" lon="5.26374">
        <ele>212.6</ele>
        <time>2021-11-20T12:16:11Z</time>
      </trkpt>
      <trkpt lat="46.58376" lon="5.26451">
        <ele>212.6</ele>
        <time>2021-11-20T12:16:20Z</time>
      </trkpt>
      <trkpt lat="46.58398" lon="5.26507">
        <ele>212.4</ele>
        <time>2021-11-20T12:16:27Z</time>
      </trkpt>
      <trkpt lat="46.58421" lon="5.26536">
        <ele>212.6</ele>
        <time>2021-11-20T12:16:32Z</time>
      </trkpt>
      <trkpt lat="46.58448" lon="5.26561">
        <ele>212.8</ele>
        <time>2021-11-20T12:16:37Z</time>
      </trkpt>
      <trkpt lat="46.58476" lon="5.26584">
        <ele>213</ele>
        <time>2021-11-20T12:16:42Z</time>
      </trkpt>
      <trkpt lat="46.58481" lon="5.26589">
        <ele>213</ele>
        <time>2021-11-20T12:16:43Z</time>
      </trkpt>
      <trkpt lat="46.58493" lon="5.26591">
        <ele>213</ele>
        <time>2021-11-20T12:16:45Z</time>
      </trkpt>
      <trkpt lat="46.58502" lon="5.26582">
        <ele>213</ele>
        <time>2021-11-20T12:16:47Z</time>
      </trkpt>
      <trkpt lat="46.58513" lon="5.26547">
        <ele>213</ele>
        <time>2021-11-20T12:16:51Z</time>
      </trkpt>
      <trkpt lat="46.58535" lon="5.26481">
        <ele>213.2</ele>
        <time>2021-11-20T12:16:58Z</time>
      </trkpt>
      <trkpt lat="46.58567" lon="5.26412">
        <ele>213</ele>
        <time>2021-11-20T12:17:06Z</time>
      </trkpt>
      <trkpt lat="46.58601" lon="5.26348">
        <ele>213</ele>
        <time>2021-11-20T12:17:14Z</time>
      </trkpt>
      <trkpt lat="46.58617" lon="5.26317">
        <ele>213</ele>
        <time>2021-11-20T12:17:18Z</time>
      </trkpt>
      <trkpt lat="46.58653" lon="5.26255">
        <ele>212.8</ele>
        <time>2021-11-20T12:17:26Z</time>
      </trkpt>
      <trkpt lat="46.58667" lon="5.26233">
        <ele>212.8</ele>
        <time>2021-11-20T12:17:29Z</time>
      </trkpt>
      <trkpt lat="46.58705" lon="5.26176">
        <ele>212.8</ele>
        <time>2021-11-20T12:17:37Z</time>
      </trkpt>
      <trkpt lat="46.58729" lon="5.26141">
        <ele>212.8</ele>
        <time>2021-11-20T12:17:42Z</time>
      </trkpt>
      <trkpt lat="46.58758" lon="5.26085">
        <ele>213</ele>
        <time>2021-11-20T12:17:49Z</time>
      </trkpt>
      <trkpt lat="46.58773" lon="5.26029">
        <ele>213</ele>
        <time>2021-11-20T12:17:55Z</time>
      </trkpt>
      <trkpt lat="46.58774" lon="5.25978">
        <ele>212.8</ele>
        <time>2021-11-20T12:18:00Z</time>
      </trkpt>
      <trkpt lat="46.5877" lon="5.25898">
        <ele>212.8</ele>
        <time>2021-11-20T12:18:08Z</time>
      </trkpt>
      <trkpt lat="46.5877" lon="5.25888">
        <ele>212.8</ele>
        <time>2021-11-20T12:18:09Z</time>
      </trkpt>
      <trkpt lat="46.58767" lon="5.25837">
        <ele>213</ele>
        <time>2021-11-20T12:18:14Z</time>
      </trkpt>
      <trkpt lat="46.58766" lon="5.25817">
        <ele>213</ele>
        <time>2021-11-20T12:18:16Z</time>
      </trkpt>
      <trkpt lat="46.58761" lon="5.25738">
        <ele>212.8</ele>
        <time>2021-11-20T12:18:24Z</time>
      </trkpt>
      <trkpt lat="46.5876" lon="5.25728">
        <ele>212.8</ele>
        <time>2021-11-20T12:18:25Z</time>
      </trkpt>
      <trkpt lat="46.58746" lon="5.25673">
        <ele>213</ele>
        <time>2021-11-20T12:18:31Z</time>
      </trkpt>
      <trkpt lat="46.58726" lon="5.25594">
        <ele>212.6</ele>
        <time>2021-11-20T12:18:39Z</time>
      </trkpt>
      <trkpt lat="46.58725" lon="5.25584">
        <ele>212.6</ele>
        <time>2021-11-20T12:18:40Z</time>
      </trkpt>
      <trkpt lat="46.58727" lon="5.25542">
        <ele>212.4</ele>
        <time>2021-11-20T12:18:44Z</time>
      </trkpt>
      <trkpt lat="46.58741" lon="5.25466">
        <ele>212.2</ele>
        <time>2021-11-20T12:18:52Z</time>
      </trkpt>
      <trkpt lat="46.58755" lon="5.25389">
        <ele>212.6</ele>
        <time>2021-11-20T12:19:00Z</time>
      </trkpt>
      <trkpt lat="46.58767" lon="5.25343">
        <ele>212.6</ele>
        <time>2021-11-20T12:19:05Z</time>
      </trkpt>
      <trkpt lat="46.58773" lon="5.25325">
        <ele>212.6</ele>
        <time>2021-11-20T12:19:07Z</time>
      </trkpt>
      <trkpt lat="46.58784" lon="5.25301">
        <ele>212.6</ele>
        <time>2021-11-20T12:19:10Z</time>
      </trkpt>
      <trkpt lat="46.58821" lon="5.25232">
        <ele>212.6</ele>
        <time>2021-11-20T12:19:19Z</time>
      </trkpt>
      <trkpt lat="46.58836" lon="5.25205">
        <ele>212.6</ele>
        <time>2021-11-20T12:19:22Z</time>
      </trkpt>
      <trkpt lat="46.58855" lon="5.2516">
        <ele>212.2</ele>
        <time>2021-11-20T12:19:27Z</time>
      </trkpt>
      <trkpt lat="46.58865" lon="5.25133">
        <ele>212</ele>
        <time>2021-11-20T12:19:30Z</time>
      </trkpt>
      <trkpt lat="46.5889" lon="5.25068">
        <ele>211.8</ele>
        <time>2021-11-20T12:19:38Z</time>
      </trkpt>
      <trkpt lat="46.58917" lon="5.24998">
        <ele>212.2</ele>
        <time>2021-11-20T12:19:46Z</time>
      </trkpt>
      <trkpt lat="46.58945" lon="5.24925">
        <ele>212.8</ele>
        <time>2021-11-20T12:19:55Z</time>
      </trkpt>
      <trkpt lat="46.58951" lon="5.24909">
        <ele>212.8</ele>
        <time>2021-11-20T12:19:57Z</time>
      </trkpt>
      <trkpt lat="46.58977" lon="5.24836">
        <ele>212.8</ele>
        <time>2021-11-20T12:20:06Z</time>
      </trkpt>
      <trkpt lat="46.58995" lon="5.24774">
        <ele>212.8</ele>
        <time>2021-11-20T12:20:14Z</time>
      </trkpt>
      <trkpt lat="46.58999" lon="5.2476">
        <ele>212.6</ele>
        <time>2021-11-20T12:20:16Z</time>
      </trkpt>
      <trkpt lat="46.59004" lon="5.24748">
        <ele>212.4</ele>
        <time>2021-11-20T12:20:18Z</time>
      </trkpt>
      <trkpt lat="46.59007" lon="5.24732">
        <ele>212.4</ele>
        <time>2021-11-20T12:20:20Z</time>
      </trkpt>
      <trkpt lat="46.59008" lon="5.24713">
        <ele>212.4</ele>
        <time>2021-11-20T12:20:22Z</time>
      </trkpt>
      <trkpt lat="46.59008" lon="5.24654">
        <ele>212.4</ele>
        <time>2021-11-20T12:20:28Z</time>
      </trkpt>
      <trkpt lat="46.58997" lon="5.24579">
        <ele>212.6</ele>
        <time>2021-11-20T12:20:36Z</time>
      </trkpt>
      <trkpt lat="46.58977" lon="5.24501">
        <ele>212.2</ele>
        <time>2021-11-20T12:20:44Z</time>
      </trkpt>
      <trkpt lat="46.58973" lon="5.24492">
        <ele>212.2</ele>
        <time>2021-11-20T12:20:45Z</time>
      </trkpt>
      <trkpt lat="46.58964" lon="5.24462">
        <ele>212</ele>
        <time>2021-11-20T12:20:48Z</time>
      </trkpt>
      <trkpt lat="46.58962" lon="5.24441">
        <ele>211.8</ele>
        <time>2021-11-20T12:20:50Z</time>
      </trkpt>
      <trkpt lat="46.58964" lon="5.24397">
        <ele>211</ele>
        <time>2021-11-20T12:20:54Z</time>
      </trkpt>
      <trkpt lat="46.58966" lon="5.24372">
        <ele>210.6</ele>
        <time>2021-11-20T12:20:56Z</time>
      </trkpt>
      <trkpt lat="46.58969" lon="5.2433">
        <ele>209.8</ele>
        <time>2021-11-20T12:21:00Z</time>
      </trkpt>
      <trkpt lat="46.58966" lon="5.24298">
        <ele>209.4</ele>
        <time>2021-11-20T12:21:03Z</time>
      </trkpt>
      <trkpt lat="46.58956" lon="5.2425">
        <ele>209.2</ele>
        <time>2021-11-20T12:21:08Z</time>
      </trkpt>
      <trkpt lat="46.58944" lon="5.242">
        <ele>209.4</ele>
        <time>2021-11-20T12:21:14Z</time>
      </trkpt>
      <trkpt lat="46.58935" lon="5.24162">
        <ele>209.8</ele>
        <time>2021-11-20T12:21:19Z</time>
      </trkpt>
      <trkpt lat="46.58934" lon="5.24154">
        <ele>210</ele>
        <time>2021-11-20T12:21:20Z</time>
      </trkpt>
      <trkpt lat="46.58934" lon="5.24146">
        <ele>210.2</ele>
        <time>2021-11-20T12:21:21Z</time>
      </trkpt>
      <trkpt lat="46.58935" lon="5.24128">
        <ele>210.2</ele>
        <time>2021-11-20T12:21:23Z</time>
      </trkpt>
      <trkpt lat="46.58937" lon="5.2412">
        <ele>210.4</ele>
        <time>2021-11-20T12:21:24Z</time>
      </trkpt>
      <trkpt lat="46.5895" lon="5.24071">
        <ele>210</ele>
        <time>2021-11-20T12:21:29Z</time>
      </trkpt>
      <trkpt lat="46.58964" lon="5.24027">
        <ele>209</ele>
        <time>2021-11-20T12:21:33Z</time>
      </trkpt>
      <trkpt lat="46.58969" lon="5.24016">
        <ele>208.6</ele>
        <time>2021-11-20T12:21:34Z</time>
      </trkpt>
      <trkpt lat="46.58974" lon="5.24006">
        <ele>208.4</ele>
        <time>2021-11-20T12:21:35Z</time>
      </trkpt>
      <trkpt lat="46.58989" lon="5.23993">
        <ele>207.4</ele>
        <time>2021-11-20T12:21:37Z</time>
      </trkpt>
      <trkpt lat="46.58998" lon="5.23991">
        <ele>207.2</ele>
        <time>2021-11-20T12:21:38Z</time>
      </trkpt>
      <trkpt lat="46.59006" lon="5.23989">
        <ele>206.6</ele>
        <time>2021-11-20T12:21:39Z</time>
      </trkpt>
      <trkpt lat="46.59015" lon="5.23989">
        <ele>206.2</ele>
        <time>2021-11-20T12:21:40Z</time>
      </trkpt>
      <trkpt lat="46.59032" lon="5.23989">
        <ele>205.4</ele>
        <time>2021-11-20T12:21:42Z</time>
      </trkpt>
      <trkpt lat="46.59039" lon="5.23988">
        <ele>205.4</ele>
        <time>2021-11-20T12:21:43Z</time>
      </trkpt>
      <trkpt lat="46.59069" lon="5.23987">
        <ele>204.8</ele>
        <time>2021-11-20T12:21:47Z</time>
      </trkpt>
      <trkpt lat="46.59119" lon="5.23984">
        <ele>205.6</ele>
        <time>2021-11-20T12:21:54Z</time>
      </trkpt>
      <trkpt lat="46.59177" lon="5.2398">
        <ele>205.6</ele>
        <time>2021-11-20T12:22:02Z</time>
      </trkpt>
      <trkpt lat="46.59207" lon="5.23979">
        <ele>205.4</ele>
        <time>2021-11-20T12:22:06Z</time>
      </trkpt>
      <trkpt lat="46.59251" lon="5.23988">
        <ele>204.2</ele>
        <time>2021-11-20T12:22:11Z</time>
      </trkpt>
      <trkpt lat="46.59268" lon="5.23996">
        <ele>203</ele>
        <time>2021-11-20T12:22:13Z</time>
      </trkpt>
      <trkpt lat="46.59294" lon="5.24009">
        <ele>201.6</ele>
        <time>2021-11-20T12:22:16Z</time>
      </trkpt>
      <trkpt lat="46.59316" lon="5.24017">
        <ele>200.6</ele>
        <time>2021-11-20T12:22:19Z</time>
      </trkpt>
      <trkpt lat="46.59323" lon="5.24019">
        <ele>200.4</ele>
        <time>2021-11-20T12:22:20Z</time>
      </trkpt>
      <trkpt lat="46.59351" lon="5.24021">
        <ele>200.4</ele>
        <time>2021-11-20T12:22:25Z</time>
      </trkpt>
      <trkpt lat="46.59358" lon="5.24017">
        <ele>200.6</ele>
        <time>2021-11-20T12:22:27Z</time>
      </trkpt>
      <trkpt lat="46.5936" lon="5.24012">
        <ele>200.6</ele>
        <time>2021-11-20T12:22:28Z</time>
      </trkpt>
      <trkpt lat="46.59361" lon="5.24006">
        <ele>200.8</ele>
        <time>2021-11-20T12:22:29Z</time>
      </trkpt>
      <trkpt lat="46.59361" lon="5.23988">
        <ele>201</ele>
        <time>2021-11-20T12:22:31Z</time>
      </trkpt>
      <trkpt lat="46.5936" lon="5.23943">
        <ele>200.8</ele>
        <time>2021-11-20T12:22:36Z</time>
      </trkpt>
      <trkpt lat="46.59362" lon="5.23934">
        <ele>200.8</ele>
        <time>2021-11-20T12:22:37Z</time>
      </trkpt>
      <trkpt lat="46.59365" lon="5.23928">
        <ele>200.8</ele>
        <time>2021-11-20T12:22:38Z</time>
      </trkpt>
      <trkpt lat="46.5937" lon="5.23924">
        <ele>200.6</ele>
        <time>2021-11-20T12:22:39Z</time>
      </trkpt>
      <trkpt lat="46.59374" lon="5.23924">
        <ele>200.6</ele>
        <time>2021-11-20T12:22:40Z</time>
      </trkpt>
      <trkpt lat="46.59383" lon="5.23927">
        <ele>200.6</ele>
        <time>2021-11-20T12:22:42Z</time>
      </trkpt>
      <trkpt lat="46.59405" lon="5.23935">
        <ele>202</ele>
        <time>2021-11-20T12:22:48Z</time>
      </trkpt>
      <trkpt lat="46.59415" lon="5.23939">
        <ele>203.8</ele>
        <time>2021-11-20T12:22:51Z</time>
      </trkpt>
      <trkpt lat="46.59426" lon="5.23942">
        <ele>204.8</ele>
        <time>2021-11-20T12:22:54Z</time>
      </trkpt>
      <trkpt lat="46.5943" lon="5.23942">
        <ele>205.2</ele>
        <time>2021-11-20T12:22:55Z</time>
      </trkpt>
      <trkpt lat="46.59438" lon="5.23942">
        <ele>205.8</ele>
        <time>2021-11-20T12:22:57Z</time>
      </trkpt>
      <trkpt lat="46.59448" lon="5.2394">
        <ele>206.8</ele>
        <time>2021-11-20T12:23:00Z</time>
      </trkpt>
      <trkpt lat="46.59451" lon="5.23939">
        <ele>207</ele>
        <time>2021-11-20T12:23:01Z</time>
      </trkpt>
      <trkpt lat="46.59461" lon="5.23936">
        <ele>208.2</ele>
        <time>2021-11-20T12:23:04Z</time>
      </trkpt>
      <trkpt lat="46.59481" lon="5.23933">
        <ele>209.4</ele>
        <time>2021-11-20T12:23:09Z</time>
      </trkpt>
      <trkpt lat="46.59489" lon="5.23931">
        <ele>209.8</ele>
        <time>2021-11-20T12:23:11Z</time>
      </trkpt>
      <trkpt lat="46.59519" lon="5.23927">
        <ele>210</ele>
        <time>2021-11-20T12:23:17Z</time>
      </trkpt>
      <trkpt lat="46.59547" lon="5.23923">
        <ele>210.2</ele>
        <time>2021-11-20T12:23:22Z</time>
      </trkpt>
      <trkpt lat="46.59581" lon="5.23915">
        <ele>210.4</ele>
        <time>2021-11-20T12:23:28Z</time>
      </trkpt>
      <trkpt lat="46.59624" lon="5.23905">
        <ele>210</ele>
        <time>2021-11-20T12:23:35Z</time>
      </trkpt>
      <trkpt lat="46.59675" lon="5.23887">
        <ele>209.4</ele>
        <time>2021-11-20T12:23:43Z</time>
      </trkpt>
      <trkpt lat="46.59692" lon="5.23875">
        <ele>209.4</ele>
        <time>2021-11-20T12:23:46Z</time>
      </trkpt>
      <trkpt lat="46.59702" lon="5.23863">
        <ele>209.2</ele>
        <time>2021-11-20T12:23:48Z</time>
      </trkpt>
      <trkpt lat="46.59705" lon="5.23846">
        <ele>209.2</ele>
        <time>2021-11-20T12:23:50Z</time>
      </trkpt>
      <trkpt lat="46.59704" lon="5.23837">
        <ele>209.2</ele>
        <time>2021-11-20T12:23:51Z</time>
      </trkpt>
      <trkpt lat="46.59688" lon="5.23777">
        <ele>209.2</ele>
        <time>2021-11-20T12:23:58Z</time>
      </trkpt>
      <trkpt lat="46.5967" lon="5.23734">
        <ele>209.8</ele>
        <time>2021-11-20T12:24:04Z</time>
      </trkpt>
      <trkpt lat="46.59643" lon="5.23703">
        <ele>210.4</ele>
        <time>2021-11-20T12:24:10Z</time>
      </trkpt>
      <trkpt lat="46.59594" lon="5.23654">
        <ele>210.6</ele>
        <time>2021-11-20T12:24:20Z</time>
      </trkpt>
      <trkpt lat="46.59591" lon="5.23639">
        <ele>210.6</ele>
        <time>2021-11-20T12:24:22Z</time>
      </trkpt>
      <trkpt lat="46.59591" lon="5.23631">
        <ele>210.6</ele>
        <time>2021-11-20T12:24:23Z</time>
      </trkpt>
      <trkpt lat="46.59594" lon="5.23616">
        <ele>210.8</ele>
        <time>2021-11-20T12:24:25Z</time>
      </trkpt>
      <trkpt lat="46.59596" lon="5.23585">
        <ele>211.2</ele>
        <time>2021-11-20T12:24:29Z</time>
      </trkpt>
      <trkpt lat="46.59597" lon="5.2357">
        <ele>211.6</ele>
        <time>2021-11-20T12:24:31Z</time>
      </trkpt>
      <trkpt lat="46.59599" lon="5.23562">
        <ele>212</ele>
        <time>2021-11-20T12:24:32Z</time>
      </trkpt>
      <trkpt lat="46.59599" lon="5.23554">
        <ele>212.2</ele>
        <time>2021-11-20T12:24:33Z</time>
      </trkpt>
      <trkpt lat="46.596" lon="5.23546">
        <ele>212.4</ele>
        <time>2021-11-20T12:24:34Z</time>
      </trkpt>
      <trkpt lat="46.59599" lon="5.2353">
        <ele>212.6</ele>
        <time>2021-11-20T12:24:36Z</time>
      </trkpt>
      <trkpt lat="46.59598" lon="5.23514">
        <ele>213</ele>
        <time>2021-11-20T12:24:38Z</time>
      </trkpt>
      <trkpt lat="46.59598" lon="5.23506">
        <ele>213.2</ele>
        <time>2021-11-20T12:24:39Z</time>
      </trkpt>
      <trkpt lat="46.59599" lon="5.23499">
        <ele>213.2</ele>
        <time>2021-11-20T12:24:40Z</time>
      </trkpt>
      <trkpt lat="46.59602" lon="5.23492">
        <ele>213.2</ele>
        <time>2021-11-20T12:24:41Z</time>
      </trkpt>
      <trkpt lat="46.59611" lon="5.2348">
        <ele>213.2</ele>
        <time>2021-11-20T12:24:43Z</time>
      </trkpt>
      <trkpt lat="46.59641" lon="5.23438">
        <ele>213.2</ele>
        <time>2021-11-20T12:24:49Z</time>
      </trkpt>
      <trkpt lat="46.59684" lon="5.23377">
        <ele>212.4</ele>
        <time>2021-11-20T12:24:57Z</time>
      </trkpt>
      <trkpt lat="46.59695" lon="5.23361">
        <ele>212</ele>
        <time>2021-11-20T12:24:59Z</time>
      </trkpt>
      <trkpt lat="46.59732" lon="5.23308">
        <ele>211</ele>
        <time>2021-11-20T12:25:06Z</time>
      </trkpt>
      <trkpt lat="46.59738" lon="5.233">
        <ele>211</ele>
        <time>2021-11-20T12:25:07Z</time>
      </trkpt>
      <trkpt lat="46.59779" lon="5.2324">
        <ele>210</ele>
        <time>2021-11-20T12:25:15Z</time>
      </trkpt>
      <trkpt lat="46.59796" lon="5.23217">
        <ele>210</ele>
        <time>2021-11-20T12:25:18Z</time>
      </trkpt>
      <trkpt lat="46.59815" lon="5.2319">
        <ele>210</ele>
        <time>2021-11-20T12:25:22Z</time>
      </trkpt>
      <trkpt lat="46.59828" lon="5.23166">
        <ele>209.8</ele>
        <time>2021-11-20T12:25:25Z</time>
      </trkpt>
      <trkpt lat="46.59842" lon="5.23119">
        <ele>209.4</ele>
        <time>2021-11-20T12:25:30Z</time>
      </trkpt>
      <trkpt lat="46.59856" lon="5.23037">
        <ele>209</ele>
        <time>2021-11-20T12:25:38Z</time>
      </trkpt>
      <trkpt lat="46.59858" lon="5.23027">
        <ele>209</ele>
        <time>2021-11-20T12:25:39Z</time>
      </trkpt>
      <trkpt lat="46.59874" lon="5.22982">
        <ele>209</ele>
        <time>2021-11-20T12:25:44Z</time>
      </trkpt>
      <trkpt lat="46.59903" lon="5.2293">
        <ele>209</ele>
        <time>2021-11-20T12:25:51Z</time>
      </trkpt>
      <trkpt lat="46.59907" lon="5.22923">
        <ele>208.8</ele>
        <time>2021-11-20T12:25:52Z</time>
      </trkpt>
      <trkpt lat="46.59939" lon="5.2287">
        <ele>209.8</ele>
        <time>2021-11-20T12:26:00Z</time>
      </trkpt>
      <trkpt lat="46.59943" lon="5.22863">
        <ele>210</ele>
        <time>2021-11-20T12:26:01Z</time>
      </trkpt>
      <trkpt lat="46.59967" lon="5.22817">
        <ele>211</ele>
        <time>2021-11-20T12:26:08Z</time>
      </trkpt>
      <trkpt lat="46.59973" lon="5.22802">
        <ele>211.2</ele>
        <time>2021-11-20T12:26:10Z</time>
      </trkpt>
      <trkpt lat="46.59993" lon="5.2275">
        <ele>211.4</ele>
        <time>2021-11-20T12:26:16Z</time>
      </trkpt>
      <trkpt lat="46.60015" lon="5.22676">
        <ele>211</ele>
        <time>2021-11-20T12:26:24Z</time>
      </trkpt>
      <trkpt lat="46.60031" lon="5.22597">
        <ele>211</ele>
        <time>2021-11-20T12:26:33Z</time>
      </trkpt>
      <trkpt lat="46.60047" lon="5.22539">
        <ele>211.6</ele>
        <time>2021-11-20T12:26:40Z</time>
      </trkpt>
      <trkpt lat="46.6007" lon="5.22465">
        <ele>212</ele>
        <time>2021-11-20T12:26:49Z</time>
      </trkpt>
      <trkpt lat="46.60072" lon="5.22457">
        <ele>211.8</ele>
        <time>2021-11-20T12:26:50Z</time>
      </trkpt>
      <trkpt lat="46.6009" lon="5.22389">
        <ele>211.8</ele>
        <time>2021-11-20T12:26:58Z</time>
      </trkpt>
      <trkpt lat="46.601" lon="5.22315">
        <ele>211.8</ele>
        <time>2021-11-20T12:27:06Z</time>
      </trkpt>
      <trkpt lat="46.60103" lon="5.22239">
        <ele>211.8</ele>
        <time>2021-11-20T12:27:14Z</time>
      </trkpt>
      <trkpt lat="46.60107" lon="5.22157">
        <ele>212</ele>
        <time>2021-11-20T12:27:23Z</time>
      </trkpt>
      <trkpt lat="46.6011" lon="5.22139">
        <ele>212.2</ele>
        <time>2021-11-20T12:27:25Z</time>
      </trkpt>
      <trkpt lat="46.60114" lon="5.22123">
        <ele>212.2</ele>
        <time>2021-11-20T12:27:27Z</time>
      </trkpt>
      <trkpt lat="46.60125" lon="5.22099">
        <ele>212</ele>
        <time>2021-11-20T12:27:30Z</time>
      </trkpt>
      <trkpt lat="46.60129" lon="5.22091">
        <ele>212</ele>
        <time>2021-11-20T12:27:31Z</time>
      </trkpt>
      <trkpt lat="46.6014" lon="5.22077">
        <ele>212</ele>
        <time>2021-11-20T12:27:33Z</time>
      </trkpt>
      <trkpt lat="46.60146" lon="5.22072">
        <ele>212</ele>
        <time>2021-11-20T12:27:34Z</time>
      </trkpt>
      <trkpt lat="46.60188" lon="5.22044">
        <ele>211.6</ele>
        <time>2021-11-20T12:27:41Z</time>
      </trkpt>
      <trkpt lat="46.60231" lon="5.22023">
        <ele>211.4</ele>
        <time>2021-11-20T12:27:48Z</time>
      </trkpt>
      <trkpt lat="46.60246" lon="5.22021">
        <ele>211.4</ele>
        <time>2021-11-20T12:27:50Z</time>
      </trkpt>
      <trkpt lat="46.60263" lon="5.22024">
        <ele>211.4</ele>
        <time>2021-11-20T12:27:53Z</time>
      </trkpt>
      <trkpt lat="46.60306" lon="5.22034">
        <ele>212.2</ele>
        <time>2021-11-20T12:28:00Z</time>
      </trkpt>
      <trkpt lat="46.60318" lon="5.22035">
        <ele>212.4</ele>
        <time>2021-11-20T12:28:02Z</time>
      </trkpt>
      <trkpt lat="46.60331" lon="5.22033">
        <ele>212.4</ele>
        <time>2021-11-20T12:28:04Z</time>
      </trkpt>
      <trkpt lat="46.60337" lon="5.22031">
        <ele>212.6</ele>
        <time>2021-11-20T12:28:05Z</time>
      </trkpt>
      <trkpt lat="46.60386" lon="5.22011">
        <ele>212.8</ele>
        <time>2021-11-20T12:28:13Z</time>
      </trkpt>
      <trkpt lat="46.60417" lon="5.21998">
        <ele>212.6</ele>
        <time>2021-11-20T12:28:18Z</time>
      </trkpt>
      <trkpt lat="46.6043" lon="5.21997">
        <ele>212.4</ele>
        <time>2021-11-20T12:28:20Z</time>
      </trkpt>
      <trkpt lat="46.60475" lon="5.22">
        <ele>212.4</ele>
        <time>2021-11-20T12:28:27Z</time>
      </trkpt>
      <trkpt lat="46.60533" lon="5.22006">
        <ele>212.6</ele>
        <time>2021-11-20T12:28:36Z</time>
      </trkpt>
      <trkpt lat="46.60545" lon="5.22006">
        <ele>212.6</ele>
        <time>2021-11-20T12:28:38Z</time>
      </trkpt>
      <trkpt lat="46.60597" lon="5.21997">
        <ele>212.6</ele>
        <time>2021-11-20T12:28:46Z</time>
      </trkpt>
      <trkpt lat="46.60652" lon="5.21982">
        <ele>212.2</ele>
        <time>2021-11-20T12:28:54Z</time>
      </trkpt>
      <trkpt lat="46.60659" lon="5.21981">
        <ele>212.2</ele>
        <time>2021-11-20T12:28:55Z</time>
      </trkpt>
      <trkpt lat="46.6071" lon="5.2198">
        <ele>211.6</ele>
        <time>2021-11-20T12:29:02Z</time>
      </trkpt>
      <trkpt lat="46.60717" lon="5.21981">
        <ele>211.4</ele>
        <time>2021-11-20T12:29:03Z</time>
      </trkpt>
      <trkpt lat="46.60762" lon="5.21985">
        <ele>211.2</ele>
        <time>2021-11-20T12:29:09Z</time>
      </trkpt>
      <trkpt lat="46.60818" lon="5.21992">
        <ele>211</ele>
        <time>2021-11-20T12:29:17Z</time>
      </trkpt>
      <trkpt lat="46.60826" lon="5.21993">
        <ele>210.8</ele>
        <time>2021-11-20T12:29:18Z</time>
      </trkpt>
      <trkpt lat="46.60847" lon="5.21996">
        <ele>210.6</ele>
        <time>2021-11-20T12:29:21Z</time>
      </trkpt>
      <trkpt lat="46.6089" lon="5.22006">
        <ele>210</ele>
        <time>2021-11-20T12:29:27Z</time>
      </trkpt>
      <trkpt lat="46.60922" lon="5.22029">
        <ele>209.6</ele>
        <time>2021-11-20T12:29:32Z</time>
      </trkpt>
      <trkpt lat="46.60943" lon="5.22056">
        <ele>209.6</ele>
        <time>2021-11-20T12:29:36Z</time>
      </trkpt>
      <trkpt lat="46.60953" lon="5.22071">
        <ele>209.6</ele>
        <time>2021-11-20T12:29:38Z</time>
      </trkpt>
      <trkpt lat="46.60992" lon="5.22129">
        <ele>209</ele>
        <time>2021-11-20T12:29:46Z</time>
      </trkpt>
      <trkpt lat="46.61003" lon="5.22142">
        <ele>208.8</ele>
        <time>2021-11-20T12:29:48Z</time>
      </trkpt>
      <trkpt lat="46.61032" lon="5.22166">
        <ele>208.6</ele>
        <time>2021-11-20T12:29:53Z</time>
      </trkpt>
      <trkpt lat="46.6104" lon="5.22171">
        <ele>208.4</ele>
        <time>2021-11-20T12:29:54Z</time>
      </trkpt>
      <trkpt lat="46.61084" lon="5.22185">
        <ele>208.2</ele>
        <time>2021-11-20T12:30:01Z</time>
      </trkpt>
      <trkpt lat="46.61141" lon="5.22192">
        <ele>207.6</ele>
        <time>2021-11-20T12:30:09Z</time>
      </trkpt>
      <trkpt lat="46.61146" lon="5.22193">
        <ele>207.6</ele>
        <time>2021-11-20T12:30:10Z</time>
      </trkpt>
      <trkpt lat="46.61188" lon="5.22198">
        <ele>207.6</ele>
        <time>2021-11-20T12:30:16Z</time>
      </trkpt>
      <trkpt lat="46.61215" lon="5.22206">
        <ele>207.6</ele>
        <time>2021-11-20T12:30:20Z</time>
      </trkpt>
      <trkpt lat="46.6127" lon="5.22233">
        <ele>207</ele>
        <time>2021-11-20T12:30:28Z</time>
      </trkpt>
      <trkpt lat="46.61319" lon="5.22275">
        <ele>206.4</ele>
        <time>2021-11-20T12:30:36Z</time>
      </trkpt>
      <trkpt lat="46.61327" lon="5.22282">
        <ele>206.2</ele>
        <time>2021-11-20T12:30:37Z</time>
      </trkpt>
      <trkpt lat="46.61359" lon="5.22311">
        <ele>205.4</ele>
        <time>2021-11-20T12:30:42Z</time>
      </trkpt>
      <trkpt lat="46.61384" lon="5.22334">
        <ele>204.2</ele>
        <time>2021-11-20T12:30:46Z</time>
      </trkpt>
      <trkpt lat="46.61398" lon="5.22346">
        <ele>203.6</ele>
        <time>2021-11-20T12:30:48Z</time>
      </trkpt>
      <trkpt lat="46.61413" lon="5.22358">
        <ele>203</ele>
        <time>2021-11-20T12:30:50Z</time>
      </trkpt>
      <trkpt lat="46.61421" lon="5.22363">
        <ele>203</ele>
        <time>2021-11-20T12:30:51Z</time>
      </trkpt>
      <trkpt lat="46.61437" lon="5.22369">
        <ele>202</ele>
        <time>2021-11-20T12:30:53Z</time>
      </trkpt>
      <trkpt lat="46.61454" lon="5.22366">
        <ele>201.2</ele>
        <time>2021-11-20T12:30:55Z</time>
      </trkpt>
      <trkpt lat="46.61464" lon="5.22363">
        <ele>201</ele>
        <time>2021-11-20T12:30:56Z</time>
      </trkpt>
      <trkpt lat="46.61486" lon="5.22351">
        <ele>199.6</ele>
        <time>2021-11-20T12:30:59Z</time>
      </trkpt>
      <trkpt lat="46.61504" lon="5.22341">
        <ele>199.2</ele>
        <time>2021-11-20T12:31:01Z</time>
      </trkpt>
      <trkpt lat="46.61511" lon="5.22334">
        <ele>198.8</ele>
        <time>2021-11-20T12:31:02Z</time>
      </trkpt>
      <trkpt lat="46.61517" lon="5.22328">
        <ele>198.4</ele>
        <time>2021-11-20T12:31:03Z</time>
      </trkpt>
      <trkpt lat="46.6154" lon="5.22303">
        <ele>197.4</ele>
        <time>2021-11-20T12:31:06Z</time>
      </trkpt>
      <trkpt lat="46.61553" lon="5.22288">
        <ele>196.8</ele>
        <time>2021-11-20T12:31:08Z</time>
      </trkpt>
      <trkpt lat="46.61561" lon="5.2228">
        <ele>196.4</ele>
        <time>2021-11-20T12:31:09Z</time>
      </trkpt>
      <trkpt lat="46.61581" lon="5.2227">
        <ele>195.6</ele>
        <time>2021-11-20T12:31:11Z</time>
      </trkpt>
      <trkpt lat="46.61598" lon="5.22276">
        <ele>194.8</ele>
        <time>2021-11-20T12:31:13Z</time>
      </trkpt>
      <trkpt lat="46.61612" lon="5.22294">
        <ele>193.6</ele>
        <time>2021-11-20T12:31:15Z</time>
      </trkpt>
      <trkpt lat="46.61618" lon="5.2232">
        <ele>192.8</ele>
        <time>2021-11-20T12:31:17Z</time>
      </trkpt>
      <trkpt lat="46.61618" lon="5.22329">
        <ele>192.4</ele>
        <time>2021-11-20T12:31:18Z</time>
      </trkpt>
      <trkpt lat="46.61618" lon="5.22366">
        <ele>192</ele>
        <time>2021-11-20T12:31:21Z</time>
      </trkpt>
      <trkpt lat="46.61615" lon="5.22386">
        <ele>191.8</ele>
        <time>2021-11-20T12:31:23Z</time>
      </trkpt>
      <trkpt lat="46.61596" lon="5.22435">
        <ele>191.8</ele>
        <time>2021-11-20T12:31:28Z</time>
      </trkpt>
      <trkpt lat="46.6159" lon="5.22455">
        <ele>191.6</ele>
        <time>2021-11-20T12:31:30Z</time>
      </trkpt>
      <trkpt lat="46.61585" lon="5.22486">
        <ele>191.4</ele>
        <time>2021-11-20T12:31:33Z</time>
      </trkpt>
      <trkpt lat="46.61583" lon="5.22535">
        <ele>191</ele>
        <time>2021-11-20T12:31:38Z</time>
      </trkpt>
      <trkpt lat="46.61587" lon="5.22554">
        <ele>190.8</ele>
        <time>2021-11-20T12:31:40Z</time>
      </trkpt>
      <trkpt lat="46.6159" lon="5.22561">
        <ele>190.8</ele>
        <time>2021-11-20T12:31:41Z</time>
      </trkpt>
      <trkpt lat="46.61602" lon="5.22586">
        <ele>190.2</ele>
        <time>2021-11-20T12:31:45Z</time>
      </trkpt>
      <trkpt lat="46.61603" lon="5.22591">
        <ele>190.2</ele>
        <time>2021-11-20T12:31:46Z</time>
      </trkpt>
      <trkpt lat="46.61603" lon="5.22594">
        <ele>190.2</ele>
        <time>2021-11-20T12:31:47Z</time>
      </trkpt>
      <trkpt lat="46.61598" lon="5.22599">
        <ele>190.2</ele>
        <time>2021-11-20T12:31:49Z</time>
      </trkpt>
      <trkpt lat="46.61579" lon="5.22603">
        <ele>190.2</ele>
        <time>2021-11-20T12:31:53Z</time>
      </trkpt>
      <trkpt lat="46.61547" lon="5.22608">
        <ele>190.2</ele>
        <time>2021-11-20T12:31:58Z</time>
      </trkpt>
      <trkpt lat="46.61508" lon="5.22623">
        <ele>190.8</ele>
        <time>2021-11-20T12:32:04Z</time>
      </trkpt>
      <trkpt lat="46.6147" lon="5.22657">
        <ele>191.2</ele>
        <time>2021-11-20T12:32:11Z</time>
      </trkpt>
      <trkpt lat="46.61428" lon="5.22713">
        <ele>191.4</ele>
        <time>2021-11-20T12:32:20Z</time>
      </trkpt>
      <trkpt lat="46.61424" lon="5.22719">
        <ele>191.6</ele>
        <time>2021-11-20T12:32:21Z</time>
      </trkpt>
      <trkpt lat="46.61383" lon="5.22778">
        <ele>191.6</ele>
        <time>2021-11-20T12:32:30Z</time>
      </trkpt>
      <trkpt lat="46.61342" lon="5.22836">
        <ele>191.8</ele>
        <time>2021-11-20T12:32:39Z</time>
      </trkpt>
      <trkpt lat="46.61337" lon="5.22842">
        <ele>191.8</ele>
        <time>2021-11-20T12:32:40Z</time>
      </trkpt>
      <trkpt lat="46.61296" lon="5.22898">
        <ele>192.4</ele>
        <time>2021-11-20T12:32:49Z</time>
      </trkpt>
      <trkpt lat="46.61292" lon="5.22904">
        <ele>192.4</ele>
        <time>2021-11-20T12:32:50Z</time>
      </trkpt>
      <trkpt lat="46.61265" lon="5.22942">
        <ele>192.6</ele>
        <time>2021-11-20T12:32:56Z</time>
      </trkpt>
      <trkpt lat="46.6124" lon="5.22977">
        <ele>192.8</ele>
        <time>2021-11-20T12:33:02Z</time>
      </trkpt>
      <trkpt lat="46.61236" lon="5.22983">
        <ele>193</ele>
        <time>2021-11-20T12:33:03Z</time>
      </trkpt>
      <trkpt lat="46.61232" lon="5.23">
        <ele>193</ele>
        <time>2021-11-20T12:33:05Z</time>
      </trkpt>
      <trkpt lat="46.61235" lon="5.23015">
        <ele>193</ele>
        <time>2021-11-20T12:33:07Z</time>
      </trkpt>
      <trkpt lat="46.61239" lon="5.23023">
        <ele>193</ele>
        <time>2021-11-20T12:33:08Z</time>
      </trkpt>
      <trkpt lat="46.61264" lon="5.23075">
        <ele>192.8</ele>
        <time>2021-11-20T12:33:14Z</time>
      </trkpt>
      <trkpt lat="46.61289" lon="5.23125">
        <ele>192.4</ele>
        <time>2021-11-20T12:33:20Z</time>
      </trkpt>
      <trkpt lat="46.61294" lon="5.23143">
        <ele>192.2</ele>
        <time>2021-11-20T12:33:22Z</time>
      </trkpt>
      <trkpt lat="46.613" lon="5.23187">
        <ele>191.8</ele>
        <time>2021-11-20T12:33:26Z</time>
      </trkpt>
      <trkpt lat="46.61303" lon="5.23194">
        <ele>191.6</ele>
        <time>2021-11-20T12:33:27Z</time>
      </trkpt>
      <trkpt lat="46.61307" lon="5.23203">
        <ele>191.6</ele>
        <time>2021-11-20T12:33:28Z</time>
      </trkpt>
      <trkpt lat="46.61312" lon="5.23214">
        <ele>191.4</ele>
        <time>2021-11-20T12:33:29Z</time>
      </trkpt>
      <trkpt lat="46.61322" lon="5.23227">
        <ele>191.2</ele>
        <time>2021-11-20T12:33:31Z</time>
      </trkpt>
      <trkpt lat="46.61365" lon="5.23285">
        <ele>191</ele>
        <time>2021-11-20T12:33:39Z</time>
      </trkpt>
      <trkpt lat="46.6137" lon="5.23292">
        <ele>191</ele>
        <time>2021-11-20T12:33:40Z</time>
      </trkpt>
      <trkpt lat="46.61374" lon="5.233">
        <ele>191</ele>
        <time>2021-11-20T12:33:41Z</time>
      </trkpt>
      <trkpt lat="46.61379" lon="5.23318">
        <ele>191</ele>
        <time>2021-11-20T12:33:43Z</time>
      </trkpt>
      <trkpt lat="46.61378" lon="5.23338">
        <ele>190.8</ele>
        <time>2021-11-20T12:33:45Z</time>
      </trkpt>
      <trkpt lat="46.61376" lon="5.23347">
        <ele>190.8</ele>
        <time>2021-11-20T12:33:46Z</time>
      </trkpt>
      <trkpt lat="46.61358" lon="5.23405">
        <ele>191.2</ele>
        <time>2021-11-20T12:33:53Z</time>
      </trkpt>
      <trkpt lat="46.61344" lon="5.23463">
        <ele>191.4</ele>
        <time>2021-11-20T12:34:00Z</time>
      </trkpt>
      <trkpt lat="46.61338" lon="5.23532">
        <ele>191.6</ele>
        <time>2021-11-20T12:34:08Z</time>
      </trkpt>
      <trkpt lat="46.61335" lon="5.23611">
        <ele>191.8</ele>
        <time>2021-11-20T12:34:17Z</time>
      </trkpt>
      <trkpt lat="46.61334" lon="5.23628">
        <ele>192</ele>
        <time>2021-11-20T12:34:19Z</time>
      </trkpt>
      <trkpt lat="46.61329" lon="5.23709">
        <ele>192</ele>
        <time>2021-11-20T12:34:28Z</time>
      </trkpt>
      <trkpt lat="46.61326" lon="5.23736">
        <ele>192.2</ele>
        <time>2021-11-20T12:34:31Z</time>
      </trkpt>
      <trkpt lat="46.61324" lon="5.23798">
        <ele>192.4</ele>
        <time>2021-11-20T12:34:38Z</time>
      </trkpt>
      <trkpt lat="46.61329" lon="5.23876">
        <ele>192.4</ele>
        <time>2021-11-20T12:34:47Z</time>
      </trkpt>
      <trkpt lat="46.6133" lon="5.23885">
        <ele>192.6</ele>
        <time>2021-11-20T12:34:48Z</time>
      </trkpt>
      <trkpt lat="46.61331" lon="5.23902">
        <ele>192.6</ele>
        <time>2021-11-20T12:34:50Z</time>
      </trkpt>
      <trkpt lat="46.61336" lon="5.23967">
        <ele>193.4</ele>
        <time>2021-11-20T12:34:58Z</time>
      </trkpt>
      <trkpt lat="46.61339" lon="5.24">
        <ele>193.8</ele>
        <time>2021-11-20T12:35:02Z</time>
      </trkpt>
      <trkpt lat="46.61342" lon="5.24039">
        <ele>194.6</ele>
        <time>2021-11-20T12:35:07Z</time>
      </trkpt>
      <trkpt lat="46.61344" lon="5.24063">
        <ele>195</ele>
        <time>2021-11-20T12:35:10Z</time>
      </trkpt>
      <trkpt lat="46.61348" lon="5.24128">
        <ele>195.6</ele>
        <time>2021-11-20T12:35:18Z</time>
      </trkpt>
      <trkpt lat="46.6135" lon="5.24201">
        <ele>195.8</ele>
        <time>2021-11-20T12:35:26Z</time>
      </trkpt>
      <trkpt lat="46.61347" lon="5.24246">
        <ele>195.8</ele>
        <time>2021-11-20T12:35:31Z</time>
      </trkpt>
      <trkpt lat="46.61343" lon="5.24266">
        <ele>195.8</ele>
        <time>2021-11-20T12:35:33Z</time>
      </trkpt>
      <trkpt lat="46.61326" lon="5.24326">
        <ele>195.8</ele>
        <time>2021-11-20T12:35:40Z</time>
      </trkpt>
      <trkpt lat="46.61312" lon="5.24383">
        <ele>195.4</ele>
        <time>2021-11-20T12:35:46Z</time>
      </trkpt>
      <trkpt lat="46.61288" lon="5.24437">
        <ele>194.8</ele>
        <time>2021-11-20T12:35:52Z</time>
      </trkpt>
      <trkpt lat="46.61267" lon="5.24506">
        <ele>194.2</ele>
        <time>2021-11-20T12:35:59Z</time>
      </trkpt>
      <trkpt lat="46.61264" lon="5.24516">
        <ele>193.8</ele>
        <time>2021-11-20T12:36:00Z</time>
      </trkpt>
      <trkpt lat="46.61254" lon="5.24578">
        <ele>193.4</ele>
        <time>2021-11-20T12:36:06Z</time>
      </trkpt>
      <trkpt lat="46.61242" lon="5.24657">
        <ele>192.8</ele>
        <time>2021-11-20T12:36:14Z</time>
      </trkpt>
      <trkpt lat="46.61223" lon="5.24735">
        <ele>192.6</ele>
        <time>2021-11-20T12:36:22Z</time>
      </trkpt>
      <trkpt lat="46.61221" lon="5.24745">
        <ele>192.6</ele>
        <time>2021-11-20T12:36:23Z</time>
      </trkpt>
      <trkpt lat="46.61207" lon="5.248">
        <ele>192.6</ele>
        <time>2021-11-20T12:36:29Z</time>
      </trkpt>
      <trkpt lat="46.61184" lon="5.2488">
        <ele>192.8</ele>
        <time>2021-11-20T12:36:38Z</time>
      </trkpt>
      <trkpt lat="46.61154" lon="5.24948">
        <ele>192.6</ele>
        <time>2021-11-20T12:36:46Z</time>
      </trkpt>
      <trkpt lat="46.61147" lon="5.24966">
        <ele>192.6</ele>
        <time>2021-11-20T12:36:48Z</time>
      </trkpt>
      <trkpt lat="46.61134" lon="5.25021">
        <ele>192.6</ele>
        <time>2021-11-20T12:36:54Z</time>
      </trkpt>
      <trkpt lat="46.61122" lon="5.25067">
        <ele>192.6</ele>
        <time>2021-11-20T12:36:59Z</time>
      </trkpt>
      <trkpt lat="46.611" lon="5.25106">
        <ele>192.6</ele>
        <time>2021-11-20T12:37:04Z</time>
      </trkpt>
      <trkpt lat="46.61057" lon="5.25167">
        <ele>192.6</ele>
        <time>2021-11-20T12:37:13Z</time>
      </trkpt>
      <trkpt lat="46.61021" lon="5.25227">
        <ele>193</ele>
        <time>2021-11-20T12:37:22Z</time>
      </trkpt>
      <trkpt lat="46.61017" lon="5.25233">
        <ele>193</ele>
        <time>2021-11-20T12:37:23Z</time>
      </trkpt>
      <trkpt lat="46.60992" lon="5.25285">
        <ele>193.6</ele>
        <time>2021-11-20T12:37:30Z</time>
      </trkpt>
      <trkpt lat="46.60973" lon="5.25342">
        <ele>193.6</ele>
        <time>2021-11-20T12:37:37Z</time>
      </trkpt>
      <trkpt lat="46.60964" lon="5.25378">
        <ele>193.8</ele>
        <time>2021-11-20T12:37:41Z</time>
      </trkpt>
      <trkpt lat="46.60962" lon="5.25397">
        <ele>193.4</ele>
        <time>2021-11-20T12:37:43Z</time>
      </trkpt>
      <trkpt lat="46.60962" lon="5.25417">
        <ele>193.4</ele>
        <time>2021-11-20T12:37:45Z</time>
      </trkpt>
      <trkpt lat="46.60967" lon="5.25444">
        <ele>193.4</ele>
        <time>2021-11-20T12:37:48Z</time>
      </trkpt>
      <trkpt lat="46.60972" lon="5.25505">
        <ele>193.2</ele>
        <time>2021-11-20T12:37:54Z</time>
      </trkpt>
      <trkpt lat="46.60964" lon="5.25565">
        <ele>193.2</ele>
        <time>2021-11-20T12:38:00Z</time>
      </trkpt>
      <trkpt lat="46.60946" lon="5.25627">
        <ele>192.6</ele>
        <time>2021-11-20T12:38:07Z</time>
      </trkpt>
      <trkpt lat="46.60916" lon="5.25683">
        <ele>192.4</ele>
        <time>2021-11-20T12:38:14Z</time>
      </trkpt>
      <trkpt lat="46.6088" lon="5.25732">
        <ele>192</ele>
        <time>2021-11-20T12:38:21Z</time>
      </trkpt>
      <trkpt lat="46.60871" lon="5.25744">
        <ele>192</ele>
        <time>2021-11-20T12:38:23Z</time>
      </trkpt>
      <trkpt lat="46.6083" lon="5.25798">
        <ele>192.2</ele>
        <time>2021-11-20T12:38:31Z</time>
      </trkpt>
      <trkpt lat="46.60821" lon="5.2581">
        <ele>192.4</ele>
        <time>2021-11-20T12:38:33Z</time>
      </trkpt>
      <trkpt lat="46.60793" lon="5.25848">
        <ele>193</ele>
        <time>2021-11-20T12:38:39Z</time>
      </trkpt>
      <trkpt lat="46.60784" lon="5.25859">
        <ele>193.2</ele>
        <time>2021-11-20T12:38:41Z</time>
      </trkpt>
      <trkpt lat="46.60737" lon="5.25911">
        <ele>193.4</ele>
        <time>2021-11-20T12:38:50Z</time>
      </trkpt>
      <trkpt lat="46.60709" lon="5.25956">
        <ele>193.6</ele>
        <time>2021-11-20T12:38:57Z</time>
      </trkpt>
      <trkpt lat="46.60685" lon="5.26011">
        <ele>193.4</ele>
        <time>2021-11-20T12:39:04Z</time>
      </trkpt>
      <trkpt lat="46.60669" lon="5.26055">
        <ele>193</ele>
        <time>2021-11-20T12:39:10Z</time>
      </trkpt>
      <trkpt lat="46.60667" lon="5.26062">
        <ele>192.8</ele>
        <time>2021-11-20T12:39:11Z</time>
      </trkpt>
      <trkpt lat="46.60665" lon="5.26091">
        <ele>192.6</ele>
        <time>2021-11-20T12:39:14Z</time>
      </trkpt>
      <trkpt lat="46.60665" lon="5.26159">
        <ele>192.6</ele>
        <time>2021-11-20T12:39:21Z</time>
      </trkpt>
      <trkpt lat="46.60675" lon="5.26227">
        <ele>192.6</ele>
        <time>2021-11-20T12:39:28Z</time>
      </trkpt>
      <trkpt lat="46.60696" lon="5.26296">
        <ele>192.8</ele>
        <time>2021-11-20T12:39:36Z</time>
      </trkpt>
      <trkpt lat="46.60718" lon="5.26369">
        <ele>192.8</ele>
        <time>2021-11-20T12:39:44Z</time>
      </trkpt>
      <trkpt lat="46.60723" lon="5.26385">
        <ele>193</ele>
        <time>2021-11-20T12:39:46Z</time>
      </trkpt>
      <trkpt lat="46.60747" lon="5.26461">
        <ele>193.2</ele>
        <time>2021-11-20T12:39:55Z</time>
      </trkpt>
      <trkpt lat="46.60749" lon="5.2647">
        <ele>193.4</ele>
        <time>2021-11-20T12:39:56Z</time>
      </trkpt>
      <trkpt lat="46.60763" lon="5.26535">
        <ele>194</ele>
        <time>2021-11-20T12:40:04Z</time>
      </trkpt>
      <trkpt lat="46.60765" lon="5.26542">
        <ele>194.2</ele>
        <time>2021-11-20T12:40:05Z</time>
      </trkpt>
      <trkpt lat="46.60768" lon="5.26551">
        <ele>194.6</ele>
        <time>2021-11-20T12:40:06Z</time>
      </trkpt>
      <trkpt lat="46.60774" lon="5.26564">
        <ele>195</ele>
        <time>2021-11-20T12:40:08Z</time>
      </trkpt>
      <trkpt lat="46.60776" lon="5.26569">
        <ele>195</ele>
        <time>2021-11-20T12:40:09Z</time>
      </trkpt>
      <trkpt lat="46.60779" lon="5.26575">
        <ele>195.4</ele>
        <time>2021-11-20T12:40:10Z</time>
      </trkpt>
      <trkpt lat="46.60783" lon="5.26581">
        <ele>195.6</ele>
        <time>2021-11-20T12:40:11Z</time>
      </trkpt>
      <trkpt lat="46.60796" lon="5.26601">
        <ele>196.6</ele>
        <time>2021-11-20T12:40:15Z</time>
      </trkpt>
      <trkpt lat="46.608" lon="5.26606">
        <ele>197</ele>
        <time>2021-11-20T12:40:16Z</time>
      </trkpt>
      <trkpt lat="46.60807" lon="5.26612">
        <ele>197.4</ele>
        <time>2021-11-20T12:40:18Z</time>
      </trkpt>
      <trkpt lat="46.60811" lon="5.26615">
        <ele>197.8</ele>
        <time>2021-11-20T12:40:19Z</time>
      </trkpt>
      <trkpt lat="46.60824" lon="5.26626">
        <ele>198.6</ele>
        <time>2021-11-20T12:40:22Z</time>
      </trkpt>
      <trkpt lat="46.60828" lon="5.26628">
        <ele>198.8</ele>
        <time>2021-11-20T12:40:23Z</time>
      </trkpt>
      <trkpt lat="46.60851" lon="5.26645">
        <ele>200</ele>
        <time>2021-11-20T12:40:28Z</time>
      </trkpt>
      <trkpt lat="46.60868" lon="5.26655">
        <ele>200</ele>
        <time>2021-11-20T12:40:31Z</time>
      </trkpt>
      <trkpt lat="46.60879" lon="5.26658">
        <ele>200</ele>
        <time>2021-11-20T12:40:33Z</time>
      </trkpt>
      <trkpt lat="46.60893" lon="5.26655">
        <ele>200</ele>
        <time>2021-11-20T12:40:35Z</time>
      </trkpt>
      <trkpt lat="46.60912" lon="5.26651">
        <ele>199.8</ele>
        <time>2021-11-20T12:40:38Z</time>
      </trkpt>
      <trkpt lat="46.6092" lon="5.26652">
        <ele>199.4</ele>
        <time>2021-11-20T12:40:39Z</time>
      </trkpt>
      <trkpt lat="46.60928" lon="5.26658">
        <ele>199.4</ele>
        <time>2021-11-20T12:40:40Z</time>
      </trkpt>
      <trkpt lat="46.60933" lon="5.26664">
        <ele>199</ele>
        <time>2021-11-20T12:40:41Z</time>
      </trkpt>
      <trkpt lat="46.60953" lon="5.26693">
        <ele>197.6</ele>
        <time>2021-11-20T12:40:44Z</time>
      </trkpt>
      <trkpt lat="46.60967" lon="5.26708">
        <ele>196.4</ele>
        <time>2021-11-20T12:40:46Z</time>
      </trkpt>
      <trkpt lat="46.60989" lon="5.26728">
        <ele>195.4</ele>
        <time>2021-11-20T12:40:49Z</time>
      </trkpt>
      <trkpt lat="46.61009" lon="5.26747">
        <ele>194.2</ele>
        <time>2021-11-20T12:40:52Z</time>
      </trkpt>
      <trkpt lat="46.61016" lon="5.26754">
        <ele>193.8</ele>
        <time>2021-11-20T12:40:53Z</time>
      </trkpt>
      <trkpt lat="46.61043" lon="5.26781">
        <ele>193.2</ele>
        <time>2021-11-20T12:40:57Z</time>
      </trkpt>
      <trkpt lat="46.61056" lon="5.26797">
        <ele>192.8</ele>
        <time>2021-11-20T12:40:59Z</time>
      </trkpt>
      <trkpt lat="46.61072" lon="5.26831">
        <ele>192.6</ele>
        <time>2021-11-20T12:41:03Z</time>
      </trkpt>
      <trkpt lat="46.61076" lon="5.26842">
        <ele>192.6</ele>
        <time>2021-11-20T12:41:05Z</time>
      </trkpt>
      <trkpt lat="46.61078" lon="5.26842">
        <ele>192.6</ele>
        <time>2021-11-20T12:41:06Z</time>
      </trkpt>
      <trkpt lat="46.61078" lon="5.26841">
        <ele>192.6</ele>
        <time>2021-11-20T12:41:09Z</time>
      </trkpt>
      <trkpt lat="46.61078" lon="5.2684">
        <ele>192.2</ele>
        <time>2021-11-20T12:42:08Z</time>
      </trkpt>
      <trkpt lat="46.61078" lon="5.26844">
        <ele>192.2</ele>
        <time>2021-11-20T12:42:11Z</time>
      </trkpt>
      <trkpt lat="46.61083" lon="5.26861">
        <ele>192.2</ele>
        <time>2021-11-20T12:42:16Z</time>
      </trkpt>
      <trkpt lat="46.61094" lon="5.26889">
        <ele>192.2</ele>
        <time>2021-11-20T12:42:20Z</time>
      </trkpt>
      <trkpt lat="46.61116" lon="5.26934">
        <ele>192</ele>
        <time>2021-11-20T12:42:26Z</time>
      </trkpt>
      <trkpt lat="46.61145" lon="5.2697">
        <ele>192</ele>
        <time>2021-11-20T12:42:32Z</time>
      </trkpt>
      <trkpt lat="46.61166" lon="5.26992">
        <ele>192</ele>
        <time>2021-11-20T12:42:36Z</time>
      </trkpt>
      <trkpt lat="46.61174" lon="5.27004">
        <ele>192</ele>
        <time>2021-11-20T12:42:38Z</time>
      </trkpt>
      <trkpt lat="46.612" lon="5.27047">
        <ele>192</ele>
        <time>2021-11-20T12:42:44Z</time>
      </trkpt>
      <trkpt lat="46.61216" lon="5.27068">
        <ele>192.2</ele>
        <time>2021-11-20T12:42:48Z</time>
      </trkpt>
      <trkpt lat="46.61221" lon="5.27071">
        <ele>192.2</ele>
        <time>2021-11-20T12:42:49Z</time>
      </trkpt>
      <trkpt lat="46.61225" lon="5.27072">
        <ele>192.2</ele>
        <time>2021-11-20T12:42:50Z</time>
      </trkpt>
      <trkpt lat="46.61233" lon="5.27068">
        <ele>192.4</ele>
        <time>2021-11-20T12:42:52Z</time>
      </trkpt>
      <trkpt lat="46.6124" lon="5.27057">
        <ele>192.6</ele>
        <time>2021-11-20T12:42:54Z</time>
      </trkpt>
      <trkpt lat="46.61246" lon="5.27044">
        <ele>192.6</ele>
        <time>2021-11-20T12:42:56Z</time>
      </trkpt>
      <trkpt lat="46.61249" lon="5.27037">
        <ele>192.8</ele>
        <time>2021-11-20T12:42:57Z</time>
      </trkpt>
      <trkpt lat="46.6126" lon="5.27005">
        <ele>193.4</ele>
        <time>2021-11-20T12:43:01Z</time>
      </trkpt>
      <trkpt lat="46.61281" lon="5.26971">
        <ele>193.8</ele>
        <time>2021-11-20T12:43:06Z</time>
      </trkpt>
      <trkpt lat="46.61286" lon="5.26965">
        <ele>193.8</ele>
        <time>2021-11-20T12:43:07Z</time>
      </trkpt>
      <trkpt lat="46.6131" lon="5.26935">
        <ele>194</ele>
        <time>2021-11-20T12:43:12Z</time>
      </trkpt>
      <trkpt lat="46.61323" lon="5.26931">
        <ele>194</ele>
        <time>2021-11-20T12:43:14Z</time>
      </trkpt>
      <trkpt lat="46.61329" lon="5.26933">
        <ele>194</ele>
        <time>2021-11-20T12:43:15Z</time>
      </trkpt>
      <trkpt lat="46.61336" lon="5.26936">
        <ele>193.8</ele>
        <time>2021-11-20T12:43:16Z</time>
      </trkpt>
      <trkpt lat="46.6136" lon="5.26954">
        <ele>193.6</ele>
        <time>2021-11-20T12:43:20Z</time>
      </trkpt>
      <trkpt lat="46.61399" lon="5.26972">
        <ele>193.4</ele>
        <time>2021-11-20T12:43:26Z</time>
      </trkpt>
      <trkpt lat="46.61458" lon="5.26989">
        <ele>193.4</ele>
        <time>2021-11-20T12:43:35Z</time>
      </trkpt>
      <trkpt lat="46.61478" lon="5.26993">
        <ele>193.6</ele>
        <time>2021-11-20T12:43:38Z</time>
      </trkpt>
      <trkpt lat="46.61517" lon="5.27004">
        <ele>193.8</ele>
        <time>2021-11-20T12:43:43Z</time>
      </trkpt>
      <trkpt lat="46.61531" lon="5.27002">
        <ele>193.6</ele>
        <time>2021-11-20T12:43:45Z</time>
      </trkpt>
      <trkpt lat="46.61538" lon="5.26999">
        <ele>193.6</ele>
        <time>2021-11-20T12:43:46Z</time>
      </trkpt>
      <trkpt lat="46.61544" lon="5.26995">
        <ele>193.6</ele>
        <time>2021-11-20T12:43:47Z</time>
      </trkpt>
      <trkpt lat="46.61553" lon="5.26982">
        <ele>193.6</ele>
        <time>2021-11-20T12:43:49Z</time>
      </trkpt>
      <trkpt lat="46.61589" lon="5.26917">
        <ele>194</ele>
        <time>2021-11-20T12:43:58Z</time>
      </trkpt>
      <trkpt lat="46.61592" lon="5.2691">
        <ele>194</ele>
        <time>2021-11-20T12:43:59Z</time>
      </trkpt>
      <trkpt lat="46.61611" lon="5.26878">
        <ele>194.4</ele>
        <time>2021-11-20T12:44:04Z</time>
      </trkpt>
      <trkpt lat="46.61611" lon="5.26878">
        <ele>194.6</ele>
        <time>2021-11-20T12:44:05Z</time>
      </trkpt>
      <trkpt lat="46.61618" lon="5.26868">
        <ele>194.6</ele>
        <time>2021-11-20T12:44:06Z</time>
      </trkpt>
      <trkpt lat="46.61634" lon="5.26853">
        <ele>194.8</ele>
        <time>2021-11-20T12:44:09Z</time>
      </trkpt>
      <trkpt lat="46.6166" lon="5.26834">
        <ele>195.2</ele>
        <time>2021-11-20T12:44:14Z</time>
      </trkpt>
      <trkpt lat="46.61672" lon="5.26832">
        <ele>195.4</ele>
        <time>2021-11-20T12:44:16Z</time>
      </trkpt>
      <trkpt lat="46.61684" lon="5.26836">
        <ele>195.6</ele>
        <time>2021-11-20T12:44:18Z</time>
      </trkpt>
      <trkpt lat="46.61692" lon="5.26841">
        <ele>195.4</ele>
        <time>2021-11-20T12:44:19Z</time>
      </trkpt>
      <trkpt lat="46.6173" lon="5.26879">
        <ele>195.8</ele>
        <time>2021-11-20T12:44:26Z</time>
      </trkpt>
      <trkpt lat="46.61744" lon="5.26894">
        <ele>195.8</ele>
        <time>2021-11-20T12:44:29Z</time>
      </trkpt>
      <trkpt lat="46.61753" lon="5.26909">
        <ele>196</ele>
        <time>2021-11-20T12:44:31Z</time>
      </trkpt>
      <trkpt lat="46.61778" lon="5.26954">
        <ele>196.2</ele>
        <time>2021-11-20T12:44:37Z</time>
      </trkpt>
      <trkpt lat="46.61813" lon="5.27014">
        <ele>196.6</ele>
        <time>2021-11-20T12:44:46Z</time>
      </trkpt>
      <trkpt lat="46.61817" lon="5.2702">
        <ele>196.6</ele>
        <time>2021-11-20T12:44:47Z</time>
      </trkpt>
      <trkpt lat="46.6182" lon="5.27026">
        <ele>196.8</ele>
        <time>2021-11-20T12:44:48Z</time>
      </trkpt>
      <trkpt lat="46.61821" lon="5.27048">
        <ele>196.8</ele>
        <time>2021-11-20T12:44:51Z</time>
      </trkpt>
      <trkpt lat="46.6182" lon="5.27056">
        <ele>197</ele>
        <time>2021-11-20T12:44:52Z</time>
      </trkpt>
      <trkpt lat="46.6181" lon="5.27119">
        <ele>197.2</ele>
        <time>2021-11-20T12:44:59Z</time>
      </trkpt>
      <trkpt lat="46.61803" lon="5.27174">
        <ele>197.8</ele>
        <time>2021-11-20T12:45:05Z</time>
      </trkpt>
      <trkpt lat="46.61796" lon="5.27219">
        <ele>197.8</ele>
        <time>2021-11-20T12:45:10Z</time>
      </trkpt>
      <trkpt lat="46.61785" lon="5.27298">
        <ele>198.4</ele>
        <time>2021-11-20T12:45:19Z</time>
      </trkpt>
      <trkpt lat="46.61783" lon="5.27314">
        <ele>198.4</ele>
        <time>2021-11-20T12:45:21Z</time>
      </trkpt>
      <trkpt lat="46.6178" lon="5.27342">
        <ele>198.8</ele>
        <time>2021-11-20T12:45:25Z</time>
      </trkpt>
      <trkpt lat="46.6177" lon="5.27418">
        <ele>199.2</ele>
        <time>2021-11-20T12:45:33Z</time>
      </trkpt>
      <trkpt lat="46.61765" lon="5.27484">
        <ele>199.8</ele>
        <time>2021-11-20T12:45:41Z</time>
      </trkpt>
      <trkpt lat="46.61765" lon="5.27493">
        <ele>200</ele>
        <time>2021-11-20T12:45:42Z</time>
      </trkpt>
      <trkpt lat="46.61771" lon="5.27569">
        <ele>200.8</ele>
        <time>2021-11-20T12:45:51Z</time>
      </trkpt>
      <trkpt lat="46.61781" lon="5.27627">
        <ele>200.6</ele>
        <time>2021-11-20T12:45:57Z</time>
      </trkpt>
      <trkpt lat="46.61797" lon="5.27693">
        <ele>199.6</ele>
        <time>2021-11-20T12:46:03Z</time>
      </trkpt>
      <trkpt lat="46.61805" lon="5.27728">
        <ele>198.6</ele>
        <time>2021-11-20T12:46:06Z</time>
      </trkpt>
      <trkpt lat="46.61816" lon="5.27771">
        <ele>198.2</ele>
        <time>2021-11-20T12:46:10Z</time>
      </trkpt>
      <trkpt lat="46.61834" lon="5.27852">
        <ele>198.2</ele>
        <time>2021-11-20T12:46:18Z</time>
      </trkpt>
      <trkpt lat="46.61843" lon="5.27924">
        <ele>198</ele>
        <time>2021-11-20T12:46:25Z</time>
      </trkpt>
      <trkpt lat="46.61841" lon="5.27989">
        <ele>197.6</ele>
        <time>2021-11-20T12:46:31Z</time>
      </trkpt>
      <trkpt lat="46.61841" lon="5.27998">
        <ele>197.6</ele>
        <time>2021-11-20T12:46:32Z</time>
      </trkpt>
      <trkpt lat="46.61828" lon="5.28086">
        <ele>197.2</ele>
        <time>2021-11-20T12:46:40Z</time>
      </trkpt>
      <trkpt lat="46.61808" lon="5.28148">
        <ele>196.8</ele>
        <time>2021-11-20T12:46:46Z</time>
      </trkpt>
      <trkpt lat="46.61805" lon="5.28158">
        <ele>196.6</ele>
        <time>2021-11-20T12:46:47Z</time>
      </trkpt>
      <trkpt lat="46.61778" lon="5.28233">
        <ele>196</ele>
        <time>2021-11-20T12:46:55Z</time>
      </trkpt>
      <trkpt lat="46.61775" lon="5.28242">
        <ele>196</ele>
        <time>2021-11-20T12:46:56Z</time>
      </trkpt>
      <trkpt lat="46.6175" lon="5.28313">
        <ele>195.8</ele>
        <time>2021-11-20T12:47:04Z</time>
      </trkpt>
      <trkpt lat="46.61741" lon="5.28339">
        <ele>195.8</ele>
        <time>2021-11-20T12:47:07Z</time>
      </trkpt>
      <trkpt lat="46.61738" lon="5.28348">
        <ele>195.6</ele>
        <time>2021-11-20T12:47:08Z</time>
      </trkpt>
      <trkpt lat="46.61714" lon="5.28416">
        <ele>195.6</ele>
        <time>2021-11-20T12:47:16Z</time>
      </trkpt>
      <trkpt lat="46.61688" lon="5.28491">
        <ele>195.8</ele>
        <time>2021-11-20T12:47:25Z</time>
      </trkpt>
      <trkpt lat="46.61683" lon="5.28508">
        <ele>196</ele>
        <time>2021-11-20T12:47:27Z</time>
      </trkpt>
      <trkpt lat="46.61658" lon="5.2858">
        <ele>196.4</ele>
        <time>2021-11-20T12:47:36Z</time>
      </trkpt>
      <trkpt lat="46.61647" lon="5.28611">
        <ele>197</ele>
        <time>2021-11-20T12:47:40Z</time>
      </trkpt>
      <trkpt lat="46.61633" lon="5.28649">
        <ele>197.2</ele>
        <time>2021-11-20T12:47:45Z</time>
      </trkpt>
      <trkpt lat="46.61607" lon="5.28725">
        <ele>197.2</ele>
        <time>2021-11-20T12:47:55Z</time>
      </trkpt>
      <trkpt lat="46.61602" lon="5.28739">
        <ele>197.2</ele>
        <time>2021-11-20T12:47:57Z</time>
      </trkpt>
      <trkpt lat="46.61589" lon="5.28775">
        <ele>198</ele>
        <time>2021-11-20T12:48:02Z</time>
      </trkpt>
      <trkpt lat="46.61581" lon="5.28801">
        <ele>198.6</ele>
        <time>2021-11-20T12:48:06Z</time>
      </trkpt>
      <trkpt lat="46.61575" lon="5.2882">
        <ele>199</ele>
        <time>2021-11-20T12:48:09Z</time>
      </trkpt>
      <trkpt lat="46.61566" lon="5.28849">
        <ele>200</ele>
        <time>2021-11-20T12:48:14Z</time>
      </trkpt>
      <trkpt lat="46.61555" lon="5.28882">
        <ele>201.4</ele>
        <time>2021-11-20T12:48:20Z</time>
      </trkpt>
      <trkpt lat="46.61551" lon="5.28892">
        <ele>202</ele>
        <time>2021-11-20T12:48:22Z</time>
      </trkpt>
      <trkpt lat="46.61548" lon="5.28902">
        <ele>202.4</ele>
        <time>2021-11-20T12:48:24Z</time>
      </trkpt>
      <trkpt lat="46.61541" lon="5.28923">
        <ele>203.4</ele>
        <time>2021-11-20T12:48:28Z</time>
      </trkpt>
      <trkpt lat="46.61539" lon="5.28929">
        <ele>203.6</ele>
        <time>2021-11-20T12:48:29Z</time>
      </trkpt>
      <trkpt lat="46.61531" lon="5.28949">
        <ele>204.6</ele>
        <time>2021-11-20T12:48:33Z</time>
      </trkpt>
      <trkpt lat="46.61524" lon="5.28969">
        <ele>205.6</ele>
        <time>2021-11-20T12:48:37Z</time>
      </trkpt>
      <trkpt lat="46.61522" lon="5.28974">
        <ele>205.8</ele>
        <time>2021-11-20T12:48:38Z</time>
      </trkpt>
      <trkpt lat="46.61513" lon="5.29002">
        <ele>207.2</ele>
        <time>2021-11-20T12:48:44Z</time>
      </trkpt>
      <trkpt lat="46.61506" lon="5.29019">
        <ele>208.4</ele>
        <time>2021-11-20T12:48:48Z</time>
      </trkpt>
      <trkpt lat="46.61497" lon="5.29044">
        <ele>209.2</ele>
        <time>2021-11-20T12:48:53Z</time>
      </trkpt>
      <trkpt lat="46.61489" lon="5.29069">
        <ele>210.4</ele>
        <time>2021-11-20T12:48:58Z</time>
      </trkpt>
      <trkpt lat="46.61482" lon="5.29089">
        <ele>211.2</ele>
        <time>2021-11-20T12:49:02Z</time>
      </trkpt>
      <trkpt lat="46.61476" lon="5.29104">
        <ele>212</ele>
        <time>2021-11-20T12:49:05Z</time>
      </trkpt>
      <trkpt lat="46.61472" lon="5.29115">
        <ele>212.4</ele>
        <time>2021-11-20T12:49:07Z</time>
      </trkpt>
      <trkpt lat="46.61454" lon="5.29167">
        <ele>213.4</ele>
        <time>2021-11-20T12:49:16Z</time>
      </trkpt>
      <trkpt lat="46.6145" lon="5.29179">
        <ele>213.6</ele>
        <time>2021-11-20T12:49:18Z</time>
      </trkpt>
      <trkpt lat="46.61438" lon="5.29219">
        <ele>214</ele>
        <time>2021-11-20T12:49:24Z</time>
      </trkpt>
      <trkpt lat="46.61431" lon="5.29273">
        <ele>213.8</ele>
        <time>2021-11-20T12:49:30Z</time>
      </trkpt>
      <trkpt lat="46.61425" lon="5.29328">
        <ele>212.2</ele>
        <time>2021-11-20T12:49:35Z</time>
      </trkpt>
      <trkpt lat="46.61422" lon="5.29358">
        <ele>211</ele>
        <time>2021-11-20T12:49:38Z</time>
      </trkpt>
      <trkpt lat="46.61422" lon="5.29367">
        <ele>210.6</ele>
        <time>2021-11-20T12:49:39Z</time>
      </trkpt>
      <trkpt lat="46.61422" lon="5.29367">
        <ele>210.6</ele>
        <time>2021-11-20T12:49:40Z</time>
      </trkpt>
      <trkpt lat="46.61427" lon="5.2938">
        <ele>210</ele>
        <time>2021-11-20T12:49:41Z</time>
      </trkpt>
      <trkpt lat="46.61433" lon="5.29384">
        <ele>209.6</ele>
        <time>2021-11-20T12:49:42Z</time>
      </trkpt>
      <trkpt lat="46.61452" lon="5.29396">
        <ele>208.2</ele>
        <time>2021-11-20T12:49:45Z</time>
      </trkpt>
      <trkpt lat="46.61466" lon="5.29406">
        <ele>207.6</ele>
        <time>2021-11-20T12:49:47Z</time>
      </trkpt>
      <trkpt lat="46.61473" lon="5.29411">
        <ele>207.2</ele>
        <time>2021-11-20T12:49:48Z</time>
      </trkpt>
      <trkpt lat="46.61489" lon="5.29421">
        <ele>206</ele>
        <time>2021-11-20T12:49:50Z</time>
      </trkpt>
      <trkpt lat="46.61519" lon="5.29443">
        <ele>205</ele>
        <time>2021-11-20T12:49:54Z</time>
      </trkpt>
      <trkpt lat="46.61541" lon="5.29457">
        <ele>204</ele>
        <time>2021-11-20T12:49:57Z</time>
      </trkpt>
      <trkpt lat="46.6157" lon="5.29473">
        <ele>203.4</ele>
        <time>2021-11-20T12:50:01Z</time>
      </trkpt>
      <trkpt lat="46.6161" lon="5.29497">
        <ele>203.2</ele>
        <time>2021-11-20T12:50:07Z</time>
      </trkpt>
      <trkpt lat="46.61648" lon="5.29522">
        <ele>203.4</ele>
        <time>2021-11-20T12:50:13Z</time>
      </trkpt>
      <trkpt lat="46.61657" lon="5.29536">
        <ele>203.4</ele>
        <time>2021-11-20T12:50:15Z</time>
      </trkpt>
      <trkpt lat="46.61661" lon="5.29544">
        <ele>203.4</ele>
        <time>2021-11-20T12:50:16Z</time>
      </trkpt>
      <trkpt lat="46.61664" lon="5.29553">
        <ele>203.4</ele>
        <time>2021-11-20T12:50:17Z</time>
      </trkpt>
      <trkpt lat="46.61671" lon="5.29581">
        <ele>203.4</ele>
        <time>2021-11-20T12:50:20Z</time>
      </trkpt>
      <trkpt lat="46.61679" lon="5.29595">
        <ele>203.4</ele>
        <time>2021-11-20T12:50:22Z</time>
      </trkpt>
      <trkpt lat="46.61685" lon="5.29599">
        <ele>203.4</ele>
        <time>2021-11-20T12:50:23Z</time>
      </trkpt>
      <trkpt lat="46.61691" lon="5.29601">
        <ele>203.4</ele>
        <time>2021-11-20T12:50:24Z</time>
      </trkpt>
      <trkpt lat="46.6171" lon="5.29602">
        <ele>203.4</ele>
        <time>2021-11-20T12:50:27Z</time>
      </trkpt>
      <trkpt lat="46.61758" lon="5.29605">
        <ele>204.8</ele>
        <time>2021-11-20T12:50:35Z</time>
      </trkpt>
      <trkpt lat="46.61769" lon="5.2961">
        <ele>205</ele>
        <time>2021-11-20T12:50:37Z</time>
      </trkpt>
      <trkpt lat="46.61779" lon="5.29619">
        <ele>205.2</ele>
        <time>2021-11-20T12:50:39Z</time>
      </trkpt>
      <trkpt lat="46.61784" lon="5.29625">
        <ele>205.2</ele>
        <time>2021-11-20T12:50:40Z</time>
      </trkpt>
      <trkpt lat="46.61798" lon="5.29643">
        <ele>205.4</ele>
        <time>2021-11-20T12:50:43Z</time>
      </trkpt>
      <trkpt lat="46.61802" lon="5.2965">
        <ele>205.4</ele>
        <time>2021-11-20T12:50:44Z</time>
      </trkpt>
      <trkpt lat="46.61805" lon="5.29659">
        <ele>205.4</ele>
        <time>2021-11-20T12:50:45Z</time>
      </trkpt>
      <trkpt lat="46.61809" lon="5.29676">
        <ele>205.4</ele>
        <time>2021-11-20T12:50:47Z</time>
      </trkpt>
      <trkpt lat="46.61809" lon="5.29685">
        <ele>205.4</ele>
        <time>2021-11-20T12:50:48Z</time>
      </trkpt>
      <trkpt lat="46.61812" lon="5.29713">
        <ele>205.6</ele>
        <time>2021-11-20T12:50:51Z</time>
      </trkpt>
      <trkpt lat="46.61817" lon="5.2973">
        <ele>205.8</ele>
        <time>2021-11-20T12:50:53Z</time>
      </trkpt>
      <trkpt lat="46.6182" lon="5.29737">
        <ele>205.8</ele>
        <time>2021-11-20T12:50:54Z</time>
      </trkpt>
      <trkpt lat="46.6185" lon="5.29781">
        <ele>206.2</ele>
        <time>2021-11-20T12:51:01Z</time>
      </trkpt>
      <trkpt lat="46.61855" lon="5.29787">
        <ele>206.4</ele>
        <time>2021-11-20T12:51:02Z</time>
      </trkpt>
      <trkpt lat="46.61884" lon="5.29824">
        <ele>207.4</ele>
        <time>2021-11-20T12:51:09Z</time>
      </trkpt>
      <trkpt lat="46.61893" lon="5.29834">
        <ele>208</ele>
        <time>2021-11-20T12:51:11Z</time>
      </trkpt>
      <trkpt lat="46.61905" lon="5.29849">
        <ele>208.6</ele>
        <time>2021-11-20T12:51:14Z</time>
      </trkpt>
      <trkpt lat="46.61921" lon="5.29869">
        <ele>209.8</ele>
        <time>2021-11-20T12:51:18Z</time>
      </trkpt>
      <trkpt lat="46.61931" lon="5.29879">
        <ele>210</ele>
        <time>2021-11-20T12:51:20Z</time>
      </trkpt>
      <trkpt lat="46.61945" lon="5.29891">
        <ele>210.8</ele>
        <time>2021-11-20T12:51:23Z</time>
      </trkpt>
      <trkpt lat="46.61961" lon="5.29901">
        <ele>211.4</ele>
        <time>2021-11-20T12:51:26Z</time>
      </trkpt>
      <trkpt lat="46.61979" lon="5.29907">
        <ele>212</ele>
        <time>2021-11-20T12:51:29Z</time>
      </trkpt>
      <trkpt lat="46.6201" lon="5.29917">
        <ele>212.2</ele>
        <time>2021-11-20T12:51:34Z</time>
      </trkpt>
      <trkpt lat="46.62063" lon="5.29938">
        <ele>212.2</ele>
        <time>2021-11-20T12:51:42Z</time>
      </trkpt>
      <trkpt lat="46.62115" lon="5.29966">
        <ele>211.6</ele>
        <time>2021-11-20T12:51:50Z</time>
      </trkpt>
      <trkpt lat="46.62129" lon="5.29972">
        <ele>211.6</ele>
        <time>2021-11-20T12:51:52Z</time>
      </trkpt>
      <trkpt lat="46.62162" lon="5.29993">
        <ele>210.8</ele>
        <time>2021-11-20T12:51:57Z</time>
      </trkpt>
      <trkpt lat="46.62175" lon="5.30005">
        <ele>210.6</ele>
        <time>2021-11-20T12:51:59Z</time>
      </trkpt>
      <trkpt lat="46.62216" lon="5.30055">
        <ele>210</ele>
        <time>2021-11-20T12:52:06Z</time>
      </trkpt>
      <trkpt lat="46.62254" lon="5.30104">
        <ele>209.2</ele>
        <time>2021-11-20T12:52:12Z</time>
      </trkpt>
      <trkpt lat="46.62268" lon="5.30123">
        <ele>208.8</ele>
        <time>2021-11-20T12:52:14Z</time>
      </trkpt>
      <trkpt lat="46.62282" lon="5.30141">
        <ele>207.4</ele>
        <time>2021-11-20T12:52:16Z</time>
      </trkpt>
      <trkpt lat="46.62297" lon="5.30161">
        <ele>206.4</ele>
        <time>2021-11-20T12:52:18Z</time>
      </trkpt>
      <trkpt lat="46.62305" lon="5.30171">
        <ele>205.4</ele>
        <time>2021-11-20T12:52:19Z</time>
      </trkpt>
      <trkpt lat="46.62312" lon="5.30181">
        <ele>205</ele>
        <time>2021-11-20T12:52:20Z</time>
      </trkpt>
      <trkpt lat="46.62326" lon="5.30201">
        <ele>203.8</ele>
        <time>2021-11-20T12:52:22Z</time>
      </trkpt>
      <trkpt lat="46.62338" lon="5.30223">
        <ele>202.8</ele>
        <time>2021-11-20T12:52:24Z</time>
      </trkpt>
      <trkpt lat="46.62348" lon="5.30245">
        <ele>201.8</ele>
        <time>2021-11-20T12:52:26Z</time>
      </trkpt>
      <trkpt lat="46.62362" lon="5.30276">
        <ele>201</ele>
        <time>2021-11-20T12:52:29Z</time>
      </trkpt>
      <trkpt lat="46.62373" lon="5.30295">
        <ele>200.8</ele>
        <time>2021-11-20T12:52:31Z</time>
      </trkpt>
      <trkpt lat="46.62389" lon="5.3032">
        <ele>200.8</ele>
        <time>2021-11-20T12:52:34Z</time>
      </trkpt>
      <trkpt lat="46.6242" lon="5.30365">
        <ele>201</ele>
        <time>2021-11-20T12:52:40Z</time>
      </trkpt>
      <trkpt lat="46.62424" lon="5.30373">
        <ele>201</ele>
        <time>2021-11-20T12:52:41Z</time>
      </trkpt>
      <trkpt lat="46.62428" lon="5.30391">
        <ele>201.2</ele>
        <time>2021-11-20T12:52:43Z</time>
      </trkpt>
      <trkpt lat="46.62428" lon="5.3041">
        <ele>201.4</ele>
        <time>2021-11-20T12:52:45Z</time>
      </trkpt>
      <trkpt lat="46.62427" lon="5.30419">
        <ele>201.4</ele>
        <time>2021-11-20T12:52:46Z</time>
      </trkpt>
      <trkpt lat="46.62418" lon="5.30452">
        <ele>201.8</ele>
        <time>2021-11-20T12:52:50Z</time>
      </trkpt>
      <trkpt lat="46.62413" lon="5.30468">
        <ele>202.2</ele>
        <time>2021-11-20T12:52:52Z</time>
      </trkpt>
      <trkpt lat="46.62404" lon="5.30505">
        <ele>203</ele>
        <time>2021-11-20T12:52:57Z</time>
      </trkpt>
      <trkpt lat="46.62396" lon="5.30534">
        <ele>203.6</ele>
        <time>2021-11-20T12:53:01Z</time>
      </trkpt>
      <trkpt lat="46.62392" lon="5.30548">
        <ele>204.2</ele>
        <time>2021-11-20T12:53:03Z</time>
      </trkpt>
      <trkpt lat="46.62384" lon="5.30592">
        <ele>205.2</ele>
        <time>2021-11-20T12:53:09Z</time>
      </trkpt>
      <trkpt lat="46.62384" lon="5.30599">
        <ele>205.2</ele>
        <time>2021-11-20T12:53:10Z</time>
      </trkpt>
      <trkpt lat="46.62384" lon="5.30607">
        <ele>205.4</ele>
        <time>2021-11-20T12:53:11Z</time>
      </trkpt>
      <trkpt lat="46.62389" lon="5.30629">
        <ele>205.8</ele>
        <time>2021-11-20T12:53:14Z</time>
      </trkpt>
      <trkpt lat="46.62391" lon="5.30636">
        <ele>206</ele>
        <time>2021-11-20T12:53:15Z</time>
      </trkpt>
      <trkpt lat="46.62394" lon="5.30642">
        <ele>206.4</ele>
        <time>2021-11-20T12:53:16Z</time>
      </trkpt>
      <trkpt lat="46.62408" lon="5.30674">
        <ele>207</ele>
        <time>2021-11-20T12:53:21Z</time>
      </trkpt>
      <trkpt lat="46.62414" lon="5.30687">
        <ele>207.4</ele>
        <time>2021-11-20T12:53:23Z</time>
      </trkpt>
      <trkpt lat="46.62432" lon="5.30732">
        <ele>208.4</ele>
        <time>2021-11-20T12:53:30Z</time>
      </trkpt>
      <trkpt lat="46.62434" lon="5.30739">
        <ele>208.8</ele>
        <time>2021-11-20T12:53:31Z</time>
      </trkpt>
      <trkpt lat="46.6244" lon="5.30768">
        <ele>209.6</ele>
        <time>2021-11-20T12:53:35Z</time>
      </trkpt>
      <trkpt lat="46.62445" lon="5.3079">
        <ele>210.4</ele>
        <time>2021-11-20T12:53:38Z</time>
      </trkpt>
      <trkpt lat="46.62454" lon="5.3084">
        <ele>210.4</ele>
        <time>2021-11-20T12:53:44Z</time>
      </trkpt>
      <trkpt lat="46.62466" lon="5.3091">
        <ele>209.8</ele>
        <time>2021-11-20T12:53:51Z</time>
      </trkpt>
      <trkpt lat="46.6248" lon="5.3099">
        <ele>209.2</ele>
        <time>2021-11-20T12:53:59Z</time>
      </trkpt>
      <trkpt lat="46.62485" lon="5.31019">
        <ele>209</ele>
        <time>2021-11-20T12:54:02Z</time>
      </trkpt>
      <trkpt lat="46.62483" lon="5.31038">
        <ele>208.8</ele>
        <time>2021-11-20T12:54:04Z</time>
      </trkpt>
      <trkpt lat="46.62479" lon="5.31047">
        <ele>208.6</ele>
        <time>2021-11-20T12:54:05Z</time>
      </trkpt>
      <trkpt lat="46.6247" lon="5.31062">
        <ele>208.2</ele>
        <time>2021-11-20T12:54:07Z</time>
      </trkpt>
      <trkpt lat="46.62458" lon="5.31074">
        <ele>208</ele>
        <time>2021-11-20T12:54:09Z</time>
      </trkpt>
      <trkpt lat="46.6243" lon="5.31098">
        <ele>207.4</ele>
        <time>2021-11-20T12:54:13Z</time>
      </trkpt>
      <trkpt lat="46.62423" lon="5.31105">
        <ele>207</ele>
        <time>2021-11-20T12:54:14Z</time>
      </trkpt>
      <trkpt lat="46.62417" lon="5.31114">
        <ele>206.8</ele>
        <time>2021-11-20T12:54:15Z</time>
      </trkpt>
      <trkpt lat="46.62411" lon="5.31125">
        <ele>206.2</ele>
        <time>2021-11-20T12:54:16Z</time>
      </trkpt>
      <trkpt lat="46.62407" lon="5.31136">
        <ele>206.2</ele>
        <time>2021-11-20T12:54:17Z</time>
      </trkpt>
      <trkpt lat="46.62402" lon="5.31162">
        <ele>205.6</ele>
        <time>2021-11-20T12:54:19Z</time>
      </trkpt>
      <trkpt lat="46.62401" lon="5.31174">
        <ele>205</ele>
        <time>2021-11-20T12:54:20Z</time>
      </trkpt>
      <trkpt lat="46.62401" lon="5.31225">
        <ele>203.8</ele>
        <time>2021-11-20T12:54:24Z</time>
      </trkpt>
      <trkpt lat="46.624" lon="5.31249">
        <ele>203.2</ele>
        <time>2021-11-20T12:54:26Z</time>
      </trkpt>
      <trkpt lat="46.62399" lon="5.31261">
        <ele>203</ele>
        <time>2021-11-20T12:54:27Z</time>
      </trkpt>
      <trkpt lat="46.62392" lon="5.31282">
        <ele>202.6</ele>
        <time>2021-11-20T12:54:29Z</time>
      </trkpt>
      <trkpt lat="46.62382" lon="5.31298">
        <ele>202.2</ele>
        <time>2021-11-20T12:54:31Z</time>
      </trkpt>
      <trkpt lat="46.62375" lon="5.31304">
        <ele>202</ele>
        <time>2021-11-20T12:54:32Z</time>
      </trkpt>
      <trkpt lat="46.62368" lon="5.31308">
        <ele>202</ele>
        <time>2021-11-20T12:54:33Z</time>
      </trkpt>
      <trkpt lat="46.62339" lon="5.31325">
        <ele>201.6</ele>
        <time>2021-11-20T12:54:37Z</time>
      </trkpt>
      <trkpt lat="46.62298" lon="5.31361">
        <ele>201.6</ele>
        <time>2021-11-20T12:54:44Z</time>
      </trkpt>
      <trkpt lat="46.62262" lon="5.31393">
        <ele>202</ele>
        <time>2021-11-20T12:54:51Z</time>
      </trkpt>
      <trkpt lat="46.62226" lon="5.31422">
        <ele>203.4</ele>
        <time>2021-11-20T12:54:59Z</time>
      </trkpt>
      <trkpt lat="46.62218" lon="5.31427">
        <ele>203.6</ele>
        <time>2021-11-20T12:55:01Z</time>
      </trkpt>
      <trkpt lat="46.62201" lon="5.31433">
        <ele>204.4</ele>
        <time>2021-11-20T12:55:05Z</time>
      </trkpt>
      <trkpt lat="46.62197" lon="5.31433">
        <ele>204.6</ele>
        <time>2021-11-20T12:55:06Z</time>
      </trkpt>
      <trkpt lat="46.62188" lon="5.31433">
        <ele>205.6</ele>
        <time>2021-11-20T12:55:08Z</time>
      </trkpt>
      <trkpt lat="46.62177" lon="5.31432">
        <ele>206.8</ele>
        <time>2021-11-20T12:55:11Z</time>
      </trkpt>
      <trkpt lat="46.62169" lon="5.3143">
        <ele>207.4</ele>
        <time>2021-11-20T12:55:13Z</time>
      </trkpt>
      <trkpt lat="46.62161" lon="5.31429">
        <ele>208</ele>
        <time>2021-11-20T12:55:15Z</time>
      </trkpt>
      <trkpt lat="46.62139" lon="5.31428">
        <ele>209.4</ele>
        <time>2021-11-20T12:55:21Z</time>
      </trkpt>
      <trkpt lat="46.62123" lon="5.31427">
        <ele>210.4</ele>
        <time>2021-11-20T12:55:25Z</time>
      </trkpt>
      <trkpt lat="46.62106" lon="5.31425">
        <ele>211.6</ele>
        <time>2021-11-20T12:55:29Z</time>
      </trkpt>
      <trkpt lat="46.62102" lon="5.31425">
        <ele>211.8</ele>
        <time>2021-11-20T12:55:30Z</time>
      </trkpt>
      <trkpt lat="46.62081" lon="5.31423">
        <ele>213</ele>
        <time>2021-11-20T12:55:35Z</time>
      </trkpt>
      <trkpt lat="46.62053" lon="5.31423">
        <ele>214</ele>
        <time>2021-11-20T12:55:41Z</time>
      </trkpt>
      <trkpt lat="46.62048" lon="5.31423">
        <ele>214.2</ele>
        <time>2021-11-20T12:55:42Z</time>
      </trkpt>
      <trkpt lat="46.62016" lon="5.31422">
        <ele>214.4</ele>
        <time>2021-11-20T12:55:48Z</time>
      </trkpt>
      <trkpt lat="46.61961" lon="5.3142">
        <ele>214.6</ele>
        <time>2021-11-20T12:55:58Z</time>
      </trkpt>
      <trkpt lat="46.61906" lon="5.31418">
        <ele>215</ele>
        <time>2021-11-20T12:56:08Z</time>
      </trkpt>
      <trkpt lat="46.61895" lon="5.31418">
        <ele>215</ele>
        <time>2021-11-20T12:56:10Z</time>
      </trkpt>
      <trkpt lat="46.61884" lon="5.31421">
        <ele>215</ele>
        <time>2021-11-20T12:56:12Z</time>
      </trkpt>
      <trkpt lat="46.61878" lon="5.31424">
        <ele>215</ele>
        <time>2021-11-20T12:56:13Z</time>
      </trkpt>
      <trkpt lat="46.61868" lon="5.31432">
        <ele>215</ele>
        <time>2021-11-20T12:56:15Z</time>
      </trkpt>
      <trkpt lat="46.6186" lon="5.31443">
        <ele>215</ele>
        <time>2021-11-20T12:56:17Z</time>
      </trkpt>
      <trkpt lat="46.61846" lon="5.31481">
        <ele>214.8</ele>
        <time>2021-11-20T12:56:22Z</time>
      </trkpt>
      <trkpt lat="46.61823" lon="5.31556">
        <ele>214.8</ele>
        <time>2021-11-20T12:56:31Z</time>
      </trkpt>
      <trkpt lat="46.61821" lon="5.31565">
        <ele>214.8</ele>
        <time>2021-11-20T12:56:32Z</time>
      </trkpt>
      <trkpt lat="46.61799" lon="5.31636">
        <ele>214.8</ele>
        <time>2021-11-20T12:56:40Z</time>
      </trkpt>
      <trkpt lat="46.61775" lon="5.31717">
        <ele>214.6</ele>
        <time>2021-11-20T12:56:49Z</time>
      </trkpt>
      <trkpt lat="46.6177" lon="5.31734">
        <ele>214.6</ele>
        <time>2021-11-20T12:56:51Z</time>
      </trkpt>
      <trkpt lat="46.61745" lon="5.31813">
        <ele>214.4</ele>
        <time>2021-11-20T12:57:00Z</time>
      </trkpt>
      <trkpt lat="46.61742" lon="5.31822">
        <ele>214.2</ele>
        <time>2021-11-20T12:57:01Z</time>
      </trkpt>
      <trkpt lat="46.61721" lon="5.31895">
        <ele>213.8</ele>
        <time>2021-11-20T12:57:09Z</time>
      </trkpt>
      <trkpt lat="46.61718" lon="5.31904">
        <ele>213.8</ele>
        <time>2021-11-20T12:57:10Z</time>
      </trkpt>
      <trkpt lat="46.61698" lon="5.31963">
        <ele>213.6</ele>
        <time>2021-11-20T12:57:16Z</time>
      </trkpt>
      <trkpt lat="46.61684" lon="5.31988">
        <ele>213</ele>
        <time>2021-11-20T12:57:19Z</time>
      </trkpt>
      <trkpt lat="46.61677" lon="5.31996">
        <ele>212.8</ele>
        <time>2021-11-20T12:57:20Z</time>
      </trkpt>
      <trkpt lat="46.61646" lon="5.32021">
        <ele>211.8</ele>
        <time>2021-11-20T12:57:24Z</time>
      </trkpt>
      <trkpt lat="46.61638" lon="5.32026">
        <ele>211.6</ele>
        <time>2021-11-20T12:57:25Z</time>
      </trkpt>
      <trkpt lat="46.61612" lon="5.32039">
        <ele>210</ele>
        <time>2021-11-20T12:57:28Z</time>
      </trkpt>
      <trkpt lat="46.61603" lon="5.32041">
        <ele>209.6</ele>
        <time>2021-11-20T12:57:29Z</time>
      </trkpt>
      <trkpt lat="46.61595" lon="5.32043">
        <ele>209.2</ele>
        <time>2021-11-20T12:57:30Z</time>
      </trkpt>
      <trkpt lat="46.61587" lon="5.32046">
        <ele>209</ele>
        <time>2021-11-20T12:57:31Z</time>
      </trkpt>
      <trkpt lat="46.61581" lon="5.32049">
        <ele>208.6</ele>
        <time>2021-11-20T12:57:32Z</time>
      </trkpt>
      <trkpt lat="46.61567" lon="5.32061">
        <ele>208</ele>
        <time>2021-11-20T12:57:34Z</time>
      </trkpt>
      <trkpt lat="46.61549" lon="5.32084">
        <ele>207.4</ele>
        <time>2021-11-20T12:57:37Z</time>
      </trkpt>
      <trkpt lat="46.61539" lon="5.32099">
        <ele>207.2</ele>
        <time>2021-11-20T12:57:39Z</time>
      </trkpt>
      <trkpt lat="46.61523" lon="5.32122">
        <ele>207</ele>
        <time>2021-11-20T12:57:42Z</time>
      </trkpt>
      <trkpt lat="46.61512" lon="5.32134">
        <ele>207</ele>
        <time>2021-11-20T12:57:44Z</time>
      </trkpt>
      <trkpt lat="46.61508" lon="5.32148">
        <ele>207</ele>
        <time>2021-11-20T12:57:46Z</time>
      </trkpt>
      <trkpt lat="46.6151" lon="5.32155">
        <ele>207</ele>
        <time>2021-11-20T12:57:47Z</time>
      </trkpt>
      <trkpt lat="46.61513" lon="5.32161">
        <ele>207</ele>
        <time>2021-11-20T12:57:48Z</time>
      </trkpt>
      <trkpt lat="46.61522" lon="5.32169">
        <ele>206.8</ele>
        <time>2021-11-20T12:57:50Z</time>
      </trkpt>
      <trkpt lat="46.61544" lon="5.32195">
        <ele>206.8</ele>
        <time>2021-11-20T12:57:54Z</time>
      </trkpt>
      <trkpt lat="46.61576" lon="5.32248">
        <ele>207</ele>
        <time>2021-11-20T12:58:01Z</time>
      </trkpt>
      <trkpt lat="46.61592" lon="5.32278">
        <ele>207.4</ele>
        <time>2021-11-20T12:58:05Z</time>
      </trkpt>
      <trkpt lat="46.61598" lon="5.32295">
        <ele>207.4</ele>
        <time>2021-11-20T12:58:07Z</time>
      </trkpt>
      <trkpt lat="46.616" lon="5.32304">
        <ele>207.4</ele>
        <time>2021-11-20T12:58:08Z</time>
      </trkpt>
      <trkpt lat="46.61607" lon="5.32348">
        <ele>207.8</ele>
        <time>2021-11-20T12:58:13Z</time>
      </trkpt>
      <trkpt lat="46.61612" lon="5.32372">
        <ele>208.6</ele>
        <time>2021-11-20T12:58:16Z</time>
      </trkpt>
      <trkpt lat="46.61615" lon="5.32379">
        <ele>208.6</ele>
        <time>2021-11-20T12:58:17Z</time>
      </trkpt>
      <trkpt lat="46.61619" lon="5.32386">
        <ele>208.8</ele>
        <time>2021-11-20T12:58:18Z</time>
      </trkpt>
      <trkpt lat="46.61627" lon="5.324">
        <ele>208.8</ele>
        <time>2021-11-20T12:58:20Z</time>
      </trkpt>
      <trkpt lat="46.6164" lon="5.32416">
        <ele>209</ele>
        <time>2021-11-20T12:58:23Z</time>
      </trkpt>
      <trkpt lat="46.61671" lon="5.32437">
        <ele>209.6</ele>
        <time>2021-11-20T12:58:29Z</time>
      </trkpt>
      <trkpt lat="46.6171" lon="5.32459">
        <ele>210.8</ele>
        <time>2021-11-20T12:58:37Z</time>
      </trkpt>
      <trkpt lat="46.61719" lon="5.32464">
        <ele>211</ele>
        <time>2021-11-20T12:58:39Z</time>
      </trkpt>
      <trkpt lat="46.61749" lon="5.3248">
        <ele>211.8</ele>
        <time>2021-11-20T12:58:45Z</time>
      </trkpt>
      <trkpt lat="46.61764" lon="5.3249">
        <ele>212.2</ele>
        <time>2021-11-20T12:58:48Z</time>
      </trkpt>
      <trkpt lat="46.61768" lon="5.32493">
        <ele>212.4</ele>
        <time>2021-11-20T12:58:49Z</time>
      </trkpt>
      <trkpt lat="46.61781" lon="5.32505">
        <ele>212.8</ele>
        <time>2021-11-20T12:58:52Z</time>
      </trkpt>
      <trkpt lat="46.61799" lon="5.32521">
        <ele>213.8</ele>
        <time>2021-11-20T12:58:56Z</time>
      </trkpt>
      <trkpt lat="46.61803" lon="5.32525">
        <ele>214</ele>
        <time>2021-11-20T12:58:57Z</time>
      </trkpt>
      <trkpt lat="46.61836" lon="5.32552">
        <ele>215</ele>
        <time>2021-11-20T12:59:04Z</time>
      </trkpt>
      <trkpt lat="46.61858" lon="5.32572">
        <ele>216</ele>
        <time>2021-11-20T12:59:09Z</time>
      </trkpt>
      <trkpt lat="46.61863" lon="5.32576">
        <ele>216</ele>
        <time>2021-11-20T12:59:10Z</time>
      </trkpt>
      <trkpt lat="46.619" lon="5.32619">
        <ele>216.8</ele>
        <time>2021-11-20T12:59:18Z</time>
      </trkpt>
      <trkpt lat="46.61942" lon="5.32675">
        <ele>217</ele>
        <time>2021-11-20T12:59:27Z</time>
      </trkpt>
      <trkpt lat="46.61979" lon="5.32729">
        <ele>216.6</ele>
        <time>2021-11-20T12:59:35Z</time>
      </trkpt>
      <trkpt lat="46.62016" lon="5.32787">
        <ele>217</ele>
        <time>2021-11-20T12:59:44Z</time>
      </trkpt>
      <trkpt lat="46.62024" lon="5.32799">
        <ele>217.2</ele>
        <time>2021-11-20T12:59:46Z</time>
      </trkpt>
      <trkpt lat="46.62048" lon="5.32836">
        <ele>218.2</ele>
        <time>2021-11-20T12:59:52Z</time>
      </trkpt>
      <trkpt lat="46.62052" lon="5.32843">
        <ele>218.4</ele>
        <time>2021-11-20T12:59:53Z</time>
      </trkpt>
      <trkpt lat="46.62079" lon="5.32882">
        <ele>219</ele>
        <time>2021-11-20T12:59:59Z</time>
      </trkpt>
      <trkpt lat="46.62112" lon="5.3291">
        <ele>219.2</ele>
        <time>2021-11-20T13:00:05Z</time>
      </trkpt>
      <trkpt lat="46.6216" lon="5.32939">
        <ele>219</ele>
        <time>2021-11-20T13:00:13Z</time>
      </trkpt>
      <trkpt lat="46.62173" lon="5.3294">
        <ele>219</ele>
        <time>2021-11-20T13:00:15Z</time>
      </trkpt>
      <trkpt lat="46.62187" lon="5.32934">
        <ele>218.8</ele>
        <time>2021-11-20T13:00:17Z</time>
      </trkpt>
      <trkpt lat="46.62223" lon="5.32922">
        <ele>218.6</ele>
        <time>2021-11-20T13:00:22Z</time>
      </trkpt>
      <trkpt lat="46.62272" lon="5.32919">
        <ele>217</ele>
        <time>2021-11-20T13:00:28Z</time>
      </trkpt>
      <trkpt lat="46.62281" lon="5.32918">
        <ele>216.6</ele>
        <time>2021-11-20T13:00:29Z</time>
      </trkpt>
      <trkpt lat="46.62307" lon="5.32917">
        <ele>215.6</ele>
        <time>2021-11-20T13:00:32Z</time>
      </trkpt>
      <trkpt lat="46.62344" lon="5.32913">
        <ele>214.8</ele>
        <time>2021-11-20T13:00:36Z</time>
      </trkpt>
      <trkpt lat="46.62353" lon="5.32913">
        <ele>214.2</ele>
        <time>2021-11-20T13:00:37Z</time>
      </trkpt>
      <trkpt lat="46.62372" lon="5.32911">
        <ele>212.4</ele>
        <time>2021-11-20T13:00:39Z</time>
      </trkpt>
      <trkpt lat="46.6239" lon="5.32908">
        <ele>209.6</ele>
        <time>2021-11-20T13:00:41Z</time>
      </trkpt>
      <trkpt lat="46.62409" lon="5.32906">
        <ele>208.2</ele>
        <time>2021-11-20T13:00:43Z</time>
      </trkpt>
      <trkpt lat="46.62418" lon="5.32905">
        <ele>208</ele>
        <time>2021-11-20T13:00:44Z</time>
      </trkpt>
      <trkpt lat="46.62435" lon="5.32902">
        <ele>207.2</ele>
        <time>2021-11-20T13:00:46Z</time>
      </trkpt>
      <trkpt lat="46.62469" lon="5.32897">
        <ele>206</ele>
        <time>2021-11-20T13:00:50Z</time>
      </trkpt>
      <trkpt lat="46.62494" lon="5.32893">
        <ele>205.6</ele>
        <time>2021-11-20T13:00:53Z</time>
      </trkpt>
      <trkpt lat="46.62549" lon="5.32882">
        <ele>205</ele>
        <time>2021-11-20T13:01:00Z</time>
      </trkpt>
      <trkpt lat="46.62565" lon="5.32879">
        <ele>205</ele>
        <time>2021-11-20T13:01:02Z</time>
      </trkpt>
      <trkpt lat="46.62595" lon="5.32877">
        <ele>204.6</ele>
        <time>2021-11-20T13:01:06Z</time>
      </trkpt>
      <trkpt lat="46.62602" lon="5.32879">
        <ele>204.6</ele>
        <time>2021-11-20T13:01:07Z</time>
      </trkpt>
      <trkpt lat="46.62609" lon="5.32884">
        <ele>204.6</ele>
        <time>2021-11-20T13:01:08Z</time>
      </trkpt>
      <trkpt lat="46.62619" lon="5.329">
        <ele>204.8</ele>
        <time>2021-11-20T13:01:10Z</time>
      </trkpt>
      <trkpt lat="46.62639" lon="5.32952">
        <ele>205</ele>
        <time>2021-11-20T13:01:16Z</time>
      </trkpt>
      <trkpt lat="46.62653" lon="5.32979">
        <ele>205.2</ele>
        <time>2021-11-20T13:01:20Z</time>
      </trkpt>
      <trkpt lat="46.62657" lon="5.32984">
        <ele>205.4</ele>
        <time>2021-11-20T13:01:21Z</time>
      </trkpt>
      <trkpt lat="46.62666" lon="5.32992">
        <ele>206.2</ele>
        <time>2021-11-20T13:01:23Z</time>
      </trkpt>
      <trkpt lat="46.62676" lon="5.32997">
        <ele>206.6</ele>
        <time>2021-11-20T13:01:25Z</time>
      </trkpt>
      <trkpt lat="46.62681" lon="5.32999">
        <ele>207</ele>
        <time>2021-11-20T13:01:26Z</time>
      </trkpt>
      <trkpt lat="46.62686" lon="5.32999">
        <ele>207.2</ele>
        <time>2021-11-20T13:01:27Z</time>
      </trkpt>
      <trkpt lat="46.62691" lon="5.32999">
        <ele>207.4</ele>
        <time>2021-11-20T13:01:28Z</time>
      </trkpt>
      <trkpt lat="46.62704" lon="5.32997">
        <ele>208.4</ele>
        <time>2021-11-20T13:01:31Z</time>
      </trkpt>
      <trkpt lat="46.62709" lon="5.32996">
        <ele>208.6</ele>
        <time>2021-11-20T13:01:32Z</time>
      </trkpt>
      <trkpt lat="46.62728" lon="5.32997">
        <ele>209.8</ele>
        <time>2021-11-20T13:01:36Z</time>
      </trkpt>
      <trkpt lat="46.62737" lon="5.32999">
        <ele>210.4</ele>
        <time>2021-11-20T13:01:38Z</time>
      </trkpt>
      <trkpt lat="46.62747" lon="5.33002">
        <ele>211</ele>
        <time>2021-11-20T13:01:40Z</time>
      </trkpt>
      <trkpt lat="46.62772" lon="5.33011">
        <ele>212.2</ele>
        <time>2021-11-20T13:01:45Z</time>
      </trkpt>
      <trkpt lat="46.62782" lon="5.33014">
        <ele>212.6</ele>
        <time>2021-11-20T13:01:47Z</time>
      </trkpt>
      <trkpt lat="46.62806" lon="5.33023">
        <ele>213.2</ele>
        <time>2021-11-20T13:01:52Z</time>
      </trkpt>
      <trkpt lat="46.62821" lon="5.33028">
        <ele>213.6</ele>
        <time>2021-11-20T13:01:55Z</time>
      </trkpt>
      <trkpt lat="46.62846" lon="5.33035">
        <ele>214.2</ele>
        <time>2021-11-20T13:02:00Z</time>
      </trkpt>
      <trkpt lat="46.62867" lon="5.33041">
        <ele>214.8</ele>
        <time>2021-11-20T13:02:04Z</time>
      </trkpt>
      <trkpt lat="46.62884" lon="5.33047">
        <ele>215</ele>
        <time>2021-11-20T13:02:07Z</time>
      </trkpt>
      <trkpt lat="46.62894" lon="5.33056">
        <ele>215</ele>
        <time>2021-11-20T13:02:09Z</time>
      </trkpt>
      <trkpt lat="46.62907" lon="5.33073">
        <ele>215.2</ele>
        <time>2021-11-20T13:02:12Z</time>
      </trkpt>
      <trkpt lat="46.62929" lon="5.33099">
        <ele>215.6</ele>
        <time>2021-11-20T13:02:17Z</time>
      </trkpt>
      <trkpt lat="46.62937" lon="5.33106">
        <ele>215.8</ele>
        <time>2021-11-20T13:02:19Z</time>
      </trkpt>
      <trkpt lat="46.62954" lon="5.33113">
        <ele>216.2</ele>
        <time>2021-11-20T13:02:22Z</time>
      </trkpt>
      <trkpt lat="46.62964" lon="5.33116">
        <ele>216.2</ele>
        <time>2021-11-20T13:02:24Z</time>
      </trkpt>
      <trkpt lat="46.62989" lon="5.33122">
        <ele>217.4</ele>
        <time>2021-11-20T13:02:29Z</time>
      </trkpt>
      <trkpt lat="46.63004" lon="5.33126">
        <ele>217.8</ele>
        <time>2021-11-20T13:02:32Z</time>
      </trkpt>
      <trkpt lat="46.63013" lon="5.33129">
        <ele>218.6</ele>
        <time>2021-11-20T13:02:34Z</time>
      </trkpt>
      <trkpt lat="46.63031" lon="5.33137">
        <ele>219.6</ele>
        <time>2021-11-20T13:02:38Z</time>
      </trkpt>
      <trkpt lat="46.63041" lon="5.33142">
        <ele>220</ele>
        <time>2021-11-20T13:02:40Z</time>
      </trkpt>
      <trkpt lat="46.6305" lon="5.33148">
        <ele>220.4</ele>
        <time>2021-11-20T13:02:42Z</time>
      </trkpt>
      <trkpt lat="46.63054" lon="5.33152">
        <ele>220.8</ele>
        <time>2021-11-20T13:02:43Z</time>
      </trkpt>
      <trkpt lat="46.63076" lon="5.33172">
        <ele>221.6</ele>
        <time>2021-11-20T13:02:48Z</time>
      </trkpt>
      <trkpt lat="46.63085" lon="5.33181">
        <ele>222</ele>
        <time>2021-11-20T13:02:50Z</time>
      </trkpt>
      <trkpt lat="46.63102" lon="5.332">
        <ele>222.6</ele>
        <time>2021-11-20T13:02:54Z</time>
      </trkpt>
      <trkpt lat="46.63107" lon="5.33215">
        <ele>222.8</ele>
        <time>2021-11-20T13:02:56Z</time>
      </trkpt>
      <trkpt lat="46.63116" lon="5.33264">
        <ele>223</ele>
        <time>2021-11-20T13:03:02Z</time>
      </trkpt>
      <trkpt lat="46.63123" lon="5.33287">
        <ele>223.2</ele>
        <time>2021-11-20T13:03:05Z</time>
      </trkpt>
      <trkpt lat="46.63132" lon="5.33317">
        <ele>223.2</ele>
        <time>2021-11-20T13:03:09Z</time>
      </trkpt>
      <trkpt lat="46.63144" lon="5.33361">
        <ele>222.8</ele>
        <time>2021-11-20T13:03:15Z</time>
      </trkpt>
      <trkpt lat="46.63151" lon="5.33387">
        <ele>222</ele>
        <time>2021-11-20T13:03:18Z</time>
      </trkpt>
      <trkpt lat="46.63158" lon="5.33414">
        <ele>221.6</ele>
        <time>2021-11-20T13:03:21Z</time>
      </trkpt>
      <trkpt lat="46.63166" lon="5.33443">
        <ele>221</ele>
        <time>2021-11-20T13:03:24Z</time>
      </trkpt>
      <trkpt lat="46.63169" lon="5.33453">
        <ele>220.6</ele>
        <time>2021-11-20T13:03:25Z</time>
      </trkpt>
      <trkpt lat="46.63174" lon="5.33474">
        <ele>220</ele>
        <time>2021-11-20T13:03:27Z</time>
      </trkpt>
      <trkpt lat="46.63186" lon="5.33518">
        <ele>219</ele>
        <time>2021-11-20T13:03:31Z</time>
      </trkpt>
      <trkpt lat="46.632" lon="5.33564">
        <ele>218</ele>
        <time>2021-11-20T13:03:35Z</time>
      </trkpt>
      <trkpt lat="46.63207" lon="5.33588">
        <ele>217</ele>
        <time>2021-11-20T13:03:37Z</time>
      </trkpt>
      <trkpt lat="46.63211" lon="5.336">
        <ele>216.8</ele>
        <time>2021-11-20T13:03:38Z</time>
      </trkpt>
      <trkpt lat="46.63221" lon="5.33637">
        <ele>215.8</ele>
        <time>2021-11-20T13:03:41Z</time>
      </trkpt>
      <trkpt lat="46.63232" lon="5.33676">
        <ele>214.2</ele>
        <time>2021-11-20T13:03:44Z</time>
      </trkpt>
      <trkpt lat="46.63239" lon="5.337">
        <ele>213.6</ele>
        <time>2021-11-20T13:03:46Z</time>
      </trkpt>
      <trkpt lat="46.63246" lon="5.33724">
        <ele>213</ele>
        <time>2021-11-20T13:03:48Z</time>
      </trkpt>
      <trkpt lat="46.63255" lon="5.33758">
        <ele>211.8</ele>
        <time>2021-11-20T13:03:51Z</time>
      </trkpt>
      <trkpt lat="46.63265" lon="5.33801">
        <ele>211.4</ele>
        <time>2021-11-20T13:03:55Z</time>
      </trkpt>
      <trkpt lat="46.63273" lon="5.33846">
        <ele>210.8</ele>
        <time>2021-11-20T13:03:59Z</time>
      </trkpt>
      <trkpt lat="46.63277" lon="5.3388">
        <ele>210</ele>
        <time>2021-11-20T13:04:02Z</time>
      </trkpt>
      <trkpt lat="46.63279" lon="5.33915">
        <ele>209.8</ele>
        <time>2021-11-20T13:04:05Z</time>
      </trkpt>
      <trkpt lat="46.6328" lon="5.33969">
        <ele>209.6</ele>
        <time>2021-11-20T13:04:10Z</time>
      </trkpt>
      <trkpt lat="46.63283" lon="5.34037">
        <ele>209.8</ele>
        <time>2021-11-20T13:04:17Z</time>
      </trkpt>
      <trkpt lat="46.63285" lon="5.34098">
        <ele>210.6</ele>
        <time>2021-11-20T13:04:24Z</time>
      </trkpt>
      <trkpt lat="46.63286" lon="5.34115">
        <ele>211</ele>
        <time>2021-11-20T13:04:26Z</time>
      </trkpt>
      <trkpt lat="46.63288" lon="5.34171">
        <ele>212</ele>
        <time>2021-11-20T13:04:33Z</time>
      </trkpt>
      <trkpt lat="46.63288" lon="5.34178">
        <ele>212</ele>
        <time>2021-11-20T13:04:34Z</time>
      </trkpt>
      <trkpt lat="46.63289" lon="5.34216">
        <ele>213.2</ele>
        <time>2021-11-20T13:04:39Z</time>
      </trkpt>
      <trkpt lat="46.63288" lon="5.34229">
        <ele>213.4</ele>
        <time>2021-11-20T13:04:41Z</time>
      </trkpt>
      <trkpt lat="46.63287" lon="5.34235">
        <ele>213.6</ele>
        <time>2021-11-20T13:04:42Z</time>
      </trkpt>
      <trkpt lat="46.63278" lon="5.34264">
        <ele>214.4</ele>
        <time>2021-11-20T13:04:47Z</time>
      </trkpt>
      <trkpt lat="46.63272" lon="5.34282">
        <ele>215.4</ele>
        <time>2021-11-20T13:04:50Z</time>
      </trkpt>
      <trkpt lat="46.63266" lon="5.34305">
        <ele>216</ele>
        <time>2021-11-20T13:04:53Z</time>
      </trkpt>
      <trkpt lat="46.63257" lon="5.34359">
        <ele>216.2</ele>
        <time>2021-11-20T13:04:59Z</time>
      </trkpt>
      <trkpt lat="46.63257" lon="5.34359">
        <ele>216.2</ele>
        <time>2021-11-20T13:05:00Z</time>
      </trkpt>
      <trkpt lat="46.63258" lon="5.34376">
        <ele>216.2</ele>
        <time>2021-11-20T13:05:01Z</time>
      </trkpt>
      <trkpt lat="46.63262" lon="5.34405">
        <ele>216.4</ele>
        <time>2021-11-20T13:05:04Z</time>
      </trkpt>
      <trkpt lat="46.63275" lon="5.3449">
        <ele>215.2</ele>
        <time>2021-11-20T13:05:12Z</time>
      </trkpt>
      <trkpt lat="46.63281" lon="5.34559">
        <ele>213.8</ele>
        <time>2021-11-20T13:05:18Z</time>
      </trkpt>
      <trkpt lat="46.63282" lon="5.3457">
        <ele>213.8</ele>
        <time>2021-11-20T13:05:19Z</time>
      </trkpt>
      <trkpt lat="46.63283" lon="5.34612">
        <ele>212.8</ele>
        <time>2021-11-20T13:05:23Z</time>
      </trkpt>
      <trkpt lat="46.63282" lon="5.34644">
        <ele>212.6</ele>
        <time>2021-11-20T13:05:26Z</time>
      </trkpt>
      <trkpt lat="46.63272" lon="5.34726">
        <ele>212.4</ele>
        <time>2021-11-20T13:05:34Z</time>
      </trkpt>
      <trkpt lat="46.63268" lon="5.34795">
        <ele>212.4</ele>
        <time>2021-11-20T13:05:41Z</time>
      </trkpt>
      <trkpt lat="46.63275" lon="5.34854">
        <ele>212.2</ele>
        <time>2021-11-20T13:05:47Z</time>
      </trkpt>
      <trkpt lat="46.63278" lon="5.34925">
        <ele>213</ele>
        <time>2021-11-20T13:05:55Z</time>
      </trkpt>
      <trkpt lat="46.63278" lon="5.34952">
        <ele>213.6</ele>
        <time>2021-11-20T13:05:58Z</time>
      </trkpt>
      <trkpt lat="46.63281" lon="5.34969">
        <ele>213.6</ele>
        <time>2021-11-20T13:06:00Z</time>
      </trkpt>
      <trkpt lat="46.63283" lon="5.34977">
        <ele>213.8</ele>
        <time>2021-11-20T13:06:01Z</time>
      </trkpt>
      <trkpt lat="46.63289" lon="5.34993">
        <ele>213.8</ele>
        <time>2021-11-20T13:06:03Z</time>
      </trkpt>
      <trkpt lat="46.63301" lon="5.35014">
        <ele>214</ele>
        <time>2021-11-20T13:06:06Z</time>
      </trkpt>
      <trkpt lat="46.63308" lon="5.35027">
        <ele>214</ele>
        <time>2021-11-20T13:06:08Z</time>
      </trkpt>
      <trkpt lat="46.63331" lon="5.35069">
        <ele>214.4</ele>
        <time>2021-11-20T13:06:14Z</time>
      </trkpt>
      <trkpt lat="46.63336" lon="5.35087">
        <ele>214.4</ele>
        <time>2021-11-20T13:06:16Z</time>
      </trkpt>
      <trkpt lat="46.63338" lon="5.35104">
        <ele>214.4</ele>
        <time>2021-11-20T13:06:18Z</time>
      </trkpt>
      <trkpt lat="46.6334" lon="5.35177">
        <ele>214.2</ele>
        <time>2021-11-20T13:06:25Z</time>
      </trkpt>
      <trkpt lat="46.63342" lon="5.35265">
        <ele>213.2</ele>
        <time>2021-11-20T13:06:33Z</time>
      </trkpt>
      <trkpt lat="46.63342" lon="5.35275">
        <ele>213.2</ele>
        <time>2021-11-20T13:06:34Z</time>
      </trkpt>
      <trkpt lat="46.63343" lon="5.35296">
        <ele>213</ele>
        <time>2021-11-20T13:06:36Z</time>
      </trkpt>
      <trkpt lat="46.63345" lon="5.35355">
        <ele>212.8</ele>
        <time>2021-11-20T13:06:42Z</time>
      </trkpt>
      <trkpt lat="46.63354" lon="5.35398">
        <ele>213</ele>
        <time>2021-11-20T13:06:47Z</time>
      </trkpt>
      <trkpt lat="46.63368" lon="5.35445">
        <ele>213.6</ele>
        <time>2021-11-20T13:06:53Z</time>
      </trkpt>
      <trkpt lat="46.6337" lon="5.35452">
        <ele>213.8</ele>
        <time>2021-11-20T13:06:54Z</time>
      </trkpt>
      <trkpt lat="46.63373" lon="5.35467">
        <ele>214</ele>
        <time>2021-11-20T13:06:56Z</time>
      </trkpt>
      <trkpt lat="46.63377" lon="5.35482">
        <ele>214.2</ele>
        <time>2021-11-20T13:06:58Z</time>
      </trkpt>
      <trkpt lat="46.63384" lon="5.35492">
        <ele>214.4</ele>
        <time>2021-11-20T13:07:00Z</time>
      </trkpt>
      <trkpt lat="46.63393" lon="5.35497">
        <ele>214.8</ele>
        <time>2021-11-20T13:07:02Z</time>
      </trkpt>
      <trkpt lat="46.63398" lon="5.35497">
        <ele>214.8</ele>
        <time>2021-11-20T13:07:03Z</time>
      </trkpt>
      <trkpt lat="46.63403" lon="5.35496">
        <ele>215</ele>
        <time>2021-11-20T13:07:04Z</time>
      </trkpt>
      <trkpt lat="46.6341" lon="5.35494">
        <ele>215.2</ele>
        <time>2021-11-20T13:07:05Z</time>
      </trkpt>
      <trkpt lat="46.63426" lon="5.35489">
        <ele>215.6</ele>
        <time>2021-11-20T13:07:08Z</time>
      </trkpt>
      <trkpt lat="46.63432" lon="5.35488">
        <ele>215.8</ele>
        <time>2021-11-20T13:07:09Z</time>
      </trkpt>
      <trkpt lat="46.63444" lon="5.35491">
        <ele>216.2</ele>
        <time>2021-11-20T13:07:11Z</time>
      </trkpt>
      <trkpt lat="46.63468" lon="5.35515">
        <ele>216.6</ele>
        <time>2021-11-20T13:07:16Z</time>
      </trkpt>
      <trkpt lat="46.63491" lon="5.3554">
        <ele>217.2</ele>
        <time>2021-11-20T13:07:21Z</time>
      </trkpt>
      <trkpt lat="46.63505" lon="5.35554">
        <ele>217.8</ele>
        <time>2021-11-20T13:07:24Z</time>
      </trkpt>
      <trkpt lat="46.63519" lon="5.35564">
        <ele>218.2</ele>
        <time>2021-11-20T13:07:27Z</time>
      </trkpt>
      <trkpt lat="46.63524" lon="5.35567">
        <ele>218.4</ele>
        <time>2021-11-20T13:07:28Z</time>
      </trkpt>
      <trkpt lat="46.63534" lon="5.3557">
        <ele>218.6</ele>
        <time>2021-11-20T13:07:30Z</time>
      </trkpt>
      <trkpt lat="46.63558" lon="5.35577">
        <ele>219.4</ele>
        <time>2021-11-20T13:07:35Z</time>
      </trkpt>
      <trkpt lat="46.63568" lon="5.35581">
        <ele>219.6</ele>
        <time>2021-11-20T13:07:37Z</time>
      </trkpt>
      <trkpt lat="46.63592" lon="5.3559">
        <ele>220.6</ele>
        <time>2021-11-20T13:07:42Z</time>
      </trkpt>
      <trkpt lat="46.63614" lon="5.35599">
        <ele>221.2</ele>
        <time>2021-11-20T13:07:47Z</time>
      </trkpt>
      <trkpt lat="46.63622" lon="5.35602">
        <ele>222</ele>
        <time>2021-11-20T13:07:49Z</time>
      </trkpt>
      <trkpt lat="46.63643" lon="5.35607">
        <ele>223</ele>
        <time>2021-11-20T13:07:53Z</time>
      </trkpt>
      <trkpt lat="46.63647" lon="5.35609">
        <ele>223.4</ele>
        <time>2021-11-20T13:07:54Z</time>
      </trkpt>
      <trkpt lat="46.63676" lon="5.35619">
        <ele>224.4</ele>
        <time>2021-11-20T13:08:00Z</time>
      </trkpt>
      <trkpt lat="46.63686" lon="5.35623">
        <ele>224.8</ele>
        <time>2021-11-20T13:08:02Z</time>
      </trkpt>
      <trkpt lat="46.63701" lon="5.35629">
        <ele>225.6</ele>
        <time>2021-11-20T13:08:05Z</time>
      </trkpt>
      <trkpt lat="46.63734" lon="5.35637">
        <ele>226.2</ele>
        <time>2021-11-20T13:08:11Z</time>
      </trkpt>
      <trkpt lat="46.63751" lon="5.35637">
        <ele>226.6</ele>
        <time>2021-11-20T13:08:14Z</time>
      </trkpt>
      <trkpt lat="46.63781" lon="5.35636">
        <ele>227</ele>
        <time>2021-11-20T13:08:19Z</time>
      </trkpt>
      <trkpt lat="46.6384" lon="5.35635">
        <ele>227.2</ele>
        <time>2021-11-20T13:08:28Z</time>
      </trkpt>
      <trkpt lat="46.63853" lon="5.35635">
        <ele>227.2</ele>
        <time>2021-11-20T13:08:30Z</time>
      </trkpt>
      <trkpt lat="46.63907" lon="5.35633">
        <ele>226.6</ele>
        <time>2021-11-20T13:08:38Z</time>
      </trkpt>
      <trkpt lat="46.63922" lon="5.35633">
        <ele>226.6</ele>
        <time>2021-11-20T13:08:40Z</time>
      </trkpt>
      <trkpt lat="46.63981" lon="5.3563">
        <ele>225.8</ele>
        <time>2021-11-20T13:08:48Z</time>
      </trkpt>
      <trkpt lat="46.63996" lon="5.35629">
        <ele>225.6</ele>
        <time>2021-11-20T13:08:50Z</time>
      </trkpt>
      <trkpt lat="46.64008" lon="5.35627">
        <ele>225.6</ele>
        <time>2021-11-20T13:08:52Z</time>
      </trkpt>
      <trkpt lat="46.64061" lon="5.35625">
        <ele>225</ele>
        <time>2021-11-20T13:08:59Z</time>
      </trkpt>
      <trkpt lat="46.64089" lon="5.35634">
        <ele>224.4</ele>
        <time>2021-11-20T13:09:03Z</time>
      </trkpt>
      <trkpt lat="46.6411" lon="5.35644">
        <ele>224</ele>
        <time>2021-11-20T13:09:06Z</time>
      </trkpt>
      <trkpt lat="46.64167" lon="5.35666">
        <ele>223.6</ele>
        <time>2021-11-20T13:09:14Z</time>
      </trkpt>
      <trkpt lat="46.64207" lon="5.35683">
        <ele>223.2</ele>
        <time>2021-11-20T13:09:20Z</time>
      </trkpt>
      <trkpt lat="46.64236" lon="5.35711">
        <ele>223</ele>
        <time>2021-11-20T13:09:25Z</time>
      </trkpt>
      <trkpt lat="46.64248" lon="5.35721">
        <ele>222.6</ele>
        <time>2021-11-20T13:09:27Z</time>
      </trkpt>
      <trkpt lat="46.64255" lon="5.35725">
        <ele>222.6</ele>
        <time>2021-11-20T13:09:28Z</time>
      </trkpt>
      <trkpt lat="46.64262" lon="5.35728">
        <ele>222.4</ele>
        <time>2021-11-20T13:09:29Z</time>
      </trkpt>
      <trkpt lat="46.64269" lon="5.3573">
        <ele>222.4</ele>
        <time>2021-11-20T13:09:30Z</time>
      </trkpt>
      <trkpt lat="46.64299" lon="5.35732">
        <ele>222.2</ele>
        <time>2021-11-20T13:09:34Z</time>
      </trkpt>
      <trkpt lat="46.6433" lon="5.35733">
        <ele>221.8</ele>
        <time>2021-11-20T13:09:38Z</time>
      </trkpt>
      <trkpt lat="46.64343" lon="5.35739">
        <ele>221.6</ele>
        <time>2021-11-20T13:09:40Z</time>
      </trkpt>
      <trkpt lat="46.64349" lon="5.35743">
        <ele>221.4</ele>
        <time>2021-11-20T13:09:41Z</time>
      </trkpt>
      <trkpt lat="46.64375" lon="5.35758">
        <ele>220.6</ele>
        <time>2021-11-20T13:09:45Z</time>
      </trkpt>
      <trkpt lat="46.64388" lon="5.35762">
        <ele>220.4</ele>
        <time>2021-11-20T13:09:47Z</time>
      </trkpt>
      <trkpt lat="46.64394" lon="5.35764">
        <ele>220.4</ele>
        <time>2021-11-20T13:09:48Z</time>
      </trkpt>
      <trkpt lat="46.64403" lon="5.35772">
        <ele>220.2</ele>
        <time>2021-11-20T13:09:50Z</time>
      </trkpt>
      <trkpt lat="46.64405" lon="5.35785">
        <ele>220.2</ele>
        <time>2021-11-20T13:09:52Z</time>
      </trkpt>
      <trkpt lat="46.64399" lon="5.35817">
        <ele>219.6</ele>
        <time>2021-11-20T13:09:56Z</time>
      </trkpt>
      <trkpt lat="46.64395" lon="5.35848">
        <ele>219.4</ele>
        <time>2021-11-20T13:09:59Z</time>
      </trkpt>
      <trkpt lat="46.64394" lon="5.3586">
        <ele>219.4</ele>
        <time>2021-11-20T13:10:00Z</time>
      </trkpt>
      <trkpt lat="46.64383" lon="5.35946">
        <ele>218.6</ele>
        <time>2021-11-20T13:10:07Z</time>
      </trkpt>
      <trkpt lat="46.64381" lon="5.3596">
        <ele>218.6</ele>
        <time>2021-11-20T13:10:08Z</time>
      </trkpt>
      <trkpt lat="46.64376" lon="5.35998">
        <ele>217.4</ele>
        <time>2021-11-20T13:10:11Z</time>
      </trkpt>
      <trkpt lat="46.64369" lon="5.36057">
        <ele>215.8</ele>
        <time>2021-11-20T13:10:15Z</time>
      </trkpt>
      <trkpt lat="46.64364" lon="5.36098">
        <ele>214.4</ele>
        <time>2021-11-20T13:10:18Z</time>
      </trkpt>
      <trkpt lat="46.64358" lon="5.3615">
        <ele>213</ele>
        <time>2021-11-20T13:10:22Z</time>
      </trkpt>
      <trkpt lat="46.64355" lon="5.36174">
        <ele>212.8</ele>
        <time>2021-11-20T13:10:24Z</time>
      </trkpt>
      <trkpt lat="46.64344" lon="5.36255">
        <ele>212.4</ele>
        <time>2021-11-20T13:10:31Z</time>
      </trkpt>
      <trkpt lat="46.64337" lon="5.36306">
        <ele>212.4</ele>
        <time>2021-11-20T13:10:36Z</time>
      </trkpt>
      <trkpt lat="46.64328" lon="5.36379">
        <ele>213</ele>
        <time>2021-11-20T13:10:44Z</time>
      </trkpt>
      <trkpt lat="46.64322" lon="5.36417">
        <ele>214</ele>
        <time>2021-11-20T13:10:49Z</time>
      </trkpt>
      <trkpt lat="46.6432" lon="5.36424">
        <ele>214</ele>
        <time>2021-11-20T13:10:50Z</time>
      </trkpt>
      <trkpt lat="46.64316" lon="5.36452">
        <ele>215.2</ele>
        <time>2021-11-20T13:10:54Z</time>
      </trkpt>
      <trkpt lat="46.64315" lon="5.36459">
        <ele>215.2</ele>
        <time>2021-11-20T13:10:55Z</time>
      </trkpt>
      <trkpt lat="46.6431" lon="5.36492">
        <ele>216.8</ele>
        <time>2021-11-20T13:11:00Z</time>
      </trkpt>
      <trkpt lat="46.64309" lon="5.36499">
        <ele>216.8</ele>
        <time>2021-11-20T13:11:01Z</time>
      </trkpt>
      <trkpt lat="46.64305" lon="5.36527">
        <ele>217.6</ele>
        <time>2021-11-20T13:11:05Z</time>
      </trkpt>
      <trkpt lat="46.64303" lon="5.36556">
        <ele>218.4</ele>
        <time>2021-11-20T13:11:09Z</time>
      </trkpt>
      <trkpt lat="46.64303" lon="5.36564">
        <ele>218.8</ele>
        <time>2021-11-20T13:11:10Z</time>
      </trkpt>
      <trkpt lat="46.64304" lon="5.36603">
        <ele>220</ele>
        <time>2021-11-20T13:11:15Z</time>
      </trkpt>
      <trkpt lat="46.64305" lon="5.36619">
        <ele>220</ele>
        <time>2021-11-20T13:11:17Z</time>
      </trkpt>
      <trkpt lat="46.64307" lon="5.36676">
        <ele>220.2</ele>
        <time>2021-11-20T13:11:23Z</time>
      </trkpt>
      <trkpt lat="46.64308" lon="5.36733">
        <ele>219.4</ele>
        <time>2021-11-20T13:11:28Z</time>
      </trkpt>
      <trkpt lat="46.64309" lon="5.36767">
        <ele>218.8</ele>
        <time>2021-11-20T13:11:31Z</time>
      </trkpt>
      <trkpt lat="46.6431" lon="5.36832">
        <ele>218.2</ele>
        <time>2021-11-20T13:11:37Z</time>
      </trkpt>
      <trkpt lat="46.6431" lon="5.36899">
        <ele>218</ele>
        <time>2021-11-20T13:11:44Z</time>
      </trkpt>
      <trkpt lat="46.64311" lon="5.36952">
        <ele>219.6</ele>
        <time>2021-11-20T13:11:51Z</time>
      </trkpt>
      <trkpt lat="46.64311" lon="5.36966">
        <ele>220</ele>
        <time>2021-11-20T13:11:53Z</time>
      </trkpt>
      <trkpt lat="46.64311" lon="5.37">
        <ele>221.2</ele>
        <time>2021-11-20T13:11:58Z</time>
      </trkpt>
      <trkpt lat="46.64311" lon="5.37006">
        <ele>221.6</ele>
        <time>2021-11-20T13:11:59Z</time>
      </trkpt>
      <trkpt lat="46.64311" lon="5.37033">
        <ele>222.4</ele>
        <time>2021-11-20T13:12:03Z</time>
      </trkpt>
      <trkpt lat="46.64311" lon="5.37055">
        <ele>223.4</ele>
        <time>2021-11-20T13:12:06Z</time>
      </trkpt>
      <trkpt lat="46.64312" lon="5.37077">
        <ele>224</ele>
        <time>2021-11-20T13:12:09Z</time>
      </trkpt>
      <trkpt lat="46.64313" lon="5.37103">
        <ele>224.6</ele>
        <time>2021-11-20T13:12:12Z</time>
      </trkpt>
      <trkpt lat="46.64313" lon="5.3714">
        <ele>224.8</ele>
        <time>2021-11-20T13:12:16Z</time>
      </trkpt>
      <trkpt lat="46.64315" lon="5.3721">
        <ele>223.8</ele>
        <time>2021-11-20T13:12:23Z</time>
      </trkpt>
      <trkpt lat="46.64315" lon="5.37263">
        <ele>223.4</ele>
        <time>2021-11-20T13:12:28Z</time>
      </trkpt>
      <trkpt lat="46.64316" lon="5.37296">
        <ele>222.8</ele>
        <time>2021-11-20T13:12:31Z</time>
      </trkpt>
      <trkpt lat="46.64316" lon="5.37319">
        <ele>222.2</ele>
        <time>2021-11-20T13:12:33Z</time>
      </trkpt>
      <trkpt lat="46.64317" lon="5.37377">
        <ele>221</ele>
        <time>2021-11-20T13:12:38Z</time>
      </trkpt>
      <trkpt lat="46.64318" lon="5.37413">
        <ele>220.4</ele>
        <time>2021-11-20T13:12:41Z</time>
      </trkpt>
      <trkpt lat="46.64318" lon="5.37437">
        <ele>220.2</ele>
        <time>2021-11-20T13:12:43Z</time>
      </trkpt>
      <trkpt lat="46.64319" lon="5.37517">
        <ele>219.2</ele>
        <time>2021-11-20T13:12:50Z</time>
      </trkpt>
      <trkpt lat="46.64319" lon="5.37528">
        <ele>219</ele>
        <time>2021-11-20T13:12:51Z</time>
      </trkpt>
      <trkpt lat="46.6432" lon="5.376">
        <ele>219</ele>
        <time>2021-11-20T13:12:58Z</time>
      </trkpt>
      <trkpt lat="46.6432" lon="5.37663">
        <ele>219.4</ele>
        <time>2021-11-20T13:13:05Z</time>
      </trkpt>
      <trkpt lat="46.64321" lon="5.37714">
        <ele>220</ele>
        <time>2021-11-20T13:13:11Z</time>
      </trkpt>
      <trkpt lat="46.64321" lon="5.3773">
        <ele>220.2</ele>
        <time>2021-11-20T13:13:13Z</time>
      </trkpt>
      <trkpt lat="46.64322" lon="5.37762">
        <ele>220.8</ele>
        <time>2021-11-20T13:13:17Z</time>
      </trkpt>
      <trkpt lat="46.64322" lon="5.37769">
        <ele>221</ele>
        <time>2021-11-20T13:13:18Z</time>
      </trkpt>
      <trkpt lat="46.64322" lon="5.37783">
        <ele>221.6</ele>
        <time>2021-11-20T13:13:20Z</time>
      </trkpt>
      <trkpt lat="46.64323" lon="5.37822">
        <ele>223</ele>
        <time>2021-11-20T13:13:25Z</time>
      </trkpt>
      <trkpt lat="46.64323" lon="5.37831">
        <ele>223.2</ele>
        <time>2021-11-20T13:13:26Z</time>
      </trkpt>
      <trkpt lat="46.64325" lon="5.37884">
        <ele>224.2</ele>
        <time>2021-11-20T13:13:32Z</time>
      </trkpt>
      <trkpt lat="46.64325" lon="5.37903">
        <ele>224.2</ele>
        <time>2021-11-20T13:13:34Z</time>
      </trkpt>
      <trkpt lat="46.64327" lon="5.37986">
        <ele>224.2</ele>
        <time>2021-11-20T13:13:43Z</time>
      </trkpt>
      <trkpt lat="46.64328" lon="5.38067">
        <ele>224.4</ele>
        <time>2021-11-20T13:13:52Z</time>
      </trkpt>
      <trkpt lat="46.64329" lon="5.38085">
        <ele>224.4</ele>
        <time>2021-11-20T13:13:54Z</time>
      </trkpt>
      <trkpt lat="46.6433" lon="5.38159">
        <ele>225.2</ele>
        <time>2021-11-20T13:14:03Z</time>
      </trkpt>
      <trkpt lat="46.6433" lon="5.38166">
        <ele>225.4</ele>
        <time>2021-11-20T13:14:04Z</time>
      </trkpt>
      <trkpt lat="46.64331" lon="5.38204">
        <ele>226.2</ele>
        <time>2021-11-20T13:14:09Z</time>
      </trkpt>
      <trkpt lat="46.64331" lon="5.38225">
        <ele>226.4</ele>
        <time>2021-11-20T13:14:12Z</time>
      </trkpt>
      <trkpt lat="46.64331" lon="5.38253">
        <ele>227.6</ele>
        <time>2021-11-20T13:14:16Z</time>
      </trkpt>
      <trkpt lat="46.64332" lon="5.38286">
        <ele>228.8</ele>
        <time>2021-11-20T13:14:21Z</time>
      </trkpt>
      <trkpt lat="46.64332" lon="5.38321">
        <ele>230</ele>
        <time>2021-11-20T13:14:26Z</time>
      </trkpt>
      <trkpt lat="46.64331" lon="5.38357">
        <ele>230.8</ele>
        <time>2021-11-20T13:14:31Z</time>
      </trkpt>
      <trkpt lat="46.6433" lon="5.38372">
        <ele>231</ele>
        <time>2021-11-20T13:14:33Z</time>
      </trkpt>
      <trkpt lat="46.64327" lon="5.38416">
        <ele>231.4</ele>
        <time>2021-11-20T13:14:38Z</time>
      </trkpt>
      <trkpt lat="46.64329" lon="5.38471">
        <ele>230.8</ele>
        <time>2021-11-20T13:14:43Z</time>
      </trkpt>
      <trkpt lat="46.64331" lon="5.38535">
        <ele>229.6</ele>
        <time>2021-11-20T13:14:48Z</time>
      </trkpt>
      <trkpt lat="46.64332" lon="5.38562">
        <ele>228.6</ele>
        <time>2021-11-20T13:14:50Z</time>
      </trkpt>
      <trkpt lat="46.64332" lon="5.38575">
        <ele>228</ele>
        <time>2021-11-20T13:14:51Z</time>
      </trkpt>
      <trkpt lat="46.64333" lon="5.38603">
        <ele>226.8</ele>
        <time>2021-11-20T13:14:53Z</time>
      </trkpt>
      <trkpt lat="46.64336" lon="5.38644">
        <ele>225.8</ele>
        <time>2021-11-20T13:14:56Z</time>
      </trkpt>
      <trkpt lat="46.64338" lon="5.38657">
        <ele>225</ele>
        <time>2021-11-20T13:14:57Z</time>
      </trkpt>
      <trkpt lat="46.64341" lon="5.38669">
        <ele>224.6</ele>
        <time>2021-11-20T13:14:58Z</time>
      </trkpt>
      <trkpt lat="46.6435" lon="5.38707">
        <ele>223.6</ele>
        <time>2021-11-20T13:15:01Z</time>
      </trkpt>
      <trkpt lat="46.64355" lon="5.38733">
        <ele>222.8</ele>
        <time>2021-11-20T13:15:03Z</time>
      </trkpt>
      <trkpt lat="46.64357" lon="5.38745">
        <ele>222.2</ele>
        <time>2021-11-20T13:15:04Z</time>
      </trkpt>
      <trkpt lat="46.64355" lon="5.38771">
        <ele>221.2</ele>
        <time>2021-11-20T13:15:06Z</time>
      </trkpt>
      <trkpt lat="46.64352" lon="5.38784">
        <ele>221</ele>
        <time>2021-11-20T13:15:07Z</time>
      </trkpt>
      <trkpt lat="46.64347" lon="5.38796">
        <ele>220.6</ele>
        <time>2021-11-20T13:15:08Z</time>
      </trkpt>
      <trkpt lat="46.64341" lon="5.38806">
        <ele>220.4</ele>
        <time>2021-11-20T13:15:09Z</time>
      </trkpt>
      <trkpt lat="46.64335" lon="5.38816">
        <ele>219.8</ele>
        <time>2021-11-20T13:15:10Z</time>
      </trkpt>
      <trkpt lat="46.64319" lon="5.38846">
        <ele>218.8</ele>
        <time>2021-11-20T13:15:13Z</time>
      </trkpt>
      <trkpt lat="46.6431" lon="5.38868">
        <ele>218.6</ele>
        <time>2021-11-20T13:15:15Z</time>
      </trkpt>
      <trkpt lat="46.64281" lon="5.38936">
        <ele>218</ele>
        <time>2021-11-20T13:15:22Z</time>
      </trkpt>
      <trkpt lat="46.64264" lon="5.3899">
        <ele>218</ele>
        <time>2021-11-20T13:15:27Z</time>
      </trkpt>
      <trkpt lat="46.64253" lon="5.39048">
        <ele>218.6</ele>
        <time>2021-11-20T13:15:33Z</time>
      </trkpt>
      <trkpt lat="46.64243" lon="5.39099">
        <ele>219.4</ele>
        <time>2021-11-20T13:15:39Z</time>
      </trkpt>
      <trkpt lat="46.64237" lon="5.39121">
        <ele>220.2</ele>
        <time>2021-11-20T13:15:42Z</time>
      </trkpt>
      <trkpt lat="46.64228" lon="5.3916">
        <ele>221.2</ele>
        <time>2021-11-20T13:15:47Z</time>
      </trkpt>
      <trkpt lat="46.64224" lon="5.39175">
        <ele>221.6</ele>
        <time>2021-11-20T13:15:49Z</time>
      </trkpt>
      <trkpt lat="46.64217" lon="5.39205">
        <ele>222.4</ele>
        <time>2021-11-20T13:15:53Z</time>
      </trkpt>
      <trkpt lat="46.64213" lon="5.3922">
        <ele>223</ele>
        <time>2021-11-20T13:15:55Z</time>
      </trkpt>
      <trkpt lat="46.64208" lon="5.39233">
        <ele>223.4</ele>
        <time>2021-11-20T13:15:57Z</time>
      </trkpt>
      <trkpt lat="46.64201" lon="5.39261">
        <ele>224.4</ele>
        <time>2021-11-20T13:16:01Z</time>
      </trkpt>
      <trkpt lat="46.64198" lon="5.39273">
        <ele>225</ele>
        <time>2021-11-20T13:16:03Z</time>
      </trkpt>
      <trkpt lat="46.64192" lon="5.39295">
        <ele>225.6</ele>
        <time>2021-11-20T13:16:06Z</time>
      </trkpt>
      <trkpt lat="46.64184" lon="5.39326">
        <ele>226.4</ele>
        <time>2021-11-20T13:16:10Z</time>
      </trkpt>
      <trkpt lat="46.64182" lon="5.39334">
        <ele>226.8</ele>
        <time>2021-11-20T13:16:11Z</time>
      </trkpt>
      <trkpt lat="46.64169" lon="5.39386">
        <ele>227.2</ele>
        <time>2021-11-20T13:16:17Z</time>
      </trkpt>
      <trkpt lat="46.64155" lon="5.39445">
        <ele>226.8</ele>
        <time>2021-11-20T13:16:23Z</time>
      </trkpt>
      <trkpt lat="46.64137" lon="5.39519">
        <ele>226.2</ele>
        <time>2021-11-20T13:16:30Z</time>
      </trkpt>
      <trkpt lat="46.64124" lon="5.39572">
        <ele>225.6</ele>
        <time>2021-11-20T13:16:35Z</time>
      </trkpt>
      <trkpt lat="46.64119" lon="5.39593">
        <ele>225.6</ele>
        <time>2021-11-20T13:16:37Z</time>
      </trkpt>
      <trkpt lat="46.64105" lon="5.39651">
        <ele>225.2</ele>
        <time>2021-11-20T13:16:43Z</time>
      </trkpt>
      <trkpt lat="46.64089" lon="5.39713">
        <ele>225.2</ele>
        <time>2021-11-20T13:16:50Z</time>
      </trkpt>
      <trkpt lat="46.64077" lon="5.39756">
        <ele>225.2</ele>
        <time>2021-11-20T13:16:55Z</time>
      </trkpt>
      <trkpt lat="46.64062" lon="5.39821">
        <ele>225.8</ele>
        <time>2021-11-20T13:17:03Z</time>
      </trkpt>
      <trkpt lat="46.64057" lon="5.39845">
        <ele>226</ele>
        <time>2021-11-20T13:17:06Z</time>
      </trkpt>
      <trkpt lat="46.64049" lon="5.39871">
        <ele>226</ele>
        <time>2021-11-20T13:17:09Z</time>
      </trkpt>
      <trkpt lat="46.64044" lon="5.39888">
        <ele>226</ele>
        <time>2021-11-20T13:17:11Z</time>
      </trkpt>
      <trkpt lat="46.64032" lon="5.39932">
        <ele>226.8</ele>
        <time>2021-11-20T13:17:17Z</time>
      </trkpt>
      <trkpt lat="46.6403" lon="5.39938">
        <ele>227</ele>
        <time>2021-11-20T13:17:18Z</time>
      </trkpt>
      <trkpt lat="46.64021" lon="5.39969">
        <ele>228.2</ele>
        <time>2021-11-20T13:17:23Z</time>
      </trkpt>
      <trkpt lat="46.64017" lon="5.39988">
        <ele>229</ele>
        <time>2021-11-20T13:17:26Z</time>
      </trkpt>
      <trkpt lat="46.64013" lon="5.4">
        <ele>229.2</ele>
        <time>2021-11-20T13:17:28Z</time>
      </trkpt>
      <trkpt lat="46.64011" lon="5.40006">
        <ele>229.4</ele>
        <time>2021-11-20T13:17:29Z</time>
      </trkpt>
      <trkpt lat="46.64006" lon="5.40027">
        <ele>230.2</ele>
        <time>2021-11-20T13:17:32Z</time>
      </trkpt>
      <trkpt lat="46.64004" lon="5.40035">
        <ele>230.6</ele>
        <time>2021-11-20T13:17:33Z</time>
      </trkpt>
      <trkpt lat="46.64002" lon="5.40043">
        <ele>230.6</ele>
        <time>2021-11-20T13:17:34Z</time>
      </trkpt>
      <trkpt lat="46.64" lon="5.40052">
        <ele>231</ele>
        <time>2021-11-20T13:17:35Z</time>
      </trkpt>
      <trkpt lat="46.63986" lon="5.40103">
        <ele>231.8</ele>
        <time>2021-11-20T13:17:41Z</time>
      </trkpt>
      <trkpt lat="46.63982" lon="5.40122">
        <ele>231.8</ele>
        <time>2021-11-20T13:17:43Z</time>
      </trkpt>
      <trkpt lat="46.63972" lon="5.40169">
        <ele>231.8</ele>
        <time>2021-11-20T13:17:48Z</time>
      </trkpt>
      <trkpt lat="46.63955" lon="5.40235">
        <ele>230.8</ele>
        <time>2021-11-20T13:17:54Z</time>
      </trkpt>
      <trkpt lat="46.63952" lon="5.40246">
        <ele>230.4</ele>
        <time>2021-11-20T13:17:55Z</time>
      </trkpt>
      <trkpt lat="46.6394" lon="5.40293">
        <ele>229.2</ele>
        <time>2021-11-20T13:17:59Z</time>
      </trkpt>
      <trkpt lat="46.63932" lon="5.40328">
        <ele>228.2</ele>
        <time>2021-11-20T13:18:02Z</time>
      </trkpt>
      <trkpt lat="46.63929" lon="5.40339">
        <ele>228.2</ele>
        <time>2021-11-20T13:18:03Z</time>
      </trkpt>
      <trkpt lat="46.63921" lon="5.40373">
        <ele>227</ele>
        <time>2021-11-20T13:18:06Z</time>
      </trkpt>
      <trkpt lat="46.63914" lon="5.40407">
        <ele>226.2</ele>
        <time>2021-11-20T13:18:09Z</time>
      </trkpt>
      <trkpt lat="46.63909" lon="5.40427">
        <ele>226</ele>
        <time>2021-11-20T13:18:11Z</time>
      </trkpt>
      <trkpt lat="46.63902" lon="5.40457">
        <ele>225.8</ele>
        <time>2021-11-20T13:18:14Z</time>
      </trkpt>
      <trkpt lat="46.63886" lon="5.40513">
        <ele>225.6</ele>
        <time>2021-11-20T13:18:20Z</time>
      </trkpt>
      <trkpt lat="46.63859" lon="5.40588">
        <ele>226</ele>
        <time>2021-11-20T13:18:28Z</time>
      </trkpt>
      <trkpt lat="46.63852" lon="5.40606">
        <ele>226</ele>
        <time>2021-11-20T13:18:30Z</time>
      </trkpt>
      <trkpt lat="46.63826" lon="5.40683">
        <ele>226.8</ele>
        <time>2021-11-20T13:18:39Z</time>
      </trkpt>
      <trkpt lat="46.63818" lon="5.40715">
        <ele>227.2</ele>
        <time>2021-11-20T13:18:43Z</time>
      </trkpt>
      <trkpt lat="46.63812" lon="5.40738">
        <ele>227.4</ele>
        <time>2021-11-20T13:18:46Z</time>
      </trkpt>
      <trkpt lat="46.63802" lon="5.40773">
        <ele>228.2</ele>
        <time>2021-11-20T13:18:51Z</time>
      </trkpt>
      <trkpt lat="46.63796" lon="5.40794">
        <ele>229</ele>
        <time>2021-11-20T13:18:54Z</time>
      </trkpt>
      <trkpt lat="46.63792" lon="5.40808">
        <ele>229.4</ele>
        <time>2021-11-20T13:18:56Z</time>
      </trkpt>
      <trkpt lat="46.63778" lon="5.40853">
        <ele>230.4</ele>
        <time>2021-11-20T13:19:02Z</time>
      </trkpt>
      <trkpt lat="46.63776" lon="5.40862">
        <ele>230.4</ele>
        <time>2021-11-20T13:19:03Z</time>
      </trkpt>
      <trkpt lat="46.63764" lon="5.40897">
        <ele>230.6</ele>
        <time>2021-11-20T13:19:07Z</time>
      </trkpt>
      <trkpt lat="46.63743" lon="5.40966">
        <ele>229.6</ele>
        <time>2021-11-20T13:19:14Z</time>
      </trkpt>
      <trkpt lat="46.6374" lon="5.40977">
        <ele>229.4</ele>
        <time>2021-11-20T13:19:15Z</time>
      </trkpt>
      <trkpt lat="46.63727" lon="5.41017">
        <ele>228.2</ele>
        <time>2021-11-20T13:19:19Z</time>
      </trkpt>
      <trkpt lat="46.63718" lon="5.41045">
        <ele>228</ele>
        <time>2021-11-20T13:19:22Z</time>
      </trkpt>
      <trkpt lat="46.63701" lon="5.41098">
        <ele>228.2</ele>
        <time>2021-11-20T13:19:28Z</time>
      </trkpt>
      <trkpt lat="46.63677" lon="5.41174">
        <ele>228.2</ele>
        <time>2021-11-20T13:19:36Z</time>
      </trkpt>
      <trkpt lat="46.63654" lon="5.41247">
        <ele>227.6</ele>
        <time>2021-11-20T13:19:43Z</time>
      </trkpt>
      <trkpt lat="46.63648" lon="5.41268">
        <ele>227.2</ele>
        <time>2021-11-20T13:19:45Z</time>
      </trkpt>
      <trkpt lat="46.63625" lon="5.41339">
        <ele>226.2</ele>
        <time>2021-11-20T13:19:52Z</time>
      </trkpt>
      <trkpt lat="46.63602" lon="5.41414">
        <ele>225.8</ele>
        <time>2021-11-20T13:20:00Z</time>
      </trkpt>
      <trkpt lat="46.63599" lon="5.41422">
        <ele>226</ele>
        <time>2021-11-20T13:20:01Z</time>
      </trkpt>
      <trkpt lat="46.63584" lon="5.41471">
        <ele>226.4</ele>
        <time>2021-11-20T13:20:07Z</time>
      </trkpt>
      <trkpt lat="46.63572" lon="5.41509">
        <ele>227.4</ele>
        <time>2021-11-20T13:20:12Z</time>
      </trkpt>
      <trkpt lat="46.63563" lon="5.41539">
        <ele>227.8</ele>
        <time>2021-11-20T13:20:16Z</time>
      </trkpt>
      <trkpt lat="46.63552" lon="5.41573">
        <ele>228.6</ele>
        <time>2021-11-20T13:20:21Z</time>
      </trkpt>
      <trkpt lat="46.63548" lon="5.41587">
        <ele>229</ele>
        <time>2021-11-20T13:20:23Z</time>
      </trkpt>
      <trkpt lat="46.63538" lon="5.4162">
        <ele>229.8</ele>
        <time>2021-11-20T13:20:28Z</time>
      </trkpt>
      <trkpt lat="46.6353" lon="5.41646">
        <ele>230.6</ele>
        <time>2021-11-20T13:20:32Z</time>
      </trkpt>
      <trkpt lat="46.63528" lon="5.41652">
        <ele>230.8</ele>
        <time>2021-11-20T13:20:33Z</time>
      </trkpt>
      <trkpt lat="46.63517" lon="5.41691">
        <ele>232</ele>
        <time>2021-11-20T13:20:39Z</time>
      </trkpt>
      <trkpt lat="46.63503" lon="5.41735">
        <ele>233.6</ele>
        <time>2021-11-20T13:20:46Z</time>
      </trkpt>
      <trkpt lat="46.63498" lon="5.41746">
        <ele>234.2</ele>
        <time>2021-11-20T13:20:48Z</time>
      </trkpt>
      <trkpt lat="46.63494" lon="5.41759">
        <ele>234.8</ele>
        <time>2021-11-20T13:20:50Z</time>
      </trkpt>
      <trkpt lat="46.63483" lon="5.41792">
        <ele>235.8</ele>
        <time>2021-11-20T13:20:55Z</time>
      </trkpt>
      <trkpt lat="46.63461" lon="5.41862">
        <ele>236.6</ele>
        <time>2021-11-20T13:21:05Z</time>
      </trkpt>
      <trkpt lat="46.63442" lon="5.41922">
        <ele>236.8</ele>
        <time>2021-11-20T13:21:14Z</time>
      </trkpt>
      <trkpt lat="46.63437" lon="5.41942">
        <ele>236.6</ele>
        <time>2021-11-20T13:21:17Z</time>
      </trkpt>
      <trkpt lat="46.63429" lon="5.41951">
        <ele>236.6</ele>
        <time>2021-11-20T13:21:19Z</time>
      </trkpt>
      <trkpt lat="46.63418" lon="5.4195">
        <ele>236.4</ele>
        <time>2021-11-20T13:21:21Z</time>
      </trkpt>
      <trkpt lat="46.63412" lon="5.41946">
        <ele>236.4</ele>
        <time>2021-11-20T13:21:22Z</time>
      </trkpt>
      <trkpt lat="46.63384" lon="5.41923">
        <ele>235.6</ele>
        <time>2021-11-20T13:21:27Z</time>
      </trkpt>
      <trkpt lat="46.63351" lon="5.41889">
        <ele>235.4</ele>
        <time>2021-11-20T13:21:33Z</time>
      </trkpt>
      <trkpt lat="46.63322" lon="5.41848">
        <ele>235.2</ele>
        <time>2021-11-20T13:21:39Z</time>
      </trkpt>
      <trkpt lat="46.63318" lon="5.41842">
        <ele>235.2</ele>
        <time>2021-11-20T13:21:40Z</time>
      </trkpt>
      <trkpt lat="46.63292" lon="5.41803">
        <ele>235.2</ele>
        <time>2021-11-20T13:21:46Z</time>
      </trkpt>
      <trkpt lat="46.63258" lon="5.41757">
        <ele>236</ele>
        <time>2021-11-20T13:21:54Z</time>
      </trkpt>
      <trkpt lat="46.63217" lon="5.41698">
        <ele>236.6</ele>
        <time>2021-11-20T13:22:03Z</time>
      </trkpt>
      <trkpt lat="46.63194" lon="5.41647">
        <ele>236</ele>
        <time>2021-11-20T13:22:09Z</time>
      </trkpt>
      <trkpt lat="46.63165" lon="5.41581">
        <ele>235.6</ele>
        <time>2021-11-20T13:22:17Z</time>
      </trkpt>
      <trkpt lat="46.63139" lon="5.41529">
        <ele>235.8</ele>
        <time>2021-11-20T13:22:24Z</time>
      </trkpt>
      <trkpt lat="46.63114" lon="5.41474">
        <ele>235.8</ele>
        <time>2021-11-20T13:22:31Z</time>
      </trkpt>
      <trkpt lat="46.63084" lon="5.41431">
        <ele>235.8</ele>
        <time>2021-11-20T13:22:38Z</time>
      </trkpt>
      <trkpt lat="46.63062" lon="5.41402">
        <ele>236.2</ele>
        <time>2021-11-20T13:22:43Z</time>
      </trkpt>
      <trkpt lat="46.63058" lon="5.41398">
        <ele>236.4</ele>
        <time>2021-11-20T13:22:44Z</time>
      </trkpt>
      <trkpt lat="46.63043" lon="5.41381">
        <ele>236.4</ele>
        <time>2021-11-20T13:22:47Z</time>
      </trkpt>
      <trkpt lat="46.63028" lon="5.4137">
        <ele>236.2</ele>
        <time>2021-11-20T13:22:50Z</time>
      </trkpt>
      <trkpt lat="46.62985" lon="5.41346">
        <ele>234.8</ele>
        <time>2021-11-20T13:22:57Z</time>
      </trkpt>
      <trkpt lat="46.62955" lon="5.41333">
        <ele>233.2</ele>
        <time>2021-11-20T13:23:01Z</time>
      </trkpt>
      <trkpt lat="46.62931" lon="5.41323">
        <ele>232.4</ele>
        <time>2021-11-20T13:23:04Z</time>
      </trkpt>
      <trkpt lat="46.62923" lon="5.4132">
        <ele>231.8</ele>
        <time>2021-11-20T13:23:05Z</time>
      </trkpt>
      <trkpt lat="46.62897" lon="5.41309">
        <ele>230.6</ele>
        <time>2021-11-20T13:23:08Z</time>
      </trkpt>
      <trkpt lat="46.62871" lon="5.41297">
        <ele>229.2</ele>
        <time>2021-11-20T13:23:11Z</time>
      </trkpt>
      <trkpt lat="46.62862" lon="5.41293">
        <ele>229</ele>
        <time>2021-11-20T13:23:12Z</time>
      </trkpt>
      <trkpt lat="46.62844" lon="5.41285">
        <ele>228.2</ele>
        <time>2021-11-20T13:23:14Z</time>
      </trkpt>
      <trkpt lat="46.62817" lon="5.41274">
        <ele>227.2</ele>
        <time>2021-11-20T13:23:17Z</time>
      </trkpt>
      <trkpt lat="46.62799" lon="5.41266">
        <ele>226.2</ele>
        <time>2021-11-20T13:23:19Z</time>
      </trkpt>
      <trkpt lat="46.62782" lon="5.41258">
        <ele>225.4</ele>
        <time>2021-11-20T13:23:21Z</time>
      </trkpt>
      <trkpt lat="46.62773" lon="5.41254">
        <ele>224.8</ele>
        <time>2021-11-20T13:23:22Z</time>
      </trkpt>
      <trkpt lat="46.62739" lon="5.4124">
        <ele>223.6</ele>
        <time>2021-11-20T13:23:26Z</time>
      </trkpt>
      <trkpt lat="46.62706" lon="5.41225">
        <ele>222.6</ele>
        <time>2021-11-20T13:23:30Z</time>
      </trkpt>
      <trkpt lat="46.62666" lon="5.41208">
        <ele>221.6</ele>
        <time>2021-11-20T13:23:35Z</time>
      </trkpt>
      <trkpt lat="46.62635" lon="5.41194">
        <ele>220.8</ele>
        <time>2021-11-20T13:23:39Z</time>
      </trkpt>
      <trkpt lat="46.62627" lon="5.4119">
        <ele>220.4</ele>
        <time>2021-11-20T13:23:40Z</time>
      </trkpt>
      <trkpt lat="46.62578" lon="5.4117">
        <ele>219.2</ele>
        <time>2021-11-20T13:23:46Z</time>
      </trkpt>
      <trkpt lat="46.62562" lon="5.41164">
        <ele>218.8</ele>
        <time>2021-11-20T13:23:48Z</time>
      </trkpt>
      <trkpt lat="46.62546" lon="5.41157">
        <ele>218.2</ele>
        <time>2021-11-20T13:23:50Z</time>
      </trkpt>
      <trkpt lat="46.62506" lon="5.41138">
        <ele>217</ele>
        <time>2021-11-20T13:23:55Z</time>
      </trkpt>
      <trkpt lat="46.62493" lon="5.4113">
        <ele>216.6</ele>
        <time>2021-11-20T13:23:57Z</time>
      </trkpt>
      <trkpt lat="46.62479" lon="5.41117">
        <ele>216.4</ele>
        <time>2021-11-20T13:23:59Z</time>
      </trkpt>
      <trkpt lat="46.62466" lon="5.411">
        <ele>216</ele>
        <time>2021-11-20T13:24:01Z</time>
      </trkpt>
      <trkpt lat="46.62461" lon="5.41091">
        <ele>215.8</ele>
        <time>2021-11-20T13:24:02Z</time>
      </trkpt>
      <trkpt lat="46.62444" lon="5.41053">
        <ele>215.2</ele>
        <time>2021-11-20T13:24:06Z</time>
      </trkpt>
      <trkpt lat="46.62426" lon="5.41006">
        <ele>214.8</ele>
        <time>2021-11-20T13:24:11Z</time>
      </trkpt>
      <trkpt lat="46.62408" lon="5.40959">
        <ele>214.4</ele>
        <time>2021-11-20T13:24:16Z</time>
      </trkpt>
      <trkpt lat="46.62399" lon="5.40941">
        <ele>214.2</ele>
        <time>2021-11-20T13:24:18Z</time>
      </trkpt>
      <trkpt lat="46.62387" lon="5.40924">
        <ele>214</ele>
        <time>2021-11-20T13:24:20Z</time>
      </trkpt>
      <trkpt lat="46.62362" lon="5.40899">
        <ele>213.8</ele>
        <time>2021-11-20T13:24:24Z</time>
      </trkpt>
      <trkpt lat="46.62349" lon="5.40888">
        <ele>214</ele>
        <time>2021-11-20T13:24:26Z</time>
      </trkpt>
      <trkpt lat="46.62325" lon="5.40861">
        <ele>213.6</ele>
        <time>2021-11-20T13:24:30Z</time>
      </trkpt>
      <trkpt lat="46.62321" lon="5.40852">
        <ele>213.6</ele>
        <time>2021-11-20T13:24:31Z</time>
      </trkpt>
      <trkpt lat="46.62287" lon="5.408">
        <ele>213.8</ele>
        <time>2021-11-20T13:24:38Z</time>
      </trkpt>
      <trkpt lat="46.6224" lon="5.40753">
        <ele>213.6</ele>
        <time>2021-11-20T13:24:46Z</time>
      </trkpt>
      <trkpt lat="46.62193" lon="5.40707">
        <ele>213.2</ele>
        <time>2021-11-20T13:24:54Z</time>
      </trkpt>
      <trkpt lat="46.62188" lon="5.40702">
        <ele>213.2</ele>
        <time>2021-11-20T13:24:55Z</time>
      </trkpt>
      <trkpt lat="46.62163" lon="5.40668">
        <ele>213.2</ele>
        <time>2021-11-20T13:25:00Z</time>
      </trkpt>
      <trkpt lat="46.6216" lon="5.40659">
        <ele>213.2</ele>
        <time>2021-11-20T13:25:01Z</time>
      </trkpt>
      <trkpt lat="46.62157" lon="5.4065">
        <ele>213.2</ele>
        <time>2021-11-20T13:25:02Z</time>
      </trkpt>
      <trkpt lat="46.62145" lon="5.40602">
        <ele>213</ele>
        <time>2021-11-20T13:25:07Z</time>
      </trkpt>
      <trkpt lat="46.62124" lon="5.4054">
        <ele>213</ele>
        <time>2021-11-20T13:25:14Z</time>
      </trkpt>
      <trkpt lat="46.62087" lon="5.4047">
        <ele>213</ele>
        <time>2021-11-20T13:25:23Z</time>
      </trkpt>
      <trkpt lat="46.6208" lon="5.40454">
        <ele>213</ele>
        <time>2021-11-20T13:25:25Z</time>
      </trkpt>
      <trkpt lat="46.62062" lon="5.40405">
        <ele>212</ele>
        <time>2021-11-20T13:25:31Z</time>
      </trkpt>
      <trkpt lat="46.62059" lon="5.40396">
        <ele>211.8</ele>
        <time>2021-11-20T13:25:32Z</time>
      </trkpt>
      <trkpt lat="46.6204" lon="5.40321">
        <ele>212.8</ele>
        <time>2021-11-20T13:25:41Z</time>
      </trkpt>
      <trkpt lat="46.62039" lon="5.40317">
        <ele>212.6</ele>
        <time>2021-11-20T13:25:43Z</time>
      </trkpt>
      <trkpt lat="46.62039" lon="5.40317">
        <ele>212.6</ele>
        <time>2021-11-20T13:25:44Z</time>
      </trkpt>
      <trkpt lat="46.62035" lon="5.40308">
        <ele>212.2</ele>
        <time>2021-11-20T13:26:42Z</time>
      </trkpt>
      <trkpt lat="46.62031" lon="5.40297">
        <ele>212</ele>
        <time>2021-11-20T13:26:44Z</time>
      </trkpt>
      <trkpt lat="46.62028" lon="5.40291">
        <ele>212</ele>
        <time>2021-11-20T13:26:45Z</time>
      </trkpt>
      <trkpt lat="46.62015" lon="5.40265">
        <ele>212</ele>
        <time>2021-11-20T13:26:49Z</time>
      </trkpt>
      <trkpt lat="46.61996" lon="5.40226">
        <ele>212</ele>
        <time>2021-11-20T13:26:54Z</time>
      </trkpt>
      <trkpt lat="46.6196" lon="5.40157">
        <ele>212.4</ele>
        <time>2021-11-20T13:27:03Z</time>
      </trkpt>
      <trkpt lat="46.61927" lon="5.40093">
        <ele>212.6</ele>
        <time>2021-11-20T13:27:11Z</time>
      </trkpt>
      <trkpt lat="46.61919" lon="5.40078">
        <ele>212.6</ele>
        <time>2021-11-20T13:27:13Z</time>
      </trkpt>
      <trkpt lat="46.61888" lon="5.40015">
        <ele>212.6</ele>
        <time>2021-11-20T13:27:21Z</time>
      </trkpt>
      <trkpt lat="46.61862" lon="5.39945">
        <ele>212.6</ele>
        <time>2021-11-20T13:27:29Z</time>
      </trkpt>
      <trkpt lat="46.61858" lon="5.39936">
        <ele>212.4</ele>
        <time>2021-11-20T13:27:30Z</time>
      </trkpt>
      <trkpt lat="46.61832" lon="5.39861">
        <ele>212</ele>
        <time>2021-11-20T13:27:38Z</time>
      </trkpt>
      <trkpt lat="46.61829" lon="5.39851">
        <ele>212</ele>
        <time>2021-11-20T13:27:39Z</time>
      </trkpt>
      <trkpt lat="46.61802" lon="5.39777">
        <ele>212</ele>
        <time>2021-11-20T13:27:47Z</time>
      </trkpt>
      <trkpt lat="46.6178" lon="5.39701">
        <ele>211.8</ele>
        <time>2021-11-20T13:27:55Z</time>
      </trkpt>
      <trkpt lat="46.61768" lon="5.39622">
        <ele>212</ele>
        <time>2021-11-20T13:28:03Z</time>
      </trkpt>
      <trkpt lat="46.61767" lon="5.39613">
        <ele>212</ele>
        <time>2021-11-20T13:28:04Z</time>
      </trkpt>
      <trkpt lat="46.61757" lon="5.39542">
        <ele>212.6</ele>
        <time>2021-11-20T13:28:12Z</time>
      </trkpt>
      <trkpt lat="46.61752" lon="5.39527">
        <ele>212.8</ele>
        <time>2021-11-20T13:28:14Z</time>
      </trkpt>
      <trkpt lat="46.61747" lon="5.39521">
        <ele>213</ele>
        <time>2021-11-20T13:28:15Z</time>
      </trkpt>
      <trkpt lat="46.61743" lon="5.39517">
        <ele>213</ele>
        <time>2021-11-20T13:28:16Z</time>
      </trkpt>
      <trkpt lat="46.61723" lon="5.395">
        <ele>213.2</ele>
        <time>2021-11-20T13:28:20Z</time>
      </trkpt>
      <trkpt lat="46.61714" lon="5.39489">
        <ele>213.4</ele>
        <time>2021-11-20T13:28:22Z</time>
      </trkpt>
      <trkpt lat="46.61701" lon="5.39469">
        <ele>213.6</ele>
        <time>2021-11-20T13:28:25Z</time>
      </trkpt>
      <trkpt lat="46.61664" lon="5.3941">
        <ele>214.4</ele>
        <time>2021-11-20T13:28:33Z</time>
      </trkpt>
      <trkpt lat="46.61629" lon="5.39354">
        <ele>213.2</ele>
        <time>2021-11-20T13:28:40Z</time>
      </trkpt>
      <trkpt lat="46.61605" lon="5.39302">
        <ele>212.8</ele>
        <time>2021-11-20T13:28:46Z</time>
      </trkpt>
      <trkpt lat="46.6158" lon="5.39241">
        <ele>212.4</ele>
        <time>2021-11-20T13:28:53Z</time>
      </trkpt>
      <trkpt lat="46.61563" lon="5.39196">
        <ele>212.4</ele>
        <time>2021-11-20T13:28:58Z</time>
      </trkpt>
      <trkpt lat="46.6156" lon="5.39186">
        <ele>212.2</ele>
        <time>2021-11-20T13:28:59Z</time>
      </trkpt>
      <trkpt lat="46.61555" lon="5.39166">
        <ele>212.2</ele>
        <time>2021-11-20T13:29:01Z</time>
      </trkpt>
      <trkpt lat="46.61552" lon="5.39135">
        <ele>212</ele>
        <time>2021-11-20T13:29:04Z</time>
      </trkpt>
      <trkpt lat="46.61555" lon="5.39094">
        <ele>211.8</ele>
        <time>2021-11-20T13:29:08Z</time>
      </trkpt>
      <trkpt lat="46.61557" lon="5.39085">
        <ele>211.8</ele>
        <time>2021-11-20T13:29:09Z</time>
      </trkpt>
      <trkpt lat="46.61576" lon="5.39033">
        <ele>212.2</ele>
        <time>2021-11-20T13:29:15Z</time>
      </trkpt>
      <trkpt lat="46.61612" lon="5.38968">
        <ele>212.4</ele>
        <time>2021-11-20T13:29:24Z</time>
      </trkpt>
      <trkpt lat="46.61616" lon="5.38961">
        <ele>212.6</ele>
        <time>2021-11-20T13:29:25Z</time>
      </trkpt>
      <trkpt lat="46.61657" lon="5.38904">
        <ele>213</ele>
        <time>2021-11-20T13:29:34Z</time>
      </trkpt>
      <trkpt lat="46.61662" lon="5.38897">
        <ele>213</ele>
        <time>2021-11-20T13:29:35Z</time>
      </trkpt>
      <trkpt lat="46.61703" lon="5.3884">
        <ele>213.2</ele>
        <time>2021-11-20T13:29:44Z</time>
      </trkpt>
      <trkpt lat="46.6173" lon="5.388">
        <ele>213.6</ele>
        <time>2021-11-20T13:29:50Z</time>
      </trkpt>
      <trkpt lat="46.61748" lon="5.38772">
        <ele>213.6</ele>
        <time>2021-11-20T13:29:54Z</time>
      </trkpt>
      <trkpt lat="46.61778" lon="5.38713">
        <ele>213.6</ele>
        <time>2021-11-20T13:30:02Z</time>
      </trkpt>
      <trkpt lat="46.61784" lon="5.38698">
        <ele>213.6</ele>
        <time>2021-11-20T13:30:04Z</time>
      </trkpt>
      <trkpt lat="46.61785" lon="5.38689">
        <ele>213.6</ele>
        <time>2021-11-20T13:30:05Z</time>
      </trkpt>
      <trkpt lat="46.61783" lon="5.3868">
        <ele>213.6</ele>
        <time>2021-11-20T13:30:06Z</time>
      </trkpt>
      <trkpt lat="46.61775" lon="5.38664">
        <ele>213.4</ele>
        <time>2021-11-20T13:30:08Z</time>
      </trkpt>
      <trkpt lat="46.61765" lon="5.38648">
        <ele>213.4</ele>
        <time>2021-11-20T13:30:10Z</time>
      </trkpt>
      <trkpt lat="46.61757" lon="5.38629">
        <ele>213.2</ele>
        <time>2021-11-20T13:30:12Z</time>
      </trkpt>
      <trkpt lat="46.61755" lon="5.3862">
        <ele>213.2</ele>
        <time>2021-11-20T13:30:13Z</time>
      </trkpt>
      <trkpt lat="46.6175" lon="5.38557">
        <ele>213</ele>
        <time>2021-11-20T13:30:19Z</time>
      </trkpt>
      <trkpt lat="46.61757" lon="5.38517">
        <ele>212.8</ele>
        <time>2021-11-20T13:30:23Z</time>
      </trkpt>
      <trkpt lat="46.61773" lon="5.38438">
        <ele>213</ele>
        <time>2021-11-20T13:30:31Z</time>
      </trkpt>
      <trkpt lat="46.61774" lon="5.38427">
        <ele>213</ele>
        <time>2021-11-20T13:30:32Z</time>
      </trkpt>
      <trkpt lat="46.61781" lon="5.38378">
        <ele>213.2</ele>
        <time>2021-11-20T13:30:37Z</time>
      </trkpt>
      <trkpt lat="46.61789" lon="5.38361">
        <ele>213.2</ele>
        <time>2021-11-20T13:30:39Z</time>
      </trkpt>
      <trkpt lat="46.618" lon="5.38349">
        <ele>213</ele>
        <time>2021-11-20T13:30:41Z</time>
      </trkpt>
      <trkpt lat="46.61816" lon="5.38333">
        <ele>213.2</ele>
        <time>2021-11-20T13:30:44Z</time>
      </trkpt>
      <trkpt lat="46.61825" lon="5.38318">
        <ele>213.4</ele>
        <time>2021-11-20T13:30:46Z</time>
      </trkpt>
      <trkpt lat="46.61834" lon="5.38303">
        <ele>213.4</ele>
        <time>2021-11-20T13:30:48Z</time>
      </trkpt>
      <trkpt lat="46.61856" lon="5.38265">
        <ele>213.6</ele>
        <time>2021-11-20T13:30:53Z</time>
      </trkpt>
      <trkpt lat="46.61868" lon="5.38253">
        <ele>213.8</ele>
        <time>2021-11-20T13:30:55Z</time>
      </trkpt>
      <trkpt lat="46.61881" lon="5.38249">
        <ele>214</ele>
        <time>2021-11-20T13:30:57Z</time>
      </trkpt>
      <trkpt lat="46.61888" lon="5.3825">
        <ele>214.2</ele>
        <time>2021-11-20T13:30:58Z</time>
      </trkpt>
      <trkpt lat="46.61895" lon="5.38254">
        <ele>214.4</ele>
        <time>2021-11-20T13:30:59Z</time>
      </trkpt>
      <trkpt lat="46.61912" lon="5.38268">
        <ele>214.8</ele>
        <time>2021-11-20T13:31:02Z</time>
      </trkpt>
      <trkpt lat="46.61939" lon="5.38294">
        <ele>215</ele>
        <time>2021-11-20T13:31:07Z</time>
      </trkpt>
      <trkpt lat="46.61945" lon="5.38297">
        <ele>215</ele>
        <time>2021-11-20T13:31:08Z</time>
      </trkpt>
      <trkpt lat="46.61951" lon="5.38298">
        <ele>215</ele>
        <time>2021-11-20T13:31:09Z</time>
      </trkpt>
      <trkpt lat="46.61962" lon="5.38291">
        <ele>215</ele>
        <time>2021-11-20T13:31:11Z</time>
      </trkpt>
      <trkpt lat="46.61969" lon="5.38276">
        <ele>215</ele>
        <time>2021-11-20T13:31:13Z</time>
      </trkpt>
      <trkpt lat="46.61971" lon="5.38268">
        <ele>215.2</ele>
        <time>2021-11-20T13:31:14Z</time>
      </trkpt>
      <trkpt lat="46.61982" lon="5.38209">
        <ele>215.8</ele>
        <time>2021-11-20T13:31:21Z</time>
      </trkpt>
      <trkpt lat="46.61983" lon="5.382">
        <ele>216</ele>
        <time>2021-11-20T13:31:22Z</time>
      </trkpt>
      <trkpt lat="46.62001" lon="5.38119">
        <ele>216.6</ele>
        <time>2021-11-20T13:31:31Z</time>
      </trkpt>
      <trkpt lat="46.62023" lon="5.38039">
        <ele>216.4</ele>
        <time>2021-11-20T13:31:40Z</time>
      </trkpt>
      <trkpt lat="46.62027" lon="5.38021">
        <ele>216.6</ele>
        <time>2021-11-20T13:31:42Z</time>
      </trkpt>
      <trkpt lat="46.62043" lon="5.37941">
        <ele>216.4</ele>
        <time>2021-11-20T13:31:51Z</time>
      </trkpt>
      <trkpt lat="46.62061" lon="5.37865">
        <ele>216.2</ele>
        <time>2021-11-20T13:31:59Z</time>
      </trkpt>
      <trkpt lat="46.62081" lon="5.37809">
        <ele>216.2</ele>
        <time>2021-11-20T13:32:06Z</time>
      </trkpt>
      <trkpt lat="46.62084" lon="5.37802">
        <ele>216.2</ele>
        <time>2021-11-20T13:32:07Z</time>
      </trkpt>
      <trkpt lat="46.621" lon="5.37778">
        <ele>216.8</ele>
        <time>2021-11-20T13:32:11Z</time>
      </trkpt>
      <trkpt lat="46.62113" lon="5.37762">
        <ele>217.2</ele>
        <time>2021-11-20T13:32:14Z</time>
      </trkpt>
      <trkpt lat="46.62134" lon="5.37737">
        <ele>218.2</ele>
        <time>2021-11-20T13:32:19Z</time>
      </trkpt>
      <trkpt lat="46.62148" lon="5.37721">
        <ele>219</ele>
        <time>2021-11-20T13:32:22Z</time>
      </trkpt>
      <trkpt lat="46.62162" lon="5.37704">
        <ele>219.4</ele>
        <time>2021-11-20T13:32:25Z</time>
      </trkpt>
      <trkpt lat="46.62183" lon="5.37675">
        <ele>220.2</ele>
        <time>2021-11-20T13:32:30Z</time>
      </trkpt>
      <trkpt lat="46.62191" lon="5.37663">
        <ele>220.6</ele>
        <time>2021-11-20T13:32:32Z</time>
      </trkpt>
      <trkpt lat="46.62201" lon="5.37642">
        <ele>221</ele>
        <time>2021-11-20T13:32:35Z</time>
      </trkpt>
      <trkpt lat="46.62211" lon="5.37601">
        <ele>221.4</ele>
        <time>2021-11-20T13:32:40Z</time>
      </trkpt>
      <trkpt lat="46.62211" lon="5.37556">
        <ele>221.2</ele>
        <time>2021-11-20T13:32:45Z</time>
      </trkpt>
      <trkpt lat="46.62204" lon="5.37519">
        <ele>221</ele>
        <time>2021-11-20T13:32:49Z</time>
      </trkpt>
      <trkpt lat="46.62201" lon="5.3751">
        <ele>221</ele>
        <time>2021-11-20T13:32:50Z</time>
      </trkpt>
      <trkpt lat="46.6218" lon="5.37472">
        <ele>220.8</ele>
        <time>2021-11-20T13:32:55Z</time>
      </trkpt>
      <trkpt lat="46.62141" lon="5.37427">
        <ele>220.4</ele>
        <time>2021-11-20T13:33:02Z</time>
      </trkpt>
      <trkpt lat="46.62119" lon="5.37401">
        <ele>219.8</ele>
        <time>2021-11-20T13:33:06Z</time>
      </trkpt>
      <trkpt lat="46.6209" lon="5.37367">
        <ele>219.2</ele>
        <time>2021-11-20T13:33:11Z</time>
      </trkpt>
      <trkpt lat="46.62066" lon="5.37341">
        <ele>218.8</ele>
        <time>2021-11-20T13:33:15Z</time>
      </trkpt>
      <trkpt lat="46.62036" lon="5.37307">
        <ele>217.8</ele>
        <time>2021-11-20T13:33:20Z</time>
      </trkpt>
      <trkpt lat="46.62025" lon="5.37293">
        <ele>217.6</ele>
        <time>2021-11-20T13:33:22Z</time>
      </trkpt>
      <trkpt lat="46.61996" lon="5.37254">
        <ele>216.4</ele>
        <time>2021-11-20T13:33:27Z</time>
      </trkpt>
      <trkpt lat="46.61987" lon="5.37236">
        <ele>215.6</ele>
        <time>2021-11-20T13:33:29Z</time>
      </trkpt>
      <trkpt lat="46.61979" lon="5.37216">
        <ele>215.2</ele>
        <time>2021-11-20T13:33:31Z</time>
      </trkpt>
      <trkpt lat="46.61962" lon="5.37163">
        <ele>214.2</ele>
        <time>2021-11-20T13:33:36Z</time>
      </trkpt>
      <trkpt lat="46.61937" lon="5.37092">
        <ele>213.2</ele>
        <time>2021-11-20T13:33:43Z</time>
      </trkpt>
      <trkpt lat="46.61933" lon="5.37082">
        <ele>213</ele>
        <time>2021-11-20T13:33:44Z</time>
      </trkpt>
      <trkpt lat="46.6193" lon="5.37072">
        <ele>212.8</ele>
        <time>2021-11-20T13:33:45Z</time>
      </trkpt>
      <trkpt lat="46.61909" lon="5.37014">
        <ele>211.8</ele>
        <time>2021-11-20T13:33:51Z</time>
      </trkpt>
      <trkpt lat="46.619" lon="5.36985">
        <ele>211.4</ele>
        <time>2021-11-20T13:33:54Z</time>
      </trkpt>
      <trkpt lat="46.61893" lon="5.36935">
        <ele>211.2</ele>
        <time>2021-11-20T13:33:59Z</time>
      </trkpt>
      <trkpt lat="46.61895" lon="5.36877">
        <ele>211.4</ele>
        <time>2021-11-20T13:34:05Z</time>
      </trkpt>
      <trkpt lat="46.61907" lon="5.36815">
        <ele>211.6</ele>
        <time>2021-11-20T13:34:12Z</time>
      </trkpt>
      <trkpt lat="46.61928" lon="5.36743">
        <ele>212.2</ele>
        <time>2021-11-20T13:34:21Z</time>
      </trkpt>
      <trkpt lat="46.61931" lon="5.36735">
        <ele>212.4</ele>
        <time>2021-11-20T13:34:22Z</time>
      </trkpt>
      <trkpt lat="46.61953" lon="5.36663">
        <ele>212.8</ele>
        <time>2021-11-20T13:34:31Z</time>
      </trkpt>
      <trkpt lat="46.61959" lon="5.36633">
        <ele>213.2</ele>
        <time>2021-11-20T13:34:35Z</time>
      </trkpt>
      <trkpt lat="46.61959" lon="5.36626">
        <ele>213.2</ele>
        <time>2021-11-20T13:34:36Z</time>
      </trkpt>
      <trkpt lat="46.61959" lon="5.36619">
        <ele>213.4</ele>
        <time>2021-11-20T13:34:37Z</time>
      </trkpt>
      <trkpt lat="46.61957" lon="5.36605">
        <ele>214.2</ele>
        <time>2021-11-20T13:34:39Z</time>
      </trkpt>
      <trkpt lat="46.61954" lon="5.36598">
        <ele>214.6</ele>
        <time>2021-11-20T13:34:40Z</time>
      </trkpt>
      <trkpt lat="46.61951" lon="5.36592">
        <ele>215</ele>
        <time>2021-11-20T13:34:41Z</time>
      </trkpt>
      <trkpt lat="46.61948" lon="5.36586">
        <ele>215.4</ele>
        <time>2021-11-20T13:34:42Z</time>
      </trkpt>
      <trkpt lat="46.61944" lon="5.36581">
        <ele>215.6</ele>
        <time>2021-11-20T13:34:43Z</time>
      </trkpt>
      <trkpt lat="46.61939" lon="5.36576">
        <ele>216</ele>
        <time>2021-11-20T13:34:44Z</time>
      </trkpt>
      <trkpt lat="46.61935" lon="5.36571">
        <ele>216.6</ele>
        <time>2021-11-20T13:34:45Z</time>
      </trkpt>
      <trkpt lat="46.61922" lon="5.36559">
        <ele>218</ele>
        <time>2021-11-20T13:34:48Z</time>
      </trkpt>
      <trkpt lat="46.619" lon="5.36538">
        <ele>219</ele>
        <time>2021-11-20T13:34:53Z</time>
      </trkpt>
      <trkpt lat="46.61887" lon="5.36526">
        <ele>220</ele>
        <time>2021-11-20T13:34:56Z</time>
      </trkpt>
      <trkpt lat="46.61874" lon="5.36516">
        <ele>221.2</ele>
        <time>2021-11-20T13:34:59Z</time>
      </trkpt>
      <trkpt lat="46.61866" lon="5.36509">
        <ele>221.4</ele>
        <time>2021-11-20T13:35:01Z</time>
      </trkpt>
      <trkpt lat="46.61833" lon="5.36485">
        <ele>222.2</ele>
        <time>2021-11-20T13:35:08Z</time>
      </trkpt>
      <trkpt lat="46.61805" lon="5.36464">
        <ele>222.8</ele>
        <time>2021-11-20T13:35:14Z</time>
      </trkpt>
      <trkpt lat="46.61772" lon="5.36432">
        <ele>223</ele>
        <time>2021-11-20T13:35:21Z</time>
      </trkpt>
      <trkpt lat="46.61743" lon="5.36394">
        <ele>223.2</ele>
        <time>2021-11-20T13:35:28Z</time>
      </trkpt>
      <trkpt lat="46.61738" lon="5.36391">
        <ele>223.4</ele>
        <time>2021-11-20T13:35:29Z</time>
      </trkpt>
      <trkpt lat="46.61734" lon="5.36388">
        <ele>223.4</ele>
        <time>2021-11-20T13:35:30Z</time>
      </trkpt>
      <trkpt lat="46.61718" lon="5.36382">
        <ele>223.8</ele>
        <time>2021-11-20T13:35:33Z</time>
      </trkpt>
      <trkpt lat="46.61713" lon="5.36381">
        <ele>223.8</ele>
        <time>2021-11-20T13:35:34Z</time>
      </trkpt>
      <trkpt lat="46.6169" lon="5.36386">
        <ele>224.2</ele>
        <time>2021-11-20T13:35:38Z</time>
      </trkpt>
      <trkpt lat="46.61663" lon="5.36396">
        <ele>224.2</ele>
        <time>2021-11-20T13:35:42Z</time>
      </trkpt>
      <trkpt lat="46.61657" lon="5.36396">
        <ele>224</ele>
        <time>2021-11-20T13:35:43Z</time>
      </trkpt>
      <trkpt lat="46.6165" lon="5.36394">
        <ele>224</ele>
        <time>2021-11-20T13:35:44Z</time>
      </trkpt>
      <trkpt lat="46.61639" lon="5.36385">
        <ele>224</ele>
        <time>2021-11-20T13:35:46Z</time>
      </trkpt>
      <trkpt lat="46.61632" lon="5.36372">
        <ele>224</ele>
        <time>2021-11-20T13:35:48Z</time>
      </trkpt>
      <trkpt lat="46.6163" lon="5.36365">
        <ele>224</ele>
        <time>2021-11-20T13:35:49Z</time>
      </trkpt>
      <trkpt lat="46.61623" lon="5.36334">
        <ele>224.4</ele>
        <time>2021-11-20T13:35:53Z</time>
      </trkpt>
      <trkpt lat="46.6162" lon="5.36328">
        <ele>224.6</ele>
        <time>2021-11-20T13:35:54Z</time>
      </trkpt>
      <trkpt lat="46.61617" lon="5.36321">
        <ele>224.8</ele>
        <time>2021-11-20T13:35:55Z</time>
      </trkpt>
      <trkpt lat="46.61609" lon="5.3631">
        <ele>225</ele>
        <time>2021-11-20T13:35:57Z</time>
      </trkpt>
      <trkpt lat="46.61593" lon="5.36297">
        <ele>225.4</ele>
        <time>2021-11-20T13:36:00Z</time>
      </trkpt>
      <trkpt lat="46.61576" lon="5.36287">
        <ele>225.6</ele>
        <time>2021-11-20T13:36:03Z</time>
      </trkpt>
      <trkpt lat="46.61547" lon="5.36271">
        <ele>226.2</ele>
        <time>2021-11-20T13:36:08Z</time>
      </trkpt>
      <trkpt lat="46.61505" lon="5.3625">
        <ele>226.2</ele>
        <time>2021-11-20T13:36:15Z</time>
      </trkpt>
      <trkpt lat="46.61474" lon="5.3625">
        <ele>226.2</ele>
        <time>2021-11-20T13:36:20Z</time>
      </trkpt>
      <trkpt lat="46.6143" lon="5.36255">
        <ele>226.2</ele>
        <time>2021-11-20T13:36:27Z</time>
      </trkpt>
      <trkpt lat="46.61423" lon="5.36254">
        <ele>226.2</ele>
        <time>2021-11-20T13:36:28Z</time>
      </trkpt>
      <trkpt lat="46.61405" lon="5.36245">
        <ele>226.2</ele>
        <time>2021-11-20T13:36:31Z</time>
      </trkpt>
      <trkpt lat="46.6135" lon="5.3621">
        <ele>226</ele>
        <time>2021-11-20T13:36:40Z</time>
      </trkpt>
      <trkpt lat="46.61299" lon="5.36194">
        <ele>225.4</ele>
        <time>2021-11-20T13:36:47Z</time>
      </trkpt>
      <trkpt lat="46.61264" lon="5.36177">
        <ele>225.2</ele>
        <time>2021-11-20T13:36:52Z</time>
      </trkpt>
      <trkpt lat="46.61258" lon="5.36172">
        <ele>225</ele>
        <time>2021-11-20T13:36:53Z</time>
      </trkpt>
      <trkpt lat="46.61237" lon="5.36146">
        <ele>225</ele>
        <time>2021-11-20T13:36:57Z</time>
      </trkpt>
      <trkpt lat="46.61223" lon="5.36124">
        <ele>225</ele>
        <time>2021-11-20T13:37:00Z</time>
      </trkpt>
      <trkpt lat="46.61211" lon="5.36098">
        <ele>225</ele>
        <time>2021-11-20T13:37:03Z</time>
      </trkpt>
      <trkpt lat="46.6118" lon="5.36041">
        <ele>225.2</ele>
        <time>2021-11-20T13:37:10Z</time>
      </trkpt>
      <trkpt lat="46.61174" lon="5.36035">
        <ele>225.2</ele>
        <time>2021-11-20T13:37:11Z</time>
      </trkpt>
      <trkpt lat="46.61149" lon="5.36014">
        <ele>225.4</ele>
        <time>2021-11-20T13:37:15Z</time>
      </trkpt>
      <trkpt lat="46.61098" lon="5.35973">
        <ele>224.8</ele>
        <time>2021-11-20T13:37:23Z</time>
      </trkpt>
      <trkpt lat="46.61088" lon="5.35959">
        <ele>224.8</ele>
        <time>2021-11-20T13:37:25Z</time>
      </trkpt>
      <trkpt lat="46.61074" lon="5.35935">
        <ele>224.6</ele>
        <time>2021-11-20T13:37:28Z</time>
      </trkpt>
      <trkpt lat="46.61042" lon="5.3587">
        <ele>224.6</ele>
        <time>2021-11-20T13:37:36Z</time>
      </trkpt>
      <trkpt lat="46.61038" lon="5.35862">
        <ele>224.6</ele>
        <time>2021-11-20T13:37:37Z</time>
      </trkpt>
      <trkpt lat="46.61005" lon="5.35795">
        <ele>224.6</ele>
        <time>2021-11-20T13:37:45Z</time>
      </trkpt>
      <trkpt lat="46.60975" lon="5.3573">
        <ele>224.6</ele>
        <time>2021-11-20T13:37:53Z</time>
      </trkpt>
      <trkpt lat="46.60968" lon="5.35713">
        <ele>224.8</ele>
        <time>2021-11-20T13:37:55Z</time>
      </trkpt>
      <trkpt lat="46.60943" lon="5.35648">
        <ele>225</ele>
        <time>2021-11-20T13:38:03Z</time>
      </trkpt>
      <trkpt lat="46.6094" lon="5.35622">
        <ele>225</ele>
        <time>2021-11-20T13:38:06Z</time>
      </trkpt>
      <trkpt lat="46.6094" lon="5.35614">
        <ele>225.2</ele>
        <time>2021-11-20T13:38:07Z</time>
      </trkpt>
      <trkpt lat="46.60948" lon="5.35576">
        <ele>225.6</ele>
        <time>2021-11-20T13:38:12Z</time>
      </trkpt>
      <trkpt lat="46.60951" lon="5.3556">
        <ele>226</ele>
        <time>2021-11-20T13:38:14Z</time>
      </trkpt>
      <trkpt lat="46.60954" lon="5.35527">
        <ele>226.4</ele>
        <time>2021-11-20T13:38:18Z</time>
      </trkpt>
      <trkpt lat="46.60951" lon="5.35469">
        <ele>227</ele>
        <time>2021-11-20T13:38:25Z</time>
      </trkpt>
      <trkpt lat="46.6095" lon="5.35461">
        <ele>227</ele>
        <time>2021-11-20T13:38:26Z</time>
      </trkpt>
      <trkpt lat="46.60945" lon="5.35445">
        <ele>227</ele>
        <time>2021-11-20T13:38:28Z</time>
      </trkpt>
      <trkpt lat="46.60942" lon="5.35438">
        <ele>227.2</ele>
        <time>2021-11-20T13:38:29Z</time>
      </trkpt>
      <trkpt lat="46.60938" lon="5.35432">
        <ele>227.2</ele>
        <time>2021-11-20T13:38:30Z</time>
      </trkpt>
      <trkpt lat="46.60928" lon="5.35422">
        <ele>227.2</ele>
        <time>2021-11-20T13:38:32Z</time>
      </trkpt>
      <trkpt lat="46.60923" lon="5.35418">
        <ele>227.2</ele>
        <time>2021-11-20T13:38:33Z</time>
      </trkpt>
      <trkpt lat="46.60876" lon="5.35394">
        <ele>227.2</ele>
        <time>2021-11-20T13:38:41Z</time>
      </trkpt>
      <trkpt lat="46.60864" lon="5.35394">
        <ele>227.2</ele>
        <time>2021-11-20T13:38:43Z</time>
      </trkpt>
      <trkpt lat="46.60851" lon="5.35398">
        <ele>227.2</ele>
        <time>2021-11-20T13:38:45Z</time>
      </trkpt>
      <trkpt lat="46.60819" lon="5.35422">
        <ele>227</ele>
        <time>2021-11-20T13:38:50Z</time>
      </trkpt>
      <trkpt lat="46.60812" lon="5.35425">
        <ele>227</ele>
        <time>2021-11-20T13:38:51Z</time>
      </trkpt>
      <trkpt lat="46.60796" lon="5.35428">
        <ele>226.2</ele>
        <time>2021-11-20T13:38:53Z</time>
      </trkpt>
      <trkpt lat="46.60789" lon="5.35426">
        <ele>226</ele>
        <time>2021-11-20T13:38:54Z</time>
      </trkpt>
      <trkpt lat="46.60755" lon="5.35409">
        <ele>224.8</ele>
        <time>2021-11-20T13:38:59Z</time>
      </trkpt>
      <trkpt lat="46.60743" lon="5.354">
        <ele>224.4</ele>
        <time>2021-11-20T13:39:01Z</time>
      </trkpt>
      <trkpt lat="46.60726" lon="5.3538">
        <ele>223.8</ele>
        <time>2021-11-20T13:39:04Z</time>
      </trkpt>
      <trkpt lat="46.60694" lon="5.35331">
        <ele>222.4</ele>
        <time>2021-11-20T13:39:10Z</time>
      </trkpt>
      <trkpt lat="46.60688" lon="5.35324">
        <ele>221.8</ele>
        <time>2021-11-20T13:39:11Z</time>
      </trkpt>
      <trkpt lat="46.60677" lon="5.3531">
        <ele>221.2</ele>
        <time>2021-11-20T13:39:13Z</time>
      </trkpt>
      <trkpt lat="46.60657" lon="5.35295">
        <ele>220.6</ele>
        <time>2021-11-20T13:39:16Z</time>
      </trkpt>
      <trkpt lat="46.6065" lon="5.35291">
        <ele>220.2</ele>
        <time>2021-11-20T13:39:17Z</time>
      </trkpt>
      <trkpt lat="46.60635" lon="5.35282">
        <ele>219</ele>
        <time>2021-11-20T13:39:19Z</time>
      </trkpt>
      <trkpt lat="46.60615" lon="5.35266">
        <ele>218.4</ele>
        <time>2021-11-20T13:39:22Z</time>
      </trkpt>
      <trkpt lat="46.60602" lon="5.35253">
        <ele>217.8</ele>
        <time>2021-11-20T13:39:24Z</time>
      </trkpt>
      <trkpt lat="46.60585" lon="5.35229">
        <ele>217</ele>
        <time>2021-11-20T13:39:27Z</time>
      </trkpt>
      <trkpt lat="46.60573" lon="5.35212">
        <ele>216.6</ele>
        <time>2021-11-20T13:39:29Z</time>
      </trkpt>
      <trkpt lat="46.6056" lon="5.35191">
        <ele>215.6</ele>
        <time>2021-11-20T13:39:32Z</time>
      </trkpt>
      <trkpt lat="46.60557" lon="5.35185">
        <ele>215.2</ele>
        <time>2021-11-20T13:39:33Z</time>
      </trkpt>
      <trkpt lat="46.60556" lon="5.35178">
        <ele>215</ele>
        <time>2021-11-20T13:39:34Z</time>
      </trkpt>
      <trkpt lat="46.60558" lon="5.35163">
        <ele>214.6</ele>
        <time>2021-11-20T13:39:36Z</time>
      </trkpt>
      <trkpt lat="46.60562" lon="5.35129">
        <ele>214.4</ele>
        <time>2021-11-20T13:39:40Z</time>
      </trkpt>
      <trkpt lat="46.60562" lon="5.3511">
        <ele>214.4</ele>
        <time>2021-11-20T13:39:42Z</time>
      </trkpt>
      <trkpt lat="46.6056" lon="5.35049">
        <ele>215</ele>
        <time>2021-11-20T13:39:48Z</time>
      </trkpt>
      <trkpt lat="46.60555" lon="5.34965">
        <ele>214.2</ele>
        <time>2021-11-20T13:39:55Z</time>
      </trkpt>
      <trkpt lat="46.60555" lon="5.34952">
        <ele>213.8</ele>
        <time>2021-11-20T13:39:56Z</time>
      </trkpt>
      <trkpt lat="46.60552" lon="5.34902">
        <ele>212.4</ele>
        <time>2021-11-20T13:40:00Z</time>
      </trkpt>
      <trkpt lat="46.60551" lon="5.34866">
        <ele>211.4</ele>
        <time>2021-11-20T13:40:03Z</time>
      </trkpt>
      <trkpt lat="46.6055" lon="5.34855">
        <ele>211.2</ele>
        <time>2021-11-20T13:40:04Z</time>
      </trkpt>
      <trkpt lat="46.60549" lon="5.34813">
        <ele>211</ele>
        <time>2021-11-20T13:40:08Z</time>
      </trkpt>
      <trkpt lat="46.60546" lon="5.3474">
        <ele>211.8</ele>
        <time>2021-11-20T13:40:16Z</time>
      </trkpt>
      <trkpt lat="46.60544" lon="5.34707">
        <ele>212.6</ele>
        <time>2021-11-20T13:40:20Z</time>
      </trkpt>
      <trkpt lat="46.60542" lon="5.34668">
        <ele>213.8</ele>
        <time>2021-11-20T13:40:25Z</time>
      </trkpt>
      <trkpt lat="46.60541" lon="5.3466">
        <ele>214</ele>
        <time>2021-11-20T13:40:26Z</time>
      </trkpt>
      <trkpt lat="46.60539" lon="5.34612">
        <ele>214.8</ele>
        <time>2021-11-20T13:40:32Z</time>
      </trkpt>
      <trkpt lat="46.60537" lon="5.34567">
        <ele>215</ele>
        <time>2021-11-20T13:40:37Z</time>
      </trkpt>
      <trkpt lat="46.60533" lon="5.34492">
        <ele>214.8</ele>
        <time>2021-11-20T13:40:45Z</time>
      </trkpt>
      <trkpt lat="46.6053" lon="5.34407">
        <ele>215.2</ele>
        <time>2021-11-20T13:40:55Z</time>
      </trkpt>
      <trkpt lat="46.60529" lon="5.34378">
        <ele>216</ele>
        <time>2021-11-20T13:40:59Z</time>
      </trkpt>
      <trkpt lat="46.60528" lon="5.34351">
        <ele>216.8</ele>
        <time>2021-11-20T13:41:03Z</time>
      </trkpt>
      <trkpt lat="46.60528" lon="5.34337">
        <ele>217.4</ele>
        <time>2021-11-20T13:41:05Z</time>
      </trkpt>
      <trkpt lat="46.60527" lon="5.34317">
        <ele>218.4</ele>
        <time>2021-11-20T13:41:08Z</time>
      </trkpt>
      <trkpt lat="46.60525" lon="5.34292">
        <ele>219.4</ele>
        <time>2021-11-20T13:41:12Z</time>
      </trkpt>
      <trkpt lat="46.60524" lon="5.34259">
        <ele>220.8</ele>
        <time>2021-11-20T13:41:17Z</time>
      </trkpt>
      <trkpt lat="46.60524" lon="5.34241">
        <ele>221.8</ele>
        <time>2021-11-20T13:41:20Z</time>
      </trkpt>
      <trkpt lat="46.60524" lon="5.34235">
        <ele>222.2</ele>
        <time>2021-11-20T13:41:21Z</time>
      </trkpt>
      <trkpt lat="46.60521" lon="5.34207">
        <ele>223.2</ele>
        <time>2021-11-20T13:41:26Z</time>
      </trkpt>
      <trkpt lat="46.60519" lon="5.3419">
        <ele>224</ele>
        <time>2021-11-20T13:41:29Z</time>
      </trkpt>
      <trkpt lat="46.60517" lon="5.34185">
        <ele>224.4</ele>
        <time>2021-11-20T13:41:30Z</time>
      </trkpt>
      <trkpt lat="46.60506" lon="5.34158">
        <ele>225.6</ele>
        <time>2021-11-20T13:41:35Z</time>
      </trkpt>
      <trkpt lat="46.60487" lon="5.34128">
        <ele>226.6</ele>
        <time>2021-11-20T13:41:41Z</time>
      </trkpt>
      <trkpt lat="46.60472" lon="5.34103">
        <ele>227.2</ele>
        <time>2021-11-20T13:41:46Z</time>
      </trkpt>
      <trkpt lat="46.60448" lon="5.34052">
        <ele>227.8</ele>
        <time>2021-11-20T13:41:54Z</time>
      </trkpt>
      <trkpt lat="46.60446" lon="5.34045">
        <ele>228</ele>
        <time>2021-11-20T13:41:55Z</time>
      </trkpt>
      <trkpt lat="46.60437" lon="5.34004">
        <ele>228</ele>
        <time>2021-11-20T13:42:00Z</time>
      </trkpt>
      <trkpt lat="46.60427" lon="5.33934">
        <ele>228</ele>
        <time>2021-11-20T13:42:08Z</time>
      </trkpt>
      <trkpt lat="46.60423" lon="5.33871">
        <ele>227.8</ele>
        <time>2021-11-20T13:42:15Z</time>
      </trkpt>
      <trkpt lat="46.60429" lon="5.33792">
        <ele>227.6</ele>
        <time>2021-11-20T13:42:24Z</time>
      </trkpt>
      <trkpt lat="46.6043" lon="5.33783">
        <ele>227.4</ele>
        <time>2021-11-20T13:42:25Z</time>
      </trkpt>
      <trkpt lat="46.60437" lon="5.33706">
        <ele>227.2</ele>
        <time>2021-11-20T13:42:34Z</time>
      </trkpt>
      <trkpt lat="46.60444" lon="5.33643">
        <ele>227</ele>
        <time>2021-11-20T13:42:41Z</time>
      </trkpt>
      <trkpt lat="46.60456" lon="5.33574">
        <ele>227</ele>
        <time>2021-11-20T13:42:49Z</time>
      </trkpt>
      <trkpt lat="46.60472" lon="5.33508">
        <ele>227.6</ele>
        <time>2021-11-20T13:42:57Z</time>
      </trkpt>
      <trkpt lat="46.60491" lon="5.33428">
        <ele>228</ele>
        <time>2021-11-20T13:43:06Z</time>
      </trkpt>
      <trkpt lat="46.60507" lon="5.33362">
        <ele>227.6</ele>
        <time>2021-11-20T13:43:13Z</time>
      </trkpt>
      <trkpt lat="46.60522" lon="5.333">
        <ele>226.8</ele>
        <time>2021-11-20T13:43:19Z</time>
      </trkpt>
      <trkpt lat="46.60524" lon="5.3329">
        <ele>226.6</ele>
        <time>2021-11-20T13:43:20Z</time>
      </trkpt>
      <trkpt lat="46.60544" lon="5.33209">
        <ele>226</ele>
        <time>2021-11-20T13:43:28Z</time>
      </trkpt>
      <trkpt lat="46.60546" lon="5.332">
        <ele>225.8</ele>
        <time>2021-11-20T13:43:29Z</time>
      </trkpt>
      <trkpt lat="46.6055" lon="5.33183">
        <ele>225.8</ele>
        <time>2021-11-20T13:43:31Z</time>
      </trkpt>
      <trkpt lat="46.60556" lon="5.33147">
        <ele>225.8</ele>
        <time>2021-11-20T13:43:35Z</time>
      </trkpt>
      <trkpt lat="46.60558" lon="5.33099">
        <ele>226.2</ele>
        <time>2021-11-20T13:43:40Z</time>
      </trkpt>
      <trkpt lat="46.60558" lon="5.33019">
        <ele>226.2</ele>
        <time>2021-11-20T13:43:47Z</time>
      </trkpt>
      <trkpt lat="46.60557" lon="5.32974">
        <ele>225</ele>
        <time>2021-11-20T13:43:51Z</time>
      </trkpt>
      <trkpt lat="46.60558" lon="5.32936">
        <ele>224</ele>
        <time>2021-11-20T13:43:54Z</time>
      </trkpt>
      <trkpt lat="46.60558" lon="5.32913">
        <ele>223.4</ele>
        <time>2021-11-20T13:43:56Z</time>
      </trkpt>
      <trkpt lat="46.60558" lon="5.32858">
        <ele>223</ele>
        <time>2021-11-20T13:44:01Z</time>
      </trkpt>
      <trkpt lat="46.60558" lon="5.32818">
        <ele>222.6</ele>
        <time>2021-11-20T13:44:05Z</time>
      </trkpt>
      <trkpt lat="46.60558" lon="5.32772">
        <ele>223</ele>
        <time>2021-11-20T13:44:10Z</time>
      </trkpt>
      <trkpt lat="46.60558" lon="5.32714">
        <ele>224</ele>
        <time>2021-11-20T13:44:17Z</time>
      </trkpt>
      <trkpt lat="46.60558" lon="5.32706">
        <ele>224</ele>
        <time>2021-11-20T13:44:18Z</time>
      </trkpt>
      <trkpt lat="46.60557" lon="5.32629">
        <ele>225.2</ele>
        <time>2021-11-20T13:44:27Z</time>
      </trkpt>
      <trkpt lat="46.60555" lon="5.32615">
        <ele>225.6</ele>
        <time>2021-11-20T13:44:29Z</time>
      </trkpt>
      <trkpt lat="46.60547" lon="5.32604">
        <ele>226</ele>
        <time>2021-11-20T13:44:31Z</time>
      </trkpt>
      <trkpt lat="46.60541" lon="5.32603">
        <ele>226.2</ele>
        <time>2021-11-20T13:44:32Z</time>
      </trkpt>
      <trkpt lat="46.60535" lon="5.32603">
        <ele>226.2</ele>
        <time>2021-11-20T13:44:33Z</time>
      </trkpt>
      <trkpt lat="46.60522" lon="5.32605">
        <ele>226.2</ele>
        <time>2021-11-20T13:44:35Z</time>
      </trkpt>
      <trkpt lat="46.60485" lon="5.32615">
        <ele>225.4</ele>
        <time>2021-11-20T13:44:40Z</time>
      </trkpt>
      <trkpt lat="46.60477" lon="5.32619">
        <ele>225.2</ele>
        <time>2021-11-20T13:44:41Z</time>
      </trkpt>
      <trkpt lat="46.60463" lon="5.32631">
        <ele>224.4</ele>
        <time>2021-11-20T13:44:43Z</time>
      </trkpt>
      <trkpt lat="46.60458" lon="5.32638">
        <ele>224.2</ele>
        <time>2021-11-20T13:44:44Z</time>
      </trkpt>
      <trkpt lat="46.6045" lon="5.32647">
        <ele>223.8</ele>
        <time>2021-11-20T13:44:45Z</time>
      </trkpt>
      <trkpt lat="46.60432" lon="5.32666">
        <ele>222.6</ele>
        <time>2021-11-20T13:44:48Z</time>
      </trkpt>
      <trkpt lat="46.60423" lon="5.32673">
        <ele>222.4</ele>
        <time>2021-11-20T13:44:49Z</time>
      </trkpt>
      <trkpt lat="46.60407" lon="5.32676">
        <ele>221.8</ele>
        <time>2021-11-20T13:44:51Z</time>
      </trkpt>
      <trkpt lat="46.60399" lon="5.32675">
        <ele>221.2</ele>
        <time>2021-11-20T13:44:52Z</time>
      </trkpt>
      <trkpt lat="46.60366" lon="5.32674">
        <ele>220.4</ele>
        <time>2021-11-20T13:44:56Z</time>
      </trkpt>
      <trkpt lat="46.60358" lon="5.32676">
        <ele>220.4</ele>
        <time>2021-11-20T13:44:57Z</time>
      </trkpt>
      <trkpt lat="46.60352" lon="5.32678">
        <ele>220.2</ele>
        <time>2021-11-20T13:44:58Z</time>
      </trkpt>
      <trkpt lat="46.60313" lon="5.32694">
        <ele>218.8</ele>
        <time>2021-11-20T13:45:03Z</time>
      </trkpt>
      <trkpt lat="46.60291" lon="5.32703">
        <ele>218.2</ele>
        <time>2021-11-20T13:45:06Z</time>
      </trkpt>
      <trkpt lat="46.60276" lon="5.32703">
        <ele>217.4</ele>
        <time>2021-11-20T13:45:08Z</time>
      </trkpt>
      <trkpt lat="46.60261" lon="5.32695">
        <ele>217</ele>
        <time>2021-11-20T13:45:10Z</time>
      </trkpt>
      <trkpt lat="46.60254" lon="5.3269">
        <ele>217</ele>
        <time>2021-11-20T13:45:11Z</time>
      </trkpt>
      <trkpt lat="46.60215" lon="5.32657">
        <ele>216.4</ele>
        <time>2021-11-20T13:45:17Z</time>
      </trkpt>
      <trkpt lat="46.60201" lon="5.3265">
        <ele>216.4</ele>
        <time>2021-11-20T13:45:19Z</time>
      </trkpt>
      <trkpt lat="46.60158" lon="5.32639">
        <ele>216.4</ele>
        <time>2021-11-20T13:45:25Z</time>
      </trkpt>
      <trkpt lat="46.60122" lon="5.32636">
        <ele>216.4</ele>
        <time>2021-11-20T13:45:30Z</time>
      </trkpt>
      <trkpt lat="46.60115" lon="5.32637">
        <ele>216.4</ele>
        <time>2021-11-20T13:45:31Z</time>
      </trkpt>
      <trkpt lat="46.60102" lon="5.32642">
        <ele>216.4</ele>
        <time>2021-11-20T13:45:33Z</time>
      </trkpt>
      <trkpt lat="46.60083" lon="5.32652">
        <ele>216.8</ele>
        <time>2021-11-20T13:45:36Z</time>
      </trkpt>
      <trkpt lat="46.6004" lon="5.32672">
        <ele>217.4</ele>
        <time>2021-11-20T13:45:43Z</time>
      </trkpt>
      <trkpt lat="46.60033" lon="5.32672">
        <ele>217.6</ele>
        <time>2021-11-20T13:45:44Z</time>
      </trkpt>
      <trkpt lat="46.6001" lon="5.32669">
        <ele>218.2</ele>
        <time>2021-11-20T13:45:48Z</time>
      </trkpt>
      <trkpt lat="46.60005" lon="5.32667">
        <ele>218.6</ele>
        <time>2021-11-20T13:45:49Z</time>
      </trkpt>
      <trkpt lat="46.59999" lon="5.32663">
        <ele>218.8</ele>
        <time>2021-11-20T13:45:50Z</time>
      </trkpt>
      <trkpt lat="46.59984" lon="5.32651">
        <ele>219.4</ele>
        <time>2021-11-20T13:45:53Z</time>
      </trkpt>
      <trkpt lat="46.59965" lon="5.32633">
        <ele>219.8</ele>
        <time>2021-11-20T13:45:57Z</time>
      </trkpt>
      <trkpt lat="46.59938" lon="5.32607">
        <ele>220.6</ele>
        <time>2021-11-20T13:46:03Z</time>
      </trkpt>
      <trkpt lat="46.59933" lon="5.32603">
        <ele>220.8</ele>
        <time>2021-11-20T13:46:04Z</time>
      </trkpt>
      <trkpt lat="46.59912" lon="5.32583">
        <ele>222.2</ele>
        <time>2021-11-20T13:46:09Z</time>
      </trkpt>
      <trkpt lat="46.59894" lon="5.32568">
        <ele>223</ele>
        <time>2021-11-20T13:46:13Z</time>
      </trkpt>
      <trkpt lat="46.59884" lon="5.32562">
        <ele>223.4</ele>
        <time>2021-11-20T13:46:15Z</time>
      </trkpt>
      <trkpt lat="46.59864" lon="5.32555">
        <ele>224</ele>
        <time>2021-11-20T13:46:19Z</time>
      </trkpt>
      <trkpt lat="46.59846" lon="5.32558">
        <ele>224.6</ele>
        <time>2021-11-20T13:46:22Z</time>
      </trkpt>
      <trkpt lat="46.5984" lon="5.3256">
        <ele>224.6</ele>
        <time>2021-11-20T13:46:23Z</time>
      </trkpt>
      <trkpt lat="46.59799" lon="5.3258">
        <ele>224.4</ele>
        <time>2021-11-20T13:46:29Z</time>
      </trkpt>
      <trkpt lat="46.59768" lon="5.32593">
        <ele>223.4</ele>
        <time>2021-11-20T13:46:33Z</time>
      </trkpt>
      <trkpt lat="46.59752" lon="5.32598">
        <ele>222.8</ele>
        <time>2021-11-20T13:46:35Z</time>
      </trkpt>
      <trkpt lat="46.59744" lon="5.32599">
        <ele>222.2</ele>
        <time>2021-11-20T13:46:36Z</time>
      </trkpt>
      <trkpt lat="46.59735" lon="5.32599">
        <ele>222</ele>
        <time>2021-11-20T13:46:37Z</time>
      </trkpt>
      <trkpt lat="46.5971" lon="5.32592">
        <ele>221.2</ele>
        <time>2021-11-20T13:46:40Z</time>
      </trkpt>
      <trkpt lat="46.5967" lon="5.32579">
        <ele>220</ele>
        <time>2021-11-20T13:46:45Z</time>
      </trkpt>
      <trkpt lat="46.59639" lon="5.32568">
        <ele>219.2</ele>
        <time>2021-11-20T13:46:49Z</time>
      </trkpt>
      <trkpt lat="46.59623" lon="5.32563">
        <ele>218.8</ele>
        <time>2021-11-20T13:46:51Z</time>
      </trkpt>
      <trkpt lat="46.59571" lon="5.32545">
        <ele>217.8</ele>
        <time>2021-11-20T13:46:58Z</time>
      </trkpt>
      <trkpt lat="46.59565" lon="5.32539">
        <ele>217.6</ele>
        <time>2021-11-20T13:46:59Z</time>
      </trkpt>
      <trkpt lat="46.59561" lon="5.32531">
        <ele>217.6</ele>
        <time>2021-11-20T13:47:00Z</time>
      </trkpt>
      <trkpt lat="46.59556" lon="5.32513">
        <ele>217.4</ele>
        <time>2021-11-20T13:47:02Z</time>
      </trkpt>
      <trkpt lat="46.59554" lon="5.32504">
        <ele>217.2</ele>
        <time>2021-11-20T13:47:03Z</time>
      </trkpt>
      <trkpt lat="46.59547" lon="5.32488">
        <ele>217</ele>
        <time>2021-11-20T13:47:05Z</time>
      </trkpt>
      <trkpt lat="46.59544" lon="5.32481">
        <ele>217</ele>
        <time>2021-11-20T13:47:06Z</time>
      </trkpt>
      <trkpt lat="46.59532" lon="5.32463">
        <ele>217.2</ele>
        <time>2021-11-20T13:47:09Z</time>
      </trkpt>
      <trkpt lat="46.59526" lon="5.32459">
        <ele>217.2</ele>
        <time>2021-11-20T13:47:10Z</time>
      </trkpt>
      <trkpt lat="46.5952" lon="5.32456">
        <ele>217.4</ele>
        <time>2021-11-20T13:47:11Z</time>
      </trkpt>
      <trkpt lat="46.59505" lon="5.32454">
        <ele>217.4</ele>
        <time>2021-11-20T13:47:13Z</time>
      </trkpt>
      <trkpt lat="46.5949" lon="5.3246">
        <ele>217.2</ele>
        <time>2021-11-20T13:47:15Z</time>
      </trkpt>
      <trkpt lat="46.59483" lon="5.32466">
        <ele>217.2</ele>
        <time>2021-11-20T13:47:16Z</time>
      </trkpt>
      <trkpt lat="46.59465" lon="5.32489">
        <ele>216.6</ele>
        <time>2021-11-20T13:47:19Z</time>
      </trkpt>
      <trkpt lat="46.59458" lon="5.32495">
        <ele>216.4</ele>
        <time>2021-11-20T13:47:20Z</time>
      </trkpt>
      <trkpt lat="46.5945" lon="5.32498">
        <ele>216.2</ele>
        <time>2021-11-20T13:47:21Z</time>
      </trkpt>
      <trkpt lat="46.59432" lon="5.32498">
        <ele>215.4</ele>
        <time>2021-11-20T13:47:23Z</time>
      </trkpt>
      <trkpt lat="46.59394" lon="5.32485">
        <ele>214</ele>
        <time>2021-11-20T13:47:27Z</time>
      </trkpt>
      <trkpt lat="46.59385" lon="5.3248">
        <ele>213.2</ele>
        <time>2021-11-20T13:47:28Z</time>
      </trkpt>
      <trkpt lat="46.59376" lon="5.32476">
        <ele>213</ele>
        <time>2021-11-20T13:47:29Z</time>
      </trkpt>
      <trkpt lat="46.5935" lon="5.32459">
        <ele>211.4</ele>
        <time>2021-11-20T13:47:32Z</time>
      </trkpt>
      <trkpt lat="46.59341" lon="5.32453">
        <ele>211.2</ele>
        <time>2021-11-20T13:47:33Z</time>
      </trkpt>
      <trkpt lat="46.59317" lon="5.32435">
        <ele>210</ele>
        <time>2021-11-20T13:47:36Z</time>
      </trkpt>
      <trkpt lat="46.59294" lon="5.32414">
        <ele>208.8</ele>
        <time>2021-11-20T13:47:39Z</time>
      </trkpt>
      <trkpt lat="46.5928" lon="5.324">
        <ele>208.4</ele>
        <time>2021-11-20T13:47:41Z</time>
      </trkpt>
      <trkpt lat="46.5926" lon="5.32379">
        <ele>207.6</ele>
        <time>2021-11-20T13:47:44Z</time>
      </trkpt>
      <trkpt lat="46.59228" lon="5.32344">
        <ele>207</ele>
        <time>2021-11-20T13:47:49Z</time>
      </trkpt>
      <trkpt lat="46.59192" lon="5.32304">
        <ele>206.6</ele>
        <time>2021-11-20T13:47:55Z</time>
      </trkpt>
      <trkpt lat="46.59173" lon="5.32287">
        <ele>206.4</ele>
        <time>2021-11-20T13:47:58Z</time>
      </trkpt>
      <trkpt lat="46.59124" lon="5.32244">
        <ele>206.4</ele>
        <time>2021-11-20T13:48:06Z</time>
      </trkpt>
      <trkpt lat="46.59118" lon="5.32239">
        <ele>206.4</ele>
        <time>2021-11-20T13:48:07Z</time>
      </trkpt>
      <trkpt lat="46.59068" lon="5.32204">
        <ele>206.2</ele>
        <time>2021-11-20T13:48:15Z</time>
      </trkpt>
      <trkpt lat="46.5904" lon="5.32202">
        <ele>206.2</ele>
        <time>2021-11-20T13:48:19Z</time>
      </trkpt>
      <trkpt lat="46.59033" lon="5.32203">
        <ele>206.2</ele>
        <time>2021-11-20T13:48:20Z</time>
      </trkpt>
      <trkpt lat="46.58985" lon="5.32219">
        <ele>206.4</ele>
        <time>2021-11-20T13:48:27Z</time>
      </trkpt>
      <trkpt lat="46.58972" lon="5.32219">
        <ele>206.4</ele>
        <time>2021-11-20T13:48:29Z</time>
      </trkpt>
      <trkpt lat="46.58959" lon="5.32216">
        <ele>206.4</ele>
        <time>2021-11-20T13:48:31Z</time>
      </trkpt>
      <trkpt lat="46.58945" lon="5.32215">
        <ele>206.4</ele>
        <time>2021-11-20T13:48:33Z</time>
      </trkpt>
      <trkpt lat="46.58933" lon="5.32209">
        <ele>206.4</ele>
        <time>2021-11-20T13:48:35Z</time>
      </trkpt>
      <trkpt lat="46.58922" lon="5.32198">
        <ele>206.4</ele>
        <time>2021-11-20T13:48:37Z</time>
      </trkpt>
      <trkpt lat="46.58914" lon="5.32184">
        <ele>206.4</ele>
        <time>2021-11-20T13:48:39Z</time>
      </trkpt>
      <trkpt lat="46.58895" lon="5.32134">
        <ele>206.6</ele>
        <time>2021-11-20T13:48:45Z</time>
      </trkpt>
      <trkpt lat="46.58881" lon="5.32104">
        <ele>207</ele>
        <time>2021-11-20T13:48:49Z</time>
      </trkpt>
      <trkpt lat="46.58876" lon="5.32098">
        <ele>207</ele>
        <time>2021-11-20T13:48:50Z</time>
      </trkpt>
      <trkpt lat="46.58871" lon="5.32094">
        <ele>207.2</ele>
        <time>2021-11-20T13:48:51Z</time>
      </trkpt>
      <trkpt lat="46.58859" lon="5.32088">
        <ele>207.2</ele>
        <time>2021-11-20T13:48:53Z</time>
      </trkpt>
      <trkpt lat="46.58853" lon="5.32086">
        <ele>207.2</ele>
        <time>2021-11-20T13:48:54Z</time>
      </trkpt>
      <trkpt lat="46.58847" lon="5.32086">
        <ele>207.2</ele>
        <time>2021-11-20T13:48:55Z</time>
      </trkpt>
      <trkpt lat="46.58829" lon="5.3209">
        <ele>207.4</ele>
        <time>2021-11-20T13:48:58Z</time>
      </trkpt>
      <trkpt lat="46.5877" lon="5.32103">
        <ele>207.4</ele>
        <time>2021-11-20T13:49:07Z</time>
      </trkpt>
      <trkpt lat="46.58744" lon="5.32104">
        <ele>207.8</ele>
        <time>2021-11-20T13:49:11Z</time>
      </trkpt>
      <trkpt lat="46.58725" lon="5.32102">
        <ele>208</ele>
        <time>2021-11-20T13:49:14Z</time>
      </trkpt>
      <trkpt lat="46.58694" lon="5.32098">
        <ele>208.2</ele>
        <time>2021-11-20T13:49:19Z</time>
      </trkpt>
      <trkpt lat="46.58683" lon="5.32094">
        <ele>208.4</ele>
        <time>2021-11-20T13:49:21Z</time>
      </trkpt>
      <trkpt lat="46.5864" lon="5.3207">
        <ele>209.2</ele>
        <time>2021-11-20T13:49:29Z</time>
      </trkpt>
      <trkpt lat="46.58635" lon="5.32067">
        <ele>209.2</ele>
        <time>2021-11-20T13:49:30Z</time>
      </trkpt>
      <trkpt lat="46.58602" lon="5.32048">
        <ele>210.4</ele>
        <time>2021-11-20T13:49:36Z</time>
      </trkpt>
      <trkpt lat="46.58592" lon="5.32039">
        <ele>210.8</ele>
        <time>2021-11-20T13:49:38Z</time>
      </trkpt>
      <trkpt lat="46.58577" lon="5.32027">
        <ele>211.4</ele>
        <time>2021-11-20T13:49:41Z</time>
      </trkpt>
      <trkpt lat="46.5856" lon="5.3202">
        <ele>211.8</ele>
        <time>2021-11-20T13:49:44Z</time>
      </trkpt>
      <trkpt lat="46.58532" lon="5.3202">
        <ele>212.2</ele>
        <time>2021-11-20T13:49:49Z</time>
      </trkpt>
      <trkpt lat="46.58521" lon="5.32021">
        <ele>212.4</ele>
        <time>2021-11-20T13:49:51Z</time>
      </trkpt>
      <trkpt lat="46.58515" lon="5.32022">
        <ele>212.6</ele>
        <time>2021-11-20T13:49:52Z</time>
      </trkpt>
      <trkpt lat="46.58493" lon="5.32019">
        <ele>212.8</ele>
        <time>2021-11-20T13:49:56Z</time>
      </trkpt>
      <trkpt lat="46.58468" lon="5.32012">
        <ele>213.6</ele>
        <time>2021-11-20T13:50:01Z</time>
      </trkpt>
      <trkpt lat="46.58453" lon="5.32011">
        <ele>214</ele>
        <time>2021-11-20T13:50:04Z</time>
      </trkpt>
      <trkpt lat="46.58438" lon="5.32009">
        <ele>214.8</ele>
        <time>2021-11-20T13:50:07Z</time>
      </trkpt>
      <trkpt lat="46.58413" lon="5.32008">
        <ele>216</ele>
        <time>2021-11-20T13:50:12Z</time>
      </trkpt>
      <trkpt lat="46.58398" lon="5.32006">
        <ele>216.4</ele>
        <time>2021-11-20T13:50:15Z</time>
      </trkpt>
      <trkpt lat="46.58388" lon="5.32003">
        <ele>217.2</ele>
        <time>2021-11-20T13:50:17Z</time>
      </trkpt>
      <trkpt lat="46.58363" lon="5.31993">
        <ele>218</ele>
        <time>2021-11-20T13:50:22Z</time>
      </trkpt>
      <trkpt lat="46.58354" lon="5.31987">
        <ele>218.2</ele>
        <time>2021-11-20T13:50:24Z</time>
      </trkpt>
      <trkpt lat="46.58324" lon="5.31971">
        <ele>219.4</ele>
        <time>2021-11-20T13:50:30Z</time>
      </trkpt>
      <trkpt lat="46.58314" lon="5.31969">
        <ele>219.8</ele>
        <time>2021-11-20T13:50:32Z</time>
      </trkpt>
      <trkpt lat="46.58287" lon="5.31967">
        <ele>220.4</ele>
        <time>2021-11-20T13:50:37Z</time>
      </trkpt>
      <trkpt lat="46.58265" lon="5.31966">
        <ele>220.8</ele>
        <time>2021-11-20T13:50:41Z</time>
      </trkpt>
      <trkpt lat="46.58238" lon="5.31961">
        <ele>221.4</ele>
        <time>2021-11-20T13:50:46Z</time>
      </trkpt>
      <trkpt lat="46.58228" lon="5.31957">
        <ele>221.6</ele>
        <time>2021-11-20T13:50:48Z</time>
      </trkpt>
      <trkpt lat="46.58187" lon="5.3194">
        <ele>222.4</ele>
        <time>2021-11-20T13:50:56Z</time>
      </trkpt>
      <trkpt lat="46.58182" lon="5.31938">
        <ele>222.6</ele>
        <time>2021-11-20T13:50:57Z</time>
      </trkpt>
      <trkpt lat="46.58145" lon="5.31924">
        <ele>223.4</ele>
        <time>2021-11-20T13:51:05Z</time>
      </trkpt>
      <trkpt lat="46.58131" lon="5.31918">
        <ele>223.8</ele>
        <time>2021-11-20T13:51:08Z</time>
      </trkpt>
      <trkpt lat="46.58117" lon="5.31911">
        <ele>224.6</ele>
        <time>2021-11-20T13:51:11Z</time>
      </trkpt>
      <trkpt lat="46.58112" lon="5.31909">
        <ele>224.6</ele>
        <time>2021-11-20T13:51:12Z</time>
      </trkpt>
      <trkpt lat="46.58086" lon="5.31895">
        <ele>225.6</ele>
        <time>2021-11-20T13:51:17Z</time>
      </trkpt>
      <trkpt lat="46.5807" lon="5.31886">
        <ele>225.8</ele>
        <time>2021-11-20T13:51:20Z</time>
      </trkpt>
      <trkpt lat="46.58032" lon="5.31852">
        <ele>226.2</ele>
        <time>2021-11-20T13:51:28Z</time>
      </trkpt>
      <trkpt lat="46.58018" lon="5.3184">
        <ele>226.6</ele>
        <time>2021-11-20T13:51:31Z</time>
      </trkpt>
      <trkpt lat="46.58009" lon="5.31832">
        <ele>226.6</ele>
        <time>2021-11-20T13:51:33Z</time>
      </trkpt>
      <trkpt lat="46.58" lon="5.31826">
        <ele>226.8</ele>
        <time>2021-11-20T13:51:35Z</time>
      </trkpt>
      <trkpt lat="46.57991" lon="5.3182">
        <ele>227.6</ele>
        <time>2021-11-20T13:51:37Z</time>
      </trkpt>
      <trkpt lat="46.57986" lon="5.31818">
        <ele>227.8</ele>
        <time>2021-11-20T13:51:38Z</time>
      </trkpt>
      <trkpt lat="46.57981" lon="5.31815">
        <ele>228</ele>
        <time>2021-11-20T13:51:39Z</time>
      </trkpt>
      <trkpt lat="46.57971" lon="5.31809">
        <ele>228.4</ele>
        <time>2021-11-20T13:51:41Z</time>
      </trkpt>
      <trkpt lat="46.57956" lon="5.31799">
        <ele>228.8</ele>
        <time>2021-11-20T13:51:44Z</time>
      </trkpt>
      <trkpt lat="46.57929" lon="5.31787">
        <ele>229.2</ele>
        <time>2021-11-20T13:51:49Z</time>
      </trkpt>
      <trkpt lat="46.57882" lon="5.31766">
        <ele>230</ele>
        <time>2021-11-20T13:51:58Z</time>
      </trkpt>
      <trkpt lat="46.57826" lon="5.31743">
        <ele>230.8</ele>
        <time>2021-11-20T13:52:08Z</time>
      </trkpt>
      <trkpt lat="46.57821" lon="5.31741">
        <ele>230.8</ele>
        <time>2021-11-20T13:52:09Z</time>
      </trkpt>
      <trkpt lat="46.57792" lon="5.31728">
        <ele>231.2</ele>
        <time>2021-11-20T13:52:14Z</time>
      </trkpt>
      <trkpt lat="46.57786" lon="5.31726">
        <ele>231.2</ele>
        <time>2021-11-20T13:52:15Z</time>
      </trkpt>
      <trkpt lat="46.5773" lon="5.31704">
        <ele>231.8</ele>
        <time>2021-11-20T13:52:25Z</time>
      </trkpt>
      <trkpt lat="46.57696" lon="5.3169">
        <ele>232.2</ele>
        <time>2021-11-20T13:52:31Z</time>
      </trkpt>
      <trkpt lat="46.5768" lon="5.31682">
        <ele>232.4</ele>
        <time>2021-11-20T13:52:34Z</time>
      </trkpt>
      <trkpt lat="46.57625" lon="5.3166">
        <ele>233.2</ele>
        <time>2021-11-20T13:52:44Z</time>
      </trkpt>
      <trkpt lat="46.57619" lon="5.31658">
        <ele>233.2</ele>
        <time>2021-11-20T13:52:45Z</time>
      </trkpt>
      <trkpt lat="46.57572" lon="5.31638">
        <ele>233.6</ele>
        <time>2021-11-20T13:52:53Z</time>
      </trkpt>
      <trkpt lat="46.57532" lon="5.31624">
        <ele>233.6</ele>
        <time>2021-11-20T13:53:00Z</time>
      </trkpt>
      <trkpt lat="46.57513" lon="5.31616">
        <ele>233.8</ele>
        <time>2021-11-20T13:53:04Z</time>
      </trkpt>
      <trkpt lat="46.57485" lon="5.31611">
        <ele>233.8</ele>
        <time>2021-11-20T13:53:09Z</time>
      </trkpt>
      <trkpt lat="46.57479" lon="5.31611">
        <ele>233.8</ele>
        <time>2021-11-20T13:53:10Z</time>
      </trkpt>
      <trkpt lat="46.57438" lon="5.31614">
        <ele>234</ele>
        <time>2021-11-20T13:53:16Z</time>
      </trkpt>
      <trkpt lat="46.57391" lon="5.31618">
        <ele>234.2</ele>
        <time>2021-11-20T13:53:23Z</time>
      </trkpt>
      <trkpt lat="46.57358" lon="5.3163">
        <ele>234.2</ele>
        <time>2021-11-20T13:53:28Z</time>
      </trkpt>
      <trkpt lat="46.57326" lon="5.31639">
        <ele>234.2</ele>
        <time>2021-11-20T13:53:33Z</time>
      </trkpt>
      <trkpt lat="46.57282" lon="5.31648">
        <ele>234.6</ele>
        <time>2021-11-20T13:53:40Z</time>
      </trkpt>
      <trkpt lat="46.57226" lon="5.31652">
        <ele>234.6</ele>
        <time>2021-11-20T13:53:49Z</time>
      </trkpt>
      <trkpt lat="46.57176" lon="5.31655">
        <ele>234.8</ele>
        <time>2021-11-20T13:53:57Z</time>
      </trkpt>
      <trkpt lat="46.57115" lon="5.31658">
        <ele>234.6</ele>
        <time>2021-11-20T13:54:06Z</time>
      </trkpt>
      <trkpt lat="46.57058" lon="5.31664">
        <ele>234.2</ele>
        <time>2021-11-20T13:54:14Z</time>
      </trkpt>
      <trkpt lat="46.57" lon="5.31672">
        <ele>233.8</ele>
        <time>2021-11-20T13:54:22Z</time>
      </trkpt>
      <trkpt lat="46.56993" lon="5.31674">
        <ele>233.8</ele>
        <time>2021-11-20T13:54:23Z</time>
      </trkpt>
      <trkpt lat="46.56935" lon="5.31682">
        <ele>233.8</ele>
        <time>2021-11-20T13:54:31Z</time>
      </trkpt>
      <trkpt lat="46.56879" lon="5.31681">
        <ele>233.8</ele>
        <time>2021-11-20T13:54:39Z</time>
      </trkpt>
      <trkpt lat="46.56865" lon="5.31682">
        <ele>233.8</ele>
        <time>2021-11-20T13:54:41Z</time>
      </trkpt>
      <trkpt lat="46.56858" lon="5.31683">
        <ele>234</ele>
        <time>2021-11-20T13:54:42Z</time>
      </trkpt>
      <trkpt lat="46.56838" lon="5.31693">
        <ele>234</ele>
        <time>2021-11-20T13:54:45Z</time>
      </trkpt>
      <trkpt lat="46.568" lon="5.3173">
        <ele>234.4</ele>
        <time>2021-11-20T13:54:52Z</time>
      </trkpt>
      <trkpt lat="46.56751" lon="5.31777">
        <ele>235</ele>
        <time>2021-11-20T13:55:01Z</time>
      </trkpt>
      <trkpt lat="46.56706" lon="5.3182">
        <ele>235</ele>
        <time>2021-11-20T13:55:09Z</time>
      </trkpt>
      <trkpt lat="46.56656" lon="5.31869">
        <ele>234.4</ele>
        <time>2021-11-20T13:55:17Z</time>
      </trkpt>
      <trkpt lat="46.56645" lon="5.3188">
        <ele>234</ele>
        <time>2021-11-20T13:55:19Z</time>
      </trkpt>
      <trkpt lat="46.56598" lon="5.31925">
        <ele>234</ele>
        <time>2021-11-20T13:55:27Z</time>
      </trkpt>
      <trkpt lat="46.56592" lon="5.31929">
        <ele>234</ele>
        <time>2021-11-20T13:55:28Z</time>
      </trkpt>
      <trkpt lat="46.56556" lon="5.31947">
        <ele>234</ele>
        <time>2021-11-20T13:55:34Z</time>
      </trkpt>
      <trkpt lat="46.56509" lon="5.31954">
        <ele>234.2</ele>
        <time>2021-11-20T13:55:41Z</time>
      </trkpt>
      <trkpt lat="46.56453" lon="5.31957">
        <ele>234.8</ele>
        <time>2021-11-20T13:55:50Z</time>
      </trkpt>
      <trkpt lat="46.5644" lon="5.31958">
        <ele>235</ele>
        <time>2021-11-20T13:55:52Z</time>
      </trkpt>
      <trkpt lat="46.56385" lon="5.3197">
        <ele>235</ele>
        <time>2021-11-20T13:56:00Z</time>
      </trkpt>
      <trkpt lat="46.56345" lon="5.31997">
        <ele>234.6</ele>
        <time>2021-11-20T13:56:06Z</time>
      </trkpt>
      <trkpt lat="46.56297" lon="5.32033">
        <ele>234.4</ele>
        <time>2021-11-20T13:56:14Z</time>
      </trkpt>
      <trkpt lat="46.56284" lon="5.32043">
        <ele>234.4</ele>
        <time>2021-11-20T13:56:16Z</time>
      </trkpt>
      <trkpt lat="46.56245" lon="5.32078">
        <ele>234.6</ele>
        <time>2021-11-20T13:56:23Z</time>
      </trkpt>
      <trkpt lat="46.56204" lon="5.32132">
        <ele>235.4</ele>
        <time>2021-11-20T13:56:31Z</time>
      </trkpt>
      <trkpt lat="46.56192" lon="5.32147">
        <ele>235.4</ele>
        <time>2021-11-20T13:56:33Z</time>
      </trkpt>
      <trkpt lat="46.5615" lon="5.322">
        <ele>234.8</ele>
        <time>2021-11-20T13:56:41Z</time>
      </trkpt>
      <trkpt lat="46.56145" lon="5.32206">
        <ele>234.8</ele>
        <time>2021-11-20T13:56:42Z</time>
      </trkpt>
      <trkpt lat="46.56098" lon="5.32263">
        <ele>234</ele>
        <time>2021-11-20T13:56:50Z</time>
      </trkpt>
      <trkpt lat="46.56092" lon="5.32271">
        <ele>234</ele>
        <time>2021-11-20T13:56:51Z</time>
      </trkpt>
      <trkpt lat="46.56086" lon="5.32278">
        <ele>233.8</ele>
        <time>2021-11-20T13:56:52Z</time>
      </trkpt>
      <trkpt lat="46.5606" lon="5.32309">
        <ele>232.6</ele>
        <time>2021-11-20T13:56:56Z</time>
      </trkpt>
      <trkpt lat="46.56041" lon="5.32334">
        <ele>232.2</ele>
        <time>2021-11-20T13:56:59Z</time>
      </trkpt>
      <trkpt lat="46.56028" lon="5.3235">
        <ele>231.6</ele>
        <time>2021-11-20T13:57:01Z</time>
      </trkpt>
      <trkpt lat="46.5601" lon="5.32378">
        <ele>230.4</ele>
        <time>2021-11-20T13:57:04Z</time>
      </trkpt>
      <trkpt lat="46.55999" lon="5.32401">
        <ele>230</ele>
        <time>2021-11-20T13:57:06Z</time>
      </trkpt>
      <trkpt lat="46.5599" lon="5.32422">
        <ele>229.4</ele>
        <time>2021-11-20T13:57:08Z</time>
      </trkpt>
      <trkpt lat="46.55963" lon="5.32486">
        <ele>228.4</ele>
        <time>2021-11-20T13:57:14Z</time>
      </trkpt>
      <trkpt lat="46.55945" lon="5.32528">
        <ele>228</ele>
        <time>2021-11-20T13:57:18Z</time>
      </trkpt>
      <trkpt lat="46.55914" lon="5.326">
        <ele>227.6</ele>
        <time>2021-11-20T13:57:25Z</time>
      </trkpt>
      <trkpt lat="46.55909" lon="5.32609">
        <ele>227.6</ele>
        <time>2021-11-20T13:57:26Z</time>
      </trkpt>
      <trkpt lat="46.55904" lon="5.32619">
        <ele>227.4</ele>
        <time>2021-11-20T13:57:27Z</time>
      </trkpt>
      <trkpt lat="46.55889" lon="5.32636">
        <ele>227.4</ele>
        <time>2021-11-20T13:57:29Z</time>
      </trkpt>
      <trkpt lat="46.55884" lon="5.32641">
        <ele>227.2</ele>
        <time>2021-11-20T13:57:30Z</time>
      </trkpt>
      <trkpt lat="46.55877" lon="5.32646">
        <ele>227.2</ele>
        <time>2021-11-20T13:57:31Z</time>
      </trkpt>
      <trkpt lat="46.55854" lon="5.32656">
        <ele>227</ele>
        <time>2021-11-20T13:57:34Z</time>
      </trkpt>
      <trkpt lat="46.55807" lon="5.32662">
        <ele>227</ele>
        <time>2021-11-20T13:57:40Z</time>
      </trkpt>
      <trkpt lat="46.55785" lon="5.32667">
        <ele>227</ele>
        <time>2021-11-20T13:57:43Z</time>
      </trkpt>
      <trkpt lat="46.55778" lon="5.32671">
        <ele>227</ele>
        <time>2021-11-20T13:57:44Z</time>
      </trkpt>
      <trkpt lat="46.5577" lon="5.32676">
        <ele>227</ele>
        <time>2021-11-20T13:57:45Z</time>
      </trkpt>
      <trkpt lat="46.5576" lon="5.32687">
        <ele>227</ele>
        <time>2021-11-20T13:57:47Z</time>
      </trkpt>
      <trkpt lat="46.55754" lon="5.32696">
        <ele>227</ele>
        <time>2021-11-20T13:57:48Z</time>
      </trkpt>
      <trkpt lat="46.5575" lon="5.32704">
        <ele>227</ele>
        <time>2021-11-20T13:57:49Z</time>
      </trkpt>
      <trkpt lat="46.55742" lon="5.32731">
        <ele>227</ele>
        <time>2021-11-20T13:57:52Z</time>
      </trkpt>
      <trkpt lat="46.55725" lon="5.32809">
        <ele>227.4</ele>
        <time>2021-11-20T13:58:00Z</time>
      </trkpt>
      <trkpt lat="46.55719" lon="5.32837">
        <ele>227.4</ele>
        <time>2021-11-20T13:58:03Z</time>
      </trkpt>
      <trkpt lat="46.55706" lon="5.32914">
        <ele>227.4</ele>
        <time>2021-11-20T13:58:11Z</time>
      </trkpt>
      <trkpt lat="46.55704" lon="5.32924">
        <ele>227.4</ele>
        <time>2021-11-20T13:58:12Z</time>
      </trkpt>
      <trkpt lat="46.5569" lon="5.33007">
        <ele>227</ele>
        <time>2021-11-20T13:58:20Z</time>
      </trkpt>
      <trkpt lat="46.55688" lon="5.33018">
        <ele>227</ele>
        <time>2021-11-20T13:58:21Z</time>
      </trkpt>
      <trkpt lat="46.55673" lon="5.3309">
        <ele>226.4</ele>
        <time>2021-11-20T13:58:28Z</time>
      </trkpt>
      <trkpt lat="46.55666" lon="5.3312">
        <ele>226.4</ele>
        <time>2021-11-20T13:58:31Z</time>
      </trkpt>
      <trkpt lat="46.55646" lon="5.33198">
        <ele>226.4</ele>
        <time>2021-11-20T13:58:39Z</time>
      </trkpt>
      <trkpt lat="46.55644" lon="5.33207">
        <ele>226.4</ele>
        <time>2021-11-20T13:58:40Z</time>
      </trkpt>
      <trkpt lat="46.55623" lon="5.33281">
        <ele>226.8</ele>
        <time>2021-11-20T13:58:48Z</time>
      </trkpt>
      <trkpt lat="46.55614" lon="5.33309">
        <ele>226.8</ele>
        <time>2021-11-20T13:58:51Z</time>
      </trkpt>
      <trkpt lat="46.55598" lon="5.3337">
        <ele>227</ele>
        <time>2021-11-20T13:58:58Z</time>
      </trkpt>
      <trkpt lat="46.55592" lon="5.33434">
        <ele>227.6</ele>
        <time>2021-11-20T13:59:05Z</time>
      </trkpt>
      <trkpt lat="46.5559" lon="5.33459">
        <ele>228</ele>
        <time>2021-11-20T13:59:08Z</time>
      </trkpt>
      <trkpt lat="46.55585" lon="5.33482">
        <ele>228.2</ele>
        <time>2021-11-20T13:59:11Z</time>
      </trkpt>
      <trkpt lat="46.55583" lon="5.33488">
        <ele>228.2</ele>
        <time>2021-11-20T13:59:12Z</time>
      </trkpt>
      <trkpt lat="46.5558" lon="5.33496">
        <ele>228.6</ele>
        <time>2021-11-20T13:59:13Z</time>
      </trkpt>
      <trkpt lat="46.55578" lon="5.33503">
        <ele>228.8</ele>
        <time>2021-11-20T13:59:14Z</time>
      </trkpt>
      <trkpt lat="46.55575" lon="5.33509">
        <ele>229</ele>
        <time>2021-11-20T13:59:15Z</time>
      </trkpt>
      <trkpt lat="46.55562" lon="5.33529">
        <ele>230</ele>
        <time>2021-11-20T13:59:19Z</time>
      </trkpt>
      <trkpt lat="46.5555" lon="5.33544">
        <ele>230.8</ele>
        <time>2021-11-20T13:59:22Z</time>
      </trkpt>
      <trkpt lat="46.55547" lon="5.33548">
        <ele>231.2</ele>
        <time>2021-11-20T13:59:23Z</time>
      </trkpt>
      <trkpt lat="46.55524" lon="5.33577">
        <ele>232.2</ele>
        <time>2021-11-20T13:59:29Z</time>
      </trkpt>
      <trkpt lat="46.5552" lon="5.33582">
        <ele>232.4</ele>
        <time>2021-11-20T13:59:30Z</time>
      </trkpt>
      <trkpt lat="46.55506" lon="5.336">
        <ele>233.2</ele>
        <time>2021-11-20T13:59:34Z</time>
      </trkpt>
      <trkpt lat="46.555" lon="5.33609">
        <ele>233.6</ele>
        <time>2021-11-20T13:59:36Z</time>
      </trkpt>
      <trkpt lat="46.55496" lon="5.33615">
        <ele>233.8</ele>
        <time>2021-11-20T13:59:37Z</time>
      </trkpt>
      <trkpt lat="46.55485" lon="5.3363">
        <ele>234.4</ele>
        <time>2021-11-20T13:59:40Z</time>
      </trkpt>
      <trkpt lat="46.55459" lon="5.33667">
        <ele>235.4</ele>
        <time>2021-11-20T13:59:47Z</time>
      </trkpt>
      <trkpt lat="46.55429" lon="5.33709">
        <ele>236.4</ele>
        <time>2021-11-20T13:59:55Z</time>
      </trkpt>
      <trkpt lat="46.55424" lon="5.33715">
        <ele>236.6</ele>
        <time>2021-11-20T13:59:56Z</time>
      </trkpt>
      <trkpt lat="46.55392" lon="5.3375">
        <ele>236.6</ele>
        <time>2021-11-20T14:00:03Z</time>
      </trkpt>
      <trkpt lat="46.55355" lon="5.33777">
        <ele>236.8</ele>
        <time>2021-11-20T14:00:10Z</time>
      </trkpt>
      <trkpt lat="46.55312" lon="5.33824">
        <ele>237</ele>
        <time>2021-11-20T14:00:19Z</time>
      </trkpt>
      <trkpt lat="46.55289" lon="5.33852">
        <ele>237.4</ele>
        <time>2021-11-20T14:00:24Z</time>
      </trkpt>
      <trkpt lat="46.5528" lon="5.33864">
        <ele>237.4</ele>
        <time>2021-11-20T14:00:26Z</time>
      </trkpt>
      <trkpt lat="46.55273" lon="5.33878">
        <ele>237.6</ele>
        <time>2021-11-20T14:00:28Z</time>
      </trkpt>
      <trkpt lat="46.55235" lon="5.33942">
        <ele>238.4</ele>
        <time>2021-11-20T14:00:37Z</time>
      </trkpt>
      <trkpt lat="46.552" lon="5.3399">
        <ele>238</ele>
        <time>2021-11-20T14:00:45Z</time>
      </trkpt>
      <trkpt lat="46.55195" lon="5.33995">
        <ele>238</ele>
        <time>2021-11-20T14:00:46Z</time>
      </trkpt>
      <trkpt lat="46.55187" lon="5.33999">
        <ele>237.8</ele>
        <time>2021-11-20T14:00:48Z</time>
      </trkpt>
      <trkpt lat="46.55178" lon="5.33993">
        <ele>237.6</ele>
        <time>2021-11-20T14:00:50Z</time>
      </trkpt>
      <trkpt lat="46.55174" lon="5.33986">
        <ele>237.6</ele>
        <time>2021-11-20T14:00:51Z</time>
      </trkpt>
      <trkpt lat="46.55163" lon="5.33961">
        <ele>237.2</ele>
        <time>2021-11-20T14:00:54Z</time>
      </trkpt>
      <trkpt lat="46.55147" lon="5.3393">
        <ele>236.2</ele>
        <time>2021-11-20T14:00:57Z</time>
      </trkpt>
      <trkpt lat="46.55136" lon="5.33912">
        <ele>235.6</ele>
        <time>2021-11-20T14:00:59Z</time>
      </trkpt>
      <trkpt lat="46.55129" lon="5.33902">
        <ele>234.8</ele>
        <time>2021-11-20T14:01:00Z</time>
      </trkpt>
      <trkpt lat="46.55109" lon="5.33872">
        <ele>233.8</ele>
        <time>2021-11-20T14:01:03Z</time>
      </trkpt>
      <trkpt lat="46.55089" lon="5.33845">
        <ele>232.6</ele>
        <time>2021-11-20T14:01:06Z</time>
      </trkpt>
      <trkpt lat="46.55065" lon="5.3382">
        <ele>231.4</ele>
        <time>2021-11-20T14:01:09Z</time>
      </trkpt>
      <trkpt lat="46.55048" lon="5.33808">
        <ele>230.6</ele>
        <time>2021-11-20T14:01:11Z</time>
      </trkpt>
      <trkpt lat="46.55032" lon="5.33798">
        <ele>230.2</ele>
        <time>2021-11-20T14:01:13Z</time>
      </trkpt>
      <trkpt lat="46.55008" lon="5.33789">
        <ele>229.6</ele>
        <time>2021-11-20T14:01:16Z</time>
      </trkpt>
      <trkpt lat="46.5498" lon="5.33781">
        <ele>229</ele>
        <time>2021-11-20T14:01:19Z</time>
      </trkpt>
      <trkpt lat="46.54946" lon="5.33774">
        <ele>228.2</ele>
        <time>2021-11-20T14:01:23Z</time>
      </trkpt>
      <trkpt lat="46.54932" lon="5.33771">
        <ele>228.2</ele>
        <time>2021-11-20T14:01:25Z</time>
      </trkpt>
      <trkpt lat="46.54893" lon="5.33769">
        <ele>228</ele>
        <time>2021-11-20T14:01:30Z</time>
      </trkpt>
      <trkpt lat="46.54858" lon="5.33776">
        <ele>227.8</ele>
        <time>2021-11-20T14:01:35Z</time>
      </trkpt>
      <trkpt lat="46.54805" lon="5.33778">
        <ele>228.6</ele>
        <time>2021-11-20T14:01:43Z</time>
      </trkpt>
      <trkpt lat="46.54776" lon="5.33776">
        <ele>229.2</ele>
        <time>2021-11-20T14:01:48Z</time>
      </trkpt>
      <trkpt lat="46.54769" lon="5.33775">
        <ele>229.4</ele>
        <time>2021-11-20T14:01:49Z</time>
      </trkpt>
      <trkpt lat="46.54741" lon="5.33776">
        <ele>230</ele>
        <time>2021-11-20T14:01:54Z</time>
      </trkpt>
      <trkpt lat="46.54735" lon="5.33777">
        <ele>230.2</ele>
        <time>2021-11-20T14:01:55Z</time>
      </trkpt>
      <trkpt lat="46.54724" lon="5.33779">
        <ele>230.4</ele>
        <time>2021-11-20T14:01:57Z</time>
      </trkpt>
      <trkpt lat="46.54703" lon="5.33787">
        <ele>231.4</ele>
        <time>2021-11-20T14:02:01Z</time>
      </trkpt>
      <trkpt lat="46.54699" lon="5.33788">
        <ele>231.6</ele>
        <time>2021-11-20T14:02:02Z</time>
      </trkpt>
      <trkpt lat="46.54683" lon="5.33788">
        <ele>232.4</ele>
        <time>2021-11-20T14:02:05Z</time>
      </trkpt>
      <trkpt lat="46.54673" lon="5.33788">
        <ele>232.8</ele>
        <time>2021-11-20T14:02:07Z</time>
      </trkpt>
      <trkpt lat="46.54669" lon="5.33788">
        <ele>233.2</ele>
        <time>2021-11-20T14:02:08Z</time>
      </trkpt>
      <trkpt lat="46.54659" lon="5.33786">
        <ele>233.6</ele>
        <time>2021-11-20T14:02:10Z</time>
      </trkpt>
      <trkpt lat="46.54635" lon="5.33783">
        <ele>234.6</ele>
        <time>2021-11-20T14:02:15Z</time>
      </trkpt>
      <trkpt lat="46.54625" lon="5.3378">
        <ele>234.8</ele>
        <time>2021-11-20T14:02:17Z</time>
      </trkpt>
      <trkpt lat="46.54604" lon="5.33774">
        <ele>235.6</ele>
        <time>2021-11-20T14:02:21Z</time>
      </trkpt>
      <trkpt lat="46.54586" lon="5.33768">
        <ele>236</ele>
        <time>2021-11-20T14:02:24Z</time>
      </trkpt>
      <trkpt lat="46.54543" lon="5.33747">
        <ele>235.6</ele>
        <time>2021-11-20T14:02:30Z</time>
      </trkpt>
      <trkpt lat="46.54517" lon="5.33733">
        <ele>234.6</ele>
        <time>2021-11-20T14:02:33Z</time>
      </trkpt>
      <trkpt lat="46.54492" lon="5.3372">
        <ele>233.2</ele>
        <time>2021-11-20T14:02:36Z</time>
      </trkpt>
      <trkpt lat="46.54472" lon="5.33709">
        <ele>232</ele>
        <time>2021-11-20T14:02:38Z</time>
      </trkpt>
      <trkpt lat="46.54455" lon="5.33701">
        <ele>230.8</ele>
        <time>2021-11-20T14:02:40Z</time>
      </trkpt>
      <trkpt lat="46.54436" lon="5.33692">
        <ele>229.6</ele>
        <time>2021-11-20T14:02:42Z</time>
      </trkpt>
      <trkpt lat="46.54424" lon="5.33686">
        <ele>229.4</ele>
        <time>2021-11-20T14:02:43Z</time>
      </trkpt>
      <trkpt lat="46.54406" lon="5.33679">
        <ele>228.4</ele>
        <time>2021-11-20T14:02:45Z</time>
      </trkpt>
      <trkpt lat="46.54394" lon="5.33673">
        <ele>227.4</ele>
        <time>2021-11-20T14:02:46Z</time>
      </trkpt>
      <trkpt lat="46.54375" lon="5.33665">
        <ele>225.8</ele>
        <time>2021-11-20T14:02:48Z</time>
      </trkpt>
      <trkpt lat="46.54358" lon="5.3366">
        <ele>224.8</ele>
        <time>2021-11-20T14:02:50Z</time>
      </trkpt>
      <trkpt lat="46.5433" lon="5.33654">
        <ele>223.6</ele>
        <time>2021-11-20T14:02:53Z</time>
      </trkpt>
      <trkpt lat="46.54322" lon="5.33653">
        <ele>223.4</ele>
        <time>2021-11-20T14:02:54Z</time>
      </trkpt>
      <trkpt lat="46.54287" lon="5.33651">
        <ele>223</ele>
        <time>2021-11-20T14:02:59Z</time>
      </trkpt>
      <trkpt lat="46.54277" lon="5.3365">
        <ele>223.4</ele>
        <time>2021-11-20T14:03:01Z</time>
      </trkpt>
      <trkpt lat="46.54266" lon="5.33648">
        <ele>223.8</ele>
        <time>2021-11-20T14:03:03Z</time>
      </trkpt>
      <trkpt lat="46.54256" lon="5.33647">
        <ele>224.2</ele>
        <time>2021-11-20T14:03:05Z</time>
      </trkpt>
      <trkpt lat="46.54252" lon="5.33646">
        <ele>224.6</ele>
        <time>2021-11-20T14:03:06Z</time>
      </trkpt>
      <trkpt lat="46.54241" lon="5.33646">
        <ele>224.8</ele>
        <time>2021-11-20T14:03:08Z</time>
      </trkpt>
      <trkpt lat="46.54213" lon="5.33646">
        <ele>225.4</ele>
        <time>2021-11-20T14:03:13Z</time>
      </trkpt>
      <trkpt lat="46.54171" lon="5.33644">
        <ele>225.2</ele>
        <time>2021-11-20T14:03:18Z</time>
      </trkpt>
      <trkpt lat="46.54126" lon="5.33633">
        <ele>223.8</ele>
        <time>2021-11-20T14:03:22Z</time>
      </trkpt>
      <trkpt lat="46.54118" lon="5.33629">
        <ele>223.2</ele>
        <time>2021-11-20T14:03:23Z</time>
      </trkpt>
      <trkpt lat="46.54083" lon="5.33608">
        <ele>221.8</ele>
        <time>2021-11-20T14:03:27Z</time>
      </trkpt>
      <trkpt lat="46.54044" lon="5.33584">
        <ele>220.6</ele>
        <time>2021-11-20T14:03:32Z</time>
      </trkpt>
      <trkpt lat="46.54037" lon="5.3358">
        <ele>220.6</ele>
        <time>2021-11-20T14:03:33Z</time>
      </trkpt>
      <trkpt lat="46.54013" lon="5.33568">
        <ele>220.6</ele>
        <time>2021-11-20T14:03:37Z</time>
      </trkpt>
      <trkpt lat="46.54007" lon="5.33567">
        <ele>220.6</ele>
        <time>2021-11-20T14:03:38Z</time>
      </trkpt>
      <trkpt lat="46.53991" lon="5.33565">
        <ele>221.6</ele>
        <time>2021-11-20T14:03:41Z</time>
      </trkpt>
      <trkpt lat="46.53981" lon="5.33563">
        <ele>222.6</ele>
        <time>2021-11-20T14:03:43Z</time>
      </trkpt>
      <trkpt lat="46.53962" lon="5.33562">
        <ele>224</ele>
        <time>2021-11-20T14:03:47Z</time>
      </trkpt>
      <trkpt lat="46.53957" lon="5.33561">
        <ele>224.2</ele>
        <time>2021-11-20T14:03:48Z</time>
      </trkpt>
      <trkpt lat="46.53948" lon="5.33559">
        <ele>225.2</ele>
        <time>2021-11-20T14:03:50Z</time>
      </trkpt>
      <trkpt lat="46.53935" lon="5.33557">
        <ele>225.6</ele>
        <time>2021-11-20T14:03:53Z</time>
      </trkpt>
      <trkpt lat="46.53927" lon="5.33556">
        <ele>226.2</ele>
        <time>2021-11-20T14:03:55Z</time>
      </trkpt>
      <trkpt lat="46.53914" lon="5.33555">
        <ele>227.4</ele>
        <time>2021-11-20T14:03:58Z</time>
      </trkpt>
      <trkpt lat="46.53906" lon="5.33554">
        <ele>228</ele>
        <time>2021-11-20T14:04:00Z</time>
      </trkpt>
      <trkpt lat="46.53897" lon="5.33554">
        <ele>228.4</ele>
        <time>2021-11-20T14:04:02Z</time>
      </trkpt>
      <trkpt lat="46.53893" lon="5.33554">
        <ele>228.8</ele>
        <time>2021-11-20T14:04:03Z</time>
      </trkpt>
      <trkpt lat="46.53878" lon="5.33555">
        <ele>229.6</ele>
        <time>2021-11-20T14:04:06Z</time>
      </trkpt>
      <trkpt lat="46.53867" lon="5.33556">
        <ele>230.2</ele>
        <time>2021-11-20T14:04:08Z</time>
      </trkpt>
      <trkpt lat="46.53858" lon="5.33554">
        <ele>230.6</ele>
        <time>2021-11-20T14:04:11Z</time>
      </trkpt>
      <trkpt lat="46.53849" lon="5.33551">
        <ele>230.8</ele>
        <time>2021-11-20T14:04:12Z</time>
      </trkpt>
      <trkpt lat="46.53837" lon="5.33545">
        <ele>231.8</ele>
        <time>2021-11-20T14:04:15Z</time>
      </trkpt>
      <trkpt lat="46.53816" lon="5.33534">
        <ele>232.8</ele>
        <time>2021-11-20T14:04:20Z</time>
      </trkpt>
      <trkpt lat="46.53794" lon="5.33519">
        <ele>233.4</ele>
        <time>2021-11-20T14:04:25Z</time>
      </trkpt>
      <trkpt lat="46.53759" lon="5.33494">
        <ele>233.8</ele>
        <time>2021-11-20T14:04:33Z</time>
      </trkpt>
      <trkpt lat="46.53725" lon="5.33475">
        <ele>235</ele>
        <time>2021-11-20T14:04:41Z</time>
      </trkpt>
      <trkpt lat="46.53717" lon="5.33471">
        <ele>235.4</ele>
        <time>2021-11-20T14:04:43Z</time>
      </trkpt>
      <trkpt lat="46.53708" lon="5.33463">
        <ele>235.6</ele>
        <time>2021-11-20T14:04:46Z</time>
      </trkpt>
      <trkpt lat="46.53701" lon="5.33462">
        <ele>236.2</ele>
        <time>2021-11-20T14:04:48Z</time>
      </trkpt>
      <trkpt lat="46.53697" lon="5.33463">
        <ele>236.4</ele>
        <time>2021-11-20T14:04:49Z</time>
      </trkpt>
      <trkpt lat="46.53678" lon="5.3348">
        <ele>236.8</ele>
        <time>2021-11-20T14:04:53Z</time>
      </trkpt>
      <trkpt lat="46.53642" lon="5.33512">
        <ele>237</ele>
        <time>2021-11-20T14:05:00Z</time>
      </trkpt>
      <trkpt lat="46.53631" lon="5.33511">
        <ele>236.8</ele>
        <time>2021-11-20T14:05:02Z</time>
      </trkpt>
      <trkpt lat="46.53617" lon="5.33492">
        <ele>236.6</ele>
        <time>2021-11-20T14:05:05Z</time>
      </trkpt>
      <trkpt lat="46.5359" lon="5.33453">
        <ele>236</ele>
        <time>2021-11-20T14:05:11Z</time>
      </trkpt>
      <trkpt lat="46.53557" lon="5.33406">
        <ele>236.8</ele>
        <time>2021-11-20T14:05:19Z</time>
      </trkpt>
      <trkpt lat="46.5355" lon="5.33395">
        <ele>237.2</ele>
        <time>2021-11-20T14:05:21Z</time>
      </trkpt>
      <trkpt lat="46.53527" lon="5.33361">
        <ele>238.2</ele>
        <time>2021-11-20T14:05:27Z</time>
      </trkpt>
      <trkpt lat="46.53523" lon="5.33355">
        <ele>238.4</ele>
        <time>2021-11-20T14:05:28Z</time>
      </trkpt>
      <trkpt lat="46.53493" lon="5.33314">
        <ele>239.2</ele>
        <time>2021-11-20T14:05:35Z</time>
      </trkpt>
      <trkpt lat="46.53488" lon="5.33306">
        <ele>239.4</ele>
        <time>2021-11-20T14:05:36Z</time>
      </trkpt>
      <trkpt lat="46.53457" lon="5.33265">
        <ele>240.4</ele>
        <time>2021-11-20T14:05:43Z</time>
      </trkpt>
      <trkpt lat="46.53415" lon="5.33209">
        <ele>240.4</ele>
        <time>2021-11-20T14:05:52Z</time>
      </trkpt>
      <trkpt lat="46.53411" lon="5.33203">
        <ele>240.4</ele>
        <time>2021-11-20T14:05:53Z</time>
      </trkpt>
      <trkpt lat="46.5337" lon="5.33146">
        <ele>240.6</ele>
        <time>2021-11-20T14:06:02Z</time>
      </trkpt>
      <trkpt lat="46.53359" lon="5.33132">
        <ele>240.6</ele>
        <time>2021-11-20T14:06:04Z</time>
      </trkpt>
      <trkpt lat="46.53322" lon="5.33082">
        <ele>240.6</ele>
        <time>2021-11-20T14:06:12Z</time>
      </trkpt>
      <trkpt lat="46.53298" lon="5.33047">
        <ele>240.6</ele>
        <time>2021-11-20T14:06:17Z</time>
      </trkpt>
      <trkpt lat="46.5328" lon="5.33017">
        <ele>240.8</ele>
        <time>2021-11-20T14:06:21Z</time>
      </trkpt>
      <trkpt lat="46.53243" lon="5.32945">
        <ele>240</ele>
        <time>2021-11-20T14:06:29Z</time>
      </trkpt>
      <trkpt lat="46.53228" lon="5.32916">
        <ele>239.6</ele>
        <time>2021-11-20T14:06:32Z</time>
      </trkpt>
      <trkpt lat="46.53207" lon="5.32876">
        <ele>238.4</ele>
        <time>2021-11-20T14:06:36Z</time>
      </trkpt>
      <trkpt lat="46.53202" lon="5.32866">
        <ele>238</ele>
        <time>2021-11-20T14:06:37Z</time>
      </trkpt>
      <trkpt lat="46.53192" lon="5.32847">
        <ele>237.2</ele>
        <time>2021-11-20T14:06:39Z</time>
      </trkpt>
      <trkpt lat="46.53169" lon="5.32804">
        <ele>235.6</ele>
        <time>2021-11-20T14:06:43Z</time>
      </trkpt>
      <trkpt lat="46.53162" lon="5.32793">
        <ele>234.6</ele>
        <time>2021-11-20T14:06:44Z</time>
      </trkpt>
      <trkpt lat="46.5315" lon="5.32774">
        <ele>233.4</ele>
        <time>2021-11-20T14:06:46Z</time>
      </trkpt>
      <trkpt lat="46.53121" lon="5.32738">
        <ele>231.8</ele>
        <time>2021-11-20T14:06:50Z</time>
      </trkpt>
      <trkpt lat="46.53098" lon="5.32712">
        <ele>230</ele>
        <time>2021-11-20T14:06:53Z</time>
      </trkpt>
      <trkpt lat="46.53085" lon="5.32696">
        <ele>229</ele>
        <time>2021-11-20T14:06:55Z</time>
      </trkpt>
      <trkpt lat="46.53067" lon="5.32677">
        <ele>227.8</ele>
        <time>2021-11-20T14:06:57Z</time>
      </trkpt>
      <trkpt lat="46.53052" lon="5.32659">
        <ele>226.4</ele>
        <time>2021-11-20T14:06:59Z</time>
      </trkpt>
      <trkpt lat="46.53044" lon="5.3265">
        <ele>226</ele>
        <time>2021-11-20T14:07:00Z</time>
      </trkpt>
      <trkpt lat="46.53028" lon="5.32632">
        <ele>224.6</ele>
        <time>2021-11-20T14:07:02Z</time>
      </trkpt>
      <trkpt lat="46.53011" lon="5.32615">
        <ele>223.6</ele>
        <time>2021-11-20T14:07:04Z</time>
      </trkpt>
      <trkpt lat="46.52994" lon="5.32596">
        <ele>222.6</ele>
        <time>2021-11-20T14:07:06Z</time>
      </trkpt>
      <trkpt lat="46.52976" lon="5.32579">
        <ele>221.2</ele>
        <time>2021-11-20T14:07:08Z</time>
      </trkpt>
      <trkpt lat="46.52959" lon="5.32562">
        <ele>220</ele>
        <time>2021-11-20T14:07:10Z</time>
      </trkpt>
      <trkpt lat="46.52951" lon="5.32553">
        <ele>218.8</ele>
        <time>2021-11-20T14:07:11Z</time>
      </trkpt>
      <trkpt lat="46.52934" lon="5.32537">
        <ele>217.2</ele>
        <time>2021-11-20T14:07:13Z</time>
      </trkpt>
      <trkpt lat="46.52911" lon="5.32513">
        <ele>216.6</ele>
        <time>2021-11-20T14:07:16Z</time>
      </trkpt>
      <trkpt lat="46.52896" lon="5.32498">
        <ele>216</ele>
        <time>2021-11-20T14:07:18Z</time>
      </trkpt>
      <trkpt lat="46.52862" lon="5.32463">
        <ele>216</ele>
        <time>2021-11-20T14:07:23Z</time>
      </trkpt>
      <trkpt lat="46.52819" lon="5.32418">
        <ele>215.6</ele>
        <time>2021-11-20T14:07:30Z</time>
      </trkpt>
      <trkpt lat="46.5278" lon="5.32376">
        <ele>215.6</ele>
        <time>2021-11-20T14:07:37Z</time>
      </trkpt>
      <trkpt lat="46.52735" lon="5.32323">
        <ele>215.6</ele>
        <time>2021-11-20T14:07:45Z</time>
      </trkpt>
      <trkpt lat="46.52693" lon="5.3227">
        <ele>215.4</ele>
        <time>2021-11-20T14:07:53Z</time>
      </trkpt>
      <trkpt lat="46.52683" lon="5.32257">
        <ele>215.4</ele>
        <time>2021-11-20T14:07:55Z</time>
      </trkpt>
      <trkpt lat="46.5265" lon="5.32229">
        <ele>216.2</ele>
        <time>2021-11-20T14:08:01Z</time>
      </trkpt>
      <trkpt lat="46.52625" lon="5.32214">
        <ele>216.6</ele>
        <time>2021-11-20T14:08:06Z</time>
      </trkpt>
      <trkpt lat="46.52586" lon="5.32194">
        <ele>217.2</ele>
        <time>2021-11-20T14:08:14Z</time>
      </trkpt>
      <trkpt lat="46.52582" lon="5.32191">
        <ele>217.4</ele>
        <time>2021-11-20T14:08:15Z</time>
      </trkpt>
      <trkpt lat="46.52565" lon="5.32181">
        <ele>218.6</ele>
        <time>2021-11-20T14:08:19Z</time>
      </trkpt>
      <trkpt lat="46.52561" lon="5.32178">
        <ele>218.8</ele>
        <time>2021-11-20T14:08:20Z</time>
      </trkpt>
      <trkpt lat="46.52544" lon="5.32164">
        <ele>219.8</ele>
        <time>2021-11-20T14:08:24Z</time>
      </trkpt>
      <trkpt lat="46.52528" lon="5.32147">
        <ele>220.8</ele>
        <time>2021-11-20T14:08:28Z</time>
      </trkpt>
      <trkpt lat="46.52517" lon="5.32134">
        <ele>221.6</ele>
        <time>2021-11-20T14:08:31Z</time>
      </trkpt>
      <trkpt lat="46.52514" lon="5.32129">
        <ele>222</ele>
        <time>2021-11-20T14:08:32Z</time>
      </trkpt>
      <trkpt lat="46.52504" lon="5.32116">
        <ele>222.6</ele>
        <time>2021-11-20T14:08:35Z</time>
      </trkpt>
      <trkpt lat="46.52497" lon="5.32107">
        <ele>223.2</ele>
        <time>2021-11-20T14:08:37Z</time>
      </trkpt>
      <trkpt lat="46.52476" lon="5.32079">
        <ele>224.4</ele>
        <time>2021-11-20T14:08:43Z</time>
      </trkpt>
      <trkpt lat="46.5246" lon="5.32054">
        <ele>225.4</ele>
        <time>2021-11-20T14:08:48Z</time>
      </trkpt>
      <trkpt lat="46.52449" lon="5.3204">
        <ele>225.6</ele>
        <time>2021-11-20T14:08:51Z</time>
      </trkpt>
      <trkpt lat="46.52436" lon="5.3202">
        <ele>226.6</ele>
        <time>2021-11-20T14:08:55Z</time>
      </trkpt>
      <trkpt lat="46.52406" lon="5.31981">
        <ele>227.8</ele>
        <time>2021-11-20T14:09:03Z</time>
      </trkpt>
      <trkpt lat="46.52385" lon="5.3195">
        <ele>228.8</ele>
        <time>2021-11-20T14:09:09Z</time>
      </trkpt>
      <trkpt lat="46.52378" lon="5.31941">
        <ele>229</ele>
        <time>2021-11-20T14:09:11Z</time>
      </trkpt>
      <trkpt lat="46.52363" lon="5.31921">
        <ele>229.8</ele>
        <time>2021-11-20T14:09:15Z</time>
      </trkpt>
      <trkpt lat="46.52344" lon="5.31893">
        <ele>231</ele>
        <time>2021-11-20T14:09:20Z</time>
      </trkpt>
      <trkpt lat="46.52332" lon="5.31876">
        <ele>231.4</ele>
        <time>2021-11-20T14:09:23Z</time>
      </trkpt>
      <trkpt lat="46.52302" lon="5.31835">
        <ele>231.4</ele>
        <time>2021-11-20T14:09:29Z</time>
      </trkpt>
      <trkpt lat="46.52263" lon="5.31779">
        <ele>230</ele>
        <time>2021-11-20T14:09:36Z</time>
      </trkpt>
      <trkpt lat="46.52257" lon="5.31771">
        <ele>229.8</ele>
        <time>2021-11-20T14:09:37Z</time>
      </trkpt>
      <trkpt lat="46.52228" lon="5.31729">
        <ele>228.4</ele>
        <time>2021-11-20T14:09:42Z</time>
      </trkpt>
      <trkpt lat="46.5221" lon="5.31704">
        <ele>227.8</ele>
        <time>2021-11-20T14:09:45Z</time>
      </trkpt>
      <trkpt lat="46.52198" lon="5.31687">
        <ele>227.4</ele>
        <time>2021-11-20T14:09:47Z</time>
      </trkpt>
      <trkpt lat="46.52169" lon="5.31646">
        <ele>226.2</ele>
        <time>2021-11-20T14:09:52Z</time>
      </trkpt>
      <trkpt lat="46.52155" lon="5.31627">
        <ele>225.6</ele>
        <time>2021-11-20T14:09:54Z</time>
      </trkpt>
      <trkpt lat="46.5215" lon="5.3162">
        <ele>225.2</ele>
        <time>2021-11-20T14:09:55Z</time>
      </trkpt>
      <trkpt lat="46.5212" lon="5.31576">
        <ele>223.8</ele>
        <time>2021-11-20T14:10:00Z</time>
      </trkpt>
      <trkpt lat="46.521" lon="5.31546">
        <ele>223</ele>
        <time>2021-11-20T14:10:03Z</time>
      </trkpt>
      <trkpt lat="46.52093" lon="5.31537">
        <ele>222.8</ele>
        <time>2021-11-20T14:10:04Z</time>
      </trkpt>
      <trkpt lat="46.52068" lon="5.315">
        <ele>221.6</ele>
        <time>2021-11-20T14:10:08Z</time>
      </trkpt>
      <trkpt lat="46.52043" lon="5.31464">
        <ele>220.4</ele>
        <time>2021-11-20T14:10:12Z</time>
      </trkpt>
      <trkpt lat="46.5203" lon="5.31446">
        <ele>219.6</ele>
        <time>2021-11-20T14:10:14Z</time>
      </trkpt>
      <trkpt lat="46.52019" lon="5.31427">
        <ele>219.2</ele>
        <time>2021-11-20T14:10:16Z</time>
      </trkpt>
      <trkpt lat="46.51988" lon="5.31382">
        <ele>218.2</ele>
        <time>2021-11-20T14:10:21Z</time>
      </trkpt>
      <trkpt lat="46.51976" lon="5.31364">
        <ele>217.4</ele>
        <time>2021-11-20T14:10:23Z</time>
      </trkpt>
      <trkpt lat="46.51964" lon="5.31347">
        <ele>217.2</ele>
        <time>2021-11-20T14:10:25Z</time>
      </trkpt>
      <trkpt lat="46.51924" lon="5.31288">
        <ele>216.4</ele>
        <time>2021-11-20T14:10:32Z</time>
      </trkpt>
      <trkpt lat="46.51897" lon="5.31248">
        <ele>216.2</ele>
        <time>2021-11-20T14:10:37Z</time>
      </trkpt>
      <trkpt lat="46.51888" lon="5.31232">
        <ele>216</ele>
        <time>2021-11-20T14:10:39Z</time>
      </trkpt>
      <trkpt lat="46.51856" lon="5.31192">
        <ele>216</ele>
        <time>2021-11-20T14:10:45Z</time>
      </trkpt>
      <trkpt lat="46.51825" lon="5.31176">
        <ele>216</ele>
        <time>2021-11-20T14:10:50Z</time>
      </trkpt>
      <trkpt lat="46.51796" lon="5.31173">
        <ele>216.2</ele>
        <time>2021-11-20T14:10:55Z</time>
      </trkpt>
      <trkpt lat="46.51764" lon="5.31171">
        <ele>217.4</ele>
        <time>2021-11-20T14:11:01Z</time>
      </trkpt>
      <trkpt lat="46.51738" lon="5.31166">
        <ele>218.8</ele>
        <time>2021-11-20T14:11:06Z</time>
      </trkpt>
      <trkpt lat="46.51725" lon="5.31161">
        <ele>219.4</ele>
        <time>2021-11-20T14:11:09Z</time>
      </trkpt>
      <trkpt lat="46.51716" lon="5.31156">
        <ele>219.8</ele>
        <time>2021-11-20T14:11:11Z</time>
      </trkpt>
      <trkpt lat="46.51699" lon="5.31143">
        <ele>221.2</ele>
        <time>2021-11-20T14:11:15Z</time>
      </trkpt>
      <trkpt lat="46.51695" lon="5.31139">
        <ele>221.2</ele>
        <time>2021-11-20T14:11:16Z</time>
      </trkpt>
      <trkpt lat="46.51688" lon="5.3113">
        <ele>221.6</ele>
        <time>2021-11-20T14:11:18Z</time>
      </trkpt>
      <trkpt lat="46.51678" lon="5.31113">
        <ele>222.2</ele>
        <time>2021-11-20T14:11:21Z</time>
      </trkpt>
      <trkpt lat="46.51675" lon="5.31106">
        <ele>222.4</ele>
        <time>2021-11-20T14:11:22Z</time>
      </trkpt>
      <trkpt lat="46.51672" lon="5.311">
        <ele>222.6</ele>
        <time>2021-11-20T14:11:23Z</time>
      </trkpt>
      <trkpt lat="46.51663" lon="5.31093">
        <ele>223</ele>
        <time>2021-11-20T14:11:25Z</time>
      </trkpt>
      <trkpt lat="46.51649" lon="5.31097">
        <ele>223.2</ele>
        <time>2021-11-20T14:11:28Z</time>
      </trkpt>
      <trkpt lat="46.51643" lon="5.31098">
        <ele>223.2</ele>
        <time>2021-11-20T14:11:29Z</time>
      </trkpt>
      <trkpt lat="46.51637" lon="5.31098">
        <ele>223.2</ele>
        <time>2021-11-20T14:11:30Z</time>
      </trkpt>
      <trkpt lat="46.51631" lon="5.31096">
        <ele>223.4</ele>
        <time>2021-11-20T14:11:31Z</time>
      </trkpt>
      <trkpt lat="46.51625" lon="5.31094">
        <ele>223.4</ele>
        <time>2021-11-20T14:11:32Z</time>
      </trkpt>
      <trkpt lat="46.51593" lon="5.31078">
        <ele>223.2</ele>
        <time>2021-11-20T14:11:37Z</time>
      </trkpt>
      <trkpt lat="46.51552" lon="5.31071">
        <ele>222.2</ele>
        <time>2021-11-20T14:11:43Z</time>
      </trkpt>
      <trkpt lat="46.51545" lon="5.3107">
        <ele>222</ele>
        <time>2021-11-20T14:11:44Z</time>
      </trkpt>
      <trkpt lat="46.51497" lon="5.31068">
        <ele>221</ele>
        <time>2021-11-20T14:11:51Z</time>
      </trkpt>
      <trkpt lat="46.5149" lon="5.31068">
        <ele>221</ele>
        <time>2021-11-20T14:11:52Z</time>
      </trkpt>
      <trkpt lat="46.51438" lon="5.31067">
        <ele>220.8</ele>
        <time>2021-11-20T14:12:00Z</time>
      </trkpt>
      <trkpt lat="46.5138" lon="5.3107">
        <ele>220.8</ele>
        <time>2021-11-20T14:12:09Z</time>
      </trkpt>
      <trkpt lat="46.51323" lon="5.31074">
        <ele>221.2</ele>
        <time>2021-11-20T14:12:18Z</time>
      </trkpt>
      <trkpt lat="46.51303" lon="5.31075">
        <ele>221.2</ele>
        <time>2021-11-20T14:12:21Z</time>
      </trkpt>
      <trkpt lat="46.51257" lon="5.31081">
        <ele>221</ele>
        <time>2021-11-20T14:12:28Z</time>
      </trkpt>
      <trkpt lat="46.51251" lon="5.31084">
        <ele>220.8</ele>
        <time>2021-11-20T14:12:29Z</time>
      </trkpt>
      <trkpt lat="46.51245" lon="5.31089">
        <ele>220.8</ele>
        <time>2021-11-20T14:12:30Z</time>
      </trkpt>
      <trkpt lat="46.5123" lon="5.31105">
        <ele>220.8</ele>
        <time>2021-11-20T14:12:33Z</time>
      </trkpt>
      <trkpt lat="46.51194" lon="5.3115">
        <ele>221.4</ele>
        <time>2021-11-20T14:12:41Z</time>
      </trkpt>
      <trkpt lat="46.51173" lon="5.31177">
        <ele>222.4</ele>
        <time>2021-11-20T14:12:46Z</time>
      </trkpt>
      <trkpt lat="46.5116" lon="5.31194">
        <ele>222.6</ele>
        <time>2021-11-20T14:12:49Z</time>
      </trkpt>
      <trkpt lat="46.51131" lon="5.3123">
        <ele>223.2</ele>
        <time>2021-11-20T14:12:55Z</time>
      </trkpt>
      <trkpt lat="46.51123" lon="5.31242">
        <ele>223.4</ele>
        <time>2021-11-20T14:12:57Z</time>
      </trkpt>
      <trkpt lat="46.51104" lon="5.31262">
        <ele>223.8</ele>
        <time>2021-11-20T14:13:01Z</time>
      </trkpt>
      <trkpt lat="46.51079" lon="5.31293">
        <ele>224.4</ele>
        <time>2021-11-20T14:13:07Z</time>
      </trkpt>
      <trkpt lat="46.51076" lon="5.31299">
        <ele>224.6</ele>
        <time>2021-11-20T14:13:08Z</time>
      </trkpt>
      <trkpt lat="46.51073" lon="5.31305">
        <ele>224.8</ele>
        <time>2021-11-20T14:13:09Z</time>
      </trkpt>
      <trkpt lat="46.51069" lon="5.31317">
        <ele>225.2</ele>
        <time>2021-11-20T14:13:11Z</time>
      </trkpt>
      <trkpt lat="46.51068" lon="5.31324">
        <ele>225.6</ele>
        <time>2021-11-20T14:13:12Z</time>
      </trkpt>
      <trkpt lat="46.51066" lon="5.31337">
        <ele>226.2</ele>
        <time>2021-11-20T14:13:14Z</time>
      </trkpt>
      <trkpt lat="46.51067" lon="5.31344">
        <ele>226.6</ele>
        <time>2021-11-20T14:13:15Z</time>
      </trkpt>
      <trkpt lat="46.51067" lon="5.31357">
        <ele>227.4</ele>
        <time>2021-11-20T14:13:17Z</time>
      </trkpt>
      <trkpt lat="46.51067" lon="5.31372">
        <ele>228</ele>
        <time>2021-11-20T14:13:19Z</time>
      </trkpt>
      <trkpt lat="46.51066" lon="5.31385">
        <ele>228.2</ele>
        <time>2021-11-20T14:13:21Z</time>
      </trkpt>
      <trkpt lat="46.51065" lon="5.31399">
        <ele>228.2</ele>
        <time>2021-11-20T14:13:23Z</time>
      </trkpt>
      <trkpt lat="46.51059" lon="5.31433">
        <ele>229</ele>
        <time>2021-11-20T14:13:28Z</time>
      </trkpt>
      <trkpt lat="46.51053" lon="5.3146">
        <ele>229.8</ele>
        <time>2021-11-20T14:13:32Z</time>
      </trkpt>
      <trkpt lat="46.51051" lon="5.31474">
        <ele>230</ele>
        <time>2021-11-20T14:13:34Z</time>
      </trkpt>
      <trkpt lat="46.51042" lon="5.3152">
        <ele>231.2</ele>
        <time>2021-11-20T14:13:41Z</time>
      </trkpt>
      <trkpt lat="46.51038" lon="5.31532">
        <ele>231.8</ele>
        <time>2021-11-20T14:13:43Z</time>
      </trkpt>
      <trkpt lat="46.51035" lon="5.31544">
        <ele>232.4</ele>
        <time>2021-11-20T14:13:45Z</time>
      </trkpt>
      <trkpt lat="46.51029" lon="5.31558">
        <ele>233</ele>
        <time>2021-11-20T14:13:48Z</time>
      </trkpt>
      <trkpt lat="46.51026" lon="5.31563">
        <ele>233.4</ele>
        <time>2021-11-20T14:13:51Z</time>
      </trkpt>
      <trkpt lat="46.51026" lon="5.31563">
        <ele>233.4</ele>
        <time>2021-11-20T14:13:52Z</time>
      </trkpt>
      <trkpt lat="46.51026" lon="5.31563">
        <ele>233.6</ele>
        <time>2021-11-20T14:13:53Z</time>
      </trkpt>
      <trkpt lat="46.51024" lon="5.31565">
        <ele>233.8</ele>
        <time>2021-11-20T14:14:46Z</time>
      </trkpt>
      <trkpt lat="46.5102" lon="5.31568">
        <ele>233.8</ele>
        <time>2021-11-20T14:14:48Z</time>
      </trkpt>
      <trkpt lat="46.51005" lon="5.31582">
        <ele>233.6</ele>
        <time>2021-11-20T14:14:52Z</time>
      </trkpt>
      <trkpt lat="46.50983" lon="5.31604">
        <ele>233.6</ele>
        <time>2021-11-20T14:14:56Z</time>
      </trkpt>
      <trkpt lat="46.50942" lon="5.31648">
        <ele>233</ele>
        <time>2021-11-20T14:15:03Z</time>
      </trkpt>
      <trkpt lat="46.50911" lon="5.31679">
        <ele>233.2</ele>
        <time>2021-11-20T14:15:09Z</time>
      </trkpt>
      <trkpt lat="46.50878" lon="5.31713">
        <ele>234.6</ele>
        <time>2021-11-20T14:15:16Z</time>
      </trkpt>
      <trkpt lat="46.50851" lon="5.31737">
        <ele>235</ele>
        <time>2021-11-20T14:15:21Z</time>
      </trkpt>
      <trkpt lat="46.50845" lon="5.3174">
        <ele>235</ele>
        <time>2021-11-20T14:15:22Z</time>
      </trkpt>
      <trkpt lat="46.50838" lon="5.31741">
        <ele>235</ele>
        <time>2021-11-20T14:15:23Z</time>
      </trkpt>
      <trkpt lat="46.50824" lon="5.31737">
        <ele>235</ele>
        <time>2021-11-20T14:15:25Z</time>
      </trkpt>
      <trkpt lat="46.50792" lon="5.31712">
        <ele>234.8</ele>
        <time>2021-11-20T14:15:30Z</time>
      </trkpt>
      <trkpt lat="46.50771" lon="5.31701">
        <ele>234.4</ele>
        <time>2021-11-20T14:15:33Z</time>
      </trkpt>
      <trkpt lat="46.50757" lon="5.31699">
        <ele>234.2</ele>
        <time>2021-11-20T14:15:35Z</time>
      </trkpt>
      <trkpt lat="46.50706" lon="5.31703">
        <ele>234</ele>
        <time>2021-11-20T14:15:42Z</time>
      </trkpt>
      <trkpt lat="46.50677" lon="5.31706">
        <ele>233.8</ele>
        <time>2021-11-20T14:15:46Z</time>
      </trkpt>
      <trkpt lat="46.50663" lon="5.31712">
        <ele>233.8</ele>
        <time>2021-11-20T14:15:48Z</time>
      </trkpt>
      <trkpt lat="46.50651" lon="5.31721">
        <ele>233.8</ele>
        <time>2021-11-20T14:15:50Z</time>
      </trkpt>
      <trkpt lat="46.50646" lon="5.31728">
        <ele>233.8</ele>
        <time>2021-11-20T14:15:51Z</time>
      </trkpt>
      <trkpt lat="46.50627" lon="5.31774">
        <ele>233.8</ele>
        <time>2021-11-20T14:15:56Z</time>
      </trkpt>
      <trkpt lat="46.50609" lon="5.31822">
        <ele>233.6</ele>
        <time>2021-11-20T14:16:01Z</time>
      </trkpt>
      <trkpt lat="46.50591" lon="5.31873">
        <ele>232.8</ele>
        <time>2021-11-20T14:16:06Z</time>
      </trkpt>
      <trkpt lat="46.50583" lon="5.31895">
        <ele>232.4</ele>
        <time>2021-11-20T14:16:08Z</time>
      </trkpt>
      <trkpt lat="46.50567" lon="5.3194">
        <ele>231.2</ele>
        <time>2021-11-20T14:16:12Z</time>
      </trkpt>
      <trkpt lat="46.50559" lon="5.31963">
        <ele>230.8</ele>
        <time>2021-11-20T14:16:14Z</time>
      </trkpt>
      <trkpt lat="46.50555" lon="5.31974">
        <ele>230.2</ele>
        <time>2021-11-20T14:16:15Z</time>
      </trkpt>
      <trkpt lat="46.50544" lon="5.31995">
        <ele>229.2</ele>
        <time>2021-11-20T14:16:17Z</time>
      </trkpt>
      <trkpt lat="46.50538" lon="5.32005">
        <ele>228.8</ele>
        <time>2021-11-20T14:16:18Z</time>
      </trkpt>
      <trkpt lat="46.50525" lon="5.32023">
        <ele>227.4</ele>
        <time>2021-11-20T14:16:20Z</time>
      </trkpt>
      <trkpt lat="46.50502" lon="5.32062">
        <ele>226</ele>
        <time>2021-11-20T14:16:24Z</time>
      </trkpt>
      <trkpt lat="46.50497" lon="5.32072">
        <ele>225.8</ele>
        <time>2021-11-20T14:16:25Z</time>
      </trkpt>
      <trkpt lat="46.50483" lon="5.32102">
        <ele>224.8</ele>
        <time>2021-11-20T14:16:28Z</time>
      </trkpt>
      <trkpt lat="46.50476" lon="5.32121">
        <ele>224.6</ele>
        <time>2021-11-20T14:16:30Z</time>
      </trkpt>
      <trkpt lat="46.50462" lon="5.32169">
        <ele>224.4</ele>
        <time>2021-11-20T14:16:35Z</time>
      </trkpt>
      <trkpt lat="46.50459" lon="5.32177">
        <ele>224.2</ele>
        <time>2021-11-20T14:16:36Z</time>
      </trkpt>
      <trkpt lat="46.50454" lon="5.32183">
        <ele>224.2</ele>
        <time>2021-11-20T14:16:37Z</time>
      </trkpt>
      <trkpt lat="46.50444" lon="5.32191">
        <ele>224.2</ele>
        <time>2021-11-20T14:16:39Z</time>
      </trkpt>
      <trkpt lat="46.50435" lon="5.32194">
        <ele>223.8</ele>
        <time>2021-11-20T14:16:42Z</time>
      </trkpt>
      <trkpt lat="46.50433" lon="5.32194">
        <ele>223.8</ele>
        <time>2021-11-20T14:16:43Z</time>
      </trkpt>
      <trkpt lat="46.5043" lon="5.32197">
        <ele>223.8</ele>
        <time>2021-11-20T14:16:44Z</time>
      </trkpt>
      <trkpt lat="46.50428" lon="5.32207">
        <ele>223.6</ele>
        <time>2021-11-20T14:16:46Z</time>
      </trkpt>
      <trkpt lat="46.50429" lon="5.32246">
        <ele>223.6</ele>
        <time>2021-11-20T14:16:51Z</time>
      </trkpt>
      <trkpt lat="46.50435" lon="5.32302">
        <ele>223.8</ele>
        <time>2021-11-20T14:16:57Z</time>
      </trkpt>
      <trkpt lat="46.5045" lon="5.3237">
        <ele>224.6</ele>
        <time>2021-11-20T14:17:04Z</time>
      </trkpt>
      <trkpt lat="46.50466" lon="5.32449">
        <ele>224.4</ele>
        <time>2021-11-20T14:17:12Z</time>
      </trkpt>
      <trkpt lat="46.50472" lon="5.32525">
        <ele>225</ele>
        <time>2021-11-20T14:17:20Z</time>
      </trkpt>
      <trkpt lat="46.50472" lon="5.32534">
        <ele>225</ele>
        <time>2021-11-20T14:17:21Z</time>
      </trkpt>
      <trkpt lat="46.50475" lon="5.32615">
        <ele>226</ele>
        <time>2021-11-20T14:17:30Z</time>
      </trkpt>
      <trkpt lat="46.50475" lon="5.32623">
        <ele>226</ele>
        <time>2021-11-20T14:17:31Z</time>
      </trkpt>
      <trkpt lat="46.50475" lon="5.32677">
        <ele>226.6</ele>
        <time>2021-11-20T14:17:37Z</time>
      </trkpt>
      <trkpt lat="46.50473" lon="5.32721">
        <ele>227.2</ele>
        <time>2021-11-20T14:17:42Z</time>
      </trkpt>
      <trkpt lat="46.50472" lon="5.32764">
        <ele>227.6</ele>
        <time>2021-11-20T14:17:47Z</time>
      </trkpt>
      <trkpt lat="46.50471" lon="5.32843">
        <ele>228.2</ele>
        <time>2021-11-20T14:17:56Z</time>
      </trkpt>
      <trkpt lat="46.50471" lon="5.32851">
        <ele>228.2</ele>
        <time>2021-11-20T14:17:57Z</time>
      </trkpt>
      <trkpt lat="46.5047" lon="5.32912">
        <ele>229.2</ele>
        <time>2021-11-20T14:18:05Z</time>
      </trkpt>
      <trkpt lat="46.50469" lon="5.32939">
        <ele>230.4</ele>
        <time>2021-11-20T14:18:09Z</time>
      </trkpt>
      <trkpt lat="46.50469" lon="5.32966">
        <ele>231.6</ele>
        <time>2021-11-20T14:18:13Z</time>
      </trkpt>
      <trkpt lat="46.50469" lon="5.32973">
        <ele>231.8</ele>
        <time>2021-11-20T14:18:14Z</time>
      </trkpt>
      <trkpt lat="46.50469" lon="5.32993">
        <ele>232.6</ele>
        <time>2021-11-20T14:18:17Z</time>
      </trkpt>
      <trkpt lat="46.50469" lon="5.33026">
        <ele>233.6</ele>
        <time>2021-11-20T14:18:22Z</time>
      </trkpt>
      <trkpt lat="46.50468" lon="5.33059">
        <ele>234.6</ele>
        <time>2021-11-20T14:18:27Z</time>
      </trkpt>
      <trkpt lat="46.50469" lon="5.33084">
        <ele>236</ele>
        <time>2021-11-20T14:18:31Z</time>
      </trkpt>
      <trkpt lat="46.50468" lon="5.3309">
        <ele>236</ele>
        <time>2021-11-20T14:18:32Z</time>
      </trkpt>
      <trkpt lat="46.50467" lon="5.33102">
        <ele>236.4</ele>
        <time>2021-11-20T14:18:34Z</time>
      </trkpt>
      <trkpt lat="46.50467" lon="5.33119">
        <ele>237.2</ele>
        <time>2021-11-20T14:18:37Z</time>
      </trkpt>
      <trkpt lat="46.50465" lon="5.33146">
        <ele>238.4</ele>
        <time>2021-11-20T14:18:42Z</time>
      </trkpt>
      <trkpt lat="46.50464" lon="5.33159">
        <ele>238.8</ele>
        <time>2021-11-20T14:18:44Z</time>
      </trkpt>
      <trkpt lat="46.50463" lon="5.33172">
        <ele>239.4</ele>
        <time>2021-11-20T14:18:46Z</time>
      </trkpt>
      <trkpt lat="46.50464" lon="5.33206">
        <ele>240.4</ele>
        <time>2021-11-20T14:18:51Z</time>
      </trkpt>
      <trkpt lat="46.50464" lon="5.33213">
        <ele>240.6</ele>
        <time>2021-11-20T14:18:52Z</time>
      </trkpt>
      <trkpt lat="46.50464" lon="5.33221">
        <ele>240.8</ele>
        <time>2021-11-20T14:18:53Z</time>
      </trkpt>
      <trkpt lat="46.50464" lon="5.33252">
        <ele>241.2</ele>
        <time>2021-11-20T14:18:57Z</time>
      </trkpt>
      <trkpt lat="46.50464" lon="5.33305">
        <ele>241.2</ele>
        <time>2021-11-20T14:19:03Z</time>
      </trkpt>
      <trkpt lat="46.5046" lon="5.33369">
        <ele>241</ele>
        <time>2021-11-20T14:19:10Z</time>
      </trkpt>
      <trkpt lat="46.50458" lon="5.33378">
        <ele>241</ele>
        <time>2021-11-20T14:19:11Z</time>
      </trkpt>
      <trkpt lat="46.50446" lon="5.33419">
        <ele>240.6</ele>
        <time>2021-11-20T14:19:16Z</time>
      </trkpt>
      <trkpt lat="46.50426" lon="5.3345">
        <ele>240.8</ele>
        <time>2021-11-20T14:19:21Z</time>
      </trkpt>
      <trkpt lat="46.504" lon="5.33481">
        <ele>241.2</ele>
        <time>2021-11-20T14:19:27Z</time>
      </trkpt>
      <trkpt lat="46.50391" lon="5.3349">
        <ele>241.4</ele>
        <time>2021-11-20T14:19:29Z</time>
      </trkpt>
      <trkpt lat="46.5036" lon="5.33524">
        <ele>242.4</ele>
        <time>2021-11-20T14:19:36Z</time>
      </trkpt>
      <trkpt lat="46.5035" lon="5.33534">
        <ele>242.8</ele>
        <time>2021-11-20T14:19:38Z</time>
      </trkpt>
      <trkpt lat="46.50312" lon="5.33574">
        <ele>243.2</ele>
        <time>2021-11-20T14:19:46Z</time>
      </trkpt>
      <trkpt lat="46.50307" lon="5.33579">
        <ele>243.4</ele>
        <time>2021-11-20T14:19:47Z</time>
      </trkpt>
      <trkpt lat="46.50261" lon="5.3363">
        <ele>244</ele>
        <time>2021-11-20T14:19:57Z</time>
      </trkpt>
      <trkpt lat="46.50233" lon="5.33659">
        <ele>244.4</ele>
        <time>2021-11-20T14:20:03Z</time>
      </trkpt>
      <trkpt lat="46.50206" lon="5.33689">
        <ele>244.8</ele>
        <time>2021-11-20T14:20:09Z</time>
      </trkpt>
      <trkpt lat="46.5016" lon="5.33736">
        <ele>245.4</ele>
        <time>2021-11-20T14:20:18Z</time>
      </trkpt>
      <trkpt lat="46.50155" lon="5.33742">
        <ele>245.4</ele>
        <time>2021-11-20T14:20:19Z</time>
      </trkpt>
      <trkpt lat="46.5011" lon="5.3379">
        <ele>244.8</ele>
        <time>2021-11-20T14:20:27Z</time>
      </trkpt>
      <trkpt lat="46.50062" lon="5.3384">
        <ele>244.8</ele>
        <time>2021-11-20T14:20:36Z</time>
      </trkpt>
      <trkpt lat="46.50043" lon="5.3386">
        <ele>245.4</ele>
        <time>2021-11-20T14:20:40Z</time>
      </trkpt>
      <trkpt lat="46.50029" lon="5.33876">
        <ele>245.8</ele>
        <time>2021-11-20T14:20:43Z</time>
      </trkpt>
      <trkpt lat="46.5" lon="5.33908">
        <ele>246.4</ele>
        <time>2021-11-20T14:20:49Z</time>
      </trkpt>
      <trkpt lat="46.49984" lon="5.33924">
        <ele>247</ele>
        <time>2021-11-20T14:20:52Z</time>
      </trkpt>
      <trkpt lat="46.49958" lon="5.33952">
        <ele>247.6</ele>
        <time>2021-11-20T14:20:57Z</time>
      </trkpt>
      <trkpt lat="46.49941" lon="5.3397">
        <ele>247.6</ele>
        <time>2021-11-20T14:21:00Z</time>
      </trkpt>
      <trkpt lat="46.49905" lon="5.3401">
        <ele>247.2</ele>
        <time>2021-11-20T14:21:06Z</time>
      </trkpt>
      <trkpt lat="46.49885" lon="5.34032">
        <ele>246.4</ele>
        <time>2021-11-20T14:21:09Z</time>
      </trkpt>
      <trkpt lat="46.49854" lon="5.34069">
        <ele>245.2</ele>
        <time>2021-11-20T14:21:14Z</time>
      </trkpt>
      <trkpt lat="46.49849" lon="5.34077">
        <ele>245</ele>
        <time>2021-11-20T14:21:15Z</time>
      </trkpt>
      <trkpt lat="46.49819" lon="5.34124">
        <ele>244.8</ele>
        <time>2021-11-20T14:21:21Z</time>
      </trkpt>
      <trkpt lat="46.49781" lon="5.34188">
        <ele>245</ele>
        <time>2021-11-20T14:21:29Z</time>
      </trkpt>
      <trkpt lat="46.49761" lon="5.34222">
        <ele>245</ele>
        <time>2021-11-20T14:21:33Z</time>
      </trkpt>
      <trkpt lat="46.49723" lon="5.34288">
        <ele>244.4</ele>
        <time>2021-11-20T14:21:41Z</time>
      </trkpt>
      <trkpt lat="46.49719" lon="5.34296">
        <ele>244.4</ele>
        <time>2021-11-20T14:21:42Z</time>
      </trkpt>
      <trkpt lat="46.49696" lon="5.34361">
        <ele>244.6</ele>
        <time>2021-11-20T14:21:49Z</time>
      </trkpt>
      <trkpt lat="46.49674" lon="5.34437">
        <ele>243.8</ele>
        <time>2021-11-20T14:21:56Z</time>
      </trkpt>
      <trkpt lat="46.49665" lon="5.34472">
        <ele>242.6</ele>
        <time>2021-11-20T14:21:59Z</time>
      </trkpt>
      <trkpt lat="46.49651" lon="5.34518">
        <ele>241.8</ele>
        <time>2021-11-20T14:22:03Z</time>
      </trkpt>
      <trkpt lat="46.49647" lon="5.34529">
        <ele>241.6</ele>
        <time>2021-11-20T14:22:04Z</time>
      </trkpt>
      <trkpt lat="46.49627" lon="5.34553">
        <ele>241</ele>
        <time>2021-11-20T14:22:07Z</time>
      </trkpt>
      <trkpt lat="46.49614" lon="5.34568">
        <ele>240.6</ele>
        <time>2021-11-20T14:22:09Z</time>
      </trkpt>
      <trkpt lat="46.49597" lon="5.34593">
        <ele>240</ele>
        <time>2021-11-20T14:22:12Z</time>
      </trkpt>
      <trkpt lat="46.49571" lon="5.34631">
        <ele>240</ele>
        <time>2021-11-20T14:22:17Z</time>
      </trkpt>
      <trkpt lat="46.49548" lon="5.3466">
        <ele>240.4</ele>
        <time>2021-11-20T14:22:22Z</time>
      </trkpt>
      <trkpt lat="46.49523" lon="5.34687">
        <ele>241.6</ele>
        <time>2021-11-20T14:22:28Z</time>
      </trkpt>
      <trkpt lat="46.4952" lon="5.34693">
        <ele>241.8</ele>
        <time>2021-11-20T14:22:29Z</time>
      </trkpt>
      <trkpt lat="46.49505" lon="5.34709">
        <ele>242.8</ele>
        <time>2021-11-20T14:22:33Z</time>
      </trkpt>
      <trkpt lat="46.49501" lon="5.34713">
        <ele>243</ele>
        <time>2021-11-20T14:22:34Z</time>
      </trkpt>
      <trkpt lat="46.4949" lon="5.34726">
        <ele>244</ele>
        <time>2021-11-20T14:22:37Z</time>
      </trkpt>
      <trkpt lat="46.49483" lon="5.34734">
        <ele>244.6</ele>
        <time>2021-11-20T14:22:39Z</time>
      </trkpt>
      <trkpt lat="46.49476" lon="5.34741">
        <ele>245</ele>
        <time>2021-11-20T14:22:41Z</time>
      </trkpt>
      <trkpt lat="46.49467" lon="5.3475">
        <ele>246.2</ele>
        <time>2021-11-20T14:22:44Z</time>
      </trkpt>
      <trkpt lat="46.49464" lon="5.34753">
        <ele>246.4</ele>
        <time>2021-11-20T14:22:45Z</time>
      </trkpt>
      <trkpt lat="46.49455" lon="5.34763">
        <ele>247.2</ele>
        <time>2021-11-20T14:22:48Z</time>
      </trkpt>
      <trkpt lat="46.49448" lon="5.34771">
        <ele>247.8</ele>
        <time>2021-11-20T14:22:51Z</time>
      </trkpt>
      <trkpt lat="46.49442" lon="5.34776">
        <ele>248.4</ele>
        <time>2021-11-20T14:22:53Z</time>
      </trkpt>
      <trkpt lat="46.49431" lon="5.34785">
        <ele>249.2</ele>
        <time>2021-11-20T14:22:56Z</time>
      </trkpt>
      <trkpt lat="46.49428" lon="5.34788">
        <ele>249.6</ele>
        <time>2021-11-20T14:22:57Z</time>
      </trkpt>
      <trkpt lat="46.49407" lon="5.34803">
        <ele>250.4</ele>
        <time>2021-11-20T14:23:02Z</time>
      </trkpt>
      <trkpt lat="46.49373" lon="5.34817">
        <ele>251.4</ele>
        <time>2021-11-20T14:23:09Z</time>
      </trkpt>
      <trkpt lat="46.49368" lon="5.34817">
        <ele>251.4</ele>
        <time>2021-11-20T14:23:10Z</time>
      </trkpt>
      <trkpt lat="46.49342" lon="5.34824">
        <ele>251.6</ele>
        <time>2021-11-20T14:23:14Z</time>
      </trkpt>
      <trkpt lat="46.49299" lon="5.34836">
        <ele>251.4</ele>
        <time>2021-11-20T14:23:21Z</time>
      </trkpt>
      <trkpt lat="46.49273" lon="5.34853">
        <ele>251.6</ele>
        <time>2021-11-20T14:23:26Z</time>
      </trkpt>
      <trkpt lat="46.49269" lon="5.34858">
        <ele>251.6</ele>
        <time>2021-11-20T14:23:27Z</time>
      </trkpt>
      <trkpt lat="46.49242" lon="5.34899">
        <ele>251.6</ele>
        <time>2021-11-20T14:23:34Z</time>
      </trkpt>
      <trkpt lat="46.49204" lon="5.34959">
        <ele>251.8</ele>
        <time>2021-11-20T14:23:43Z</time>
      </trkpt>
      <trkpt lat="46.492" lon="5.34964">
        <ele>252</ele>
        <time>2021-11-20T14:23:44Z</time>
      </trkpt>
      <trkpt lat="46.49172" lon="5.34999">
        <ele>252.2</ele>
        <time>2021-11-20T14:23:50Z</time>
      </trkpt>
      <trkpt lat="46.49144" lon="5.35026">
        <ele>252.6</ele>
        <time>2021-11-20T14:23:55Z</time>
      </trkpt>
      <trkpt lat="46.49138" lon="5.35031">
        <ele>252.6</ele>
        <time>2021-11-20T14:23:56Z</time>
      </trkpt>
      <trkpt lat="46.49099" lon="5.35065">
        <ele>253.2</ele>
        <time>2021-11-20T14:24:04Z</time>
      </trkpt>
      <trkpt lat="46.49079" lon="5.35081">
        <ele>253.6</ele>
        <time>2021-11-20T14:24:08Z</time>
      </trkpt>
      <trkpt lat="46.49061" lon="5.35099">
        <ele>254.2</ele>
        <time>2021-11-20T14:24:12Z</time>
      </trkpt>
      <trkpt lat="46.4904" lon="5.35119">
        <ele>254.6</ele>
        <time>2021-11-20T14:24:17Z</time>
      </trkpt>
      <trkpt lat="46.49029" lon="5.35137">
        <ele>255</ele>
        <time>2021-11-20T14:24:20Z</time>
      </trkpt>
      <trkpt lat="46.49005" lon="5.35192">
        <ele>255.2</ele>
        <time>2021-11-20T14:24:27Z</time>
      </trkpt>
      <trkpt lat="46.4898" lon="5.35247">
        <ele>254.4</ele>
        <time>2021-11-20T14:24:33Z</time>
      </trkpt>
      <trkpt lat="46.48954" lon="5.35304">
        <ele>253.4</ele>
        <time>2021-11-20T14:24:39Z</time>
      </trkpt>
      <trkpt lat="46.48942" lon="5.35333">
        <ele>253</ele>
        <time>2021-11-20T14:24:42Z</time>
      </trkpt>
      <trkpt lat="46.48909" lon="5.35406">
        <ele>253</ele>
        <time>2021-11-20T14:24:50Z</time>
      </trkpt>
      <trkpt lat="46.48901" lon="5.35423">
        <ele>253.2</ele>
        <time>2021-11-20T14:24:52Z</time>
      </trkpt>
      <trkpt lat="46.48874" lon="5.35487">
        <ele>253.8</ele>
        <time>2021-11-20T14:25:00Z</time>
      </trkpt>
      <trkpt lat="46.48843" lon="5.35559">
        <ele>254.4</ele>
        <time>2021-11-20T14:25:09Z</time>
      </trkpt>
      <trkpt lat="46.48812" lon="5.35629">
        <ele>254.4</ele>
        <time>2021-11-20T14:25:17Z</time>
      </trkpt>
      <trkpt lat="46.48801" lon="5.35655">
        <ele>254.4</ele>
        <time>2021-11-20T14:25:20Z</time>
      </trkpt>
      <trkpt lat="46.4877" lon="5.35726">
        <ele>254.2</ele>
        <time>2021-11-20T14:25:28Z</time>
      </trkpt>
      <trkpt lat="46.48757" lon="5.35753">
        <ele>254.2</ele>
        <time>2021-11-20T14:25:31Z</time>
      </trkpt>
      <trkpt lat="46.48725" lon="5.35826">
        <ele>254.2</ele>
        <time>2021-11-20T14:25:40Z</time>
      </trkpt>
      <trkpt lat="46.48709" lon="5.35866">
        <ele>254.6</ele>
        <time>2021-11-20T14:25:45Z</time>
      </trkpt>
      <trkpt lat="46.48695" lon="5.35896">
        <ele>255.2</ele>
        <time>2021-11-20T14:25:49Z</time>
      </trkpt>
      <trkpt lat="46.48684" lon="5.35933">
        <ele>256.2</ele>
        <time>2021-11-20T14:25:54Z</time>
      </trkpt>
      <trkpt lat="46.48682" lon="5.35941">
        <ele>256.2</ele>
        <time>2021-11-20T14:25:55Z</time>
      </trkpt>
      <trkpt lat="46.48676" lon="5.35981">
        <ele>257.4</ele>
        <time>2021-11-20T14:26:00Z</time>
      </trkpt>
      <trkpt lat="46.48672" lon="5.36006">
        <ele>257.6</ele>
        <time>2021-11-20T14:26:03Z</time>
      </trkpt>
      <trkpt lat="46.4866" lon="5.36064">
        <ele>257.6</ele>
        <time>2021-11-20T14:26:09Z</time>
      </trkpt>
      <trkpt lat="46.48645" lon="5.3614">
        <ele>256.4</ele>
        <time>2021-11-20T14:26:16Z</time>
      </trkpt>
      <trkpt lat="46.48638" lon="5.36209">
        <ele>256</ele>
        <time>2021-11-20T14:26:23Z</time>
      </trkpt>
      <trkpt lat="46.4863" lon="5.36283">
        <ele>256.4</ele>
        <time>2021-11-20T14:26:31Z</time>
      </trkpt>
      <trkpt lat="46.48624" lon="5.36304">
        <ele>257</ele>
        <time>2021-11-20T14:26:34Z</time>
      </trkpt>
      <trkpt lat="46.48621" lon="5.3631">
        <ele>257.4</ele>
        <time>2021-11-20T14:26:35Z</time>
      </trkpt>
      <trkpt lat="46.48616" lon="5.36315">
        <ele>257.4</ele>
        <time>2021-11-20T14:26:36Z</time>
      </trkpt>
      <trkpt lat="46.48608" lon="5.36321">
        <ele>257.8</ele>
        <time>2021-11-20T14:26:38Z</time>
      </trkpt>
      <trkpt lat="46.48603" lon="5.36322">
        <ele>258</ele>
        <time>2021-11-20T14:26:39Z</time>
      </trkpt>
      <trkpt lat="46.48593" lon="5.36323">
        <ele>258.6</ele>
        <time>2021-11-20T14:26:41Z</time>
      </trkpt>
      <trkpt lat="46.48574" lon="5.36324">
        <ele>259.6</ele>
        <time>2021-11-20T14:26:45Z</time>
      </trkpt>
      <trkpt lat="46.48559" lon="5.36326">
        <ele>260.6</ele>
        <time>2021-11-20T14:26:48Z</time>
      </trkpt>
      <trkpt lat="46.48554" lon="5.36327">
        <ele>260.6</ele>
        <time>2021-11-20T14:26:49Z</time>
      </trkpt>
      <trkpt lat="46.48523" lon="5.36331">
        <ele>261.8</ele>
        <time>2021-11-20T14:26:55Z</time>
      </trkpt>
      <trkpt lat="46.48518" lon="5.36332">
        <ele>262</ele>
        <time>2021-11-20T14:26:56Z</time>
      </trkpt>
      <trkpt lat="46.48474" lon="5.36339">
        <ele>262.8</ele>
        <time>2021-11-20T14:27:04Z</time>
      </trkpt>
      <trkpt lat="46.48464" lon="5.36341">
        <ele>263</ele>
        <time>2021-11-20T14:27:06Z</time>
      </trkpt>
      <trkpt lat="46.48426" lon="5.36349">
        <ele>263.4</ele>
        <time>2021-11-20T14:27:13Z</time>
      </trkpt>
      <trkpt lat="46.48419" lon="5.36352">
        <ele>263.4</ele>
        <time>2021-11-20T14:27:14Z</time>
      </trkpt>
      <trkpt lat="46.48388" lon="5.36377">
        <ele>263.6</ele>
        <time>2021-11-20T14:27:20Z</time>
      </trkpt>
      <trkpt lat="46.48355" lon="5.36413">
        <ele>264</ele>
        <time>2021-11-20T14:27:27Z</time>
      </trkpt>
      <trkpt lat="46.48351" lon="5.36418">
        <ele>264.2</ele>
        <time>2021-11-20T14:27:28Z</time>
      </trkpt>
      <trkpt lat="46.48309" lon="5.36464">
        <ele>265.4</ele>
        <time>2021-11-20T14:27:38Z</time>
      </trkpt>
      <trkpt lat="46.48283" lon="5.36493">
        <ele>266.4</ele>
        <time>2021-11-20T14:27:44Z</time>
      </trkpt>
      <trkpt lat="46.48275" lon="5.36503">
        <ele>266.8</ele>
        <time>2021-11-20T14:27:46Z</time>
      </trkpt>
      <trkpt lat="46.48254" lon="5.36528">
        <ele>267.4</ele>
        <time>2021-11-20T14:27:51Z</time>
      </trkpt>
      <trkpt lat="46.48236" lon="5.36546">
        <ele>268.2</ele>
        <time>2021-11-20T14:27:55Z</time>
      </trkpt>
      <trkpt lat="46.48228" lon="5.36554">
        <ele>268.4</ele>
        <time>2021-11-20T14:27:57Z</time>
      </trkpt>
      <trkpt lat="46.48224" lon="5.36556">
        <ele>268.6</ele>
        <time>2021-11-20T14:27:58Z</time>
      </trkpt>
      <trkpt lat="46.48218" lon="5.36557">
        <ele>268.8</ele>
        <time>2021-11-20T14:27:59Z</time>
      </trkpt>
      <trkpt lat="46.48207" lon="5.36558">
        <ele>269.2</ele>
        <time>2021-11-20T14:28:01Z</time>
      </trkpt>
      <trkpt lat="46.48198" lon="5.36563">
        <ele>269.6</ele>
        <time>2021-11-20T14:28:03Z</time>
      </trkpt>
      <trkpt lat="46.48194" lon="5.36568">
        <ele>269.6</ele>
        <time>2021-11-20T14:28:04Z</time>
      </trkpt>
      <trkpt lat="46.48191" lon="5.36574">
        <ele>269.8</ele>
        <time>2021-11-20T14:28:05Z</time>
      </trkpt>
      <trkpt lat="46.48184" lon="5.36597">
        <ele>270</ele>
        <time>2021-11-20T14:28:08Z</time>
      </trkpt>
      <trkpt lat="46.48163" lon="5.36623">
        <ele>270.4</ele>
        <time>2021-11-20T14:28:13Z</time>
      </trkpt>
      <trkpt lat="46.48154" lon="5.36631">
        <ele>270.6</ele>
        <time>2021-11-20T14:28:15Z</time>
      </trkpt>
      <trkpt lat="46.4814" lon="5.36644">
        <ele>270.8</ele>
        <time>2021-11-20T14:28:18Z</time>
      </trkpt>
      <trkpt lat="46.48136" lon="5.36648">
        <ele>271</ele>
        <time>2021-11-20T14:28:19Z</time>
      </trkpt>
      <trkpt lat="46.4812" lon="5.36665">
        <ele>271.4</ele>
        <time>2021-11-20T14:28:23Z</time>
      </trkpt>
      <trkpt lat="46.48106" lon="5.36685">
        <ele>271.8</ele>
        <time>2021-11-20T14:28:28Z</time>
      </trkpt>
      <trkpt lat="46.48105" lon="5.36689">
        <ele>272</ele>
        <time>2021-11-20T14:28:29Z</time>
      </trkpt>
      <trkpt lat="46.48106" lon="5.36694">
        <ele>272</ele>
        <time>2021-11-20T14:28:30Z</time>
      </trkpt>
      <trkpt lat="46.48108" lon="5.36699">
        <ele>272.2</ele>
        <time>2021-11-20T14:28:31Z</time>
      </trkpt>
      <trkpt lat="46.48125" lon="5.36717">
        <ele>273</ele>
        <time>2021-11-20T14:28:36Z</time>
      </trkpt>
      <trkpt lat="46.48148" lon="5.36737">
        <ele>274.2</ele>
        <time>2021-11-20T14:28:42Z</time>
      </trkpt>
      <trkpt lat="46.48158" lon="5.36746">
        <ele>274.8</ele>
        <time>2021-11-20T14:28:45Z</time>
      </trkpt>
      <trkpt lat="46.48165" lon="5.36751">
        <ele>275.2</ele>
        <time>2021-11-20T14:28:47Z</time>
      </trkpt>
      <trkpt lat="46.48185" lon="5.36769">
        <ele>276.4</ele>
        <time>2021-11-20T14:28:53Z</time>
      </trkpt>
      <trkpt lat="46.48192" lon="5.36776">
        <ele>276.6</ele>
        <time>2021-11-20T14:28:55Z</time>
      </trkpt>
      <trkpt lat="46.48205" lon="5.36788">
        <ele>277.6</ele>
        <time>2021-11-20T14:28:59Z</time>
      </trkpt>
      <trkpt lat="46.4822" lon="5.368">
        <ele>278.8</ele>
        <time>2021-11-20T14:29:04Z</time>
      </trkpt>
      <trkpt lat="46.48236" lon="5.36813">
        <ele>280</ele>
        <time>2021-11-20T14:29:09Z</time>
      </trkpt>
      <trkpt lat="46.48248" lon="5.36823">
        <ele>280.8</ele>
        <time>2021-11-20T14:29:13Z</time>
      </trkpt>
      <trkpt lat="46.48254" lon="5.36829">
        <ele>281.2</ele>
        <time>2021-11-20T14:29:15Z</time>
      </trkpt>
    </trkseg>
  </trk>
</gpx>